# Wetter Temperatur Luftdruck Luftfeuchtigkeit Sichtweite Windgeschwindigkeit Windrichtung Zeit
1 Clouds 8 1020 82 10000 0.78 263 10:49 14.08.2022
2 Clouds 9 1020 78 10000 0.64 326 08:50 14.08.2022
3 Clouds 8 1034 66 10000 1.03 0 06:21 14.08.2022
4 Clouds 11 1032 54 10000 2.57 90 02:48 14.08.2022
5 Clouds 17 1028 27 10000 4.63 20 23:53 13.08.2022
6 Clouds 21 1028 20 10000 6.69 350 22:52 13.08.2022
7 Clouds 19 1030 21 10000 2.06 0 20:58 13.08.2022
8 Clouds 19 1030 21 10000 2.06 0 20:31 13.08.2022
9 Clouds 18 1032 30 10000 1.54 100 19:29 13.08.2022
10 Clouds 15 1034 36 10000 1.54 190 17:42 13.08.2022
11 Clouds 6 1035 53 10000 1.03 0 15:26 13.08.2022
12 Clouds 3 1035 65 10000 1.03 0 14:27 13.08.2022
13 Clear 1 1034 75 10000 1.54 80 13:39 13.08.2022
14 Clear 8 1021 88 10000 0.91 268 11:52 13.08.2022
15 Clear 8 1020 84 10000 0.87 270 10:21 13.08.2022
16 Clear 9 1020 81 10000 1 289 08:23 13.08.2022
17 Clear 9 1020 81 10000 1 289 08:23 13.08.2022
18 Clouds 6 1033 53 10000 1.54 90 05:22 13.08.2022
19 Clouds 18 1028 16 10000 5.14 30 23:52 12.08.2022
20 Clouds 21 1028 19 10000 2.57 0 21:42 12.08.2022
21 Clouds 20 1029 21 10000 1.03 0 20:51 12.08.2022
22 Clouds 18 1031 24 10000 2.06 130 19:39 12.08.2022
23 Clouds 17 1032 24 10000 2.57 330 18:46 12.08.2022
24 Clouds 13 1034 41 10000 1.54 0 17:21 12.08.2022
25 Clouds 8 1035 61 10000 1.54 0 15:49 12.08.2022
26 Clear 4 1035 75 10000 0 0 14:29 12.08.2022
27 Clear 0 1034 93 10000 1.54 290 12:53 12.08.2022
28 Clear 8 1020 85 10000 1.19 277 10:35 12.08.2022
29 Clouds 9 1020 79 10000 1.08 275 07:47 12.08.2022
30 Clouds 9 1034 61 10000 1.03 240 06:38 12.08.2022
31 Clouds 11 1032 50 10000 2.06 40 02:39 12.08.2022
32 Rain 15 1029 41 10000 6.69 130 00:26 12.08.2022
33 Clouds 18 1028 27 10000 5.66 30 23:35 11.08.2022
34 Clouds 21 1028 23 10000 4.12 30 22:26 11.08.2022
35 Clouds 20 1028 21 10000 3.09 0 21:40 11.08.2022
36 Clouds 19 1030 22 10000 1.54 0 20:51 11.08.2022
37 Clouds 19 1030 22 10000 1.54 0 20:19 11.08.2022
38 Clouds 16 1032 34 10000 3.09 0 19:32 11.08.2022
39 Clouds 16 1034 39 10000 2.57 60 17:48 11.08.2022
40 Clouds 12 1021 53 10000 1.38 255 16:35 11.08.2022
41 Clouds 12 1035 62 10000 1.03 110 15:24 11.08.2022
42 Clouds 7 1034 76 10000 0.51 0 13:37 11.08.2022
43 Clouds 8 1021 79 10000 0.85 307 10:27 11.08.2022
44 Clouds 8 1021 78 10000 0.92 2 07:38 11.08.2022
45 Clouds 10 1034 62 10000 2.06 110 03:54 11.08.2022
46 Clouds 14 1030 47 10000 5.14 360 00:50 11.08.2022
47 Clouds 18 1029 27 10000 3.6 280 22:32 10.08.2022
48 Clouds 18 1030 26 10000 3.09 340 21:25 10.08.2022
49 Clouds 19 1031 26 10000 2.57 330 20:55 10.08.2022
50 Clouds 17 1033 32 10000 2.57 30 19:31 10.08.2022
51 Clouds 15 1035 41 10000 2.06 80 18:22 10.08.2022
52 Clouds 11 1036 58 10000 1.03 0 16:41 10.08.2022
53 Clouds 6 1035 81 10000 2.06 90 13:36 10.08.2022
54 Clouds 6 1034 76 10000 1.03 0 12:44 10.08.2022
55 Clouds 7 1023 83 10000 1.36 7 09:55 10.08.2022
56 Clouds 7 1023 84 10000 1.46 3 08:35 10.08.2022
57 Clouds 8 1024 85 10000 1.93 15 07:20 10.08.2022
58 Clear 10 1033 58 10000 1.54 0 03:32 10.08.2022
59 Clouds 16 1030 34 10000 6.69 270 23:51 09.08.2022
60 Clouds 17 1030 29 10000 7.72 290 23:24 09.08.2022
61 Rain 19 1030 28 10000 9.26 280 21:36 09.08.2022
62 Clouds 19 1030 30 10000 6.69 270 20:40 09.08.2022
63 Clouds 14 1034 41 10000 1.54 0 18:45 09.08.2022
64 Clouds 11 1036 58 10000 1.03 0 17:31 09.08.2022
65 Clouds 9 1036 62 10000 1.03 0 16:42 09.08.2022
66 Clouds 5 1036 81 10000 1.54 90 15:59 09.08.2022
67 Clouds 4 1035 87 10000 1.03 0 14:28 09.08.2022
68 Clear 6 1021 89 10000 0.74 298 10:39 09.08.2022
69 Clear 6 1021 88 10000 1.21 320 08:51 09.08.2022
70 Clear 7 1021 87 10000 1.17 321 07:54 09.08.2022
71 Clouds 7 1033 71 10000 1.03 0 04:28 09.08.2022
72 Clouds 13 1029 47 10000 5.66 300 23:46 08.08.2022
73 Clouds 13 1029 51 10000 4.63 190 22:57 08.08.2022
74 Clouds 13 1029 51 10000 4.63 190 22:35 08.08.2022
75 Clouds 15 1029 39 10000 5.66 270 21:30 08.08.2022
76 Clouds 14 1031 44 10000 2.57 0 19:57 08.08.2022
77 Clouds 13 1031 47 10000 2.06 80 19:22 08.08.2022
78 Clouds 13 1032 51 10000 1.54 0 17:34 08.08.2022
79 Clouds 9 1033 71 10000 1.03 0 15:46 08.08.2022
80 Clouds 8 1032 76 10000 0 0 14:33 08.08.2022
81 Clouds 5 1030 87 10000 1.54 100 12:29 08.08.2022
82 Clouds 8 1017 78 10000 1.59 9 10:23 08.08.2022
83 Clouds 7 1031 76 10000 1.54 290 06:56 08.08.2022
84 Clouds 8 1030 76 10000 3.09 90 03:34 08.08.2022
85 Clouds 15 1027 39 10000 6.17 300 22:44 07.08.2022
86 Clouds 15 1027 41 10000 6.17 290 21:40 07.08.2022
87 Clouds 16 1028 39 10000 3.6 320 20:42 07.08.2022
88 Clouds 16 1029 36 10000 6.69 300 20:18 07.08.2022
89 Clouds 16 1029 39 10000 2.57 140 19:41 07.08.2022
90 Clouds 13 1031 47 10000 1.54 0 18:36 07.08.2022
91 Clouds 11 1032 58 10000 1.03 0 17:18 07.08.2022
92 Clouds 10 1033 66 10000 1.54 240 16:38 07.08.2022
93 Clouds 9 1032 71 10000 3.6 290 15:24 07.08.2022
94 Clouds 9 1031 71 10000 1.03 0 13:37 07.08.2022
95 Clouds 9 1029 66 10000 1.03 0 12:18 07.08.2022
96 Rain 8 1018 89 10000 2.51 307 10:35 07.08.2022
97 Clouds 9 1018 81 10000 1.71 321 07:59 07.08.2022
98 Clouds 12 1028 47 10000 4.63 290 03:32 07.08.2022
99 Clouds 13 1027 41 10000 3.09 270 01:45 07.08.2022
100 Clouds 15 1026 31 10000 1.54 140 22:25 06.08.2022
101 Clouds 17 1027 29 10000 4.63 310 21:28 06.08.2022
102 Clouds 17 1028 25 10000 4.12 300 19:42 06.08.2022
103 Clouds 16 1031 33 10000 2.06 0 18:33 06.08.2022
104 Clouds 14 1031 38 10000 2.06 40 17:37 06.08.2022
105 Clouds 8 1031 76 10000 1.54 100 14:52 06.08.2022
106 Clouds 7 1031 76 10000 1.03 0 13:49 06.08.2022
107 Clouds 9 1030 71 10000 0.51 0 12:19 06.08.2022
108 Clouds 8 1018 79 10000 1.91 271 10:33 06.08.2022
109 Clouds 8 1018 80 10000 2.05 315 09:21 06.08.2022
110 Clouds 9 1029 62 10000 0 0 03:55 06.08.2022
111 Clouds 16 1026 36 10000 5.14 300 23:56 05.08.2022
112 Clouds 17 1025 34 10000 4.12 330 22:33 05.08.2022
113 Clouds 16 1028 42 10000 4.63 290 20:20 05.08.2022
114 Clouds 14 1030 47 10000 2.06 40 18:47 05.08.2022
115 Clouds 14 1031 47 10000 1.03 150 18:27 05.08.2022
116 Clouds 10 1033 66 10000 1.03 0 16:50 05.08.2022
117 Clouds 6 1033 87 10000 1.03 70 15:23 05.08.2022
118 Clouds 7 1033 76 10000 1.03 70 14:33 05.08.2022
119 Clouds 5 1032 87 10000 1.54 100 13:25 05.08.2022
120 Clouds 5 1031 87 10000 0 0 12:44 05.08.2022
121 Clouds 7 1018 78 10000 1.53 304 10:55 05.08.2022
122 Clouds 8 1018 79 10000 1.47 335 08:45 05.08.2022
123 Clouds 8 1019 80 10000 1.65 8 07:28 05.08.2022
124 Clouds 12 1028 54 10000 1.54 280 01:52 05.08.2022
125 Clouds 15 1025 41 10000 4.63 90 22:40 04.08.2022
126 Clouds 20 1027 23 10000 3.09 0 21:27 04.08.2022
127 Clouds 18 1027 24 10000 3.6 290 20:45 04.08.2022
128 Clouds 17 1029 25 10000 2.57 300 19:58 04.08.2022
129 Clouds 16 1030 31 10000 3.09 240 18:52 04.08.2022
130 Clouds 15 1031 31 10000 1.54 0 18:33 04.08.2022
131 Clouds 8 1032 66 10000 1.54 90 14:50 04.08.2022
132 Clouds 7 1031 76 10000 1.54 100 13:23 04.08.2022
133 Clouds 8 1018 76 10000 1.23 300 11:38 04.08.2022
134 Clouds 8 1017 74 10000 1.14 335 09:58 04.08.2022
135 Clouds 9 1018 77 10000 1.63 344 07:31 04.08.2022
136 Clear 11 1028 58 10000 3.09 110 02:42 04.08.2022
137 Clouds 18 1024 30 10000 6.17 10 23:52 03.08.2022
138 Clouds 18 1024 30 10000 6.17 10 23:33 03.08.2022
139 Clear 21 1026 20 10000 1.54 0 21:26 03.08.2022
140 Clear 20 1028 21 10000 3.09 360 20:19 03.08.2022
141 Clear 16 1030 31 10000 2.06 0 18:40 03.08.2022
142 Clear 10 1033 58 10000 1.03 0 16:27 03.08.2022
143 Clear 10 1033 62 10000 1.03 0 15:53 03.08.2022
144 Clear 2 1032 87 10000 0.51 0 13:38 03.08.2022
145 Clear 6 1018 86 10000 0.86 283 10:44 03.08.2022
146 Clouds 9 1018 78 10000 1.21 329 07:21 03.08.2022
147 Clouds 10 1031 58 10000 1.54 110 04:22 03.08.2022
148 Clouds 11 1029 58 10000 2.06 0 03:22 03.08.2022
149 Clouds 16 1027 36 10000 3.09 330 00:46 03.08.2022
150 Clouds 18 1026 30 10000 2.06 350 22:33 02.08.2022
151 Clouds 19 1027 28 10000 2.57 0 21:50 02.08.2022
152 Clouds 18 1028 30 10000 1.54 90 20:27 02.08.2022
153 Clouds 12 1032 47 10000 1.03 0 17:47 02.08.2022
154 Clouds 3 1031 87 10000 0 0 14:39 02.08.2022
155 Clouds 6 1019 83 10000 1.28 312 10:49 02.08.2022
156 Clouds 7 1019 81 10000 1.38 312 08:38 02.08.2022
157 Clouds 8 1019 78 10000 1.43 343 07:51 02.08.2022
158 Clouds 8 1031 66 10000 0.51 0 04:59 02.08.2022
159 Clouds 9 1030 62 10000 2.57 90 03:36 02.08.2022
160 Clouds 19 1026 26 10000 4.12 10 23:32 01.08.2022
161 Clouds 18 1026 27 10000 3.09 310 21:54 01.08.2022
162 Clouds 19 1027 28 10000 4.12 260 20:34 01.08.2022
163 Clouds 17 1030 32 10000 2.06 0 19:22 01.08.2022
164 Clouds 13 1033 50 10000 2.06 260 17:22 01.08.2022
165 Clouds 12 1033 50 10000 1.03 0 16:49 01.08.2022
166 Clouds 8 1033 57 10000 1.54 130 15:48 01.08.2022
167 Clouds 6 1033 61 10000 1.54 80 15:28 01.08.2022
168 Clouds 2 1032 75 10000 1.03 0 13:44 01.08.2022
169 Clear 6 1020 85 10000 1.63 316 11:38 01.08.2022
170 Clear 7 1019 84 10000 1.72 315 09:38 01.08.2022
171 Clear 8 1019 83 10000 1.75 312 08:20 01.08.2022
172 Clear 11 1030 30 10000 1.03 0 04:44 01.08.2022
173 Clear 14 1027 25 10000 4.63 280 02:31 01.08.2022
174 Clear 23 1025 13 10000 2.06 0 22:54 31.07.2022
175 Clear 22 1026 13 10000 2.57 320 22:36 31.07.2022
176 Clear 22 1028 7 10000 2.57 0 20:46 31.07.2022
177 Clear 19 1030 18 10000 1.54 0 19:25 31.07.2022
178 Clear 16 1032 29 10000 1.54 0 17:43 31.07.2022
179 Clear 7 1034 53 10000 1.03 0 15:30 31.07.2022
180 Clear 2 1033 75 10000 0 0 13:21 31.07.2022
181 Clear 7 1019 82 10000 1.25 266 11:45 31.07.2022
182 Clear 8 1018 81 10000 1.33 273 09:27 31.07.2022
183 Clear 5 1031 56 10000 1.54 280 06:37 31.07.2022
184 Clear 13 1028 35 10000 4.63 270 02:56 31.07.2022
185 Clear 21 1027 13 10000 2.57 10 23:23 30.07.2022
186 Clear 21 1027 13 10000 3.09 0 22:19 30.07.2022
187 Clear 21 1028 15 10000 2.06 0 21:40 30.07.2022
188 Clouds 21 1029 21 10000 3.09 0 20:38 30.07.2022
189 Clouds 19 1031 28 10000 1.54 0 19:57 30.07.2022
190 Clouds 16 1033 39 10000 1.03 0 18:23 30.07.2022
191 Clouds 12 1035 47 10000 1.03 0 16:44 30.07.2022
192 Clouds 7 1035 57 10000 1.03 0 15:34 30.07.2022
193 Clouds 2 1034 75 10000 1.54 80 14:32 30.07.2022
194 Clouds 1 1033 75 10000 0.51 70 12:43 30.07.2022
195 Clouds 6 1022 89 10000 1.34 275 11:55 30.07.2022
196 Clouds 6 1021 86 10000 1.54 291 10:20 30.07.2022
197 Clouds 6 1021 86 10000 1.54 291 09:45 30.07.2022
198 Clear 7 1021 84 10000 1.61 318 07:44 30.07.2022
199 Clear 11 1031 32 10000 2.06 70 02:34 30.07.2022
200 Clear 11 1031 32 10000 2.06 70 02:34 30.07.2022
201 Clear 14 1030 26 10000 1.54 0 01:43 30.07.2022
202 Clear 20 1029 6 10000 2.57 90 21:39 29.07.2022
203 Clear 19 1030 6 10000 2.57 0 20:58 29.07.2022
204 Clear 20 1031 5 10000 2.57 0 19:48 29.07.2022
205 Clear 13 1034 13 10000 1.03 0 17:40 29.07.2022
206 Clear 5 1036 28 10000 0.51 0 15:19 29.07.2022
207 Clear -2 1034 55 10000 0.51 80 12:59 29.07.2022
208 Clear 7 1020 75 10000 0.42 197 09:49 29.07.2022
209 Clear 7 1020 73 10000 0.37 223 08:48 29.07.2022
210 Clear 8 1020 71 10000 0.36 300 07:39 29.07.2022
211 Clouds 15 1029 6 10000 2.57 180 01:46 29.07.2022
212 Clouds 20 1028 6 10000 5.66 30 22:41 28.07.2022
213 Clear 21 1030 7 10000 1.54 0 20:59 28.07.2022
214 Smoke 21 1030 8 10000 2.57 160 20:27 28.07.2022
215 Smoke 18 1032 10 10000 1.54 0 19:42 28.07.2022
216 Smoke 18 1033 12 10000 0.51 0 18:48 28.07.2022
217 Clear 14 1034 21 10000 1.03 0 17:43 28.07.2022
218 Clouds 11 1035 22 10000 2.06 60 16:42 28.07.2022
219 Clouds 6 1036 36 10000 1.03 0 15:24 28.07.2022
220 Clouds -2 1034 59 10000 1.03 290 12:51 28.07.2022
221 Clouds 7 1021 86 10000 0.7 229 10:36 28.07.2022
222 Clear 3 1034 33 10000 0.51 0 06:25 28.07.2022
223 Clear 4 1033 28 10000 2.06 290 05:27 28.07.2022
224 Clouds 16 1029 13 10000 4.63 360 00:45 28.07.2022
225 Clouds 20 1029 8 10000 5.66 30 22:34 27.07.2022
226 Clouds 20 1029 14 10000 2.06 30 21:27 27.07.2022
227 Clouds 18 1031 24 10000 2.06 0 19:37 27.07.2022
228 Clouds 14 1035 44 10000 1.03 0 17:39 27.07.2022
229 Clouds 7 1036 61 10000 0 0 15:52 27.07.2022
230 Clouds 4 1035 75 10000 1.03 100 14:55 27.07.2022
231 Clouds 3 1035 81 10000 1.54 90 14:33 27.07.2022
232 Clear 1 1034 87 10000 0 0 12:49 27.07.2022
233 Clouds 7 1022 82 10000 1.06 1 07:53 27.07.2022
234 Clouds 7 1022 82 10000 1.06 1 07:53 27.07.2022
235 Clouds 6 1034 65 10000 2.06 280 06:21 27.07.2022
236 Clouds 13 1031 41 10000 2.06 0 01:35 27.07.2022
237 Clouds 19 1028 21 10000 3.6 10 22:26 26.07.2022
238 Clouds 21 1029 17 10000 4.12 30 21:20 26.07.2022
239 Clouds 19 1030 19 10000 4.63 350 20:28 26.07.2022
240 Clouds 16 1032 34 10000 2.57 0 18:43 26.07.2022
241 Clouds 13 1034 47 10000 2.06 0 17:58 26.07.2022
242 Haze 10 1035 58 10000 0.51 0 15:59 26.07.2022
243 Haze 7 1034 66 10000 1.03 0 15:18 26.07.2022
244 Clouds 1 1033 87 10000 1.03 280 13:20 26.07.2022
245 Clouds 7 1021 84 10000 0.72 30 11:20 26.07.2022
246 Clouds 8 1020 82 10000 1.18 12 08:55 26.07.2022
247 Clouds 7 1033 66 10000 0.51 0 05:53 26.07.2022
248 Clouds 14 1029 41 10000 6.17 20 00:37 26.07.2022
249 Clouds 17 1027 34 10000 5.14 20 22:53 25.07.2022
250 Clouds 18 1027 32 10000 5.14 360 22:25 25.07.2022
251 Clouds 19 1027 28 10000 4.12 20 21:41 25.07.2022
252 Clouds 17 1028 32 10000 4.63 10 20:41 25.07.2022
253 Clouds 17 1029 34 10000 4.12 100 19:46 25.07.2022
254 Clouds 17 1032 34 10000 1.54 0 18:19 25.07.2022
255 Clouds 13 1033 51 10000 1.03 0 17:27 25.07.2022
256 Clouds 13 1033 51 10000 1.03 0 17:27 25.07.2022
257 Clouds 6 1034 76 10000 1.54 90 14:59 25.07.2022
258 Clouds 3 1033 87 10000 1.03 100 12:22 25.07.2022
259 Clouds 7 1020 86 10000 1.06 291 09:58 25.07.2022
260 Clear 9 1032 62 10000 2.06 270 04:38 25.07.2022
261 Clouds 20 1026 18 10000 4.63 310 23:54 24.07.2022
262 Clouds 21 1026 18 10000 2.57 240 23:18 24.07.2022
263 Clouds 20 1026 19 10000 2.06 0 22:29 24.07.2022
264 Clouds 22 1027 21 10000 1.54 0 21:23 24.07.2022
265 Clouds 20 1028 21 10000 3.09 300 20:50 24.07.2022
266 Clouds 19 1029 22 10000 2.57 40 20:26 24.07.2022
267 Clouds 16 1031 34 10000 1.54 0 18:48 24.07.2022
268 Clouds 10 1033 62 10000 1.54 60 16:32 24.07.2022
269 Clouds 9 1033 62 10000 1.03 0 15:50 24.07.2022
270 Clouds 6 1033 76 10000 1.54 90 14:35 24.07.2022
271 Clouds 2 1032 81 10000 1.03 0 12:54 24.07.2022
272 Clouds 6 1019 88 10000 0.73 281 11:40 24.07.2022
273 Clouds 6 1019 87 10000 1.03 301 11:18 24.07.2022
274 Clouds 7 1019 86 10000 1.55 319 08:48 24.07.2022
275 Clouds 7 1019 84 10000 1.86 326 07:52 24.07.2022
276 Clouds 7 1031 71 10000 2.06 270 06:18 24.07.2022
277 Clouds 16 1027 31 10000 3.6 310 01:27 24.07.2022
278 Clouds 20 1026 18 10000 3.09 0 22:21 23.07.2022
279 Clouds 20 1028 19 10000 3.6 30 20:31 23.07.2022
280 Clouds 17 1031 24 10000 1.54 0 18:51 23.07.2022
281 Clouds 14 1032 33 10000 1.03 0 17:41 23.07.2022
282 Clouds 12 1033 35 10000 1.54 80 17:23 23.07.2022
283 Haze 6 1033 53 10000 1.03 0 15:32 23.07.2022
284 Haze 4 1033 60 10000 1.54 80 14:59 23.07.2022
285 Haze 1 1033 69 10000 0 0 14:30 23.07.2022
286 Clouds 0 1032 69 10000 0 0 13:39 23.07.2022
287 Clouds 6 1019 86 10000 0.43 291 11:18 23.07.2022
288 Clear 7 1019 85 10000 0.83 307 10:22 23.07.2022
289 Clear 7 1019 84 10000 1.02 321 08:55 23.07.2022
290 Clear 8 1030 37 10000 1.03 0 03:40 23.07.2022
291 Clouds 15 1028 25 10000 3.6 30 01:58 23.07.2022
292 Clouds 21 1025 9 10000 3.09 0 23:19 22.07.2022
293 Clear 21 1028 11 10000 1.03 0 20:57 22.07.2022
294 Clear 19 1030 13 10000 2.06 100 19:46 22.07.2022
295 Clear 16 1017 34 10000 1.06 283 18:29 22.07.2022
296 Clear 11 1034 20 10000 1.54 30 17:28 22.07.2022
297 Clear 3 1035 52 10000 0.51 90 14:57 22.07.2022
298 Clear 6 1020 87 10000 1.01 343 11:49 22.07.2022
299 Clear 7 1019 86 10000 1.23 314 09:43 22.07.2022
300 Clear 7 1019 85 10000 1.4 335 09:18 22.07.2022
301 Clear 8 1019 82 10000 1.46 359 07:21 22.07.2022
302 Clear 9 1031 32 10000 1.03 0 03:59 22.07.2022
303 Clear 20 1027 9 10000 1.54 0 22:53 21.07.2022
304 Clear 21 1028 9 10000 2.06 0 21:34 21.07.2022
305 Clouds 18 1031 16 10000 3.09 40 19:30 21.07.2022
306 Clouds 16 1033 23 10000 1.03 0 18:28 21.07.2022
307 Clouds 13 1034 23 10000 1.54 50 17:19 21.07.2022
308 Clouds 7 1035 39 10000 0.51 0 15:39 21.07.2022
309 Clouds 3 1035 52 10000 0.51 90 14:39 21.07.2022
310 Clouds -1 1034 69 10000 0 0 12:46 21.07.2022
311 Clear 6 1020 78 10000 0.29 178 11:23 21.07.2022
312 Clear 6 1020 77 10000 0.26 196 09:42 21.07.2022
313 Clear 7 1020 77 10000 0.48 266 08:52 21.07.2022
314 Clouds 7 1020 76 10000 0.72 316 07:50 21.07.2022
315 Clouds 4 1033 52 10000 1.03 0 06:25 21.07.2022
316 Clouds 15 1030 13 10000 3.6 310 01:54 21.07.2022
317 Clouds 20 1029 8 10000 4.63 360 22:24 20.07.2022
318 Clouds 19 1029 6 10000 5.14 10 21:42 20.07.2022
319 Clouds 19 1030 11 10000 2.57 0 20:45 20.07.2022
320 Clouds 18 1032 14 10000 1.03 0 19:46 20.07.2022
321 Clouds 15 1033 29 10000 1.54 0 18:53 20.07.2022
322 Clouds 14 1034 33 10000 1.54 0 18:30 20.07.2022
323 Clouds 10 1036 46 10000 2.57 110 16:49 20.07.2022
324 Clouds 4 1036 60 10000 1.03 0 15:32 20.07.2022
325 Clouds 2 1036 70 10000 1.03 100 14:35 20.07.2022
326 Clouds 0 1035 75 10000 1.03 0 12:41 20.07.2022
327 Clouds 4 1023 71 10000 0.66 12 10:29 20.07.2022
328 Clear 4 1034 60 10000 1.54 280 05:52 20.07.2022
329 Clouds 15 1031 27 10000 4.12 10 00:58 20.07.2022
330 Clouds 15 1031 27 10000 4.12 10 00:40 20.07.2022
331 Clouds 17 1031 16 10000 5.14 40 22:35 19.07.2022
332 Clouds 18 1032 16 10000 4.63 40 21:54 19.07.2022
333 Clouds 17 1032 20 10000 5.66 10 20:49 19.07.2022
334 Clouds 16 1034 27 10000 5.14 360 19:22 19.07.2022
335 Clouds 16 1034 29 10000 1.54 0 18:35 19.07.2022
336 Clouds 13 1035 44 10000 1.54 0 17:53 19.07.2022
337 Clouds 6 1037 70 10000 0 0 15:27 19.07.2022
338 Clouds 1 1036 87 10000 0.51 300 13:33 19.07.2022
339 Clouds 6 1023 80 10000 0.65 50 11:32 19.07.2022
340 Clouds 6 1022 81 10000 0.7 30 09:52 19.07.2022
341 Clouds 7 1022 81 10000 0.99 38 08:47 19.07.2022
342 Clouds 7 1022 83 10000 0.98 16 07:46 19.07.2022
343 Clouds 8 1023 83 10000 1.43 14 07:18 19.07.2022
344 Clouds 7 1035 66 10000 2.57 280 05:18 19.07.2022
345 Clouds 12 1033 47 10000 1.54 30 02:38 19.07.2022
346 Clouds 15 1031 39 10000 2.57 110 23:54 18.07.2022
347 Clouds 17 1031 34 10000 2.57 150 23:20 18.07.2022
348 Clouds 16 1031 39 10000 1.03 0 22:26 18.07.2022
349 Clouds 16 1032 39 10000 2.06 70 21:20 18.07.2022
350 Clouds 14 1034 44 10000 1.54 0 20:22 18.07.2022
351 Clouds 13 1035 47 10000 1.03 0 18:31 18.07.2022
352 Clouds 11 1036 54 10000 1.54 260 16:34 18.07.2022
353 Clouds 9 1036 62 10000 2.06 100 15:28 18.07.2022
354 Clouds 7 1034 71 10000 1.03 0 13:32 18.07.2022
355 Clouds 6 1022 85 10000 1.17 53 11:44 18.07.2022
356 Clouds 7 1022 83 10000 1.02 342 09:55 18.07.2022
357 Clouds 7 1022 83 10000 1.02 342 09:55 18.07.2022
358 Clouds 8 1022 81 10000 1.44 4 07:59 18.07.2022
359 Clouds 9 1033 62 10000 2.57 280 05:25 18.07.2022
360 Clouds 19 1028 24 10000 4.63 280 23:19 17.07.2022
361 Clouds 18 1028 30 10000 3.09 20 22:32 17.07.2022
362 Clouds 20 1029 28 10000 2.57 0 21:40 17.07.2022
363 Clouds 19 1030 28 10000 2.06 0 20:46 17.07.2022
364 Clouds 17 1031 34 10000 3.6 0 19:50 17.07.2022
365 Clouds 16 1032 34 10000 2.57 0 19:24 17.07.2022
366 Clouds 14 1034 41 10000 1.54 0 17:55 17.07.2022
367 Clouds 13 1034 47 10000 1.54 0 17:36 17.07.2022
368 Clouds 11 1034 50 10000 1.54 20 16:45 17.07.2022
369 Clouds 9 1035 53 10000 1.03 0 16:22 17.07.2022
370 Clouds 1 1033 80 10000 0.51 0 13:58 17.07.2022
371 Clouds 1 1033 80 10000 1.03 280 13:24 17.07.2022
372 Clouds 6 1020 83 10000 0.83 342 10:23 17.07.2022
373 Clouds 7 1020 83 10000 1.74 3 07:55 17.07.2022
374 Clouds 10 1030 46 10000 3.09 310 02:36 17.07.2022
375 Clouds 13 1028 38 10000 5.14 260 00:33 17.07.2022
376 Clouds 19 1026 24 10000 6.17 300 23:18 16.07.2022
377 Clouds 20 1027 23 10000 7.2 300 20:53 16.07.2022
378 Clouds 17 1030 32 10000 1.54 0 18:59 16.07.2022
379 Clouds 14 1031 41 10000 1.03 0 17:48 16.07.2022
380 Clouds 10 1032 58 10000 1.03 0 16:23 16.07.2022
381 Clouds 2 1031 81 10000 0 0 13:35 16.07.2022
382 Clouds 6 1018 88 10000 1.47 284 10:34 16.07.2022
383 Clear 7 1018 87 10000 1.61 319 09:28 16.07.2022
384 Clear 7 1018 87 10000 1.61 319 08:41 16.07.2022
385 Clear 7 1019 86 10000 1.68 327 07:40 16.07.2022
386 Clear 11 1029 50 10000 1.03 0 03:38 16.07.2022
387 Clouds 17 1026 29 10000 4.12 310 00:48 16.07.2022
388 Clouds 20 1026 19 10000 5.14 300 23:21 15.07.2022
389 Clouds 20 1026 19 10000 4.63 290 22:37 15.07.2022
390 Clouds 20 1027 18 10000 6.69 280 20:47 15.07.2022
391 Clouds 19 1029 17 10000 2.57 0 19:49 15.07.2022
392 Clouds 16 1031 20 10000 2.06 0 18:30 15.07.2022
393 Clouds 12 1032 30 10000 1.03 0 17:19 15.07.2022
394 Clouds 2 1032 70 10000 0 0 14:24 15.07.2022
395 Clouds 6 1019 92 10000 1.3 278 12:43 15.07.2022
396 Clouds 6 1018 90 10000 1.38 277 10:53 15.07.2022
397 Clouds 7 1018 86 10000 1.64 324 07:55 15.07.2022
398 Clouds 7 1030 53 10000 0.51 0 05:54 15.07.2022
399 Clouds 16 1028 29 10000 4.63 310 00:51 15.07.2022
400 Clouds 19 1027 24 10000 5.14 300 23:25 14.07.2022
401 Clouds 19 1027 24 10000 6.17 300 22:42 14.07.2022
402 Clouds 20 1027 19 10000 4.63 300 21:42 14.07.2022
403 Clouds 19 1028 21 10000 5.66 280 21:24 14.07.2022
404 Clouds 18 1028 26 10000 2.06 20 20:43 14.07.2022
405 Clouds 18 1029 24 10000 2.57 0 20:19 14.07.2022
406 Clouds 16 1031 31 10000 2.57 340 18:38 14.07.2022
407 Clouds 11 1034 54 10000 1.54 0 16:21 14.07.2022
408 Clouds 7 1034 71 10000 0 0 15:26 14.07.2022
409 Clouds 3 1032 81 10000 1.03 300 13:52 14.07.2022
410 Clouds 4 1032 81 10000 0 0 12:40 14.07.2022
411 Clouds 5 1021 93 10000 1.08 262 11:41 14.07.2022
412 Clouds 5 1020 92 10000 1.02 258 11:21 14.07.2022
413 Clouds 6 1020 90 10000 1.24 264 09:49 14.07.2022
414 Clouds 6 1031 65 10000 1.54 290 05:20 14.07.2022
415 Clouds 14 1028 44 10000 4.63 300 01:22 14.07.2022
416 Clouds 15 1028 39 10000 3.6 310 00:52 14.07.2022
417 Clouds 18 1028 30 10000 5.66 300 22:32 13.07.2022
418 Clouds 19 1028 30 10000 4.63 300 21:51 13.07.2022
419 Clouds 17 1029 32 10000 3.6 250 20:45 13.07.2022
420 Clouds 18 1031 32 10000 1.54 0 19:19 13.07.2022
421 Clouds 14 1033 41 10000 1.54 0 17:35 13.07.2022
422 Clouds 11 1034 58 10000 1.03 0 16:23 13.07.2022
423 Clouds 9 1034 66 10000 2.06 80 15:24 13.07.2022
424 Clouds 6 1032 81 10000 1.54 70 12:39 13.07.2022
425 Clouds 7 1020 82 10000 1.45 318 10:45 13.07.2022
426 Clouds 7 1020 82 10000 1.63 335 09:57 13.07.2022
427 Clouds 7 1020 81 10000 1.6 341 09:21 13.07.2022
428 Clear 7 1032 71 10000 0.51 260 06:19 13.07.2022
429 Clouds 14 1029 47 10000 2.57 360 01:27 13.07.2022
430 Clouds 19 1027 24 10000 4.63 300 23:42 12.07.2022
431 Clouds 20 1027 23 10000 3.09 240 21:55 12.07.2022
432 Clouds 18 1027 27 10000 1.54 0 21:19 12.07.2022
433 Clouds 19 1028 30 10000 1.54 0 20:41 12.07.2022
434 Clouds 17 1030 32 10000 2.06 0 19:26 12.07.2022
435 Clouds 14 1033 47 10000 1.03 0 17:49 12.07.2022
436 Clouds 8 1034 66 10000 1.03 0 15:57 12.07.2022
437 Clouds 4 1033 81 10000 1.54 90 14:30 12.07.2022
438 Clouds 2 1032 87 10000 0.51 0 12:29 12.07.2022
439 Clouds 7 1019 85 10000 1.36 296 11:22 12.07.2022
440 Clouds 7 1018 84 10000 1.44 318 09:38 12.07.2022
441 Clear 8 1018 83 10000 1.53 345 08:23 12.07.2022
442 Clear 5 1031 75 10000 2.57 290 06:49 12.07.2022
443 Clear 6 1031 70 10000 1.54 270 05:42 12.07.2022
444 Clear 13 1028 35 10000 2.57 290 02:32 12.07.2022
445 Clouds 21 1026 10 10000 5.14 240 23:28 11.07.2022
446 Clouds 20 1026 11 10000 3.6 240 22:30 11.07.2022
447 Clouds 21 1027 15 10000 3.09 350 20:41 11.07.2022
448 Clouds 19 1029 18 10000 1.54 0 19:36 11.07.2022
449 Clouds 15 1031 36 10000 1.54 0 18:32 11.07.2022
450 Clouds 15 1031 36 10000 1.54 0 18:32 11.07.2022
451 Clouds 15 1032 39 10000 1.03 0 17:49 11.07.2022
452 Clouds 9 1034 57 10000 1.03 0 16:20 11.07.2022
453 Clouds 5 1033 70 10000 0 0 14:41 11.07.2022
454 Clouds 5 1020 91 10000 1 230 11:58 11.07.2022
455 Clouds 6 1020 89 10000 1.02 256 10:35 11.07.2022
456 Clouds 6 1019 87 10000 1.09 295 09:43 11.07.2022
457 Clouds 6 1020 85 10000 1.3 290 08:34 11.07.2022
458 Clouds 7 1032 61 10000 2.06 300 05:52 11.07.2022
459 Clouds 18 1028 29 10000 5.14 290 00:22 11.07.2022
460 Clouds 18 1028 27 10000 5.14 250 23:28 10.07.2022
461 Clouds 20 1029 21 10000 5.14 270 21:55 10.07.2022
462 Clouds 19 1030 24 10000 4.12 290 20:54 10.07.2022
463 Clouds 16 1032 27 10000 2.57 0 19:50 10.07.2022
464 Clouds 16 1033 36 10000 2.06 40 18:50 10.07.2022
465 Clouds 14 1034 41 10000 1.03 0 17:40 10.07.2022
466 Clouds 10 1036 54 10000 2.06 70 16:58 10.07.2022
467 Clouds 9 1036 57 10000 1.03 0 16:20 10.07.2022
468 Clouds 3 1035 81 10000 1.03 0 14:33 10.07.2022
469 Clouds 4 1024 91 10000 0.36 322 12:33 10.07.2022
470 Clouds 4 1024 90 10000 0.83 295 11:34 10.07.2022
471 Clear 5 1023 87 10000 1.44 317 08:46 10.07.2022
472 Clouds 6 1023 86 10000 1.49 321 08:24 10.07.2022
473 Clouds 8 1034 66 10000 1.54 260 05:36 10.07.2022
474 Clouds 16 1031 36 10000 7.2 280 23:32 09.07.2022
475 Clouds 16 1031 36 10000 4.12 280 22:26 09.07.2022
476 Clouds 16 1031 36 10000 4.12 280 22:26 09.07.2022
477 Clouds 16 1032 36 10000 2.06 270 21:31 09.07.2022
478 Clouds 14 1034 41 10000 1.54 280 19:19 09.07.2022
479 Clouds 13 1035 44 10000 2.06 50 18:23 09.07.2022
480 Clouds 11 1037 54 10000 1.03 0 16:59 09.07.2022
481 Clouds 8 1037 66 10000 1.03 0 15:56 09.07.2022
482 Clouds 8 1037 66 10000 1.03 0 15:36 09.07.2022
483 Clouds 1 1036 87 10000 0 0 13:54 09.07.2022
484 Clouds 1 1036 87 10000 1.03 290 13:28 09.07.2022
485 Clouds 5 1025 86 10000 1.19 341 11:34 09.07.2022
486 Clouds 6 1023 86 10000 1.29 354 10:24 09.07.2022
487 Clouds 7 1023 84 10000 1.53 354 08:27 09.07.2022
488 Clouds 4 1035 70 10000 0 0 07:00 09.07.2022
489 Clouds 7 1034 57 10000 2.06 270 04:35 09.07.2022
490 Clouds 15 1030 36 10000 1.54 120 23:33 08.07.2022
491 Clouds 15 1031 39 10000 1.54 0 22:00 08.07.2022
492 Clouds 17 1032 36 10000 2.06 40 21:21 08.07.2022
493 Clouds 14 1032 41 10000 3.09 90 20:35 08.07.2022
494 Clouds 12 1035 47 10000 3.6 100 18:45 08.07.2022
495 Clouds 10 1036 54 10000 2.57 100 17:45 08.07.2022
496 Clouds 6 1036 70 10000 2.06 70 15:53 08.07.2022
497 Clouds 4 1036 75 10000 0.51 0 14:50 08.07.2022
498 Clouds 1 1034 80 10000 0.51 0 12:31 08.07.2022
499 Clouds 6 1022 84 10000 0.81 17 10:46 08.07.2022
500 Clear 6 1022 84 10000 1.17 16 09:42 08.07.2022
501 Clear 4 1033 65 10000 0 0 06:55 08.07.2022
502 Clear 4 1032 56 10000 2.57 290 04:32 08.07.2022
503 Clouds 16 1028 25 10000 5.66 10 00:30 08.07.2022
504 Clouds 19 1027 22 10000 5.14 30 22:47 07.07.2022
505 Clouds 19 1027 18 10000 4.12 10 21:41 07.07.2022
506 Clear 17 1030 25 10000 1.03 0 19:28 07.07.2022
507 Clear 13 1032 44 10000 1.03 0 17:43 07.07.2022
508 Clear 7 1034 66 10000 1.03 0 15:58 07.07.2022
509 Clear 0 1033 93 10000 1.03 90 13:32 07.07.2022
510 Clear 0 1033 93 10000 0.51 90 12:40 07.07.2022
511 Clear 1 1032 87 10000 0 0 12:21 07.07.2022
512 Clear 5 1021 86 10000 0.41 283 11:31 07.07.2022
513 Clear 5 1020 85 10000 1.11 277 10:45 07.07.2022
514 Clear 6 1020 83 10000 1.5 297 10:26 07.07.2022
515 Clear 7 1020 78 10000 1.45 314 08:21 07.07.2022
516 Clear 7 1032 66 10000 2.06 270 05:23 07.07.2022
517 Clouds 15 1011 43 10000 4.08 349 23:37 06.07.2022
518 Clouds 20 1026 14 10000 1.54 0 23:19 06.07.2022
519 Clouds 20 1026 14 10000 1.54 0 22:58 06.07.2022
520 Clouds 20 1026 14 10000 1.54 0 22:40 06.07.2022
521 Clouds 20 1027 12 10000 2.06 0 21:59 06.07.2022
522 Clear 18 1031 16 10000 1.54 0 19:45 06.07.2022
523 Clear 17 1032 22 10000 1.03 0 18:41 06.07.2022
524 Clear 10 1035 43 10000 1.54 50 16:43 06.07.2022
525 Clear 6 1036 57 10000 1.03 0 15:39 06.07.2022
526 Clear 0 1034 75 10000 1.54 280 12:44 06.07.2022
527 Clear 5 1021 85 10000 0.28 19 11:49 06.07.2022
528 Clear 6 1021 83 10000 1.15 31 10:22 06.07.2022
529 Clear 7 1021 83 10000 1.32 14 08:41 06.07.2022
530 Clouds 7 1022 83 10000 1.31 6 07:39 06.07.2022
531 Clouds 5 1033 52 10000 0.51 270 05:37 06.07.2022
532 Clouds 19 1029 12 10000 3.09 350 22:49 05.07.2022
533 Clouds 20 1029 11 10000 3.6 10 22:27 05.07.2022
534 Clouds 19 1030 11 10000 4.12 0 20:42 05.07.2022
535 Clouds 18 1032 15 10000 2.06 0 19:44 05.07.2022
536 Clouds 16 1033 19 10000 1.03 0 19:25 05.07.2022
537 Clear 12 1035 26 10000 1.54 10 17:48 05.07.2022
538 Clear 9 1037 27 10000 1.54 50 16:56 05.07.2022
539 Clear 5 1037 42 10000 1.54 70 15:38 05.07.2022
540 Clear 3 1037 52 10000 0 0 14:33 05.07.2022
541 Clouds 1 1035 60 10000 0 0 12:48 05.07.2022
542 Clouds 5 1023 83 10000 0.28 180 11:52 05.07.2022
543 Clouds 5 1023 82 10000 0.68 223 10:42 05.07.2022
544 Clear 6 1022 81 10000 0.95 318 09:24 05.07.2022
545 Clouds 7 1022 79 10000 0.92 334 07:52 05.07.2022
546 Clouds 4 1034 42 10000 1.03 0 05:29 05.07.2022
547 Clouds 6 1034 42 10000 2.06 280 04:25 05.07.2022
548 Clouds 14 1031 25 10000 2.06 0 00:37 05.07.2022
549 Clouds 17 1031 20 10000 3.09 350 23:34 04.07.2022
550 Clouds 18 1031 13 10000 1.54 20 22:47 04.07.2022
551 Clouds 19 1031 12 10000 2.06 50 21:46 04.07.2022
552 Clouds 18 1033 12 10000 1.03 0 20:53 04.07.2022
553 Clouds 18 1033 12 10000 1.03 0 20:34 04.07.2022
554 Clouds 16 1034 14 10000 1.03 0 19:55 04.07.2022
555 Clouds 16 1034 14 10000 1.03 0 19:35 04.07.2022
556 Clouds 14 1036 18 10000 1.54 0 18:18 04.07.2022
557 Clouds 7 1039 39 10000 1.03 0 15:58 04.07.2022
558 Clouds 7 1039 39 10000 1.03 0 15:33 04.07.2022
559 Clouds -1 1037 64 10000 1.54 290 13:29 04.07.2022
560 Clouds 1 1036 60 10000 0 0 12:30 04.07.2022
561 Clouds 6 1023 74 10000 0.32 244 10:34 04.07.2022
562 Clouds 7 1023 74 10000 0.42 323 09:52 04.07.2022
563 Clouds 7 1023 77 10000 1.13 343 08:24 04.07.2022
564 Clouds 6 1035 39 10000 2.06 100 04:57 04.07.2022
565 Clouds 15 1032 20 10000 1.54 60 00:39 04.07.2022
566 Clouds 17 1031 14 10000 3.6 20 22:59 03.07.2022
567 Clouds 18 1032 9 10000 4.12 30 20:58 03.07.2022
568 Clouds 19 1033 10 10000 4.12 10 20:31 03.07.2022
569 Clouds 17 1034 11 10000 2.06 0 19:28 03.07.2022
570 Clouds 16 1034 15 10000 2.06 70 18:43 03.07.2022
571 Clouds 12 1035 21 10000 1.54 0 17:44 03.07.2022
572 Clouds 6 1037 45 10000 1.03 0 15:54 03.07.2022
573 Clouds 3 1036 56 10000 1.03 60 14:59 03.07.2022
574 Clouds 0 1036 69 10000 0.51 0 14:20 03.07.2022
575 Clouds -2 1035 69 9000 1.03 0 13:48 03.07.2022
576 Clouds 0 1035 69 10000 0 0 12:33 03.07.2022
577 Clouds 6 1022 63 10000 0.3 0 11:29 03.07.2022
578 Clouds 6 1022 63 10000 0.3 0 10:39 03.07.2022
579 Clouds 6 1021 63 10000 0.65 358 09:42 03.07.2022
580 Clouds 7 1022 65 10000 1.32 13 07:35 03.07.2022
581 Clouds 8 1032 43 10000 0.51 140 03:46 03.07.2022
582 Clouds 16 1029 20 10000 4.12 10 00:21 03.07.2022
583 Clouds 19 1028 13 10000 3.6 350 22:33 02.07.2022
584 Clear 19 1029 9 10000 3.6 10 21:28 02.07.2022
585 Clouds 19 1030 11 10000 1.03 0 19:52 02.07.2022
586 Clouds 19 1031 12 10000 1.03 0 19:20 02.07.2022
587 Clouds 13 1033 21 10000 1.54 0 17:42 02.07.2022
588 Clouds 11 1034 26 10000 1.03 0 16:53 02.07.2022
589 Clouds 3 1034 60 10000 1.03 0 14:40 02.07.2022
590 Clear 1 1032 64 10000 1.03 290 12:22 02.07.2022
591 Clear 6 1019 76 10000 0.26 249 11:27 02.07.2022
592 Clear 6 1019 76 10000 0.26 249 10:43 02.07.2022
593 Clear 7 1019 76 10000 0.45 11 09:25 02.07.2022
594 Clear 7 1019 77 10000 0.8 342 08:20 02.07.2022
595 Clouds 8 1019 77 10000 0.85 343 07:48 02.07.2022
596 Clear 10 1029 32 10000 1.54 90 02:50 02.07.2022
597 Clouds 19 1026 15 10000 5.14 10 23:59 01.07.2022
598 Clouds 21 1026 11 10000 2.06 0 22:58 01.07.2022
599 Clear 21 1027 11 10000 2.06 280 21:49 01.07.2022
600 Clear 20 1027 12 10000 2.57 0 21:29 01.07.2022
601 Clear 21 1028 11 10000 1.03 0 20:43 01.07.2022
602 Clouds 19 1029 15 10000 2.06 50 19:47 01.07.2022
603 Clouds 14 1032 21 10000 1.54 360 17:53 01.07.2022
604 Clouds 9 1034 34 10000 1.03 0 16:22 01.07.2022
605 Clouds -1 1033 64 10000 0 0 13:55 01.07.2022
606 Clouds 0 1033 60 10000 0.51 0 12:55 01.07.2022
607 Clouds 7 1018 73 10000 0.11 41 10:20 01.07.2022
608 Clouds 7 1018 73 10000 0.11 41 09:47 01.07.2022
609 Clouds 6 1031 42 10000 2.57 280 05:25 01.07.2022
610 Clouds 17 1028 16 10000 3.09 360 00:42 01.07.2022
611 Clouds 20 1027 11 10000 4.12 10 23:26 30.06.2022
612 Clouds 22 1027 15 10000 2.06 340 22:44 30.06.2022
613 Clouds 20 1027 16 10000 2.57 50 22:26 30.06.2022
614 Clouds 21 1028 14 10000 3.09 80 21:48 30.06.2022
615 Clouds 20 1029 14 10000 2.57 40 20:30 30.06.2022
616 Clouds 20 1030 17 10000 2.06 0 19:55 30.06.2022
617 Clouds 18 1031 20 10000 2.06 40 19:26 30.06.2022
618 Clouds 18 1032 22 10000 1.54 0 18:43 30.06.2022
619 Clouds 14 1033 29 10000 1.03 0 17:49 30.06.2022
620 Clouds 11 1034 35 10000 1.03 0 16:55 30.06.2022
621 Clouds 7 1035 57 10000 1.03 0 15:44 30.06.2022
622 Clouds 0 1034 80 10000 1.03 0 13:49 30.06.2022
623 Clear 0 1034 86 10000 1.03 90 12:36 30.06.2022
624 Clear 5 1021 76 10000 0.38 254 11:59 30.06.2022
625 Clear 6 1020 74 10000 0.81 217 09:55 30.06.2022
626 Clear 6 1020 74 10000 0.81 217 09:37 30.06.2022
627 Clouds 7 1021 70 10000 1.08 267 08:19 30.06.2022
628 Clouds 7 1021 70 10000 1.08 267 08:19 30.06.2022
629 Clear 7 1021 66 10000 1.17 277 07:24 30.06.2022
630 Clear 14 1031 30 10000 2.06 280 02:49 30.06.2022
631 Clear 20 1029 13 10000 1.03 0 23:38 29.06.2022
632 Clear 20 1029 11 10000 1.03 0 22:41 29.06.2022
633 Clear 20 1030 9 10000 2.06 10 21:58 29.06.2022
634 Clear 19 1031 9 10000 2.06 0 20:34 29.06.2022
635 Clear 18 1033 11 10000 1.54 320 19:55 29.06.2022
636 Clear 13 1035 23 10000 1.03 0 17:55 29.06.2022
637 Clear 10 1036 32 10000 1.54 50 16:51 29.06.2022
638 Clear 7 1036 39 10000 1.03 0 15:33 29.06.2022
639 Clear -1 1035 69 10000 0 0 13:36 29.06.2022
640 Clear 5 1023 76 10000 1.07 31 12:24 29.06.2022
641 Clear 6 1021 74 10000 0.7 24 09:43 29.06.2022
642 Clear 7 1021 73 10000 0.91 24 09:21 29.06.2022
643 Clear 4 1034 52 10000 1.03 290 06:28 29.06.2022
644 Clouds 11 1032 35 10000 1.03 0 02:59 29.06.2022
645 Clouds 17 1030 24 10000 4.12 310 00:52 29.06.2022
646 Clouds 20 1029 21 10000 4.12 310 00:33 29.06.2022
647 Clouds 20 1029 16 10000 2.57 0 22:49 28.06.2022
648 Clear 21 1029 17 10000 1.54 0 21:57 28.06.2022
649 Clear 21 1029 17 10000 1.54 0 21:38 28.06.2022
650 Clear 20 1030 17 10000 1.54 0 20:57 28.06.2022
651 Clouds 18 1032 20 10000 2.06 320 19:50 28.06.2022
652 Clear 17 1032 22 10000 2.06 70 19:24 28.06.2022
653 Clear 16 1033 23 10000 2.06 30 18:38 28.06.2022
654 Clear 9 1035 40 10000 1.54 0 16:47 28.06.2022
655 Clear 7 1036 49 10000 1.03 0 15:54 28.06.2022
656 Clear 3 1036 60 10000 1.03 0 14:48 28.06.2022
657 Clear 0 1035 69 10000 0.51 0 14:18 28.06.2022
658 Clear 0 1035 74 10000 0.51 0 13:45 28.06.2022
659 Clear 5 1021 74 10000 0.34 206 11:58 28.06.2022
660 Clear 6 1019 72 10000 0.54 214 09:50 28.06.2022
661 Clear 7 1019 71 10000 0.34 129 08:54 28.06.2022
662 Clear 7 1019 70 10000 0.46 155 08:26 28.06.2022
663 Clear 8 1019 70 10000 0.3 243 07:20 28.06.2022
664 Clear 9 1030 32 10000 1.03 0 02:41 28.06.2022
665 Clear 20 1028 17 10000 2.06 340 23:49 27.06.2022
666 Clear 20 1028 18 10000 2.06 0 22:56 27.06.2022
667 Clear 19 1029 14 10000 1.54 0 21:53 27.06.2022
668 Clear 18 1030 15 10000 2.57 90 21:21 27.06.2022
669 Clear 18 1032 20 10000 2.06 0 19:54 27.06.2022
670 Clear 15 1034 27 10000 1.54 0 18:45 27.06.2022
671 Clear 11 1036 30 10000 1.54 80 17:26 27.06.2022
672 Clear 6 1037 49 10000 1.03 0 15:44 27.06.2022
673 Clouds -1 1036 74 10000 0.51 0 14:18 27.06.2022
674 Clouds -1 1034 74 10000 0.51 0 12:58 27.06.2022
675 Clouds 4 1023 82 10000 0.67 207 11:30 27.06.2022
676 Clear 5 1021 79 10000 0.69 249 09:45 27.06.2022
677 Clear 6 1021 78 10000 0.91 289 08:40 27.06.2022
678 Clouds 6 1022 79 10000 1.12 296 07:39 27.06.2022
679 Clouds 4 1033 56 10000 0.51 0 05:22 27.06.2022
680 Clouds 15 1030 21 10000 2.57 340 01:22 27.06.2022
681 Clouds 19 1030 14 10000 1.03 0 22:58 26.06.2022
682 Clouds 18 1030 15 10000 2.06 0 21:38 26.06.2022
683 Clouds 18 1032 15 10000 2.06 0 20:28 26.06.2022
684 Clouds 15 1034 21 10000 1.54 350 18:33 26.06.2022
685 Clouds 11 1036 28 10000 1.54 0 17:40 26.06.2022
686 Clouds 5 1037 39 10000 1.03 0 15:36 26.06.2022
687 Clear -2 1036 69 10000 0.51 90 14:22 26.06.2022
688 Clear -3 1036 69 10000 2.06 290 13:24 26.06.2022
689 Clear 3 1025 75 10000 0.57 301 11:41 26.06.2022
690 Clear 4 1024 71 10000 0.64 309 10:42 26.06.2022
691 Clear 4 1024 68 10000 0.7 358 09:58 26.06.2022
692 Clouds 5 1024 67 10000 1.18 351 07:47 26.06.2022
693 Clouds 4 1035 38 10000 2.06 270 06:19 26.06.2022
694 Clouds 12 1033 22 10000 3.09 30 00:37 26.06.2022
695 Clouds 13 1032 21 10000 4.12 30 00:18 26.06.2022
696 Clouds 14 1032 21 10000 5.66 20 23:29 25.06.2022
697 Clouds 15 1032 20 10000 5.66 30 22:42 25.06.2022
698 Clouds 15 1032 18 10000 5.66 30 22:24 25.06.2022
699 Clouds 15 1033 11 10000 7.2 10 21:21 25.06.2022
700 Clouds 16 1033 13 10000 7.72 10 20:36 25.06.2022
701 Clouds 16 1033 15 10000 6.69 20 19:59 25.06.2022
702 Clouds 15 1034 17 10000 1.54 10 18:22 25.06.2022
703 Clouds 12 1035 33 10000 2.06 40 17:26 25.06.2022
704 Clouds 9 1036 40 10000 1.54 60 16:26 25.06.2022
705 Clouds 4 1035 60 10000 1.03 0 14:29 25.06.2022
706 Clouds 3 1034 60 10000 0.51 0 12:45 25.06.2022
707 Clouds 5 1023 77 10000 1.02 20 11:55 25.06.2022
708 Clear 6 1022 77 10000 1.52 15 09:24 25.06.2022
709 Clear 6 1022 77 10000 1.52 15 09:24 25.06.2022
710 Clear 6 1022 77 10000 1.52 15 08:49 25.06.2022
711 Clear 6 1022 77 10000 1.73 21 08:20 25.06.2022
712 Clear 4 1034 56 10000 1.54 280 06:34 25.06.2022
713 Clouds 14 1030 26 10000 3.6 10 00:44 25.06.2022
714 Clouds 14 1030 26 10000 3.6 10 00:44 25.06.2022
715 Clouds 16 1029 25 10000 4.12 10 23:46 24.06.2022
716 Clouds 19 1028 15 10000 1.03 0 22:25 24.06.2022
717 Clouds 18 1029 16 10000 3.6 320 21:22 24.06.2022
718 Clouds 17 1030 17 10000 2.57 340 20:23 24.06.2022
719 Clouds 16 1032 23 10000 3.6 150 19:24 24.06.2022
720 Clouds 16 1033 25 10000 3.09 140 18:51 24.06.2022
721 Clouds 14 1033 33 10000 1.54 0 18:31 24.06.2022
722 Clouds 12 1034 44 10000 1.54 0 17:47 24.06.2022
723 Clear 9 1035 61 10000 0.51 0 16:34 24.06.2022
724 Clouds 1 1035 80 10000 1.03 300 14:30 24.06.2022
725 Clouds 0 1034 86 10000 1.03 0 13:58 24.06.2022
726 Clouds 0 1034 86 10000 1.03 0 13:58 24.06.2022
727 Clouds 0 1034 86 10000 0 0 12:49 24.06.2022
728 Clouds 4 1022 79 10000 0.82 37 11:40 24.06.2022
729 Clouds 4 1021 80 10000 1 24 10:34 24.06.2022
730 Clouds 5 1021 82 10000 0.97 13 09:41 24.06.2022
731 Clouds 5 1021 83 10000 1.05 351 08:53 24.06.2022
732 Clouds 5 1021 83 10000 1.05 351 08:53 24.06.2022
733 Clouds 6 1021 84 10000 1.24 344 07:39 24.06.2022
734 Clouds 4 1033 75 10000 2.57 280 06:42 24.06.2022
735 Clouds 5 1033 75 10000 2.57 280 06:18 24.06.2022
736 Clouds 9 1032 57 10000 1.03 0 03:47 24.06.2022
737 Clouds 17 1027 27 10000 3.09 0 23:19 23.06.2022
738 Clouds 18 1027 27 10000 6.17 290 22:40 23.06.2022
739 Clouds 17 1028 25 10000 1.54 220 20:59 23.06.2022
740 Clouds 16 1028 25 10000 1.54 220 20:35 23.06.2022
741 Clouds 14 1030 33 10000 1.54 280 19:40 23.06.2022
742 Clouds 11 1033 50 10000 1.54 0 17:53 23.06.2022
743 Clouds 11 1033 50 10000 1.54 0 17:33 23.06.2022
744 Clouds 5 1034 75 10000 1.03 0 15:57 23.06.2022
745 Clouds 5 1034 70 10000 1.03 0 15:24 23.06.2022
746 Clouds 0 1032 86 10000 0 0 13:45 23.06.2022
747 Clouds 4 1020 81 10000 0.94 302 11:27 23.06.2022
748 Clouds 4 1020 81 10000 0.95 302 10:40 23.06.2022
749 Clouds 5 1020 77 10000 0.75 328 09:18 23.06.2022
750 Clear 8 1030 53 10000 0.51 0 03:40 23.06.2022
751 Clouds 16 1027 20 10000 6.17 280 00:27 23.06.2022
752 Clouds 17 1027 20 10000 4.63 290 23:41 22.06.2022
753 Clouds 18 1026 20 10000 6.17 300 22:48 22.06.2022
754 Clouds 18 1026 20 10000 6.17 300 22:48 22.06.2022
755 Clouds 16 1028 27 10000 4.12 310 21:22 22.06.2022
756 Clouds 15 1028 31 10000 1.54 0 20:45 22.06.2022
757 Clouds 16 1029 31 10000 3.09 280 19:58 22.06.2022
758 Clouds 15 1031 36 10000 1.54 0 18:49 22.06.2022
759 Clouds 11 1033 50 10000 1.03 0 17:28 22.06.2022
760 Clouds 9 1033 62 10000 2.06 10 16:33 22.06.2022
761 Clouds 6 1033 65 10000 0.51 0 15:27 22.06.2022
762 Clouds 3 1032 81 10000 1.54 80 14:21 22.06.2022
763 Clouds 1 1032 87 10000 1.54 100 13:42 22.06.2022
764 Clouds 0 1031 93 10000 1.03 270 13:23 22.06.2022
765 Clouds 4 1020 83 10000 0.7 292 11:50 22.06.2022
766 Clouds 4 1020 83 10000 0.7 292 11:50 22.06.2022
767 Clouds 4 1020 83 10000 1.01 340 10:57 22.06.2022
768 Clouds 5 1020 83 10000 1.23 333 10:19 22.06.2022
769 Clouds 5 1020 82 10000 1.23 337 08:37 22.06.2022
770 Clouds 4 1031 65 10000 2.06 290 05:38 22.06.2022
771 Clouds 12 1028 38 10000 2.57 330 01:49 22.06.2022
772 Clouds 14 1028 36 10000 3.09 330 00:36 22.06.2022
773 Clouds 17 1027 24 10000 4.63 280 22:37 21.06.2022
774 Clouds 17 1030 25 10000 3.6 260 19:57 21.06.2022
775 Clouds 17 1032 31 10000 2.06 0 18:51 21.06.2022
776 Clouds 13 1033 41 10000 1.54 0 17:40 21.06.2022
777 Clouds 4 1034 75 10000 1.03 80 14:42 21.06.2022
778 Clouds 4 1022 92 10000 1.24 272 11:52 21.06.2022
779 Clouds 5 1021 88 10000 1.34 271 10:19 21.06.2022
780 Clouds 5 1021 86 10000 1.31 274 08:48 21.06.2022
781 Clouds 5 1021 86 10000 1.54 293 07:35 21.06.2022
782 Clouds 9 1030 57 10000 4.63 270 02:27 21.06.2022
783 Clouds 17 1028 27 10000 5.66 290 23:26 20.06.2022
784 Clouds 18 1029 26 10000 3.09 0 21:58 20.06.2022
785 Clouds 16 1029 31 10000 3.09 30 21:30 20.06.2022
786 Clouds 15 1031 36 10000 1.54 0 19:49 20.06.2022
787 Clouds 13 1032 41 10000 1.54 0 18:53 20.06.2022
788 Clouds 12 1033 44 10000 1.03 0 18:23 20.06.2022
789 Clouds 12 1034 44 10000 1.54 350 17:36 20.06.2022
790 Clouds 10 1035 53 10000 1.03 0 16:20 20.06.2022
791 Clouds 2 1034 81 10000 1.03 120 14:18 20.06.2022
792 Clouds 4 1021 83 10000 0.88 290 11:30 20.06.2022
793 Clouds 5 1020 81 10000 0.92 271 09:48 20.06.2022
794 Clouds 6 1020 80 10000 0.92 290 08:45 20.06.2022
795 Clear 6 1032 61 10000 1.54 270 06:59 20.06.2022
796 Clear 8 1031 49 10000 2.57 290 03:29 20.06.2022
797 Clouds 15 1028 31 10000 4.63 310 00:37 20.06.2022
798 Clouds 19 1028 19 10000 2.57 290 23:25 19.06.2022
799 Clouds 18 1028 20 10000 2.57 260 22:19 19.06.2022
800 Clouds 18 1028 19 10000 3.09 270 21:41 19.06.2022
801 Clouds 17 1030 24 10000 3.09 230 20:46 19.06.2022
802 Clouds 17 1031 25 10000 3.09 0 19:48 19.06.2022
803 Clear 16 1032 31 10000 2.57 0 19:24 19.06.2022
804 Clouds 14 1033 38 10000 2.57 350 18:31 19.06.2022
805 Clouds 13 1034 41 10000 1.54 0 17:39 19.06.2022
806 Clouds 11 1035 50 10000 1.03 0 16:38 19.06.2022
807 Clear 7 1035 66 10000 1.03 0 15:44 19.06.2022
808 Clouds 5 1035 75 10000 1.54 60 15:26 19.06.2022
809 Clouds 4 1035 75 10000 2.06 90 14:35 19.06.2022
810 Clear 0 1034 86 10000 1.54 270 13:44 19.06.2022
811 Clear 3 1023 84 10000 0.17 170 11:53 19.06.2022
812 Clear 3 1022 84 10000 1.08 326 10:52 19.06.2022
813 Clear 4 1022 82 10000 1.27 295 08:55 19.06.2022
814 Clear 5 1022 83 10000 1.09 331 08:30 19.06.2022
815 Clear 3 1032 70 10000 2.57 280 06:48 19.06.2022
816 Clear 8 1031 49 10000 1.03 0 03:38 19.06.2022
817 Clouds 16 1028 22 10000 5.14 290 00:28 19.06.2022
818 Clouds 16 1028 23 10000 6.69 280 23:59 18.06.2022
819 Clouds 16 1028 23 10000 6.69 280 23:34 18.06.2022
820 Clouds 18 1028 18 10000 5.66 300 21:54 18.06.2022
821 Clouds 19 1029 19 10000 5.14 270 20:51 18.06.2022
822 Clouds 16 1029 25 10000 2.06 0 20:18 18.06.2022
823 Clouds 14 1032 31 10000 1.54 60 18:55 18.06.2022
824 Clouds 14 1032 35 10000 1.03 350 18:30 18.06.2022
825 Clouds 11 1034 50 10000 1.03 50 17:29 18.06.2022
826 Clouds 7 1035 61 10000 1.03 0 15:57 18.06.2022
827 Clouds 3 1034 70 10000 1.54 80 14:54 18.06.2022
828 Clouds 3 1034 70 10000 1.54 80 14:35 18.06.2022
829 Clouds 0 1032 86 10000 0 0 12:30 18.06.2022
830 Clear 4 1021 69 10000 0.91 357 11:20 18.06.2022
831 Clear 4 1020 69 10000 1.07 20 09:39 18.06.2022
832 Clear 5 1021 70 10000 1.14 353 08:46 18.06.2022
833 Clear 5 1020 72 10000 1.21 20 07:34 18.06.2022
834 Clear 4 1031 65 10000 1.54 300 05:20 18.06.2022
835 Clear 14 1027 31 10000 4.12 260 01:50 18.06.2022
836 Clear 15 1027 29 10000 4.63 290 01:21 18.06.2022
837 Clouds 17 1026 17 10000 5.14 310 00:32 18.06.2022
838 Clouds 19 1026 12 10000 3.6 270 23:37 17.06.2022
839 Clear 19 1026 12 10000 5.66 270 22:29 17.06.2022
840 Clear 19 1028 12 10000 6.17 280 20:29 17.06.2022
841 Clear 16 1030 20 10000 1.03 0 19:24 17.06.2022
842 Clear 14 1032 26 10000 1.03 0 17:58 17.06.2022
843 Clear 9 1033 34 10000 1.03 0 16:50 17.06.2022
844 Clear 8 1034 37 10000 1.54 0 16:25 17.06.2022
845 Clear 6 1034 42 10000 1.54 70 15:40 17.06.2022
846 Clear 0 1033 64 10000 1.03 0 14:24 17.06.2022
847 Clear -2 1033 69 10000 1.03 290 13:59 17.06.2022
848 Clear -2 1033 69 10000 1.03 290 13:39 17.06.2022
849 Clear 0 1032 69 10000 0.51 120 12:29 17.06.2022
850 Clear 3 1021 52 10000 0.97 217 11:55 17.06.2022
851 Clear 4 1020 47 10000 0.85 237 11:34 17.06.2022
852 Clear 4 1020 43 10000 0.94 283 09:46 17.06.2022
853 Clear 5 1020 39 10000 1.18 289 08:26 17.06.2022
854 Clear 3 1031 48 10000 1.54 270 06:51 17.06.2022
855 Clear 8 1031 36 10000 0.51 0 04:19 17.06.2022
856 Clear 14 1029 15 10000 4.63 300 01:57 17.06.2022
857 Clear 16 1028 13 10000 5.66 310 00:24 17.06.2022
858 Clear 19 1028 13 10000 4.63 290 22:42 16.06.2022
859 Clear 19 1029 13 10000 6.17 280 21:23 16.06.2022
860 Clear 19 1030 13 10000 1.54 280 20:56 16.06.2022
861 Clear 19 1030 13 10000 1.54 280 20:36 16.06.2022
862 Clear 19 1030 13 10000 1.54 280 20:36 16.06.2022
863 Clear 17 1031 22 10000 2.57 10 19:45 16.06.2022
864 Clear 12 1034 35 10000 1.54 0 18:26 16.06.2022
865 Clear 11 1035 37 10000 1.54 350 17:43 16.06.2022
866 Clear 11 1035 37 10000 1.54 350 17:43 16.06.2022
867 Clear 9 1036 40 10000 2.06 70 16:39 16.06.2022
868 Clear 4 1036 60 10000 1.54 70 15:22 16.06.2022
869 Clear 2 1036 70 10000 1.54 90 14:37 16.06.2022
870 Clear -1 1035 80 10000 0.51 0 13:22 16.06.2022
871 Clear -1 1034 74 10000 0 0 12:36 16.06.2022
872 Clear 3 1023 65 10000 0.74 328 11:51 16.06.2022
873 Clear 3 1023 64 10000 0.77 328 11:51 16.06.2022
874 Clear 3 1023 66 10000 0.75 295 10:56 16.06.2022
875 Clear 4 1022 67 10000 1.08 273 10:20 16.06.2022
876 Clear 4 1022 68 10000 1.32 284 09:21 16.06.2022
877 Clear 4 1022 68 10000 1.32 284 08:30 16.06.2022
878 Clear 5 1022 72 10000 1.35 344 07:26 16.06.2022
879 Clear 6 1033 57 10000 1.54 100 04:50 16.06.2022
880 Clouds 11 1030 43 10000 4.12 320 02:21 16.06.2022
881 Clouds 11 1030 43 10000 4.12 310 01:35 16.06.2022
882 Clouds 14 1029 33 10000 3.6 350 00:56 16.06.2022
883 Clouds 17 1028 27 10000 4.12 0 23:47 15.06.2022
884 Clouds 17 1028 27 10000 4.12 0 23:47 15.06.2022
885 Clouds 18 1027 24 10000 3.09 10 22:38 15.06.2022
886 Clouds 17 1028 24 10000 2.57 0 21:22 15.06.2022
887 Clouds 16 1029 25 10000 2.57 220 20:44 15.06.2022
888 Clouds 17 1029 25 10000 2.57 220 20:44 15.06.2022
889 Clear 17 1029 24 10000 3.09 250 20:25 15.06.2022
890 Clouds 17 1030 27 10000 1.54 0 19:29 15.06.2022
891 Clear 13 1032 33 10000 1.03 0 17:56 15.06.2022
892 Clear 11 1033 40 10000 1.03 0 17:32 15.06.2022
893 Clear 6 1034 61 9000 1.54 60 15:38 15.06.2022
894 Clear 1 1033 80 10000 1.03 0 14:23 15.06.2022
895 Clear -1 1032 93 10000 0.51 70 12:54 15.06.2022
896 Clear 4 1020 88 10000 0.13 305 11:58 15.06.2022
897 Clear 5 1019 87 10000 0.79 271 10:24 15.06.2022
898 Clear 5 1019 87 10000 0.79 271 09:45 15.06.2022
899 Clear 5 1019 86 10000 1.12 283 08:50 15.06.2022
900 Clear 4 1031 70 10000 2.06 290 06:36 15.06.2022
901 Clear 5 1031 65 10000 2.57 290 04:46 15.06.2022
902 Clouds 12 1028 41 10000 2.06 360 01:55 15.06.2022
903 Clouds 15 1027 31 10000 3.6 350 00:51 15.06.2022
904 Clouds 18 1026 18 10000 3.6 300 23:40 14.06.2022
905 Clouds 18 1026 18 10000 2.57 340 23:21 14.06.2022
906 Clouds 18 1026 18 10000 1.54 0 22:23 14.06.2022
907 Clouds 18 1027 18 10000 1.54 0 21:40 14.06.2022
908 Clouds 18 1028 20 10000 2.57 50 20:56 14.06.2022
909 Clouds 19 1029 22 10000 1.03 0 20:31 14.06.2022
910 Clouds 16 1030 23 10000 1.54 0 19:20 14.06.2022
911 Clouds 13 1031 35 10000 1.54 0 18:25 14.06.2022
912 Clouds 10 1033 43 10000 1.03 0 16:48 14.06.2022
913 Clouds 7 1033 53 10000 1.03 0 15:50 14.06.2022
914 Clouds 5 1033 61 10000 1.03 0 15:28 14.06.2022
915 Clouds 3 1033 70 10000 1.03 100 14:37 14.06.2022
916 Clouds -1 1033 86 10000 0 0 13:46 14.06.2022
917 Clear -1 1032 86 10000 0 0 12:48 14.06.2022
918 Clear 4 1021 91 10000 0.38 133 11:41 14.06.2022
919 Clear 4 1020 90 10000 0.29 168 10:49 14.06.2022
920 Clear 4 1020 89 10000 0.26 244 10:24 14.06.2022
921 Clear 5 1021 88 10000 0.86 242 08:49 14.06.2022
922 Clear 5 1021 85 10000 0.61 254 07:49 14.06.2022
923 Clear 4 1032 65 10000 0 0 05:46 14.06.2022
924 Clear 9 1031 50 10000 4.12 290 03:20 14.06.2022
925 Clouds 13 1028 28 10000 3.09 300 01:31 14.06.2022
926 Clouds 17 1027 22 10000 4.63 300 23:48 13.06.2022
927 Clouds 19 1028 14 10000 2.57 10 22:26 13.06.2022
928 Clouds 18 1028 15 10000 2.57 270 21:54 13.06.2022
929 Clouds 17 1029 17 10000 3.6 310 20:43 13.06.2022
930 Clouds 16 1031 17 10000 2.06 0 19:39 13.06.2022
931 Clouds 14 1032 33 10000 1.54 0 18:36 13.06.2022
932 Clouds 11 1033 43 10000 1.54 0 17:48 13.06.2022
933 Clouds 9 1034 53 10000 3.09 300 16:54 13.06.2022
934 Clouds 7 1035 61 10000 1.03 0 15:41 13.06.2022
935 Clouds 5 1034 61 10000 0 0 14:47 13.06.2022
936 Clear 0 1033 80 10000 0 0 13:59 13.06.2022
937 Clear 0 1033 75 10000 1.03 0 12:59 13.06.2022
938 Clear 4 1022 88 10000 0.85 41 11:45 13.06.2022
939 Clear 4 1021 88 10000 0.82 29 10:34 13.06.2022
940 Clear 5 1021 88 10000 0.78 359 09:42 13.06.2022
941 Clear 5 1021 88 10000 1.33 6 08:27 13.06.2022
942 Clear 2 1032 70 10000 1.03 280 06:34 13.06.2022
943 Clear 6 1031 53 10000 1.03 290 04:18 13.06.2022
944 Clear 11 1028 30 10000 3.6 290 01:44 13.06.2022
945 Clear 14 1028 26 10000 3.6 310 01:18 13.06.2022
946 Clouds 18 1027 13 10000 2.06 0 23:37 12.06.2022
947 Clouds 19 1028 4 10000 2.06 310 22:29 12.06.2022
948 Clouds 18 1028 12 10000 1.54 0 21:41 12.06.2022
949 Clear 17 1029 22 10000 2.06 0 20:43 12.06.2022
950 Clouds 16 1031 25 10000 1.54 0 19:43 12.06.2022
951 Clouds 14 1033 36 10000 1.54 0 18:46 12.06.2022
952 Clouds 11 1035 37 10000 1.03 0 17:20 12.06.2022
953 Clouds 5 1036 45 10000 1.54 70 15:34 12.06.2022
954 Clouds 3 1035 52 10000 3.09 90 14:48 12.06.2022
955 Clouds 2 1034 60 10000 2.57 90 14:18 12.06.2022
956 Clouds 3 1034 60 10000 1.03 80 13:43 12.06.2022
957 Clouds 0 1033 69 10000 1.03 70 12:22 12.06.2022
958 Clear 4 1022 89 10000 1.07 311 10:46 12.06.2022
959 Clear 4 1022 88 10000 1.24 312 09:36 12.06.2022
960 Clear 5 1021 88 10000 1.14 332 08:50 12.06.2022
961 Clear 5 1022 88 10000 1.37 356 07:51 12.06.2022
962 Clear 3 1033 56 10000 1.54 290 06:27 12.06.2022
963 Clear 8 1031 34 10000 3.6 90 03:44 12.06.2022
964 Clear 10 1029 35 10000 3.09 90 02:25 12.06.2022
965 Clear 12 1028 30 10000 1.54 30 01:35 12.06.2022
966 Clear 14 1027 26 10000 5.14 280 00:44 12.06.2022
967 Clear 17 1027 22 10000 5.14 300 00:18 12.06.2022
968 Clear 18 1026 22 10000 2.57 0 23:18 11.06.2022
969 Clear 18 1026 22 10000 3.6 310 22:35 11.06.2022
970 Clear 17 1028 24 10000 3.09 0 21:18 11.06.2022
971 Clouds 16 1030 27 10000 2.57 0 20:26 11.06.2022
972 Clouds 16 1031 27 10000 2.06 0 19:33 11.06.2022
973 Clouds 14 1032 33 10000 2.57 340 18:44 11.06.2022
974 Clouds 15 1033 33 10000 2.57 0 18:25 11.06.2022
975 Clouds 11 1033 40 10000 2.06 330 17:47 11.06.2022
976 Clouds 13 1034 41 10000 1.54 0 17:25 11.06.2022
977 Clouds 12 1034 41 10000 2.06 0 16:42 11.06.2022
978 Clouds 9 1034 62 10000 2.06 60 15:57 11.06.2022
979 Clouds 6 1034 70 10000 1.03 0 14:43 11.06.2022
980 Clouds 4 1033 81 10000 2.06 80 13:50 11.06.2022
981 Clouds 4 1023 85 10000 0.57 263 11:55 11.06.2022
982 Clouds 4 1023 85 10000 0.56 270 10:30 11.06.2022
983 Clouds 4 1022 85 10000 0.86 290 09:41 11.06.2022
984 Clouds 5 1022 85 10000 0.96 2 08:37 11.06.2022
985 Clear 4 1033 75 10000 2.06 290 06:33 11.06.2022
986 Clear 4 1033 81 10000 1.54 310 05:33 11.06.2022
987 Clear 10 1031 54 10000 1.03 0 02:55 11.06.2022
988 Clouds 11 1029 50 10000 3.09 250 01:41 11.06.2022
989 Clouds 13 1028 44 10000 4.12 30 00:55 11.06.2022
990 Clouds 15 1027 36 10000 5.66 10 23:25 10.06.2022
991 Clouds 17 1027 19 10000 3.6 360 22:20 10.06.2022
992 Clouds 18 1027 10 10000 2.06 0 21:27 10.06.2022
993 Clouds 18 1028 18 10000 2.57 0 20:37 10.06.2022
994 Clouds 17 1029 20 10000 2.06 0 20:19 10.06.2022
995 Clouds 17 1029 20 10000 2.06 0 20:19 10.06.2022
996 Clouds 15 1030 21 10000 2.06 270 19:19 10.06.2022
997 Clear 15 1032 23 10000 1.54 70 18:30 10.06.2022
998 Clear 14 1032 38 10000 1.03 0 17:43 10.06.2022
999 Clear 11 1033 50 10000 1.03 0 17:21 10.06.2022
1000 Clear 9 1034 57 10000 1.03 0 16:26 10.06.2022
1001 Clouds 6 1034 70 10000 1.03 0 15:38 10.06.2022
1002 Clear 0 1033 86 10000 0 0 13:58 10.06.2022
1003 Clear 0 1032 86 10000 0.51 0 12:51 10.06.2022
1004 Clear 4 1021 82 10000 0.51 88 11:53 10.06.2022
1005 Clear 5 1021 81 10000 0.31 132 10:45 10.06.2022
1006 Clear 5 1020 80 10000 0.51 34 09:55 10.06.2022
1007 Clear 5 1020 80 10000 0.52 356 08:44 10.06.2022
1008 Clear 6 1020 81 10000 0.65 5 07:30 10.06.2022
1009 Clear 5 1032 70 10000 1.54 270 06:45 10.06.2022
1010 Clear 5 1032 70 10000 1.54 270 06:26 10.06.2022
1011 Clear 7 1030 57 10000 0.51 0 03:56 10.06.2022
1012 Clouds 11 1028 47 10000 1.54 250 01:42 10.06.2022
1013 Clouds 14 1026 38 10000 4.12 360 00:40 10.06.2022
1014 Clouds 17 1026 16 10000 5.66 310 23:49 09.06.2022
1015 Clouds 18 1025 19 10000 4.12 330 22:18 09.06.2022
1016 Clouds 19 1026 19 10000 4.63 300 21:37 09.06.2022
1017 Clear 18 1027 14 10000 3.6 310 20:55 09.06.2022
1018 Clear 18 1027 15 10000 4.63 330 20:26 09.06.2022
1019 Clear 17 1028 19 10000 2.06 0 19:29 09.06.2022
1020 Clear 15 1030 27 10000 2.06 0 18:34 09.06.2022
1021 Clear 12 1032 41 10000 1.54 40 17:18 09.06.2022
1022 Clear 8 1033 53 10000 1.54 50 15:54 09.06.2022
1023 Clear 5 1032 65 10000 0.51 0 14:38 09.06.2022
1024 Clouds -1 1031 86 10000 0.51 0 13:55 09.06.2022
1025 Clouds 0 1031 80 10000 0.51 0 13:29 09.06.2022
1026 Clouds 0 1030 80 10000 0.51 0 12:21 09.06.2022
1027 Clouds 5 1019 88 10000 0.78 247 11:19 09.06.2022
1028 Clear 5 1018 87 10000 0.83 304 09:50 09.06.2022
1029 Clear 5 1018 87 10000 0.83 304 09:31 09.06.2022
1030 Clear 6 1018 86 10000 1.05 352 08:21 09.06.2022
1031 Clear 5 1030 56 10000 2.57 280 06:55 09.06.2022
1032 Clear 8 1028 40 10000 2.57 280 03:22 09.06.2022
1033 Clouds 19 1025 19 10000 1.54 240 23:49 08.06.2022
1034 Clouds 19 1025 20 10000 4.12 290 22:58 08.06.2022
1035 Clouds 21 1026 19 10000 1.03 0 22:27 08.06.2022
1036 Clouds 19 1026 20 10000 3.09 290 21:56 08.06.2022
1037 Clouds 19 1027 19 10000 3.09 310 21:23 08.06.2022
1038 Clouds 18 1028 24 10000 2.57 0 20:22 08.06.2022
1039 Clouds 18 1029 24 10000 2.06 0 19:39 08.06.2022
1040 Clouds 16 1030 29 10000 2.57 320 18:48 08.06.2022
1041 Clouds 13 1032 47 10000 1.54 0 17:30 08.06.2022
1042 Haze 8 1033 66 10000 1.03 0 15:52 08.06.2022
1043 Clouds 1 1032 93 10000 0.51 0 13:58 08.06.2022
1044 Clouds 2 1031 87 10000 1.54 80 12:29 08.06.2022
1045 Clouds 4 1020 90 10000 0.76 266 11:34 08.06.2022
1046 Clouds 5 1019 89 10000 1.16 264 10:30 08.06.2022
1047 Clouds 6 1019 86 10000 1.13 270 09:22 08.06.2022
1048 Clouds 6 1019 86 10000 1.13 270 08:43 08.06.2022
1049 Clouds 6 1031 70 10000 0 0 06:35 08.06.2022
1050 Clouds 6 1029 57 10000 1.03 0 04:22 08.06.2022
1051 Clear 16 1026 29 10000 5.14 300 00:49 08.06.2022
1052 Clouds 19 1025 22 10000 4.12 310 23:30 07.06.2022
1053 Clouds 19 1026 21 10000 2.57 320 22:48 07.06.2022
1054 Clouds 19 1025 18 10000 2.06 0 22:30 07.06.2022
1055 Clouds 19 1026 19 10000 3.6 300 21:35 07.06.2022
1056 Clouds 18 1028 24 10000 1.54 0 20:59 07.06.2022
1057 Clouds 18 1028 24 10000 1.54 0 20:33 07.06.2022
1058 Clouds 17 1029 25 10000 2.06 10 19:45 07.06.2022
1059 Clouds 14 1032 36 10000 1.54 80 18:24 07.06.2022
1060 Clouds 14 1033 44 10000 2.06 120 17:27 07.06.2022
1061 Clouds 12 1033 47 10000 0.51 0 16:43 07.06.2022
1062 Clouds 9 1033 71 10000 1.54 70 15:56 07.06.2022
1063 Clouds 8 1033 71 10000 1.03 0 15:26 07.06.2022
1064 Clouds 7 1032 71 10000 0 0 14:52 07.06.2022
1065 Clouds 5 1032 81 10000 0 0 14:32 07.06.2022
1066 Clouds 5 1031 81 10000 0.51 100 13:32 07.06.2022
1067 Clouds 5 1031 81 10000 1.03 70 12:52 07.06.2022
1068 Clouds 4 1020 88 10000 0.82 336 11:48 07.06.2022
1069 Clouds 5 1019 87 10000 1.12 7 10:27 07.06.2022
1070 Clouds 6 1019 87 10000 1.2 16 08:51 07.06.2022
1071 Clouds 6 1019 87 10000 1.29 2 07:34 07.06.2022
1072 Clouds 6 1031 65 10000 2.06 280 06:22 07.06.2022
1073 Clouds 7 1030 61 10000 1.54 290 04:20 07.06.2022
1074 Clouds 14 1028 38 10000 3.6 310 01:27 07.06.2022
1075 Clouds 18 1026 27 10000 4.63 260 23:46 06.06.2022
1076 Clouds 19 1026 24 10000 4.12 300 22:54 06.06.2022
1077 Clouds 19 1027 24 10000 4.63 310 22:29 06.06.2022
1078 Clouds 17 1028 25 10000 4.12 260 20:43 06.06.2022
1079 Clouds 17 1030 32 10000 3.09 30 19:24 06.06.2022
1080 Clouds 16 1030 36 10000 2.06 0 18:48 06.06.2022
1081 Clouds 15 1032 44 10000 1.54 0 17:59 06.06.2022
1082 Clouds 12 1033 58 10000 1.54 310 16:57 06.06.2022
1083 Clouds 9 1033 66 10000 1.03 0 15:57 06.06.2022
1084 Clouds 8 1032 71 10000 1.03 0 14:59 06.06.2022
1085 Clouds 7 1032 76 10000 1.54 340 14:29 06.06.2022
1086 Clouds 5 1031 87 10000 2.57 280 13:21 06.06.2022
1087 Clouds 4 1031 87 10000 2.57 300 12:35 06.06.2022
1088 Clouds 5 1019 90 10000 0.6 336 11:50 06.06.2022
1089 Clouds 6 1019 89 10000 1.01 345 10:21 06.06.2022
1090 Clouds 7 1019 88 10000 1.16 350 09:23 06.06.2022
1091 Clouds 7 1019 88 10000 1.24 350 08:31 06.06.2022
1092 Clouds 7 1019 87 10000 1.04 346 07:28 06.06.2022
1093 Clouds 10 1031 71 10000 2.06 90 04:42 06.06.2022
1094 Clouds 13 1030 51 10000 3.09 290 02:27 06.06.2022
1095 Clouds 15 1028 47 10000 2.06 0 00:57 06.06.2022
1096 Rain 14 1028 47 10000 2.06 0 00:35 06.06.2022
1097 Clouds 17 1028 39 10000 4.63 360 23:28 05.06.2022
1098 Clouds 19 1028 37 10000 5.14 360 22:33 05.06.2022
1099 Clouds 19 1028 30 10000 3.6 330 20:40 05.06.2022
1100 Clouds 17 1031 34 10000 2.06 240 19:26 05.06.2022
1101 Clouds 16 1033 39 10000 2.06 60 18:26 05.06.2022
1102 Clouds 15 1033 44 10000 2.06 40 17:50 05.06.2022
1103 Clouds 14 1033 51 10000 2.06 20 17:23 05.06.2022
1104 Clouds 13 1034 58 10000 1.54 0 16:49 05.06.2022
1105 Clouds 11 1034 66 10000 1.03 0 15:50 05.06.2022
1106 Clouds 8 1033 87 10000 1.03 80 14:22 05.06.2022
1107 Clouds 8 1033 81 10000 1.03 0 12:43 05.06.2022
1108 Clouds 7 1020 87 10000 1.14 288 11:43 05.06.2022
1109 Rain 7 1019 84 10000 1.29 273 10:25 05.06.2022
1110 Clouds 7 1019 84 10000 1.29 273 09:59 05.06.2022
1111 Clouds 8 1020 83 10000 1.47 319 08:28 05.06.2022
1112 Clouds 8 1019 85 10000 1.43 334 07:41 05.06.2022
1113 Clouds 9 1032 71 10000 1.03 270 05:21 05.06.2022
1114 Clouds 10 1031 66 10000 1.03 80 03:43 05.06.2022
1115 Clouds 14 1028 51 10000 3.6 320 01:32 05.06.2022
1116 Clouds 16 1028 48 10000 4.12 350 00:29 05.06.2022
1117 Clouds 17 1028 36 10000 2.57 310 21:58 04.06.2022
1118 Clouds 19 1030 37 10000 2.57 340 20:21 04.06.2022
1119 Clouds 15 1032 51 10000 1.03 0 18:19 04.06.2022
1120 Rain 12 1034 58 10000 1.03 0 16:43 04.06.2022
1121 Rain 10 1034 66 10000 1.03 0 16:18 04.06.2022
1122 Rain 7 1033 81 10000 1.03 0 14:48 04.06.2022
1123 Clouds 6 1032 81 10000 0.51 0 12:35 04.06.2022
1124 Clouds 7 1019 85 10000 0.73 341 11:18 04.06.2022
1125 Clouds 7 1019 85 10000 0.73 341 10:43 04.06.2022
1126 Clouds 7 1019 85 10000 0.95 357 09:42 04.06.2022
1127 Clouds 7 1019 85 10000 1.16 359 08:41 04.06.2022
1128 Clouds 7 1020 85 10000 1.62 333 07:40 04.06.2022
1129 Clouds 7 1032 81 10000 2.06 60 05:29 04.06.2022
1130 Clouds 11 1029 62 10000 3.6 290 01:27 04.06.2022
1131 Clouds 15 1029 48 10000 1.03 0 23:59 03.06.2022
1132 Rain 15 1029 48 10000 1.54 290 22:40 03.06.2022
1133 Clouds 15 1030 48 10000 1.03 0 21:30 03.06.2022
1134 Clouds 13 1031 54 10000 1.03 0 20:37 03.06.2022
1135 Clouds 11 1033 58 10000 1.03 0 18:28 03.06.2022
1136 Clouds 9 1034 66 10000 1.03 0 16:47 03.06.2022
1137 Clouds 6 1034 76 10000 1.03 0 15:23 03.06.2022
1138 Clouds 2 1033 87 10000 1.54 90 13:28 03.06.2022
1139 Clouds 6 1021 87 10000 1.35 9 11:40 03.06.2022
1140 Clouds 6 1020 85 10000 1.13 5 09:45 03.06.2022
1141 Clouds 7 1020 85 10000 1.22 13 09:24 03.06.2022
1142 Clouds 7 1020 84 10000 1.47 17 07:27 03.06.2022
1143 Clouds 6 1032 76 10000 1.03 0 06:39 03.06.2022
1144 Clouds 6 1032 76 10000 1.03 0 06:20 03.06.2022
1145 Clouds 13 1028 44 10000 3.09 270 00:41 03.06.2022
1146 Clouds 18 1027 27 10000 5.66 310 22:48 02.06.2022
1147 Clouds 18 1027 32 10000 6.17 280 21:57 02.06.2022
1148 Clouds 16 1029 39 10000 2.57 270 20:22 02.06.2022
1149 Clouds 16 1029 39 10000 2.57 270 20:22 02.06.2022
1150 Clouds 16 1029 39 10000 3.09 270 19:50 02.06.2022
1151 Clouds 15 1030 44 10000 1.03 0 19:32 02.06.2022
1152 Clouds 14 1032 51 10000 1.54 0 17:35 02.06.2022
1153 Clouds 10 1033 62 10000 1.54 70 16:28 02.06.2022
1154 Clouds 7 1032 76 10000 1.54 90 14:34 02.06.2022
1155 Clouds 6 1031 81 10000 1.54 110 13:30 02.06.2022
1156 Clouds 5 1031 81 10000 1.03 90 12:40 02.06.2022
1157 Clouds 7 1018 89 10000 1.06 264 10:20 02.06.2022
1158 Rain 7 1019 89 10000 1.35 301 09:28 02.06.2022
1159 Rain 7 1019 89 10000 1.59 317 08:28 02.06.2022
1160 Rain 7 1019 88 10000 1.47 304 07:34 02.06.2022
1161 Clouds 7 1030 76 10000 1.03 70 05:33 02.06.2022
1162 Clouds 9 1030 62 10000 1.03 0 03:48 02.06.2022
1163 Clouds 15 1026 39 10000 5.66 310 23:55 01.06.2022
1164 Clouds 17 1026 34 10000 6.17 300 22:54 01.06.2022
1165 Clouds 16 1027 39 10000 4.63 280 21:45 01.06.2022
1166 Clouds 16 1027 36 10000 6.69 280 21:20 01.06.2022
1167 Clouds 18 1028 34 10000 5.66 280 20:38 01.06.2022
1168 Clouds 16 1029 42 10000 2.06 0 19:48 01.06.2022
1169 Clouds 11 1032 58 10000 2.06 90 17:57 01.06.2022
1170 Clouds 10 1032 62 10000 2.57 90 16:41 01.06.2022
1171 Clouds 9 1032 71 10000 2.06 100 15:37 01.06.2022
1172 Clouds 6 1030 87 10000 1.54 100 13:57 01.06.2022
1173 Clouds 6 1030 87 10000 1.54 100 12:42 01.06.2022
1174 Rain 6 1018 88 10000 1.14 305 10:37 01.06.2022
1175 Clouds 6 1018 87 10000 1.53 332 09:25 01.06.2022
1176 Clouds 7 1018 87 10000 1.71 332 07:56 01.06.2022
1177 Clouds 5 1031 87 10000 1.03 0 06:41 01.06.2022
1178 Clouds 9 1029 81 10000 3.09 110 01:30 01.06.2022
1179 Clouds 12 1028 58 10000 1.54 230 23:41 31.05.2022
1180 Clouds 11 1028 62 10000 1.54 240 22:37 31.05.2022
1181 Clouds 11 1028 62 10000 5.14 280 21:46 31.05.2022
1182 Clouds 15 1028 44 10000 1.54 70 20:52 31.05.2022
1183 Clouds 15 1028 44 10000 1.03 0 20:31 31.05.2022
1184 Clouds 14 1030 47 10000 1.54 90 18:57 31.05.2022
1185 Clouds 12 1031 54 10000 1.03 0 17:51 31.05.2022
1186 Clouds 11 1031 58 10000 1.03 0 17:31 31.05.2022
1187 Clouds 9 1032 66 10000 1.03 0 15:42 31.05.2022
1188 Clouds 6 1032 81 10000 0 0 14:34 31.05.2022
1189 Clouds 5 1030 81 10000 0.51 80 12:22 31.05.2022
1190 Clouds 6 1019 86 10000 0.68 324 11:42 31.05.2022
1191 Clouds 6 1018 86 10000 1.58 359 09:50 31.05.2022
1192 Clouds 7 1018 84 10000 1.62 351 07:41 31.05.2022
1193 Clouds 7 1018 82 10000 1.61 352 07:41 31.05.2022
1194 Clouds 7 1030 71 10000 0 0 05:24 31.05.2022
1195 Clouds 12 1028 50 10000 1.54 80 02:51 31.05.2022
1196 Clouds 19 1026 32 10000 4.12 310 23:29 30.05.2022
1197 Clouds 19 1026 30 10000 3.6 340 22:59 30.05.2022
1198 Clouds 18 1026 32 10000 4.63 20 22:31 30.05.2022
1199 Clouds 20 1026 23 10000 4.63 300 21:35 30.05.2022
1200 Clouds 19 1028 24 10000 4.12 300 20:31 30.05.2022
1201 Clouds 18 1029 30 10000 2.57 0 19:26 30.05.2022
1202 Clouds 15 1031 39 10000 1.03 0 17:44 30.05.2022
1203 Clouds 13 1032 47 10000 1.03 0 17:18 30.05.2022
1204 Clouds 9 1033 62 10000 1.03 0 15:44 30.05.2022
1205 Clouds 1 1031 87 10000 0.51 300 12:58 30.05.2022
1206 Clouds 5 1019 88 10000 0.72 320 11:26 30.05.2022
1207 Clouds 6 1018 87 10000 0.92 315 09:39 30.05.2022
1208 Clear 7 1019 84 10000 1.18 311 07:24 30.05.2022
1209 Clear 6 1030 70 10000 1.03 0 05:52 30.05.2022
1210 Clear 9 1028 53 10000 2.57 270 03:18 30.05.2022
1211 Clouds 19 1026 24 10000 4.12 300 23:32 29.05.2022
1212 Clouds 21 1026 21 10000 4.12 290 22:40 29.05.2022
1213 Clouds 19 1026 21 10000 3.09 270 21:40 29.05.2022
1214 Clouds 19 1029 24 10000 3.09 40 19:57 29.05.2022
1215 Clouds 17 1030 24 10000 2.06 0 19:28 29.05.2022
1216 Clear 14 1032 41 10000 1.54 0 17:56 29.05.2022
1217 Clear 8 1033 66 10000 1.03 0 15:59 29.05.2022
1218 Clear 8 1033 66 10000 1.03 0 15:40 29.05.2022
1219 Clear 5 1033 75 10000 0.51 0 14:44 29.05.2022
1220 Clouds 0 1031 93 10000 1.03 0 12:21 29.05.2022
1221 Clouds 5 1019 90 10000 0.84 279 10:45 29.05.2022
1222 Clouds 5 1019 88 10000 1.07 272 09:52 29.05.2022
1223 Clear 6 1019 85 10000 1.32 311 07:28 29.05.2022
1224 Clear 5 1030 70 10000 1.03 0 04:51 29.05.2022
1225 Clear 8 1030 57 10000 1.54 80 04:31 29.05.2022
1226 Clouds 15 1027 31 10000 4.63 310 00:48 29.05.2022
1227 Clouds 18 1026 26 10000 5.66 310 23:42 28.05.2022
1228 Clouds 18 1026 27 10000 4.12 270 22:56 28.05.2022
1229 Clouds 19 1027 24 10000 4.12 0 21:45 28.05.2022
1230 Clouds 19 1028 22 10000 2.57 0 20:40 28.05.2022
1231 Clouds 16 1031 34 10000 2.06 0 19:19 28.05.2022
1232 Clouds 13 1033 44 10000 1.54 0 18:19 28.05.2022
1233 Clouds 9 1034 66 10000 1.03 0 16:57 28.05.2022
1234 Clouds 7 1034 71 10000 0 0 15:45 28.05.2022
1235 Clouds 6 1034 76 10000 0.51 0 15:19 28.05.2022
1236 Clouds 1 1033 93 10000 1.03 90 13:27 28.05.2022
1237 Clouds 1 1033 93 10000 1.03 90 13:27 28.05.2022
1238 Clouds 1 1032 87 10000 1.03 0 12:42 28.05.2022
1239 Clouds 4 1021 91 10000 0.95 291 11:28 28.05.2022
1240 Clouds 4 1021 91 10000 0.95 291 10:34 28.05.2022
1241 Clear 5 1021 89 10000 1.52 301 09:46 28.05.2022
1242 Clear 6 1021 87 10000 1.4 335 07:56 28.05.2022
1243 Clear 5 1032 70 10000 0.51 0 06:32 28.05.2022
1244 Clear 5 1032 75 10000 1.03 0 04:43 28.05.2022
1245 Clouds 9 1030 57 10000 2.57 280 01:46 28.05.2022
1246 Clouds 14 1029 44 10000 5.66 300 23:55 27.05.2022
1247 Clouds 20 1029 28 10000 4.12 310 22:38 27.05.2022
1248 Clouds 17 1030 36 10000 3.09 20 21:22 27.05.2022
1249 Clouds 16 1030 36 10000 2.57 340 20:42 27.05.2022
1250 Clouds 15 1031 41 10000 1.54 0 20:18 27.05.2022
1251 Clouds 15 1033 47 10000 1.03 70 19:36 27.05.2022
1252 Clouds 14 1033 47 10000 1.03 70 19:18 27.05.2022
1253 Haze 10 1036 66 10000 1.54 80 16:53 27.05.2022
1254 Clouds 7 1036 76 10000 0.51 0 15:55 27.05.2022
1255 Clouds 5 1035 81 10000 1.54 80 14:47 27.05.2022
1256 Clouds 4 1034 87 10000 1.03 70 13:40 27.05.2022
1257 Clouds 5 1022 87 10000 0.54 314 11:55 27.05.2022
1258 Clouds 5 1022 87 10000 0.54 314 11:30 27.05.2022
1259 Clouds 5 1022 86 10000 0.88 311 10:38 27.05.2022
1260 Clear 5 1022 86 10000 1.15 321 09:58 27.05.2022
1261 Clouds 6 1022 85 10000 1.28 322 09:28 27.05.2022
1262 Clouds 6 1022 86 10000 1.2 355 07:30 27.05.2022
1263 Clouds 6 1033 65 10000 1.54 310 03:38 27.05.2022
1264 Clouds 13 1030 41 10000 2.06 340 01:19 27.05.2022
1265 Clouds 14 1030 41 10000 5.66 270 23:23 26.05.2022
1266 Clouds 17 1029 36 10000 3.6 10 21:53 26.05.2022
1267 Clouds 16 1029 39 10000 5.66 10 21:27 26.05.2022
1268 Clouds 16 1031 29 10000 2.57 0 19:34 26.05.2022
1269 Clouds 18 1033 36 10000 2.06 0 18:45 26.05.2022
1270 Clouds 14 1034 47 10000 1.54 0 17:36 26.05.2022
1271 Clouds 10 1035 62 10000 2.06 80 16:18 26.05.2022
1272 Clouds 9 1036 71 10000 1.54 90 15:19 26.05.2022
1273 Clouds 4 1035 87 10000 0 0 13:58 26.05.2022
1274 Clouds 7 1021 72 10000 0.85 328 11:59 26.05.2022
1275 Clouds 7 1020 70 10000 1 348 11:18 26.05.2022
1276 Clouds 8 1020 70 10000 0.82 16 09:38 26.05.2022
1277 Clouds 8 1020 71 10000 1.24 330 08:40 26.05.2022
1278 Clouds 7 1033 66 10000 0 0 05:43 26.05.2022
1279 Clouds 11 1031 58 10000 5.14 280 02:24 26.05.2022
1280 Clouds 15 1029 36 10000 5.14 300 23:53 25.05.2022
1281 Clouds 16 1028 34 10000 5.66 280 22:52 25.05.2022
1282 Rain 16 1029 36 10000 3.09 310 21:42 25.05.2022
1283 Clouds 16 1030 36 10000 2.57 300 20:49 25.05.2022
1284 Clouds 16 1031 36 10000 1.54 0 19:42 25.05.2022
1285 Clouds 15 1033 41 10000 1.03 0 18:48 25.05.2022
1286 Clouds 11 1034 54 10000 1.54 60 17:24 25.05.2022
1287 Clouds 9 1034 62 10000 1.03 0 16:33 25.05.2022
1288 Clouds 8 1035 66 10000 1.54 40 15:36 25.05.2022
1289 Clouds 6 1034 76 10000 0.51 0 14:50 25.05.2022
1290 Clouds 4 1034 87 10000 0.51 0 14:32 25.05.2022
1291 Clouds 2 1033 87 10000 1.54 80 13:23 25.05.2022
1292 Clouds 6 1022 85 10000 0.53 297 11:50 25.05.2022
1293 Clouds 5 1022 88 10000 0.81 296 10:41 25.05.2022
1294 Clouds 5 1021 88 10000 1.01 301 09:38 25.05.2022
1295 Clouds 6 1021 84 10000 1.42 327 07:36 25.05.2022
1296 Clear 5 1032 70 10000 2.06 270 05:41 25.05.2022
1297 Clear 9 1018 76 10000 2.35 12 02:41 25.05.2022
1298 Clouds 18 1026 16 10000 4.12 290 23:50 24.05.2022
1299 Clouds 20 1026 18 10000 3.6 280 22:59 24.05.2022
1300 Clouds 20 1026 18 10000 3.6 280 22:59 24.05.2022
1301 Clouds 20 1026 17 10000 4.12 290 21:58 24.05.2022
1302 Clouds 20 1026 17 10000 4.12 290 21:37 24.05.2022
1303 Clouds 20 1027 16 10000 4.12 310 21:19 24.05.2022
1304 Clear 16 1030 25 10000 2.06 0 19:27 24.05.2022
1305 Clear 17 1031 27 10000 2.06 0 18:38 24.05.2022
1306 Clear 10 1033 58 10000 1.03 0 16:40 24.05.2022
1307 Clouds 8 1034 61 10000 1.03 0 15:52 24.05.2022
1308 Clear 5 1033 75 10000 0.51 0 14:45 24.05.2022
1309 Clear 2 1033 81 10000 1.03 0 13:48 24.05.2022
1310 Clear 1 1032 87 10000 0.51 0 12:31 24.05.2022
1311 Clear 5 1020 89 10000 0.84 318 09:52 24.05.2022
1312 Clear 5 1020 87 10000 0.87 335 09:27 24.05.2022
1313 Clear 5 1020 87 10000 0.87 335 08:42 24.05.2022
1314 Clear 5 1032 70 10000 1.54 90 06:42 24.05.2022
1315 Clear 9 1030 53 10000 2.06 290 03:48 24.05.2022
1316 Clear 12 1028 28 10000 2.57 280 01:47 24.05.2022
1317 Clear 15 1027 20 10000 3.6 300 00:53 24.05.2022
1318 Clear 19 1027 14 10000 3.09 0 22:29 23.05.2022
1319 Clear 19 1027 13 10000 3.6 290 21:53 23.05.2022
1320 Clouds 19 1028 14 10000 3.6 300 20:55 23.05.2022
1321 Clouds 18 1029 22 10000 2.57 0 20:21 23.05.2022
1322 Clouds 17 1031 27 9000 3.09 320 19:30 23.05.2022
1323 Clouds 16 1031 27 10000 1.54 0 18:42 23.05.2022
1324 Clouds 15 1032 29 10000 1.54 0 18:22 23.05.2022
1325 Clouds 11 1034 43 10000 1.03 0 16:46 23.05.2022
1326 Haze 5 1035 70 10000 1.03 0 14:49 23.05.2022
1327 Clouds 4 1023 91 10000 1.01 247 12:30 23.05.2022
1328 Clouds 4 1022 91 10000 1.4 276 11:25 23.05.2022
1329 Clouds 5 1021 89 10000 1.52 287 09:49 23.05.2022
1330 Clouds 6 1021 88 10000 1.73 296 08:51 23.05.2022
1331 Clouds 6 1021 86 10000 1.5 300 07:46 23.05.2022
1332 Clouds 4 1032 56 10000 0 0 06:43 23.05.2022
1333 Clear 8 1031 43 10000 1.54 280 04:43 23.05.2022
1334 Clouds 12 1030 30 10000 2.06 270 02:19 23.05.2022
1335 Clouds 13 1029 28 10000 2.57 330 01:35 23.05.2022
1336 Clouds 17 1028 24 10000 5.66 280 23:42 22.05.2022
1337 Clouds 17 1028 25 10000 5.14 270 22:35 22.05.2022
1338 Clouds 18 1029 22 10000 3.09 320 21:54 22.05.2022
1339 Clouds 18 1030 22 9000 3.6 320 20:51 22.05.2022
1340 Clouds 19 1031 21 10000 2.57 0 20:25 22.05.2022
1341 Clouds 18 1032 20 10000 4.63 300 19:54 22.05.2022
1342 Clouds 17 1033 25 10000 2.06 0 18:55 22.05.2022
1343 Clouds 15 1034 31 10000 1.54 0 18:24 22.05.2022
1344 Clouds 13 1035 33 10000 1.03 0 17:32 22.05.2022
1345 Clouds 11 1036 54 10000 1.03 0 16:25 22.05.2022
1346 Clouds 5 1037 81 10000 1.54 90 14:48 22.05.2022
1347 Clouds 2 1036 87 10000 0.51 0 13:45 22.05.2022
1348 Clouds 2 1035 87 10000 0 0 12:50 22.05.2022
1349 Clouds 7 1023 86 10000 0.75 266 11:42 22.05.2022
1350 Clouds 6 1022 87 10000 1.42 308 09:43 22.05.2022
1351 Clouds 6 1023 87 10000 1.56 297 08:37 22.05.2022
1352 Clouds 7 1023 86 10000 2.09 318 07:21 22.05.2022
1353 Clouds 7 1034 66 10000 1.03 0 05:44 22.05.2022
1354 Clouds 12 1031 38 10000 3.09 280 01:43 22.05.2022
1355 Clouds 16 1030 29 10000 3.6 320 00:43 22.05.2022
1356 Clouds 19 1029 24 9000 4.12 270 23:55 21.05.2022
1357 Clouds 17 1029 25 10000 4.63 280 23:20 21.05.2022
1358 Clouds 19 1030 21 10000 3.09 310 21:43 21.05.2022
1359 Clouds 18 1030 22 10000 3.09 110 21:23 21.05.2022
1360 Clouds 20 1031 21 10000 2.57 0 20:25 21.05.2022
1361 Clouds 20 1032 19 10000 3.09 290 19:35 21.05.2022
1362 Clouds 14 1035 33 10000 1.54 0 17:51 21.05.2022
1363 Clouds 12 1036 38 10000 1.54 0 16:46 21.05.2022
1364 Haze 5 1036 65 10000 1.03 90 14:38 21.05.2022
1365 Clouds 2 1035 75 10000 0.51 100 13:52 21.05.2022
1366 Clouds 1 1034 80 10000 0.51 290 12:57 21.05.2022
1367 Clouds 1 1034 80 10000 0.51 290 12:37 21.05.2022
1368 Clouds 5 1023 85 10000 1.18 289 10:44 21.05.2022
1369 Clouds 5 1022 83 10000 1.34 281 09:44 21.05.2022
1370 Clouds 6 1022 81 10000 1.67 286 08:57 21.05.2022
1371 Clouds 6 1021 82 10000 1.82 299 07:54 21.05.2022
1372 Clouds 8 1020 81 10000 1.57 337 04:33 21.05.2022
1373 Clouds 16 1029 29 10000 3.09 350 00:38 21.05.2022
1374 Clouds 19 1028 19 10000 2.57 40 22:59 20.05.2022
1375 Clouds 20 1028 18 10000 2.57 40 22:24 20.05.2022
1376 Clouds 19 1028 19 10000 1.54 0 21:47 20.05.2022
1377 Clouds 21 1029 16 10000 2.57 0 20:57 20.05.2022
1378 Clouds 21 1029 16 10000 2.57 0 20:25 20.05.2022
1379 Clouds 19 1031 18 10000 1.54 0 19:26 20.05.2022
1380 Clouds 18 1032 22 10000 2.06 0 18:47 20.05.2022
1381 Clouds 15 1033 27 10000 1.54 0 17:37 20.05.2022
1382 Clouds 11 1035 37 10000 1.54 0 16:20 20.05.2022
1383 Clouds 9 1035 43 10000 2.06 80 15:53 20.05.2022
1384 Clouds 6 1034 53 10000 0.51 0 14:31 20.05.2022
1385 Clouds 2 1034 69 10000 0 0 13:55 20.05.2022
1386 Clouds 5 1021 88 10000 0.92 259 11:38 20.05.2022
1387 Clouds 6 1020 85 10000 1.32 286 10:23 20.05.2022
1388 Clouds 7 1020 84 10000 1.23 275 08:45 20.05.2022
1389 Clouds 7 1021 82 10000 0.47 134 07:18 20.05.2022
1390 Clouds 8 1033 49 10000 3.09 290 06:34 20.05.2022
1391 Clouds 10 1032 43 10000 1.03 0 04:59 20.05.2022
1392 Clouds 14 1028 26 10000 2.06 260 00:54 20.05.2022
1393 Clouds 21 1028 10 10000 2.57 0 22:48 19.05.2022
1394 Clouds 20 1028 10 10000 2.57 0 22:25 19.05.2022
1395 Clouds 21 1028 10 10000 2.57 0 21:48 19.05.2022
1396 Clouds 19 1029 15 10000 3.6 0 21:23 19.05.2022
1397 Clouds 20 1029 16 10000 2.06 0 20:39 19.05.2022
1398 Clouds 19 1030 19 10000 1.54 0 19:52 19.05.2022
1399 Clouds 17 1033 32 10000 2.06 40 18:31 19.05.2022
1400 Clouds 14 1034 47 10000 1.54 0 16:51 19.05.2022
1401 Clouds 10 1035 66 10000 0.51 0 15:21 19.05.2022
1402 Clouds 6 1034 81 10000 2.06 120 14:26 19.05.2022
1403 Clouds 5 1033 81 10000 1.03 0 13:47 19.05.2022
1404 Clouds 6 1022 90 10000 1.09 255 11:41 19.05.2022
1405 Clouds 6 1021 90 10000 1.61 314 09:29 19.05.2022
1406 Clouds 7 1022 88 10000 1.34 342 08:18 19.05.2022
1407 Clouds 8 1033 66 10000 1.54 100 06:18 19.05.2022
1408 Clouds 8 1033 66 10000 1.54 100 06:18 19.05.2022
1409 Clouds 14 1030 41 10000 3.6 280 02:27 19.05.2022
1410 Clouds 18 1028 27 10000 2.57 310 00:44 19.05.2022
1411 Clouds 22 1028 14 10000 1.54 150 22:53 18.05.2022
1412 Clouds 22 1028 14 10000 1.54 150 22:35 18.05.2022
1413 Clouds 20 1030 21 10000 3.6 290 21:31 18.05.2022
1414 Clouds 21 1030 18 10000 1.54 0 20:50 18.05.2022
1415 Clouds 20 1031 19 10000 2.57 0 20:18 18.05.2022
1416 Clouds 20 1031 19 10000 2.57 0 20:18 18.05.2022
1417 Clouds 19 1034 34 10000 3.09 350 18:33 18.05.2022
1418 Clouds 18 1034 34 10000 3.09 350 18:33 18.05.2022
1419 Clouds 16 1034 39 10000 2.06 340 17:41 18.05.2022
1420 Clouds 16 1035 42 10000 1.03 0 17:23 18.05.2022
1421 Clouds 14 1036 47 10000 1.54 0 16:34 18.05.2022
1422 Clouds 12 1036 58 10000 1.03 0 15:42 18.05.2022
1423 Clouds 8 1036 71 10000 1.03 0 14:35 18.05.2022
1424 Clouds 3 1035 87 10000 1.03 290 13:44 18.05.2022
1425 Clouds 3 1034 87 10000 1.54 280 12:48 18.05.2022
1426 Clouds 6 1023 92 10000 0.66 239 11:36 18.05.2022
1427 Clouds 6 1022 93 10000 1.1 230 11:18 18.05.2022
1428 Clouds 7 1022 93 10000 1.13 262 09:50 18.05.2022
1429 Clouds 7 1023 91 10000 0.77 281 07:51 18.05.2022
1430 Clouds 11 1034 54 10000 2.06 270 06:48 18.05.2022
1431 Clouds 15 1030 48 10000 5.14 280 01:53 18.05.2022
1432 Clouds 19 1029 30 10000 3.6 310 00:23 18.05.2022
1433 Clouds 20 1029 24 10000 2.57 250 22:18 17.05.2022
1434 Clouds 20 1030 28 10000 1.54 0 21:20 17.05.2022
1435 Clouds 20 1030 28 10000 1.54 0 21:20 17.05.2022
1436 Clouds 20 1031 30 10000 3.09 40 20:22 17.05.2022
1437 Clouds 18 1033 34 10000 2.06 0 19:28 17.05.2022
1438 Clouds 17 1035 39 10000 1.54 0 17:52 17.05.2022
1439 Clouds 15 1036 51 10000 1.54 0 16:59 17.05.2022
1440 Clouds 14 1036 58 10000 1.54 0 16:30 17.05.2022
1441 Clouds 11 1036 71 10000 1.03 0 15:32 17.05.2022
1442 Clouds 10 1035 76 10000 0.51 0 14:30 17.05.2022
1443 Clouds 9 1035 76 10000 0.51 0 13:35 17.05.2022
1444 Clouds 9 1022 80 10000 1.04 306 11:46 17.05.2022
1445 Clouds 8 1022 86 10000 0.58 348 09:35 17.05.2022
1446 Clouds 7 1022 87 10000 0.31 9 08:36 17.05.2022
1447 Clouds 8 1034 81 10000 1.54 300 06:50 17.05.2022
1448 Clouds 12 1033 62 10000 2.06 80 03:45 17.05.2022
1449 Clouds 14 1030 51 10000 3.6 360 00:45 17.05.2022
1450 Clouds 19 1029 30 10000 3.09 260 22:44 16.05.2022
1451 Clouds 21 1029 26 10000 2.06 0 21:45 16.05.2022
1452 Clouds 20 1030 24 10000 2.57 0 20:47 16.05.2022
1453 Clouds 19 1031 32 10000 2.57 80 19:49 16.05.2022
1454 Clouds 16 1034 45 10000 2.06 90 18:21 16.05.2022
1455 Clouds 10 1035 71 10000 1.54 70 15:53 16.05.2022
1456 Clouds 9 1034 76 10000 1.03 0 14:38 16.05.2022
1457 Clouds 7 1033 81 10000 1.03 80 13:23 16.05.2022
1458 Clouds 7 1021 86 10000 0.97 275 11:31 16.05.2022
1459 Clouds 8 1021 85 10000 0.48 357 09:47 16.05.2022
1460 Clouds 7 1033 81 10000 1.54 290 06:58 16.05.2022
1461 Clouds 8 1032 76 10000 1.03 0 04:41 16.05.2022
1462 Clouds 18 1028 39 10000 4.63 20 23:44 15.05.2022
1463 Clouds 20 1028 23 10000 2.06 0 22:34 15.05.2022
1464 Clouds 20 1028 24 10000 2.06 0 21:47 15.05.2022
1465 Clouds 20 1029 26 10000 2.06 0 20:59 15.05.2022
1466 Clouds 18 1031 27 10000 2.06 0 19:53 15.05.2022
1467 Clouds 16 1033 42 10000 1.03 0 17:52 15.05.2022
1468 Clouds 17 1033 42 10000 1.03 0 17:52 15.05.2022
1469 Clouds 13 1034 51 10000 1.54 0 16:35 15.05.2022
1470 Clear 4 1034 81 10000 0 0 14:18 15.05.2022
1471 Clear 1 1033 93 10000 1.54 300 13:23 15.05.2022
1472 Clear 5 1021 90 10000 0.45 218 11:41 15.05.2022
1473 Clear 6 1021 89 10000 0.45 275 10:35 15.05.2022
1474 Clear 6 1020 86 10000 0.66 267 08:47 15.05.2022
1475 Clear 6 1032 76 10000 2.06 270 06:59 15.05.2022
1476 Clear 6 1032 76 10000 2.06 270 06:38 15.05.2022
1477 Clouds 14 1029 47 10000 3.09 350 01:43 15.05.2022
1478 Clouds 18 1027 34 10000 4.12 10 23:52 14.05.2022
1479 Clouds 19 1027 34 10000 5.14 340 23:33 14.05.2022
1480 Clouds 21 1028 26 10000 5.14 310 21:43 14.05.2022
1481 Clouds 21 1028 24 10000 4.12 280 21:18 14.05.2022
1482 Clouds 19 1030 32 10000 4.12 330 19:40 14.05.2022
1483 Clouds 18 1031 32 10000 1.54 0 19:20 14.05.2022
1484 Clouds 17 1031 34 10000 2.06 330 18:47 14.05.2022
1485 Clouds 15 1033 51 10000 1.54 60 17:28 14.05.2022
1486 Clear 10 1034 66 10000 1.03 0 15:34 14.05.2022
1487 Clear 6 1034 81 10000 1.03 0 14:36 14.05.2022
1488 Clear 2 1033 87 10000 1.54 280 12:51 14.05.2022
1489 Clear 5 1021 90 10000 0.75 284 11:37 14.05.2022
1490 Clear 6 1020 88 10000 0.88 312 10:23 14.05.2022
1491 Clear 6 1020 88 10000 0.88 312 09:54 14.05.2022
1492 Clear 6 1020 87 10000 1.52 288 08:56 14.05.2022
1493 Clear 7 1032 76 10000 1.54 270 06:52 14.05.2022
1494 Clear 9 1032 71 10000 1.54 90 03:27 14.05.2022
1495 Clouds 16 1028 39 10000 7.72 300 23:45 13.05.2022
1496 Clouds 17 1027 36 10000 5.14 290 23:22 13.05.2022
1497 Clouds 17 1027 36 10000 5.14 250 22:51 13.05.2022
1498 Clouds 18 1027 39 10000 5.14 260 22:19 13.05.2022
1499 Clouds 20 1028 35 10000 5.66 280 20:49 13.05.2022
1500 Clouds 20 1029 30 10000 4.12 290 20:27 13.05.2022
1501 Clouds 20 1029 30 10000 5.14 290 19:34 13.05.2022
1502 Clouds 15 1031 44 10000 1.54 120 18:41 13.05.2022
1503 Clouds 15 1033 51 10000 1.54 0 17:29 13.05.2022
1504 Clouds 12 1033 62 10000 1.03 0 16:23 13.05.2022
1505 Clouds 11 1033 66 10000 1.03 0 15:39 13.05.2022
1506 Clouds 7 1032 81 10000 2.06 90 13:57 13.05.2022
1507 Clouds 6 1032 87 10000 1.54 80 12:33 13.05.2022
1508 Clouds 5 1020 90 10000 0.95 292 11:29 13.05.2022
1509 Clear 5 1020 89 10000 0.94 302 09:43 13.05.2022
1510 Clear 6 1020 87 10000 1.26 329 08:50 13.05.2022
1511 Clouds 6 1020 86 10000 1.36 347 07:49 13.05.2022
1512 Clouds 5 1033 87 10000 1.54 290 06:35 13.05.2022
1513 Clouds 9 1032 71 10000 2.06 290 04:22 13.05.2022
1514 Clouds 12 1029 58 10000 2.06 290 00:39 13.05.2022
1515 Clouds 16 1027 39 10000 4.12 20 22:46 12.05.2022
1516 Clouds 17 1028 27 10000 2.57 300 21:58 12.05.2022
1517 Clouds 18 1029 27 10000 2.57 0 20:38 12.05.2022
1518 Clouds 15 1031 29 10000 2.06 240 19:23 12.05.2022
1519 Clouds 14 1033 44 10000 1.03 0 17:59 12.05.2022
1520 Clouds 12 1034 54 10000 1.54 30 16:27 12.05.2022
1521 Clouds 6 1034 81 10000 1.54 90 14:47 12.05.2022
1522 Clouds 5 1033 81 10000 1.03 110 13:47 12.05.2022
1523 Clouds 6 1021 85 10000 0.79 337 11:25 12.05.2022
1524 Clouds 6 1020 85 10000 0.94 360 09:37 12.05.2022
1525 Clouds 6 1021 86 10000 1.13 1 08:51 12.05.2022
1526 Clear 6 1021 87 10000 1.36 8 07:57 12.05.2022
1527 Clear 4 1032 75 10000 2.06 280 06:55 12.05.2022
1528 Clear 6 1030 57 10000 4.12 280 03:31 12.05.2022
1529 Clouds 16 1028 29 10000 4.12 310 00:41 12.05.2022
1530 Clouds 19 1027 24 10000 2.06 0 22:41 11.05.2022
1531 Clouds 18 1027 22 10000 3.6 280 21:56 11.05.2022
1532 Clouds 19 1028 22 10000 2.06 0 21:24 11.05.2022
1533 Clouds 18 1030 24 10000 3.09 320 19:36 11.05.2022
1534 Clouds 15 1033 39 10000 1.54 0 17:24 11.05.2022
1535 Clouds 8 1034 71 10000 1.03 0 15:59 11.05.2022
1536 Clouds 5 1034 81 10000 1.03 0 14:39 11.05.2022
1537 Clouds 5 1034 81 10000 1.03 0 14:39 11.05.2022
1538 Clouds 4 1034 87 10000 1.03 110 14:19 11.05.2022
1539 Clear 5 1021 93 10000 0.17 276 11:55 11.05.2022
1540 Clear 5 1021 93 10000 0.17 276 11:30 11.05.2022
1541 Clear 6 1021 90 10000 0.77 4 08:55 11.05.2022
1542 Clear 5 1033 81 10000 1.03 80 06:24 11.05.2022
1543 Clouds 11 1029 50 10000 2.57 280 01:28 11.05.2022
1544 Clouds 15 1029 41 10000 2.57 310 22:53 10.05.2022
1545 Clouds 15 1029 41 10000 3.09 280 22:19 10.05.2022
1546 Clouds 15 1031 41 10000 1.03 0 20:59 10.05.2022
1547 Clouds 15 1031 41 10000 0.51 0 20:21 10.05.2022
1548 Clouds 13 1033 47 10000 1.54 220 18:36 10.05.2022
1549 Clouds 13 1034 47 10000 1.03 0 17:37 10.05.2022
1550 Clouds 10 1035 62 10000 2.06 90 15:49 10.05.2022
1551 Clouds 5 1033 81 10000 1.54 110 12:48 10.05.2022
1552 Clear 5 1022 88 10000 0.98 351 11:53 10.05.2022
1553 Clear 5 1022 87 10000 1.13 359 11:21 10.05.2022
1554 Clear 5 1022 87 10000 1.13 359 10:55 10.05.2022
1555 Clear 6 1022 86 10000 1.58 10 09:27 10.05.2022
1556 Clear 6 1022 84 10000 1.64 12 07:47 10.05.2022
1557 Clear 7 1033 66 10000 1.54 280 04:35 10.05.2022
1558 Clouds 14 1030 36 10000 3.09 300 01:36 10.05.2022
1559 Clouds 17 1028 27 10000 6.17 290 23:42 09.05.2022
1560 Clouds 17 1028 27 10000 6.17 290 23:42 09.05.2022
1561 Clouds 19 1028 26 10000 4.12 330 22:30 09.05.2022
1562 Clouds 19 1029 26 10000 6.17 290 21:25 09.05.2022
1563 Clouds 17 1031 36 10000 2.06 0 19:52 09.05.2022
1564 Clouds 17 1031 36 10000 2.06 0 19:52 09.05.2022
1565 Clouds 14 1034 41 10000 2.06 0 18:22 09.05.2022
1566 Clouds 11 1035 50 10000 2.06 320 16:55 09.05.2022
1567 Clouds 11 1035 50 10000 2.06 320 16:55 09.05.2022
1568 Clouds 10 1035 62 10000 1.03 0 15:54 09.05.2022
1569 Clouds 10 1035 62 10000 1.03 0 15:35 09.05.2022
1570 Clouds 9 1034 71 10000 1.03 0 14:33 09.05.2022
1571 Clouds 7 1033 76 10000 1.03 110 13:51 09.05.2022
1572 Clouds 7 1033 81 10000 1.54 100 12:51 09.05.2022
1573 Clouds 4 1023 88 10000 0.63 316 11:52 09.05.2022
1574 Clouds 4 1022 87 10000 0.84 310 10:46 09.05.2022
1575 Clouds 4 1022 86 10000 0.78 317 09:59 09.05.2022
1576 Clouds 6 1021 86 10000 1.15 346 07:56 09.05.2022
1577 Clouds 6 1032 76 10000 1.03 0 04:33 09.05.2022
1578 Clouds 6 1032 76 10000 1.03 0 04:33 09.05.2022
1579 Clouds 17 1028 32 10000 5.66 310 00:23 09.05.2022
1580 Clouds 19 1028 19 10000 3.6 240 23:27 08.05.2022
1581 Clouds 19 1028 24 10000 3.6 320 22:29 08.05.2022
1582 Clouds 19 1030 28 10000 2.57 0 20:53 08.05.2022
1583 Clouds 19 1031 28 10000 3.09 310 20:18 08.05.2022
1584 Clouds 18 1031 27 10000 3.6 280 19:27 08.05.2022
1585 Clouds 17 1033 36 10000 4.12 0 18:35 08.05.2022
1586 Clouds 15 1034 44 10000 1.54 0 17:22 08.05.2022
1587 Clouds 11 1035 62 10000 1.03 0 15:44 08.05.2022
1588 Clouds 11 1034 62 10000 1.54 0 15:21 08.05.2022
1589 Clouds 5 1033 87 10000 2.06 290 12:46 08.05.2022
1590 Clouds 5 1022 88 10000 1.17 310 10:56 08.05.2022
1591 Clouds 5 1022 88 10000 1.19 326 10:22 08.05.2022
1592 Clouds 5 1022 88 10000 1.19 326 09:51 08.05.2022
1593 Clouds 6 1022 86 10000 1.13 326 07:41 08.05.2022
1594 Clouds 8 1033 71 10000 1.54 80 04:56 08.05.2022
1595 Clouds 11 1032 58 10000 1.03 0 03:20 08.05.2022
1596 Clouds 15 1029 48 10000 4.12 360 00:31 08.05.2022
1597 Clouds 15 1029 48 10000 4.63 360 23:54 07.05.2022
1598 Clouds 17 1029 39 10000 5.14 10 22:59 07.05.2022
1599 Clouds 17 1029 39 10000 5.14 10 22:35 07.05.2022
1600 Clouds 19 1029 34 10000 2.06 0 21:55 07.05.2022
1601 Clouds 18 1030 36 10000 1.54 0 21:20 07.05.2022
1602 Clouds 18 1032 37 10000 3.6 0 19:59 07.05.2022
1603 Clouds 17 1033 42 10000 2.57 60 18:41 07.05.2022
1604 Clouds 11 1036 62 10000 2.57 100 16:19 07.05.2022
1605 Clouds 9 1035 71 10000 2.06 90 14:46 07.05.2022
1606 Clear 6 1022 86 10000 1.26 9 11:19 07.05.2022
1607 Clear 6 1022 86 10000 0.9 10 09:39 07.05.2022
1608 Clear 7 1022 85 10000 0.93 358 08:28 07.05.2022
1609 Clear 7 1033 81 10000 0.51 0 06:44 07.05.2022
1610 Clear 8 1033 76 10000 0 0 05:41 07.05.2022
1611 Clear 10 1033 66 10000 0.51 0 03:54 07.05.2022
1612 Clouds 20 1028 30 10000 4.12 320 23:39 06.05.2022
1613 Clouds 20 1028 26 10000 2.06 70 22:33 06.05.2022
1614 Clouds 20 1029 26 10000 2.06 350 21:47 06.05.2022
1615 Clouds 20 1030 30 10000 2.06 0 20:39 06.05.2022
1616 Clouds 18 1032 32 10000 1.54 0 19:43 06.05.2022
1617 Clouds 18 1032 39 10000 2.57 100 19:19 06.05.2022
1618 Clouds 17 1033 45 10000 1.54 0 18:25 06.05.2022
1619 Clouds 13 1035 58 10000 2.57 80 17:27 06.05.2022
1620 Clouds 9 1036 76 10000 1.54 80 15:49 06.05.2022
1621 Clouds 6 1035 87 10000 2.57 90 14:58 06.05.2022
1622 Clouds 6 1034 87 10000 2.06 90 13:38 06.05.2022
1623 Clouds 6 1034 87 10000 2.06 100 12:42 06.05.2022
1624 Clear 6 1022 92 10000 0.52 269 11:58 06.05.2022
1625 Clear 6 1021 91 10000 0.64 316 10:36 06.05.2022
1626 Clear 6 1021 91 10000 0.5 353 09:46 06.05.2022
1627 Clear 7 1021 90 10000 0.59 2 08:59 06.05.2022
1628 Clouds 7 1021 87 10000 0.99 1 07:27 06.05.2022
1629 Clouds 8 1034 71 10000 1.54 270 06:24 06.05.2022
1630 Clouds 12 1032 58 10000 4.12 110 02:54 06.05.2022
1631 Clouds 14 1031 51 10000 2.57 60 01:57 06.05.2022
1632 Clouds 19 1028 28 10000 1.03 0 22:48 05.05.2022
1633 Clouds 19 1029 26 10000 2.06 0 21:45 05.05.2022
1634 Clouds 18 1031 32 10000 2.57 0 20:27 05.05.2022
1635 Clouds 15 1034 48 10000 2.06 0 18:36 05.05.2022
1636 Clouds 12 1035 66 10000 1.03 0 16:40 05.05.2022
1637 Clouds 10 1034 76 10000 0.51 0 14:55 05.05.2022
1638 Clouds 8 1033 76 10000 0 0 13:27 05.05.2022
1639 Clouds 6 1033 87 10000 1.54 290 12:54 05.05.2022
1640 Clouds 6 1021 89 10000 0.92 22 10:53 05.05.2022
1641 Clear 6 1020 89 10000 0.89 18 09:40 05.05.2022
1642 Clouds 7 1020 87 10000 1.24 11 07:45 05.05.2022
1643 Clouds 6 1032 81 10000 1.54 280 05:42 05.05.2022
1644 Clouds 14 1029 58 10000 4.12 310 02:18 05.05.2022
1645 Clouds 15 1029 51 10000 2.57 10 01:32 05.05.2022
1646 Clouds 20 1027 32 10000 3.09 290 23:53 04.05.2022
1647 Clouds 22 1028 30 10000 3.6 280 22:50 04.05.2022
1648 Clouds 18 1028 34 10000 4.12 260 21:54 04.05.2022
1649 Clouds 20 1028 32 10000 3.09 0 21:29 04.05.2022
1650 Clouds 19 1030 39 10000 2.06 0 20:30 04.05.2022
1651 Clouds 17 1031 36 10000 2.06 50 19:55 04.05.2022
1652 Clouds 20 1031 37 10000 2.06 0 19:31 04.05.2022
1653 Clouds 18 1033 45 10000 3.09 10 18:22 04.05.2022
1654 Clouds 16 1033 45 10000 1.54 0 17:58 04.05.2022
1655 Clouds 12 1034 62 10000 1.03 0 15:42 04.05.2022
1656 Clouds 10 1034 66 10000 1.03 0 15:24 04.05.2022
1657 Clouds 7 1034 81 10000 0.51 0 14:21 04.05.2022
1658 Clouds 6 1033 87 10000 1.03 110 13:50 04.05.2022
1659 Clouds 5 1033 93 10000 1.03 0 12:34 04.05.2022
1660 Clouds 7 1021 86 10000 1.37 341 10:57 04.05.2022
1661 Clouds 7 1021 87 10000 1.35 343 09:46 04.05.2022
1662 Clouds 8 1021 86 10000 1.49 2 08:49 04.05.2022
1663 Clouds 8 1021 87 10000 1.62 18 07:33 04.05.2022
1664 Clouds 11 1031 66 10000 1.03 0 02:59 04.05.2022
1665 Clouds 14 1029 55 10000 2.57 350 01:24 04.05.2022
1666 Clouds 19 1028 37 10000 4.63 10 22:54 03.05.2022
1667 Clouds 20 1029 35 10000 4.63 360 21:47 03.05.2022
1668 Clouds 20 1029 35 10000 2.57 0 21:20 03.05.2022
1669 Clouds 19 1030 34 10000 1.03 0 20:31 03.05.2022
1670 Clouds 17 1032 42 10000 2.57 0 18:54 03.05.2022
1671 Clouds 17 1032 42 10000 2.57 0 18:34 03.05.2022
1672 Clouds 14 1034 58 10000 1.54 40 17:19 03.05.2022
1673 Clouds 10 1034 71 10000 0.51 0 15:43 03.05.2022
1674 Clouds 4 1033 93 10000 1.03 0 13:32 03.05.2022
1675 Clouds 3 1032 93 10000 0.51 0 12:30 03.05.2022
1676 Clouds 7 1019 86 10000 0.85 331 11:23 03.05.2022
1677 Clouds 8 1019 85 10000 1.06 342 09:58 03.05.2022
1678 Clouds 8 1020 87 10000 1.44 2 07:59 03.05.2022
1679 Clouds 8 1031 76 10000 0.51 0 06:45 03.05.2022
1680 Clouds 14 1028 51 10000 4.12 300 01:56 03.05.2022
1681 Clouds 19 1026 34 10000 4.63 360 22:47 02.05.2022
1682 Clouds 19 1026 34 10000 4.63 360 22:28 02.05.2022
1683 Clouds 22 1027 23 10000 1.54 0 21:26 02.05.2022
1684 Clouds 18 1032 45 10000 1.54 0 18:57 02.05.2022
1685 Clouds 18 1032 45 10000 1.54 0 18:25 02.05.2022
1686 Clouds 15 1033 51 10000 2.06 0 17:38 02.05.2022
1687 Clouds 11 1034 62 10000 1.03 0 16:25 02.05.2022
1688 Clouds 10 1034 66 10000 1.03 0 15:40 02.05.2022
1689 Clouds 6 1033 81 10000 1.03 110 14:20 02.05.2022
1690 Clouds 5 1032 87 10000 1.03 0 12:52 02.05.2022
1691 Clouds 7 1020 86 10000 0.67 313 11:24 02.05.2022
1692 Clouds 7 1019 85 10000 0.4 262 09:32 02.05.2022
1693 Clouds 8 1019 84 10000 0.55 351 07:57 02.05.2022
1694 Clouds 8 1032 76 10000 1.03 0 05:37 02.05.2022
1695 Clouds 13 1028 58 10000 1.03 0 00:40 02.05.2022
1696 Clouds 15 1027 48 10000 1.03 0 00:21 02.05.2022
1697 Clouds 15 1027 48 10000 2.57 150 22:49 01.05.2022
1698 Clouds 18 1027 34 10000 5.66 80 21:41 01.05.2022
1699 Clouds 19 1029 28 10000 3.09 320 20:23 01.05.2022
1700 Clouds 18 1031 39 10000 1.03 0 19:19 01.05.2022
1701 Clouds 16 1031 45 10000 2.06 0 18:50 01.05.2022
1702 Clouds 15 1033 51 10000 3.09 330 17:47 01.05.2022
1703 Clouds 12 1034 67 10000 1.03 0 16:26 01.05.2022
1704 Clouds 10 1034 76 10000 0 0 15:45 01.05.2022
1705 Clouds 9 1033 76 10000 0.51 0 14:41 01.05.2022
1706 Clouds 7 1032 87 10000 1.54 90 12:22 01.05.2022
1707 Clouds 7 1018 90 10000 1.07 265 09:33 01.05.2022
1708 Clouds 7 1018 88 10000 0.22 222 08:49 01.05.2022
1709 Clouds 7 1032 87 10000 2.06 80 05:42 01.05.2022
1710 Clouds 11 1030 76 10000 2.06 50 01:32 01.05.2022
1711 Clouds 19 1028 32 10000 2.06 340 21:59 30.04.2022
1712 Clouds 20 1028 32 10000 2.57 0 21:30 30.04.2022
1713 Clouds 19 1028 32 10000 2.06 340 21:30 30.04.2022
1714 Clouds 18 1031 34 10000 3.09 350 19:48 30.04.2022
1715 Clouds 17 1032 42 10000 1.03 0 18:52 30.04.2022
1716 Clouds 15 1034 48 10000 2.06 0 17:26 30.04.2022
1717 Clouds 10 1035 66 10000 1.03 0 15:51 30.04.2022
1718 Clouds 8 1035 76 10000 0.51 0 14:58 30.04.2022
1719 Clouds 6 1034 81 10000 0 0 13:41 30.04.2022
1720 Clouds 6 1021 84 10000 0.86 48 11:39 30.04.2022
1721 Clouds 6 1021 84 10000 0.87 50 10:55 30.04.2022
1722 Clouds 7 1021 83 10000 0.95 37 09:54 30.04.2022
1723 Clouds 7 1022 82 10000 1.36 18 07:36 30.04.2022
1724 Clouds 10 1033 58 10000 1.03 0 03:53 30.04.2022
1725 Clouds 17 1029 27 10000 4.12 20 23:54 29.04.2022
1726 Clouds 19 1029 21 10000 4.12 40 22:36 29.04.2022
1727 Clouds 19 1029 19 10000 3.6 20 21:55 29.04.2022
1728 Clouds 20 1030 22 10000 4.63 30 21:21 29.04.2022
1729 Clouds 19 1032 30 10000 2.57 110 19:52 29.04.2022
1730 Clouds 19 1032 30 10000 2.57 110 19:26 29.04.2022
1731 Clouds 16 1035 42 10000 1.54 0 17:34 29.04.2022
1732 Clouds 13 1035 47 10000 2.06 0 16:30 29.04.2022
1733 Clouds 8 1035 71 10000 0 0 14:34 29.04.2022
1734 Clouds 3 1034 93 10000 0 0 13:27 29.04.2022
1735 Clouds 3 1034 93 10000 0.51 0 12:33 29.04.2022
1736 Clouds 6 1021 85 10000 1 51 09:52 29.04.2022
1737 Clouds 7 1021 83 10000 1.5 36 07:52 29.04.2022
1738 Clouds 8 1022 82 10000 1.67 33 07:24 29.04.2022
1739 Clouds 7 1033 71 10000 0.51 0 05:57 29.04.2022
1740 Clouds 16 1028 34 10000 4.12 20 00:52 29.04.2022
1741 Clouds 18 1027 30 10000 2.06 0 23:52 28.04.2022
1742 Clouds 18 1028 30 10000 3.6 10 22:47 28.04.2022
1743 Clouds 19 1029 32 10000 1.54 0 21:59 28.04.2022
1744 Clouds 19 1029 32 10000 1.54 0 21:37 28.04.2022
1745 Clouds 18 1030 30 10000 6.17 100 20:41 28.04.2022
1746 Clouds 19 1031 30 10000 5.66 110 19:49 28.04.2022
1747 Clouds 17 1032 42 10000 5.14 100 19:23 28.04.2022
1748 Clouds 19 1032 37 10000 2.57 0 18:38 28.04.2022
1749 Clouds 16 1033 48 10000 3.09 60 17:32 28.04.2022
1750 Clouds 13 1033 58 10000 1.54 0 16:49 28.04.2022
1751 Clouds 12 1034 62 10000 1.54 120 16:19 28.04.2022
1752 Clouds 11 1034 66 10000 1.03 0 15:41 28.04.2022
1753 Clouds 7 1033 81 10000 2.57 80 14:47 28.04.2022
1754 Clouds 4 1032 87 10000 1.03 0 13:20 28.04.2022
1755 Clouds 5 1031 87 10000 1.03 0 12:28 28.04.2022
1756 Clouds 7 1018 92 10000 0.46 281 10:47 28.04.2022
1757 Clouds 7 1018 92 10000 0.76 299 10:26 28.04.2022
1758 Clouds 7 1018 92 10000 0.76 299 09:41 28.04.2022
1759 Clouds 9 1018 86 10000 1.22 357 07:38 28.04.2022
1760 Clouds 8 1031 71 10000 1.54 80 06:37 28.04.2022
1761 Clouds 8 1031 71 10000 2.06 300 05:39 28.04.2022
1762 Clouds 10 1030 66 10000 1.03 0 04:41 28.04.2022
1763 Clouds 17 1026 42 10000 4.12 100 00:36 28.04.2022
1764 Clouds 19 1026 32 10000 2.57 330 22:52 27.04.2022
1765 Clouds 22 1026 20 10000 2.06 310 21:58 27.04.2022
1766 Clouds 22 1026 20 10000 2.06 310 21:29 27.04.2022
1767 Clouds 21 1028 24 10000 2.57 30 20:44 27.04.2022
1768 Clouds 21 1029 28 10000 2.06 50 19:39 27.04.2022
1769 Clouds 21 1029 28 10000 2.06 50 19:39 27.04.2022
1770 Clouds 21 1029 28 10000 2.06 50 19:39 27.04.2022
1771 Clouds 19 1030 28 10000 1.54 0 19:19 27.04.2022
1772 Clouds 19 1031 30 10000 2.06 0 18:35 27.04.2022
1773 Clouds 17 1032 36 10000 2.06 60 17:26 27.04.2022
1774 Clouds 11 1033 66 10000 1.03 0 15:43 27.04.2022
1775 Clouds 6 1031 87 10000 1.03 0 12:31 27.04.2022
1776 Clouds 7 1019 93 10000 0.48 236 11:23 27.04.2022
1777 Clouds 7 1019 92 10000 0.63 292 10:22 27.04.2022
1778 Clouds 9 1020 91 10000 0.73 175 07:28 27.04.2022
1779 Clouds 13 1032 58 10000 3.09 260 06:30 27.04.2022
1780 Clouds 14 1028 55 10000 4.12 290 02:21 27.04.2022
1781 Clouds 16 1027 39 10000 4.12 280 00:57 27.04.2022
1782 Clouds 19 1027 34 10000 5.14 280 23:58 26.04.2022
1783 Clouds 20 1027 30 10000 2.57 330 23:23 26.04.2022
1784 Clouds 21 1027 30 10000 3.6 270 22:42 26.04.2022
1785 Clouds 19 1028 32 10000 2.06 0 21:49 26.04.2022
1786 Clouds 20 1029 28 10000 2.06 150 20:56 26.04.2022
1787 Clouds 20 1029 28 10000 2.06 150 20:35 26.04.2022
1788 Clouds 18 1031 34 10000 1.54 0 19:34 26.04.2022
1789 Clouds 17 1032 39 10000 1.54 320 18:51 26.04.2022
1790 Clouds 15 1033 48 10000 2.06 360 18:18 26.04.2022
1791 Clouds 15 1033 48 10000 2.06 360 18:18 26.04.2022
1792 Clouds 14 1034 55 10000 1.54 90 17:32 26.04.2022
1793 Clouds 7 1034 76 10000 0.51 0 14:46 26.04.2022
1794 Clouds 2 1034 93 10000 2.06 70 13:34 26.04.2022
1795 Clouds 4 1033 93 10000 0 0 12:25 26.04.2022
1796 Clouds 7 1019 93 10000 0.23 339 10:46 26.04.2022
1797 Clouds 8 1019 92 10000 0.42 201 09:41 26.04.2022
1798 Clouds 8 1019 90 10000 0.48 153 07:59 26.04.2022
1799 Clouds 9 1033 76 10000 2.06 80 04:33 26.04.2022
1800 Rain 12 1032 58 10000 1.03 0 02:20 26.04.2022
1801 Rain 16 1029 36 10000 5.14 10 00:26 26.04.2022
1802 Clouds 17 1028 32 10000 5.66 30 22:49 25.04.2022
1803 Clouds 18 1028 32 10000 4.63 40 21:44 25.04.2022
1804 Clouds 18 1029 32 10000 1.54 0 20:45 25.04.2022
1805 Clouds 18 1029 32 10000 1.54 0 20:45 25.04.2022
1806 Clouds 18 1031 37 10000 1.54 100 19:34 25.04.2022
1807 Clouds 15 1033 48 10000 1.54 40 18:25 25.04.2022
1808 Clouds 13 1034 51 10000 1.03 0 17:32 25.04.2022
1809 Clouds 10 1034 62 10000 1.54 0 15:38 25.04.2022
1810 Clouds 9 1034 71 10000 1.03 0 15:18 25.04.2022
1811 Clouds 4 1033 93 10000 0 0 13:43 25.04.2022
1812 Clouds 7 1019 85 10000 0.31 88 11:53 25.04.2022
1813 Clouds 8 1018 85 10000 0.61 47 10:27 25.04.2022
1814 Clouds 8 1018 84 10000 0.98 17 09:20 25.04.2022
1815 Clouds 9 1032 62 10000 2.06 270 06:49 25.04.2022
1816 Clouds 9 1031 66 10000 0.51 0 05:23 25.04.2022
1817 Clouds 15 1027 44 10000 3.6 90 01:24 25.04.2022
1818 Clouds 19 1026 26 10000 1.54 350 23:53 24.04.2022
1819 Clouds 20 1026 26 10000 2.06 0 22:52 24.04.2022
1820 Clouds 20 1026 26 10000 1.54 0 22:31 24.04.2022
1821 Clouds 20 1027 26 10000 1.54 0 21:42 24.04.2022
1822 Clouds 19 1027 24 10000 1.54 250 21:18 24.04.2022
1823 Clouds 20 1028 28 10000 1.54 0 20:37 24.04.2022
1824 Clouds 19 1029 30 10000 1.54 0 19:48 24.04.2022
1825 Clouds 16 1032 48 10000 1.54 190 18:28 24.04.2022
1826 Clouds 14 1033 55 10000 1.54 0 17:37 24.04.2022
1827 Clouds 13 1033 62 10000 1.54 0 17:19 24.04.2022
1828 Clouds 12 1033 62 10000 1.54 0 16:48 24.04.2022
1829 Clouds 10 1033 71 10000 1.54 80 16:20 24.04.2022
1830 Clouds 10 1033 76 10000 2.06 90 15:31 24.04.2022
1831 Clouds 9 1033 76 10000 2.06 90 15:31 24.04.2022
1832 Clouds 9 1033 76 10000 2.06 90 15:31 24.04.2022
1833 Clouds 5 1032 93 10000 1.54 80 14:19 24.04.2022
1834 Clouds 6 1031 93 10000 1.03 0 13:25 24.04.2022
1835 Clouds 5 1031 87 10000 0 0 12:35 24.04.2022
1836 Clouds 7 1019 89 10000 0.42 273 11:34 24.04.2022
1837 Clouds 7 1018 88 10000 0.7 345 10:30 24.04.2022
1838 Clouds 8 1018 87 10000 1.38 17 09:29 24.04.2022
1839 Clouds 8 1030 76 10000 1.03 0 06:46 24.04.2022
1840 Clouds 8 1029 76 10000 2.06 270 04:43 24.04.2022
1841 Clouds 13 1026 58 10000 3.6 280 01:38 24.04.2022
1842 Clouds 17 1025 42 10000 2.06 350 00:30 24.04.2022
1843 Clouds 19 1025 30 10000 1.03 0 23:45 23.04.2022
1844 Clouds 19 1025 28 10000 1.54 240 23:22 23.04.2022
1845 Clouds 19 1026 26 10000 2.57 340 21:53 23.04.2022
1846 Clouds 19 1026 26 10000 2.57 340 21:34 23.04.2022
1847 Clouds 19 1028 32 10000 2.06 0 20:51 23.04.2022
1848 Clouds 18 1029 39 10000 3.6 100 19:48 23.04.2022
1849 Clouds 18 1029 42 10000 3.09 0 19:19 23.04.2022
1850 Clouds 17 1030 45 10000 1.03 0 18:52 23.04.2022
1851 Clouds 14 1031 47 10000 2.06 0 17:51 23.04.2022
1852 Clouds 14 1032 58 10000 2.06 100 17:30 23.04.2022
1853 Clouds 12 1032 62 10000 1.54 0 16:42 23.04.2022
1854 Haze 8 1032 81 9000 0.51 0 15:28 23.04.2022
1855 Clouds 5 1029 87 10000 1.54 110 12:44 23.04.2022
1856 Clouds 7 1016 90 10000 0.62 252 10:44 23.04.2022
1857 Clouds 8 1016 89 10000 0.54 254 09:33 23.04.2022
1858 Clouds 9 1029 71 10000 1.54 280 06:41 23.04.2022
1859 Clouds 11 1028 66 10000 2.06 100 03:54 23.04.2022
1860 Clouds 16 1025 39 10000 2.57 270 01:20 23.04.2022
1861 Clouds 21 1024 21 10000 3.09 300 23:30 22.04.2022
1862 Clouds 21 1025 20 10000 3.6 300 22:20 22.04.2022
1863 Clouds 22 1026 17 10000 3.09 0 21:43 22.04.2022
1864 Clouds 21 1027 24 10000 3.09 20 20:47 22.04.2022
1865 Clouds 21 1027 24 10000 3.09 150 20:27 22.04.2022
1866 Clouds 20 1029 32 10000 3.6 60 19:20 22.04.2022
1867 Clouds 19 1030 34 10000 2.06 0 18:41 22.04.2022
1868 Clouds 16 1031 45 10000 1.54 0 17:40 22.04.2022
1869 Clouds 14 1033 51 10000 1.03 0 16:46 22.04.2022
1870 Haze 9 1033 62 10000 1.03 0 15:32 22.04.2022
1871 Haze 9 1033 66 10000 0 0 14:46 22.04.2022
1872 Clouds 3 1033 87 10000 0.51 0 13:49 22.04.2022
1873 Clouds 3 1032 87 10000 1.03 80 12:57 22.04.2022
1874 Clouds 6 1019 92 10000 0.61 188 11:48 22.04.2022
1875 Clouds 7 1019 91 10000 0.85 216 11:21 22.04.2022
1876 Clouds 7 1019 91 10000 0.85 216 10:48 22.04.2022
1877 Clouds 7 1019 89 10000 0.77 234 10:29 22.04.2022
1878 Clouds 7 1019 89 10000 0.77 234 09:50 22.04.2022
1879 Clouds 7 1019 88 10000 0.59 252 08:50 22.04.2022
1880 Clouds 6 1032 65 10000 1.03 0 06:56 22.04.2022
1881 Clouds 14 1028 26 10000 4.63 310 01:53 22.04.2022
1882 Clouds 17 1027 19 10000 2.57 10 00:51 22.04.2022
1883 Clouds 21 1027 13 10000 3.6 360 22:59 21.04.2022
1884 Clouds 20 1028 14 10000 4.63 20 21:59 21.04.2022
1885 Clouds 21 1029 26 10000 3.09 0 20:34 21.04.2022
1886 Clouds 20 1030 30 10000 2.57 0 19:53 21.04.2022
1887 Clouds 18 1031 32 10000 2.57 0 18:35 21.04.2022
1888 Clouds 15 1033 41 10000 1.54 0 17:49 21.04.2022
1889 Clouds 11 1034 62 10000 1.54 50 16:30 21.04.2022
1890 Clouds 8 1034 71 10000 0.51 50 15:21 21.04.2022
1891 Clouds 7 1034 71 10000 1.03 0 14:38 21.04.2022
1892 Clouds 2 1033 87 10000 0.51 300 13:23 21.04.2022
1893 Clouds 3 1033 87 10000 0.51 90 12:42 21.04.2022
1894 Clouds 6 1020 89 10000 0.43 312 10:45 21.04.2022
1895 Clouds 7 1020 87 10000 0.99 17 08:54 21.04.2022
1896 Clouds 8 1020 86 10000 1.17 7 07:24 21.04.2022
1897 Clouds 9 1032 66 10000 0.51 0 04:58 21.04.2022
1898 Clouds 11 1031 58 10000 3.09 80 03:28 21.04.2022
1899 Clouds 13 1030 54 10000 3.6 90 02:47 21.04.2022
1900 Clouds 13 1030 54 10000 3.6 90 02:47 21.04.2022
1901 Clouds 16 1027 36 10000 5.14 300 00:43 21.04.2022
1902 Clouds 21 1027 24 10000 2.57 350 23:50 20.04.2022
1903 Clouds 21 1026 20 10000 1.54 0 23:22 20.04.2022
1904 Clouds 21 1026 20 10000 3.09 50 22:46 20.04.2022
1905 Clouds 21 1027 18 10000 3.6 120 22:26 20.04.2022
1906 Clouds 20 1028 17 10000 1.54 140 21:27 20.04.2022
1907 Clouds 20 1029 19 10000 2.57 250 20:23 20.04.2022
1908 Clouds 18 1030 20 10000 2.57 170 19:51 20.04.2022
1909 Clouds 20 1031 24 10000 2.06 0 19:18 20.04.2022
1910 Clouds 15 1033 39 10000 1.03 0 17:56 20.04.2022
1911 Clouds 12 1034 54 10000 1.54 0 16:48 20.04.2022
1912 Clouds 12 1034 54 10000 1.03 0 16:30 20.04.2022
1913 Haze 2 1033 93 10000 1.03 80 13:51 20.04.2022
1914 Clouds 6 1020 92 10000 0.46 273 11:47 20.04.2022
1915 Clouds 6 1020 91 10000 0.35 279 10:56 20.04.2022
1916 Clear 6 1020 90 10000 0.48 350 10:19 20.04.2022
1917 Clouds 7 1019 90 10000 0.47 344 09:25 20.04.2022
1918 Clouds 7 1020 88 10000 0.86 346 08:22 20.04.2022
1919 Clouds 7 1020 88 10000 0.86 346 08:22 20.04.2022
1920 Clouds 7 1020 88 10000 0.86 346 07:32 20.04.2022
1921 Clouds 10 1031 62 10000 1.54 110 03:38 20.04.2022
1922 Clouds 16 1027 48 10000 5.66 110 00:23 20.04.2022
1923 Clouds 17 1026 42 10000 4.63 0 23:41 19.04.2022
1924 Clouds 23 1026 21 10000 1.03 0 22:26 19.04.2022
1925 Clouds 21 1026 23 10000 4.12 290 21:56 19.04.2022
1926 Clouds 21 1027 24 10000 2.57 0 21:23 19.04.2022
1927 Clouds 21 1028 24 10000 2.06 0 20:45 19.04.2022
1928 Clouds 19 1029 32 10000 2.06 0 19:57 19.04.2022
1929 Clouds 17 1031 42 10000 2.57 0 18:49 19.04.2022
1930 Clouds 16 1033 45 10000 1.54 0 17:40 19.04.2022
1931 Clouds 13 1033 58 10000 1.54 320 16:43 19.04.2022
1932 Clouds 13 1033 62 10000 1.54 0 16:23 19.04.2022
1933 Clouds 8 1033 81 10000 2.06 110 14:50 19.04.2022
1934 Clouds 7 1032 87 9000 2.57 90 13:54 19.04.2022
1935 Clouds 8 1031 81 10000 1.03 0 12:50 19.04.2022
1936 Clouds 7 1031 81 10000 1.54 80 12:26 19.04.2022
1937 Clouds 7 1020 88 10000 1.02 305 10:46 19.04.2022
1938 Clouds 7 1019 89 10000 1.58 324 09:22 19.04.2022
1939 Clouds 10 1031 71 10000 1.03 0 05:59 19.04.2022
1940 Clouds 12 1030 58 10000 1.03 0 03:37 19.04.2022
1941 Clear 19 1026 34 10000 3.6 300 00:55 19.04.2022
1942 Clouds 22 1026 23 10000 3.09 300 23:36 18.04.2022
1943 Clouds 20 1027 23 10000 2.57 0 21:37 18.04.2022
1944 Clouds 20 1028 21 10000 2.57 280 21:18 18.04.2022
1945 Clouds 20 1029 23 10000 3.09 260 20:35 18.04.2022
1946 Clouds 18 1030 34 10000 3.09 340 19:54 18.04.2022
1947 Clouds 16 1032 39 10000 2.57 0 18:57 18.04.2022
1948 Clouds 15 1033 41 10000 3.09 310 18:32 18.04.2022
1949 Clouds 16 1033 45 10000 2.06 0 17:36 18.04.2022
1950 Clouds 15 1033 44 10000 1.54 0 17:18 18.04.2022
1951 Clouds 12 1034 58 10000 1.03 0 16:34 18.04.2022
1952 Clouds 9 1034 71 10000 1.54 90 15:18 18.04.2022
1953 Clouds 6 1033 81 10000 1.54 90 13:42 18.04.2022
1954 Clouds 6 1032 81 10000 1.54 80 12:34 18.04.2022
1955 Clouds 8 1019 80 10000 1.43 314 11:35 18.04.2022
1956 Clouds 8 1019 85 10000 1.37 312 10:42 18.04.2022
1957 Clouds 8 1019 86 10000 1.36 330 09:31 18.04.2022
1958 Clear 8 1019 88 10000 1.62 1 08:28 18.04.2022
1959 Clear 9 1031 81 10000 1.03 0 05:51 18.04.2022
1960 Clouds 15 1026 44 10000 4.63 280 01:34 18.04.2022
1961 Clouds 21 1026 26 10000 4.12 260 22:43 17.04.2022
1962 Clouds 21 1027 24 10000 3.09 320 21:51 17.04.2022
1963 Clouds 21 1027 16 10000 2.57 310 21:32 17.04.2022
1964 Clouds 21 1028 24 10000 2.06 0 20:50 17.04.2022
1965 Clouds 19 1030 39 10000 3.09 0 19:52 17.04.2022
1966 Clouds 16 1032 48 10000 3.6 280 18:24 17.04.2022
1967 Clouds 13 1033 58 10000 2.06 260 16:33 17.04.2022
1968 Clouds 9 1033 76 10000 0.51 0 15:32 17.04.2022
1969 Clouds 6 1033 87 10000 1.03 100 14:27 17.04.2022
1970 Clouds 4 1032 87 10000 0.51 60 13:20 17.04.2022
1971 Clouds 4 1031 93 10000 1.54 80 12:29 17.04.2022
1972 Clouds 7 1018 88 10000 0.97 17 10:48 17.04.2022
1973 Clouds 8 1018 87 10000 1.03 21 10:29 17.04.2022
1974 Clouds 8 1018 87 10000 1.03 21 09:50 17.04.2022
1975 Clouds 8 1018 87 10000 1 0 08:54 17.04.2022
1976 Clouds 8 1018 86 10000 0.95 1 08:26 17.04.2022
1977 Clear 7 1031 81 10000 1.54 280 05:20 17.04.2022
1978 Clouds 15 1027 44 10000 4.12 290 01:40 17.04.2022
1979 Clouds 22 1026 16 10000 2.06 260 23:59 16.04.2022
1980 Clouds 22 1026 17 10000 3.09 260 22:50 16.04.2022
1981 Clouds 20 1026 26 10000 2.06 260 21:44 16.04.2022
1982 Clouds 21 1027 24 10000 2.06 0 20:54 16.04.2022
1983 Clouds 20 1030 24 10000 2.06 0 19:21 16.04.2022
1984 Clouds 19 1030 30 10000 1.54 0 18:33 16.04.2022
1985 Clouds 14 1033 58 10000 1.03 0 16:42 16.04.2022
1986 Clouds 12 1033 67 10000 1.03 0 15:46 16.04.2022
1987 Clouds 8 1033 81 10000 1.03 0 14:57 16.04.2022
1988 Clouds 6 1032 87 10000 1.03 100 14:29 16.04.2022
1989 Clouds 5 1032 93 10000 1.54 100 13:41 16.04.2022
1990 Clouds 6 1030 87 10000 1.03 80 12:35 16.04.2022
1991 Clouds 8 1017 88 10000 0.41 151 11:26 16.04.2022
1992 Clouds 8 1017 87 10000 0.45 178 10:25 16.04.2022
1993 Clouds 8 1017 87 10000 0.45 178 09:32 16.04.2022
1994 Clouds 8 1017 86 10000 0.33 5 08:41 16.04.2022
1995 Clouds 7 1031 81 10000 2.06 280 06:59 16.04.2022
1996 Clouds 11 1030 66 10000 2.06 60 04:36 16.04.2022
1997 Clouds 17 1026 39 10000 4.63 280 00:38 16.04.2022
1998 Clouds 21 1026 17 10000 1.54 120 23:40 15.04.2022
1999 Clouds 21 1026 23 10000 2.06 170 22:45 15.04.2022
2000 Clouds 21 1027 23 10000 2.06 170 22:27 15.04.2022
2001 Clouds 21 1028 24 10000 1.54 0 21:20 15.04.2022
2002 Clouds 20 1029 24 10000 4.12 330 20:36 15.04.2022
2003 Clouds 19 1030 24 10000 3.6 280 19:43 15.04.2022
2004 Clouds 18 1031 37 10000 2.06 0 18:57 15.04.2022
2005 Clouds 17 1032 42 10000 2.06 350 18:26 15.04.2022
2006 Clouds 16 1032 48 10000 1.54 0 17:56 15.04.2022
2007 Clouds 15 1033 51 10000 1.03 0 17:23 15.04.2022
2008 Clouds 14 1033 62 10000 1.54 90 16:24 15.04.2022
2009 Clouds 13 1033 62 10000 1.54 100 15:40 15.04.2022
2010 Clouds 6 1032 93 10000 2.06 80 13:55 15.04.2022
2011 Clouds 8 1031 81 10000 0.51 0 12:50 15.04.2022
2012 Clouds 8 1031 81 10000 1.54 30 12:21 15.04.2022
2013 Clouds 10 1018 81 10000 0.48 259 11:42 15.04.2022
2014 Clouds 10 1018 81 10000 0.5 235 10:46 15.04.2022
2015 Clouds 10 1018 80 10000 0.29 97 09:59 15.04.2022
2016 Clouds 9 1019 82 10000 0.86 53 09:22 15.04.2022
2017 Clouds 9 1019 82 10000 0.86 53 08:37 15.04.2022
2018 Clouds 8 1032 76 10000 1.03 0 06:47 15.04.2022
2019 Clouds 9 1031 71 10000 2.06 290 04:42 15.04.2022
2020 Clouds 19 1026 28 10000 2.06 130 00:32 15.04.2022
2021 Clouds 19 1026 30 10000 2.57 90 23:20 14.04.2022
2022 Clouds 21 1026 28 10000 1.54 0 22:44 14.04.2022
2023 Clouds 21 1026 24 10000 2.06 0 22:25 14.04.2022
2024 Clouds 20 1027 28 10000 1.54 0 21:46 14.04.2022
2025 Clouds 19 1031 39 10000 1.54 10 19:24 14.04.2022
2026 Clouds 17 1031 39 10000 1.54 270 18:53 14.04.2022
2027 Clouds 15 1033 51 10000 2.57 0 17:45 14.04.2022
2028 Clouds 12 1033 54 10000 1.03 0 16:51 14.04.2022
2029 Clouds 10 1034 58 10000 1.03 0 15:51 14.04.2022
2030 Clouds 3 1033 87 10000 1.03 100 13:53 14.04.2022
2031 Clouds 2 1032 93 10000 1.03 90 13:20 14.04.2022
2032 Clouds 2 1032 87 10000 0 0 12:32 14.04.2022
2033 Clouds 6 1020 90 10000 0.62 35 11:37 14.04.2022
2034 Clouds 7 1019 89 10000 0.99 12 11:18 14.04.2022
2035 Clouds 7 1019 89 10000 0.99 12 10:31 14.04.2022
2036 Clouds 7 1018 88 10000 0.85 14 09:30 14.04.2022
2037 Clouds 8 1018 86 10000 1.1 13 08:23 14.04.2022
2038 Clouds 6 1031 65 10000 1.54 270 05:52 14.04.2022
2039 Clouds 19 1026 15 10000 0.51 0 00:29 14.04.2022
2040 Clouds 20 1027 14 10000 3.6 260 22:38 13.04.2022
2041 Clouds 19 1027 26 10000 3.09 140 21:43 13.04.2022
2042 Clouds 20 1028 26 10000 1.54 0 20:41 13.04.2022
2043 Clouds 18 1030 30 10000 1.54 310 19:49 13.04.2022
2044 Clouds 15 1032 51 10000 1.54 0 18:37 13.04.2022
2045 Clouds 14 1033 58 10000 1.54 0 17:25 13.04.2022
2046 Clouds 11 1033 66 10000 1.54 0 16:53 13.04.2022
2047 Clouds 9 1033 71 10000 0 0 15:47 13.04.2022
2048 Clouds 8 1032 76 10000 0 0 15:27 13.04.2022
2049 Clouds 7 1032 81 10000 0.51 0 14:40 13.04.2022
2050 Clouds 5 1031 87 10000 2.06 90 13:43 13.04.2022
2051 Clouds 6 1030 81 10000 1.03 0 12:52 13.04.2022
2052 Clouds 7 1019 89 10000 0.39 256 11:58 13.04.2022
2053 Clouds 7 1018 88 10000 0.57 316 10:34 13.04.2022
2054 Clouds 7 1017 87 10000 0.75 307 08:49 13.04.2022
2055 Clear 8 1017 86 10000 1.07 343 08:23 13.04.2022
2056 Clouds 8 1030 71 10000 0.51 0 06:49 13.04.2022
2057 Clouds 8 1030 71 10000 0.51 0 06:24 13.04.2022
2058 Clouds 15 1027 47 10000 3.6 280 02:27 13.04.2022
2059 Clouds 19 1025 37 10000 5.14 290 00:20 13.04.2022
2060 Clouds 20 1025 26 10000 4.12 320 22:36 12.04.2022
2061 Clouds 21 1026 20 10000 2.06 0 21:56 12.04.2022
2062 Clouds 20 1028 24 10000 2.57 300 20:48 12.04.2022
2063 Clouds 19 1028 26 10000 1.54 0 20:22 12.04.2022
2064 Clouds 19 1029 32 10000 2.06 0 19:40 12.04.2022
2065 Clouds 19 1030 37 10000 1.03 0 19:18 12.04.2022
2066 Clouds 15 1032 51 10000 1.03 270 17:39 12.04.2022
2067 Clouds 13 1033 62 10000 1.54 90 16:48 12.04.2022
2068 Clouds 11 1033 76 10000 3.09 90 15:38 12.04.2022
2069 Clouds 9 1033 81 10000 1.54 80 15:20 12.04.2022
2070 Clouds 6 1032 93 10000 0 0 13:53 12.04.2022
2071 Clouds 6 1031 93 10000 1.03 40 13:27 12.04.2022
2072 Clouds 6 1019 91 10000 0.91 291 12:21 12.04.2022
2073 Clouds 6 1019 91 10000 0.91 291 11:39 12.04.2022
2074 Clouds 7 1018 90 10000 0.83 330 09:52 12.04.2022
2075 Clouds 7 1018 90 10000 1.13 349 08:51 12.04.2022
2076 Clouds 8 1018 91 10000 1.28 3 07:20 12.04.2022
2077 Clouds 7 1030 87 10000 1.03 280 05:41 12.04.2022
2078 Clouds 10 1028 71 10000 1.03 0 02:37 12.04.2022
2079 Clouds 16 1026 48 10000 3.09 80 23:25 11.04.2022
2080 Clouds 14 1026 63 10000 4.63 350 22:33 11.04.2022
2081 Clouds 18 1026 37 10000 5.66 280 21:23 11.04.2022
2082 Clouds 18 1028 34 10000 2.57 260 20:35 11.04.2022
2083 Clouds 17 1028 48 10000 4.12 250 19:59 11.04.2022
2084 Clouds 19 1028 40 10000 2.06 0 19:27 11.04.2022
2085 Clouds 18 1029 48 10000 2.57 0 18:54 11.04.2022
2086 Clouds 16 1031 51 10000 1.54 0 17:58 11.04.2022
2087 Clouds 16 1031 51 10000 1.54 0 17:39 11.04.2022
2088 Clouds 13 1032 67 10000 1.03 0 16:36 11.04.2022
2089 Clouds 9 1032 81 10000 0 0 14:59 11.04.2022
2090 Clouds 7 1031 87 10000 0.51 0 13:36 11.04.2022
2091 Clouds 6 1030 93 10000 1.03 110 12:39 11.04.2022
2092 Clouds 6 1030 93 10000 0 0 12:20 11.04.2022
2093 Clouds 6 1018 92 10000 0.43 1 10:37 11.04.2022
2094 Clouds 6 1018 92 10000 0.96 322 09:57 11.04.2022
2095 Clouds 7 1018 92 10000 1 297 07:59 11.04.2022
2096 Clouds 10 1030 76 10000 1.54 140 04:35 11.04.2022
2097 Clouds 16 1026 48 10000 3.6 340 23:30 10.04.2022
2098 Clouds 17 1027 45 10000 1.03 0 22:27 10.04.2022
2099 Thunderstorm 17 1027 45 10000 2.06 330 21:49 10.04.2022
2100 Clouds 15 1011 56 10000 2.72 305 20:50 10.04.2022
2101 Clouds 17 1012 48 10000 1.96 280 19:56 10.04.2022
2102 Clouds 17 1011 46 10000 1.7 264 19:34 10.04.2022
2103 Clouds 17 1013 47 10000 1.6 233 18:48 10.04.2022
2104 Clouds 17 1013 47 10000 1.6 233 18:48 10.04.2022
2105 Clouds 15 1016 51 10000 1.36 211 18:24 10.04.2022
2106 Clouds 15 1016 51 10000 1.36 211 17:42 10.04.2022
2107 Clouds 14 1018 58 10000 1.1 198 16:51 10.04.2022
2108 Clouds 12 1019 65 10000 1.29 185 15:38 10.04.2022
2109 Clouds 10 1020 72 10000 1.46 199 14:40 10.04.2022
2110 Clouds 7 1021 87 10000 0.59 247 12:58 10.04.2022
2111 Clouds 7 1020 89 10000 0.94 226 12:26 10.04.2022
2112 Clouds 7 1020 89 10000 0.94 226 11:35 10.04.2022
2113 Clouds 7 1020 88 10000 1.35 181 10:58 10.04.2022
2114 Clouds 8 1020 85 10000 1.79 162 10:23 10.04.2022
2115 Rain 8 1020 85 10000 1.79 162 09:41 10.04.2022
2116 Clouds 7 1020 84 10000 1.5 134 08:26 10.04.2022
2117 Clouds 7 1020 84 10000 0.51 70 07:47 10.04.2022
2118 Clouds 9 1032 76 10000 0.51 0 06:43 10.04.2022
2119 Clouds 11 1031 62 10000 1.03 0 03:36 10.04.2022
2120 Clouds 13 1029 58 10000 2.06 110 01:29 10.04.2022
2121 Clouds 15 1028 51 10000 4.63 110 23:52 09.04.2022
2122 Clouds 15 1028 55 10000 2.57 80 22:52 09.04.2022
2123 Clouds 17 1029 48 10000 2.57 0 21:48 09.04.2022
2124 Clouds 16 1031 45 10000 2.06 0 20:57 09.04.2022
2125 Clouds 15 1032 51 10000 1.54 0 20:26 09.04.2022
2126 Clouds 14 1032 55 10000 1.03 0 19:43 09.04.2022
2127 Clouds 13 1033 58 10000 1.54 60 19:21 09.04.2022
2128 Clouds 12 1034 62 10000 0.51 0 18:22 09.04.2022
2129 Clouds 11 1035 66 10000 1.54 70 17:42 09.04.2022
2130 Clouds 11 1035 66 10000 0.51 0 16:55 09.04.2022
2131 Clouds 10 1035 71 10000 1.03 0 16:24 09.04.2022
2132 Clouds 9 1035 76 10000 1.54 100 15:43 09.04.2022
2133 Clouds 8 1034 81 9000 2.57 90 14:45 09.04.2022
2134 Clouds 8 1034 81 9000 3.09 100 14:24 09.04.2022
2135 Drizzle 8 1033 87 9000 1.54 90 13:21 09.04.2022
2136 Drizzle 8 1033 87 10000 1.54 90 12:52 09.04.2022
2137 Clouds 6 1020 88 10000 0.7 32 11:41 09.04.2022
2138 Clouds 7 1019 87 10000 0.91 30 10:21 09.04.2022
2139 Clouds 7 1019 87 10000 0.91 30 09:53 09.04.2022
2140 Clouds 7 1019 87 10000 1.05 25 08:59 09.04.2022
2141 Rain 10 1018 81 10000 0.78 11 07:44 09.04.2022
2142 Clouds 13 1030 58 10000 4.12 280 03:21 09.04.2022
2143 Clouds 17 1027 45 10000 5.14 280 00:30 09.04.2022
2144 Clouds 18 1027 42 10000 4.12 260 22:58 08.04.2022
2145 Clouds 19 1028 42 10000 5.66 280 21:35 08.04.2022
2146 Clouds 19 1029 34 10000 4.12 20 20:41 08.04.2022
2147 Clouds 19 1031 39 10000 2.06 0 19:41 08.04.2022
2148 Clouds 17 1032 42 10000 1.54 0 18:34 08.04.2022
2149 Clouds 15 1033 59 10000 1.03 0 17:55 08.04.2022
2150 Clouds 13 1034 62 10000 2.06 80 17:27 08.04.2022
2151 Rain 13 1034 72 10000 1.54 100 16:52 08.04.2022
2152 Clouds 12 1034 71 10000 1.54 110 16:22 08.04.2022
2153 Clouds 10 1034 76 10000 1.03 0 15:28 08.04.2022
2154 Clouds 10 1034 82 10000 0 0 14:40 08.04.2022
2155 Clouds 8 1033 93 10000 1.54 110 13:55 08.04.2022
2156 Drizzle 8 1033 93 10000 2.57 90 13:30 08.04.2022
2157 Drizzle 8 1032 93 10000 0 0 12:42 08.04.2022
2158 Clouds 7 1019 91 10000 0.97 69 10:56 08.04.2022
2159 Clouds 7 1019 90 10000 1.03 66 09:41 08.04.2022
2160 Clouds 7 1019 89 10000 1.33 49 08:58 08.04.2022
2161 Clouds 8 1019 91 10000 1.42 38 07:42 08.04.2022
2162 Clouds 8 1032 81 10000 1.54 110 06:44 08.04.2022
2163 Clouds 13 1029 58 10000 5.14 280 02:29 08.04.2022
2164 Clouds 18 1027 42 10000 4.12 0 00:28 08.04.2022
2165 Clouds 18 1027 45 10000 2.57 0 23:41 07.04.2022
2166 Clouds 19 1027 40 10000 3.09 240 22:41 07.04.2022
2167 Clouds 18 1027 42 10000 2.57 300 22:22 07.04.2022
2168 Clouds 18 1028 39 10000 2.57 0 21:56 07.04.2022
2169 Clouds 18 1028 39 10000 2.57 0 21:28 07.04.2022
2170 Clouds 17 1030 45 10000 2.06 0 20:42 07.04.2022
2171 Clouds 14 1032 51 10000 2.06 220 19:25 07.04.2022
2172 Clouds 14 1033 51 10000 2.06 0 17:28 07.04.2022
2173 Clouds 14 1034 55 10000 1.54 130 16:51 07.04.2022
2174 Clouds 13 1034 54 10000 2.06 120 16:33 07.04.2022
2175 Clouds 11 1034 66 10000 1.03 240 15:39 07.04.2022
2176 Clouds 8 1033 87 10000 2.06 60 13:52 07.04.2022
2177 Clouds 8 1033 87 10000 2.06 70 13:23 07.04.2022
2178 Clouds 6 1020 90 10000 0.56 32 11:49 07.04.2022
2179 Clouds 6 1020 90 10000 0.68 38 10:40 07.04.2022
2180 Clouds 7 1019 89 10000 0.96 6 08:43 07.04.2022
2181 Clouds 10 1033 71 10000 0.51 0 06:59 07.04.2022
2182 Clouds 10 1032 71 10000 2.06 270 04:36 07.04.2022
2183 Clouds 13 1030 54 10000 1.03 0 02:32 07.04.2022
2184 Clouds 17 1028 39 10000 4.12 10 00:42 07.04.2022
2185 Clouds 19 1027 34 10000 2.06 350 23:21 06.04.2022
2186 Clouds 18 1028 34 10000 1.54 30 22:44 06.04.2022
2187 Clouds 19 1028 34 10000 2.57 230 22:19 06.04.2022
2188 Clouds 18 1030 37 10000 3.09 330 20:47 06.04.2022
2189 Clouds 17 1031 39 10000 4.63 360 19:59 06.04.2022
2190 Clouds 15 1033 48 10000 2.06 0 19:20 06.04.2022
2191 Clouds 15 1034 51 10000 1.54 250 18:48 06.04.2022
2192 Clouds 14 1034 51 10000 1.54 0 17:36 06.04.2022
2193 Clouds 11 1035 66 10000 1.03 0 16:39 06.04.2022
2194 Clouds 10 1034 71 10000 0.51 0 16:19 06.04.2022
2195 Clouds 9 1034 76 10000 1.03 0 15:40 06.04.2022
2196 Clouds 5 1033 87 10000 0 0 13:34 06.04.2022
2197 Clouds 5 1033 87 10000 0 0 13:34 06.04.2022
2198 Clear 5 1022 90 10000 0.76 51 12:30 06.04.2022
2199 Clear 5 1021 90 10000 0.96 30 10:57 06.04.2022
2200 Clear 5 1021 90 10000 0.96 30 10:33 06.04.2022
2201 Clear 6 1021 90 10000 1.1 27 09:46 06.04.2022
2202 Clear 6 1021 90 10000 1.29 19 08:59 06.04.2022
2203 Clear 7 1021 89 10000 1.35 17 07:58 06.04.2022
2204 Clouds 9 1032 76 10000 1.03 110 05:45 06.04.2022
2205 Clouds 16 1028 42 10000 3.6 340 00:45 06.04.2022
2206 Clouds 19 1027 32 10000 4.12 30 23:48 05.04.2022
2207 Clouds 20 1028 30 10000 4.12 30 21:51 05.04.2022
2208 Clouds 19 1030 34 10000 2.06 0 20:59 05.04.2022
2209 Clouds 18 1030 37 10000 2.06 0 20:24 05.04.2022
2210 Clouds 16 1033 45 10000 1.54 130 18:32 05.04.2022
2211 Clouds 14 1034 51 10000 2.06 90 17:22 05.04.2022
2212 Clouds 12 1034 58 10000 3.09 90 16:43 05.04.2022
2213 Clouds 10 1034 66 10000 1.03 0 15:51 05.04.2022
2214 Clouds 10 1034 66 10000 1.03 0 15:31 05.04.2022
2215 Clouds 5 1034 93 10000 2.06 90 13:49 05.04.2022
2216 Clouds 5 1033 93 10000 0.51 0 12:33 05.04.2022
2217 Clouds 5 1021 89 10000 0.97 36 11:43 05.04.2022
2218 Clouds 6 1021 89 10000 1.09 35 11:24 05.04.2022
2219 Clouds 6 1021 89 10000 1.09 35 11:24 05.04.2022
2220 Clouds 6 1020 88 10000 1.25 41 09:31 05.04.2022
2221 Clouds 6 1020 88 10000 1.51 34 08:47 05.04.2022
2222 Clouds 7 1031 81 10000 1.54 290 04:19 05.04.2022
2223 Clouds 14 1028 51 10000 3.6 40 23:45 04.04.2022
2224 Clouds 15 1028 51 10000 5.14 30 22:38 04.04.2022
2225 Clouds 14 1028 51 10000 3.09 250 21:51 04.04.2022
2226 Clouds 15 1029 44 10000 4.63 350 21:20 04.04.2022
2227 Clouds 14 1029 47 10000 6.17 10 20:47 04.04.2022
2228 Clouds 18 1029 42 10000 4.63 100 19:30 04.04.2022
2229 Clouds 16 1030 48 10000 1.54 100 18:44 04.04.2022
2230 Clouds 16 1032 63 10000 2.57 0 17:33 04.04.2022
2231 Clouds 14 1032 63 10000 3.6 90 16:36 04.04.2022
2232 Clouds 11 1032 82 10000 1.54 70 15:34 04.04.2022
2233 Clouds 9 1032 93 10000 1.54 90 14:49 04.04.2022
2234 Clouds 9 1031 93 10000 1.03 0 14:31 04.04.2022
2235 Clouds 9 1030 93 10000 0 0 13:18 04.04.2022
2236 Clouds 6 1018 93 10000 0.95 46 11:29 04.04.2022
2237 Clouds 6 1018 93 10000 0.89 27 10:29 04.04.2022
2238 Clouds 9 1031 87 10000 0 0 06:58 04.04.2022
2239 Clouds 11 1029 82 10000 2.57 90 03:18 04.04.2022
2240 Clouds 11 1029 82 10000 2.57 90 03:18 04.04.2022
2241 Drizzle 16 1026 48 10000 1.03 0 23:48 03.04.2022
2242 Clouds 17 1027 45 10000 1.54 250 22:31 03.04.2022
2243 Clouds 14 1028 63 10000 2.57 160 21:32 03.04.2022
2244 Clouds 15 1028 51 10000 5.66 350 20:36 03.04.2022
2245 Clouds 17 1029 45 10000 2.06 0 19:29 03.04.2022
2246 Clouds 16 1030 48 10000 2.57 100 18:29 03.04.2022
2247 Clouds 15 1031 51 10000 2.57 290 17:44 03.04.2022
2248 Clouds 14 1032 55 10000 1.54 20 16:50 03.04.2022
2249 Clouds 13 1032 62 10000 1.03 0 16:21 03.04.2022
2250 Clouds 9 1032 87 10000 1.54 90 14:28 03.04.2022
2251 Clouds 9 1032 87 10000 1.03 110 13:45 03.04.2022
2252 Clouds 7 1019 84 10000 0.7 357 12:21 03.04.2022
2253 Clouds 7 1018 86 10000 0.89 350 10:54 03.04.2022
2254 Clouds 7 1018 87 10000 1.41 329 09:23 03.04.2022
2255 Clouds 9 1018 82 10000 0.91 15 07:24 03.04.2022
2256 Clouds 11 1031 71 10000 3.6 100 04:18 03.04.2022
2257 Clouds 14 1028 51 10000 1.54 0 00:41 03.04.2022
2258 Clouds 16 1027 45 10000 4.63 10 22:54 02.04.2022
2259 Clouds 15 1027 51 10000 5.66 10 21:57 02.04.2022
2260 Clouds 15 1027 51 10000 5.66 10 21:33 02.04.2022
2261 Clouds 17 1028 45 10000 3.09 20 20:52 02.04.2022
2262 Clouds 17 1030 42 10000 2.57 0 19:28 02.04.2022
2263 Clouds 18 1031 52 10000 1.03 0 18:21 02.04.2022
2264 Clouds 15 1032 51 10000 1.03 40 17:52 02.04.2022
2265 Clouds 13 1033 54 10000 2.06 110 16:23 02.04.2022
2266 Clouds 12 1033 62 10000 0.51 0 15:21 02.04.2022
2267 Clouds 9 1033 81 10000 1.03 50 14:47 02.04.2022
2268 Clouds 7 1032 93 10000 1.54 270 13:35 02.04.2022
2269 Clouds 9 1031 81 10000 0 0 12:38 02.04.2022
2270 Clouds 8 1018 89 10000 1.15 321 11:23 02.04.2022
2271 Clouds 9 1018 88 10000 1.35 344 08:50 02.04.2022
2272 Clouds 10 1032 71 10000 2.06 90 06:51 02.04.2022
2273 Clouds 11 1031 66 10000 1.03 0 03:52 02.04.2022
2274 Clouds 13 1028 67 10000 4.12 260 23:57 01.04.2022
2275 Clouds 15 1027 48 10000 2.57 330 23:22 01.04.2022
2276 Clouds 15 1028 55 10000 2.57 270 21:34 01.04.2022
2277 Rain 14 1029 58 10000 2.57 240 20:51 01.04.2022
2278 Clouds 13 1029 58 10000 1.54 0 20:28 01.04.2022
2279 Clouds 14 1029 55 10000 6.17 10 19:34 01.04.2022
2280 Clouds 16 1023 59 10000 2.57 60 18:48 01.04.2022
2281 Clouds 13 1031 58 10000 2.06 90 17:47 01.04.2022
2282 Clouds 12 1032 62 10000 0.51 0 16:53 01.04.2022
2283 Clouds 12 1032 67 10000 1.03 0 15:41 01.04.2022
2284 Clouds 9 1031 87 10000 1.03 0 14:25 01.04.2022
2285 Clouds 9 1031 87 10000 1.03 90 13:34 01.04.2022
2286 Clouds 9 1030 81 10000 1.03 280 12:32 01.04.2022
2287 Clouds 7 1018 89 10000 1.06 343 11:41 01.04.2022
2288 Clouds 7 1018 89 10000 0.79 17 10:19 01.04.2022
2289 Clouds 7 1018 89 10000 0.79 8 09:19 01.04.2022
2290 Clouds 10 1031 82 10000 1.54 100 06:54 01.04.2022
2291 Clouds 12 1030 71 10000 1.03 220 04:51 01.04.2022
2292 Clouds 12 1030 71 10000 1.03 0 04:33 01.04.2022
2293 Clouds 13 1028 62 10000 2.57 280 01:57 01.04.2022
2294 Clouds 13 1027 72 10000 3.09 270 00:44 01.04.2022
2295 Clouds 18 1026 39 10000 2.06 0 21:54 31.03.2022
2296 Clouds 18 1027 42 10000 2.06 130 21:32 31.03.2022
2297 Rain 17 1027 45 10000 2.57 20 20:29 31.03.2022
2298 Rain 17 1028 45 10000 2.06 280 19:50 31.03.2022
2299 Clouds 17 1030 45 10000 1.03 0 18:51 31.03.2022
2300 Clouds 15 1031 55 10000 1.03 0 17:50 31.03.2022
2301 Clouds 13 1031 58 10000 1.54 0 16:39 31.03.2022
2302 Clouds 13 1031 62 10000 0.51 0 15:46 31.03.2022
2303 Clouds 11 1031 71 10000 0.51 0 15:20 31.03.2022
2304 Clouds 8 1031 87 10000 1.54 290 14:37 31.03.2022
2305 Clouds 6 1029 93 10000 1.54 290 12:19 31.03.2022
2306 Clouds 6 1018 87 10000 0.9 12 11:22 31.03.2022
2307 Clouds 6 1018 88 10000 1.07 7 09:45 31.03.2022
2308 Clouds 7 1018 90 10000 1.29 7 08:20 31.03.2022
2309 Clouds 8 1030 81 10000 0.51 0 05:42 31.03.2022
2310 Clouds 18 1025 42 10000 4.63 320 23:58 30.03.2022
2311 Clouds 17 1025 39 10000 5.14 350 22:43 30.03.2022
2312 Clouds 19 1026 34 10000 1.03 110 21:39 30.03.2022
2313 Clouds 18 1027 37 10000 2.57 50 20:54 30.03.2022
2314 Clouds 18 1027 37 10000 2.57 50 20:54 30.03.2022
2315 Clouds 18 1028 34 10000 2.06 0 20:20 30.03.2022
2316 Clouds 18 1028 34 10000 2.06 0 20:20 30.03.2022
2317 Clouds 17 1029 39 10000 1.54 360 19:28 30.03.2022
2318 Clouds 17 1031 51 10000 1.03 0 18:28 30.03.2022
2319 Clouds 15 1031 51 10000 2.57 50 17:47 30.03.2022
2320 Clouds 13 1032 62 10000 2.06 310 16:57 30.03.2022
2321 Clouds 12 1032 67 10000 1.54 50 16:33 30.03.2022
2322 Clouds 10 1032 82 10000 1.54 70 15:24 30.03.2022
2323 Clouds 8 1031 93 10000 1.54 90 13:42 30.03.2022
2324 Clouds 8 1031 87 10000 1.03 100 12:47 30.03.2022
2325 Clouds 7 1019 95 10000 1.79 175 11:27 30.03.2022
2326 Clouds 7 1019 95 10000 1.79 175 11:27 30.03.2022
2327 Clouds 7 1018 95 10000 2.01 162 10:23 30.03.2022
2328 Clouds 8 1017 95 10000 2.29 152 09:23 30.03.2022
2329 Clouds 9 1018 91 10000 1.22 116 07:32 30.03.2022
2330 Clouds 8 1032 87 8000 3.6 250 05:40 30.03.2022
2331 Clouds 8 1032 93 8000 4.12 120 03:39 30.03.2022
2332 Clouds 12 1027 71 10000 3.09 240 00:41 30.03.2022
2333 Clouds 17 1026 48 10000 2.57 350 22:25 29.03.2022
2334 Clouds 18 1027 39 10000 1.03 60 21:44 29.03.2022
2335 Clouds 19 1028 40 10000 2.57 0 20:52 29.03.2022
2336 Clouds 16 1030 48 10000 2.06 100 19:53 29.03.2022
2337 Clouds 15 1032 55 10000 3.6 70 18:55 29.03.2022
2338 Clouds 15 1033 51 10000 2.06 0 18:19 29.03.2022
2339 Clouds 14 1034 58 10000 2.57 70 17:22 29.03.2022
2340 Clouds 12 1034 67 10000 2.57 110 16:56 29.03.2022
2341 Clouds 12 1034 67 10000 2.57 110 16:56 29.03.2022
2342 Clouds 12 1034 71 10000 2.06 100 15:57 29.03.2022
2343 Clouds 9 1034 81 10000 0 0 14:50 29.03.2022
2344 Clouds 7 1033 93 9000 2.06 90 13:56 29.03.2022
2345 Rain 8 1033 93 8000 5.14 120 12:51 29.03.2022
2346 Clouds 6 1021 89 10000 0.84 44 11:43 29.03.2022
2347 Clouds 6 1020 89 10000 1.1 22 10:28 29.03.2022
2348 Clouds 6 1020 89 10000 1.1 22 09:33 29.03.2022
2349 Clouds 11 1033 76 10000 2.57 100 06:56 29.03.2022
2350 Clouds 12 1032 71 10000 1.54 100 03:49 29.03.2022
2351 Clouds 18 1028 42 10000 2.06 120 23:54 28.03.2022
2352 Clouds 18 1028 39 10000 5.14 360 23:19 28.03.2022
2353 Clouds 18 1028 39 10000 6.17 360 22:47 28.03.2022
2354 Clouds 19 1028 34 10000 6.17 360 22:22 28.03.2022
2355 Clouds 18 1029 37 10000 4.63 350 20:53 28.03.2022
2356 Clouds 18 1031 39 10000 4.63 360 19:59 28.03.2022
2357 Clouds 18 1031 39 10000 4.63 360 19:40 28.03.2022
2358 Clouds 16 1033 45 10000 1.54 80 18:52 28.03.2022
2359 Clouds 14 1033 55 10000 2.06 90 18:20 28.03.2022
2360 Clouds 14 1034 58 10000 0.51 0 17:32 28.03.2022
2361 Clouds 12 1034 71 10000 2.57 80 15:54 28.03.2022
2362 Clouds 10 1033 93 10000 1.54 70 14:27 28.03.2022
2363 Clouds 9 1033 93 10000 1.54 130 13:35 28.03.2022
2364 Clouds 9 1019 89 10000 0.94 7 11:57 28.03.2022
2365 Clouds 9 1019 89 10000 0.99 354 10:49 28.03.2022
2366 Clouds 9 1018 89 10000 1.16 7 09:41 28.03.2022
2367 Clouds 9 1019 88 10000 1.42 16 08:49 28.03.2022
2368 Clouds 10 1019 88 10000 1.66 19 08:21 28.03.2022
2369 Clouds 10 1019 88 10000 1.84 32 07:27 28.03.2022
2370 Clouds 11 1031 87 10000 0.51 270 02:48 28.03.2022
2371 Clouds 11 1029 82 10000 2.57 260 22:59 27.03.2022
2372 Clouds 11 1029 82 9000 3.6 300 22:22 27.03.2022
2373 Drizzle 14 1029 63 9000 2.06 80 21:40 27.03.2022
2374 Clouds 15 1029 67 10000 1.54 150 20:53 27.03.2022
2375 Clouds 13 1030 62 9000 2.06 40 19:44 27.03.2022
2376 Clouds 12 1031 76 10000 3.6 90 18:54 27.03.2022
2377 Clouds 14 1031 58 10000 2.06 10 18:26 27.03.2022
2378 Clouds 13 1031 67 10000 1.54 100 17:38 27.03.2022
2379 Clouds 11 1032 82 10000 2.06 100 15:59 27.03.2022
2380 Clouds 10 1030 87 10000 1.54 90 14:26 27.03.2022
2381 Clouds 9 1030 87 10000 1.54 90 13:42 27.03.2022
2382 Clouds 6 1018 91 10000 0.68 37 11:52 27.03.2022
2383 Clouds 7 1017 91 10000 0.72 38 10:28 27.03.2022
2384 Clouds 7 1017 92 10000 1 358 08:21 27.03.2022
2385 Clouds 8 1030 87 10000 1.54 290 05:19 27.03.2022
2386 Clouds 11 1028 76 10000 2.06 90 00:37 27.03.2022
2387 Clouds 14 1026 63 10000 3.09 270 23:30 26.03.2022
2388 Clouds 15 1026 58 10000 3.6 350 22:29 26.03.2022
2389 Clouds 15 1026 55 10000 3.6 310 21:32 26.03.2022
2390 Clouds 16 1028 51 10000 3.6 300 19:46 26.03.2022
2391 Clouds 16 1028 55 10000 4.63 300 18:56 26.03.2022
2392 Clouds 16 1030 51 10000 2.06 0 17:44 26.03.2022
2393 Clouds 17 1030 51 10000 2.06 0 17:44 26.03.2022
2394 Clouds 14 1030 58 10000 1.54 250 17:22 26.03.2022
2395 Clouds 13 1031 62 10000 1.03 0 15:52 26.03.2022
2396 Clouds 11 1031 82 10000 1.03 90 14:21 26.03.2022
2397 Clouds 10 1031 87 10000 2.06 80 13:51 26.03.2022
2398 Clouds 10 1030 82 10000 2.06 90 12:36 26.03.2022
2399 Rain 10 1029 82 10000 2.06 100 11:18 26.03.2022
2400 Clouds 8 1017 90 10000 1.77 338 09:22 26.03.2022
2401 Rain 8 1016 90 10000 1.75 320 07:36 26.03.2022
2402 Clouds 11 1030 82 10000 0 0 05:53 26.03.2022
2403 Clouds 11 1029 76 10000 1.54 270 03:32 26.03.2022
2404 Clouds 17 1026 42 10000 2.06 240 22:57 25.03.2022
2405 Clouds 17 1027 48 10000 4.63 10 20:58 25.03.2022
2406 Clouds 17 1027 48 10000 4.63 10 20:38 25.03.2022
2407 Clouds 18 1028 42 10000 4.12 340 19:21 25.03.2022
2408 Clouds 18 1029 52 10000 3.09 80 18:37 25.03.2022
2409 Clouds 16 1030 51 10000 2.57 0 17:34 25.03.2022
2410 Clouds 16 1030 51 10000 2.57 0 17:34 25.03.2022
2411 Clouds 16 1031 51 10000 2.06 350 16:39 25.03.2022
2412 Clouds 14 1031 63 10000 3.09 320 15:46 25.03.2022
2413 Clouds 11 1031 76 10000 0.51 260 13:40 25.03.2022
2414 Clouds 9 1030 87 10000 2.57 80 11:49 25.03.2022
2415 Clouds 8 1017 92 10000 1.13 2 09:46 25.03.2022
2416 Clouds 8 1017 92 10000 1.22 13 08:59 25.03.2022
2417 Clouds 8 1017 92 10000 1.29 20 07:47 25.03.2022
2418 Clouds 8 1017 92 10000 1.54 20 07:21 25.03.2022
2419 Clouds 13 1030 71 10000 1.54 270 03:58 25.03.2022
2420 Clouds 14 1027 67 10000 2.57 290 23:55 24.03.2022
2421 Rain 17 1025 48 10000 4.63 20 22:24 24.03.2022
2422 Clouds 20 1025 40 10000 4.12 10 21:29 24.03.2022
2423 Clouds 19 1027 45 10000 5.14 360 19:50 24.03.2022
2424 Clouds 18 1028 45 10000 2.06 0 18:46 24.03.2022
2425 Clouds 16 1030 55 10000 1.54 0 17:38 24.03.2022
2426 Clouds 13 1031 67 10000 3.09 110 16:41 24.03.2022
2427 Clouds 11 1032 71 9000 0.51 90 14:58 24.03.2022
2428 Clouds 10 1032 76 9000 2.57 150 14:39 24.03.2022
2429 Clouds 9 1032 81 9000 2.06 140 13:36 24.03.2022
2430 Clouds 8 1030 87 8000 1.03 0 12:39 24.03.2022
2431 Clouds 8 1030 93 10000 1.54 100 11:31 24.03.2022
2432 Clouds 9 1017 94 10000 0.53 275 09:34 24.03.2022
2433 Clouds 9 1017 94 10000 0.54 275 08:39 24.03.2022
2434 Clouds 9 1018 93 10000 1.12 243 06:18 24.03.2022
2435 Rain 11 1030 76 10000 6.17 30 01:20 24.03.2022
2436 Clouds 18 1025 39 10000 4.12 360 22:26 23.03.2022
2437 Clouds 20 1025 37 10000 4.12 360 21:25 23.03.2022
2438 Clouds 20 1026 37 10000 4.12 360 20:46 23.03.2022
2439 Clouds 19 1028 37 10000 2.57 0 19:33 23.03.2022
2440 Clouds 19 1030 40 10000 2.06 350 18:19 23.03.2022
2441 Clouds 17 1031 42 10000 1.03 0 17:26 23.03.2022
2442 Clouds 16 1032 48 10000 2.06 350 16:18 23.03.2022
2443 Clouds 14 1032 58 10000 1.03 40 14:49 23.03.2022
2444 Clouds 9 1032 81 10000 0 0 13:34 23.03.2022
2445 Clouds 8 1031 81 10000 0 0 11:38 23.03.2022
2446 Clouds 7 1018 91 10000 0.43 31 08:49 23.03.2022
2447 Clouds 8 1019 91 10000 1.64 27 06:25 23.03.2022
2448 Clouds 10 1030 76 10000 1.03 0 03:44 23.03.2022
2449 Clouds 16 1026 51 10000 3.09 360 00:28 23.03.2022
2450 Clouds 19 1025 42 10000 2.57 320 21:56 22.03.2022
2451 Clouds 17 1026 48 10000 1.54 0 21:26 22.03.2022
2452 Clouds 16 1027 48 10000 3.6 130 20:30 22.03.2022
2453 Clouds 18 1028 42 10000 2.06 0 19:27 22.03.2022
2454 Clouds 15 1029 63 10000 3.09 70 18:50 22.03.2022
2455 Clouds 16 1030 55 10000 2.57 40 17:44 22.03.2022
2456 Clouds 16 1031 48 10000 1.03 0 17:18 22.03.2022
2457 Clouds 13 1032 67 10000 1.54 0 15:49 22.03.2022
2458 Clouds 13 1032 67 10000 1.54 90 15:21 22.03.2022
2459 Clouds 12 1032 71 10000 1.54 100 14:45 22.03.2022
2460 Clouds 12 1032 71 10000 1.54 100 14:24 22.03.2022
2461 Clouds 9 1031 87 10000 1.54 80 12:40 22.03.2022
2462 Clouds 8 1030 93 10000 1.03 290 11:26 22.03.2022
2463 Clouds 7 1018 87 10000 1.08 31 09:52 22.03.2022
2464 Clouds 8 1018 88 10000 1.23 22 07:48 22.03.2022
2465 Clouds 9 1031 81 10000 1.03 120 04:36 22.03.2022
2466 Clouds 11 1030 71 10000 1.03 100 02:54 22.03.2022
2467 Clouds 17 1026 45 10000 2.06 0 23:21 21.03.2022
2468 Clouds 19 1026 40 10000 4.63 350 21:47 21.03.2022
2469 Clouds 19 1027 42 10000 3.6 340 20:45 21.03.2022
2470 Clouds 19 1027 42 10000 3.6 340 20:26 21.03.2022
2471 Clouds 17 1028 45 10000 2.57 0 19:53 21.03.2022
2472 Clouds 17 1029 48 10000 1.54 0 19:23 21.03.2022
2473 Clouds 15 1031 44 10000 1.54 0 17:43 21.03.2022
2474 Clouds 13 1032 54 10000 1.54 0 17:00 21.03.2022
2475 Clouds 13 1032 54 10000 1.54 0 16:36 21.03.2022
2476 Clouds 13 1032 54 10000 1.03 0 15:45 21.03.2022
2477 Clouds 13 1033 62 10000 0.51 0 14:47 21.03.2022
2478 Clouds 10 1032 76 10000 0.51 250 13:35 21.03.2022
2479 Clouds 6 1031 93 10000 1.03 0 12:31 21.03.2022
2480 Clouds 7 1031 87 10000 0 0 11:39 21.03.2022
2481 Clouds 9 1018 87 10000 1.38 43 09:54 21.03.2022
2482 Clouds 9 1018 90 10000 1.46 38 07:54 21.03.2022
2483 Clouds 10 1019 89 10000 1.44 36 06:31 21.03.2022
2484 Clouds 13 1031 58 10000 3.09 360 02:24 21.03.2022
2485 Clouds 14 1028 55 10000 3.6 20 23:32 20.03.2022
2486 Clouds 15 1028 51 10000 2.57 20 22:42 20.03.2022
2487 Clouds 14 1028 58 10000 2.57 80 21:44 20.03.2022
2488 Clouds 15 1029 59 10000 3.6 130 20:59 20.03.2022
2489 Clouds 15 1029 59 10000 3.6 130 20:39 20.03.2022
2490 Clouds 15 1030 55 10000 1.54 180 19:56 20.03.2022
2491 Clouds 14 1030 58 10000 1.03 30 19:26 20.03.2022
2492 Clouds 13 1032 58 10000 2.06 90 17:51 20.03.2022
2493 Clouds 15 1032 63 10000 1.03 0 17:29 20.03.2022
2494 Clouds 14 1032 62 10000 1.03 0 16:46 20.03.2022
2495 Clouds 11 1033 66 10000 0 0 14:54 20.03.2022
2496 Clouds 9 1033 87 10000 1.03 0 13:46 20.03.2022
2497 Clouds 8 1032 87 10000 0 0 12:21 20.03.2022
2498 Rain 9 1018 88 10000 1.21 77 10:42 20.03.2022
2499 Rain 9 1017 86 10000 1.44 45 08:37 20.03.2022
2500 Clouds 9 1019 86 10000 1.43 47 06:55 20.03.2022
2501 Clouds 12 1031 67 10000 3.09 100 03:59 20.03.2022
2502 Clouds 15 1028 55 10000 4.12 320 00:59 20.03.2022
2503 Clouds 15 1028 55 10000 4.12 320 00:35 20.03.2022
2504 Clouds 18 1026 42 10000 2.57 120 22:56 19.03.2022
2505 Clouds 18 1027 39 10000 1.03 0 21:27 19.03.2022
2506 Clouds 17 1029 42 10000 1.54 300 20:19 19.03.2022
2507 Clouds 16 1031 48 10000 2.06 210 18:44 19.03.2022
2508 Clouds 15 1032 51 10000 3.09 100 17:57 19.03.2022
2509 Clouds 16 1033 51 10000 1.03 0 17:34 19.03.2022
2510 Clouds 12 1033 67 10000 0.51 0 15:43 19.03.2022
2511 Clouds 9 1033 81 10000 1.54 90 14:21 19.03.2022
2512 Clouds 6 1032 93 10000 1.54 290 12:56 19.03.2022
2513 Clouds 7 1032 93 10000 1.54 290 12:38 19.03.2022
2514 Clouds 6 1031 93 10000 1.54 260 11:49 19.03.2022
2515 Clouds 6 1020 93 10000 0.61 55 10:41 19.03.2022
2516 Clouds 8 1031 87 10000 0.51 300 05:59 19.03.2022
2517 Clouds 11 1030 71 10000 1.03 0 02:48 19.03.2022
2518 Clouds 13 1028 62 10000 2.57 270 01:32 19.03.2022
2519 Clouds 17 1026 42 10000 3.6 330 23:22 18.03.2022
2520 Clouds 16 1026 42 10000 4.12 340 22:25 18.03.2022
2521 Clouds 16 1028 45 10000 4.12 360 20:56 18.03.2022
2522 Clouds 16 1029 45 10000 3.09 50 19:49 18.03.2022
2523 Clouds 17 1030 42 10000 1.54 0 19:19 18.03.2022
2524 Clouds 14 1033 55 10000 2.06 280 17:27 18.03.2022
2525 Clouds 13 1033 54 10000 1.54 290 16:45 18.03.2022
2526 Clouds 10 1033 76 10000 0 0 14:37 18.03.2022
2527 Clouds 9 1033 81 10000 0 0 14:18 18.03.2022
2528 Clouds 7 1031 93 10000 1.03 80 12:19 18.03.2022
2529 Clouds 5 1019 93 10000 0.21 16 10:38 18.03.2022
2530 Clouds 5 1018 92 10000 0.45 16 09:21 18.03.2022
2531 Clouds 6 1018 91 10000 0.74 18 07:45 18.03.2022
2532 Clouds 7 1030 93 10000 2.06 300 05:46 18.03.2022
2533 Clouds 10 1028 76 10000 1.03 0 02:44 18.03.2022
2534 Clouds 15 1026 55 10000 4.12 300 00:21 18.03.2022
2535 Clouds 17 1025 45 10000 1.52 315 22:56 17.03.2022
2536 Clouds 16 1026 48 10000 3.6 0 22:22 17.03.2022
2537 Clouds 19 1025 42 10000 5.14 250 21:47 17.03.2022
2538 Clouds 17 1025 39 10000 3.09 360 21:18 17.03.2022
2539 Clouds 17 1026 36 10000 1.03 0 20:32 17.03.2022
2540 Clouds 18 1027 37 10000 3.6 180 19:41 17.03.2022
2541 Clouds 17 1028 42 10000 3.09 80 18:57 17.03.2022
2542 Clouds 15 1030 48 10000 2.06 120 17:55 17.03.2022
2543 Clouds 13 1031 51 10000 1.54 60 16:34 17.03.2022
2544 Clouds 12 1032 62 10000 1.54 110 15:44 17.03.2022
2545 Clouds 11 1032 66 10000 1.54 100 15:21 17.03.2022
2546 Clouds 8 1032 87 10000 1.03 100 13:48 17.03.2022
2547 Clouds 8 1031 81 10000 0 0 12:48 17.03.2022
2548 Clouds 8 1031 81 10000 0 0 11:53 17.03.2022
2549 Clouds 8 1030 87 10000 0.51 320 11:22 17.03.2022
2550 Clouds 6 1019 91 10000 0.95 344 09:47 17.03.2022
2551 Clouds 6 1019 92 10000 1.31 6 08:31 17.03.2022
2552 Clouds 6 1020 93 10000 1.84 16 06:25 17.03.2022
2553 Clouds 6 1030 93 10000 0 0 05:39 17.03.2022
2554 Clouds 10 1027 71 10000 2.06 280 00:42 17.03.2022
2555 Clouds 13 1027 67 10000 2.06 90 22:59 16.03.2022
2556 Clouds 13 1027 67 10000 2.06 90 22:39 16.03.2022
2557 Clouds 14 1027 67 10000 2.06 80 22:19 16.03.2022
2558 Clouds 14 1027 58 10000 4.12 340 21:18 16.03.2022
2559 Clouds 14 1027 58 10000 4.12 340 21:18 16.03.2022
2560 Clouds 16 1028 42 10000 1.54 320 19:25 16.03.2022
2561 Clouds 16 1029 42 10000 3.09 300 18:55 16.03.2022
2562 Clouds 16 1030 39 10000 2.06 140 18:20 16.03.2022
2563 Clouds 15 1030 44 10000 1.54 0 17:37 16.03.2022
2564 Clouds 14 1032 55 10000 1.54 130 16:49 16.03.2022
2565 Clouds 12 1032 62 10000 2.06 80 15:41 16.03.2022
2566 Clouds 7 1033 87 10000 1.03 110 13:44 16.03.2022
2567 Clouds 7 1031 93 10000 1.54 90 12:59 16.03.2022
2568 Clouds 6 1031 93 10000 0 0 11:44 16.03.2022
2569 Clouds 6 1030 93 10000 0.51 80 11:18 16.03.2022
2570 Clouds 8 1017 93 10000 0.94 46 09:59 16.03.2022
2571 Clouds 8 1017 92 10000 1.21 40 08:37 16.03.2022
2572 Clouds 9 1031 87 10000 1.54 130 03:33 16.03.2022
2573 Clouds 10 1028 87 8000 3.09 130 23:39 15.03.2022
2574 Clouds 11 1027 82 10000 4.63 100 22:37 15.03.2022
2575 Clouds 12 1028 71 10000 3.09 80 21:33 15.03.2022
2576 Clouds 10 1029 82 7000 4.12 280 19:47 15.03.2022
2577 Clouds 14 1030 58 10000 1.54 0 18:41 15.03.2022
2578 Clouds 10 1033 71 10000 1.54 70 16:47 15.03.2022
2579 Clouds 9 1033 71 10000 1.54 0 16:18 15.03.2022
2580 Clouds 7 1033 87 10000 1.54 80 14:55 15.03.2022
2581 Clouds 7 1033 87 10000 1.03 0 14:30 15.03.2022
2582 Clouds 6 1032 93 10000 1.54 90 13:27 15.03.2022
2583 Clouds 6 1031 87 10000 0.51 0 11:56 15.03.2022
2584 Clouds 6 1031 93 10000 1.03 0 11:19 15.03.2022
2585 Rain 9 1016 89 10000 1.24 340 09:31 15.03.2022
2586 Clouds 9 1016 89 10000 1.41 349 08:32 15.03.2022
2587 Clouds 9 1017 90 10000 1.42 7 07:44 15.03.2022
2588 Clouds 9 1017 91 10000 1.46 23 06:32 15.03.2022
2589 Clouds 10 1030 87 10000 1.54 110 02:36 15.03.2022
2590 Clouds 13 1026 67 10000 2.06 100 23:36 14.03.2022
2591 Clouds 14 1026 63 10000 3.09 120 23:18 14.03.2022
2592 Clouds 15 1026 51 10000 2.06 30 21:57 14.03.2022
2593 Clouds 15 1026 55 10000 2.06 0 21:20 14.03.2022
2594 Clouds 15 1027 63 10000 5.66 90 20:31 14.03.2022
2595 Clouds 15 1028 59 10000 4.12 70 19:47 14.03.2022
2596 Clouds 11 1030 82 9000 5.14 270 18:20 14.03.2022
2597 Clouds 15 1030 51 10000 1.03 0 17:42 14.03.2022
2598 Clouds 15 1031 55 10000 1.03 111 16:37 14.03.2022
2599 Clouds 12 1032 71 10000 1.03 0 15:20 14.03.2022
2600 Clouds 9 1032 87 10000 1.54 70 13:59 14.03.2022
2601 Clouds 8 1030 87 10000 1.03 0 11:27 14.03.2022
2602 Clouds 8 1017 89 10000 1.1 13 09:58 14.03.2022
2603 Clouds 8 1017 89 10000 1.1 13 09:38 14.03.2022
2604 Clouds 8 1017 90 10000 1.23 20 09:18 14.03.2022
2605 Clouds 8 1017 90 10000 1.23 20 08:46 14.03.2022
2606 Clouds 7 1018 91 10000 1.46 18 07:19 14.03.2022
2607 Clouds 8 1032 93 10000 2.06 90 03:36 14.03.2022
2608 Clouds 8 1031 87 10000 2.06 80 01:42 14.03.2022
2609 Drizzle 8 1030 87 9000 5.66 100 00:35 14.03.2022
2610 Drizzle 13 1028 76 10000 1.54 70 21:55 13.03.2022
2611 Drizzle 12 1028 76 10000 1.54 70 21:26 13.03.2022
2612 Drizzle 12 1028 76 10000 1.03 0 20:46 13.03.2022
2613 Drizzle 12 1028 76 10000 1.03 0 20:23 13.03.2022
2614 Drizzle 11 1029 82 9000 2.06 280 19:42 13.03.2022
2615 Clouds 11 1030 82 9000 2.06 280 19:23 13.03.2022
2616 Clouds 11 1030 82 9000 2.06 280 19:23 13.03.2022
2617 Clouds 11 1030 82 9000 2.06 280 19:23 13.03.2022
2618 Drizzle 12 1030 76 10000 4.12 270 18:45 13.03.2022
2619 Clouds 13 1030 67 10000 4.63 280 18:26 13.03.2022
2620 Clouds 14 1031 63 10000 2.57 90 17:39 13.03.2022
2621 Clouds 12 1032 71 10000 1.54 100 16:46 13.03.2022
2622 Clouds 12 1032 71 10000 1.54 100 16:25 13.03.2022
2623 Clouds 12 1032 76 10000 1.54 80 15:42 13.03.2022
2624 Clouds 10 1032 87 10000 0.65 308 14:41 13.03.2022
2625 Clouds 9 1031 87 10000 2.06 90 13:29 13.03.2022
2626 Clouds 9 1031 87 10000 1.54 90 12:25 13.03.2022
2627 Clouds 9 1030 87 10000 0 0 11:44 13.03.2022
2628 Clouds 8 1018 92 10000 1.18 201 10:50 13.03.2022
2629 Clouds 8 1018 91 10000 0.9 210 10:29 13.03.2022
2630 Clouds 8 1018 91 10000 0.9 210 09:42 13.03.2022
2631 Clouds 8 1018 91 10000 1.19 221 08:50 13.03.2022
2632 Clouds 8 1018 91 10000 1.19 221 08:30 13.03.2022
2633 Clouds 8 1018 91 10000 1.01 287 07:19 13.03.2022
2634 Drizzle 10 1031 82 10000 1.54 290 04:59 13.03.2022
2635 Clouds 11 1028 87 10000 1.54 90 01:48 13.03.2022
2636 Clouds 12 1027 71 10000 2.06 330 23:28 12.03.2022
2637 Clouds 16 1025 55 10000 6.69 120 21:39 12.03.2022
2638 Clouds 18 1026 42 10000 2.57 0 20:19 12.03.2022
2639 Clouds 18 1026 42 10000 3.09 260 19:46 12.03.2022
2640 Clouds 18 1028 45 10000 1.03 350 18:40 12.03.2022
2641 Clouds 16 1025 51 10000 3.09 310 17:53 12.03.2022
2642 Clouds 13 1032 62 10000 2.06 100 16:28 12.03.2022
2643 Clouds 13 1032 62 10000 2.06 100 16:28 12.03.2022
2644 Clouds 14 1032 58 10000 1.54 110 15:50 12.03.2022
2645 Clouds 12 1032 62 10000 0.51 0 15:21 12.03.2022
2646 Clouds 10 1031 71 10000 0 0 13:53 12.03.2022
2647 Clouds 8 1030 76 10000 2.06 270 12:28 12.03.2022
2648 Clouds 9 1030 71 10000 3.09 280 11:53 12.03.2022
2649 Clouds 9 1030 71 10000 3.09 280 11:33 12.03.2022
2650 Clouds 9 1015 91 10000 0.7 315 10:24 12.03.2022
2651 Clouds 9 1015 91 10000 0.7 315 09:43 12.03.2022
2652 Rain 10 1016 91 10000 0.94 309 07:52 12.03.2022
2653 Clouds 10 1016 90 10000 1 328 06:40 12.03.2022
2654 Clouds 15 1026 51 10000 3.09 360 00:31 12.03.2022
2655 Clouds 15 1025 48 10000 2.57 0 23:41 11.03.2022
2656 Clouds 16 1025 55 10000 1.54 0 22:32 11.03.2022
2657 Clouds 14 1026 51 10000 1.54 100 21:24 11.03.2022
2658 Clouds 14 1026 51 10000 1.54 100 21:24 11.03.2022
2659 Clouds 12 1027 76 10000 2.06 50 20:46 11.03.2022
2660 Clouds 12 1027 76 10000 2.06 50 20:26 11.03.2022
2661 Clouds 12 1028 71 10000 6.17 120 19:32 11.03.2022
2662 Clouds 15 1029 55 10000 1.54 20 17:53 11.03.2022
2663 Clouds 14 1030 58 10000 1.54 0 17:24 11.03.2022
2664 Clouds 12 1031 67 10000 1.03 0 15:59 11.03.2022
2665 Clouds 12 1031 67 10000 1.03 0 15:32 11.03.2022
2666 Clouds 9 1031 87 10000 1.03 0 13:42 11.03.2022
2667 Clouds 9 1030 87 10000 0 0 12:37 11.03.2022
2668 Clouds 8 1029 93 10000 1.54 60 11:57 11.03.2022
2669 Clouds 10 1016 90 10000 0.67 161 10:30 11.03.2022
2670 Clouds 10 1015 89 10000 0.77 159 09:34 11.03.2022
2671 Clouds 10 1015 87 10000 0.24 202 08:28 11.03.2022
2672 Clouds 10 1015 87 10000 0.24 202 07:48 11.03.2022
2673 Clouds 10 1016 88 10000 0.62 37 06:26 11.03.2022
2674 Clouds 9 1032 87 8000 1.03 0 04:28 11.03.2022
2675 Clouds 14 1026 63 10000 1.03 0 01:20 11.03.2022
2676 Clouds 17 1024 42 10000 4.12 10 22:32 10.03.2022
2677 Rain 17 1024 42 10000 4.63 20 21:53 10.03.2022
2678 Rain 18 1024 42 10000 7.72 10 21:24 10.03.2022
2679 Clouds 19 1025 42 10000 3.09 110 20:34 10.03.2022
2680 Clouds 19 1027 40 10000 1.54 0 19:20 10.03.2022
2681 Clouds 17 1029 45 10000 1.54 30 17:50 10.03.2022
2682 Clouds 15 1031 51 10000 1.03 0 16:52 10.03.2022
2683 Clouds 13 1031 58 10000 1.03 0 15:27 10.03.2022
2684 Clouds 10 1031 82 10000 1.54 110 13:41 10.03.2022
2685 Clouds 9 1030 87 10000 1.03 80 12:35 10.03.2022
2686 Clouds 8 1030 87 10000 1.54 70 11:26 10.03.2022
2687 Clouds 8 1017 92 10000 2.2 114 09:28 10.03.2022
2688 Clouds 8 1017 91 10000 1.75 90 07:47 10.03.2022
2689 Clouds 11 1030 62 10000 0 0 05:30 10.03.2022
2690 Clouds 14 1028 51 10000 0 0 01:56 10.03.2022
2691 Clouds 16 1025 45 10000 4.63 10 23:30 09.03.2022
2692 Clouds 17 1025 42 10000 5.66 10 22:20 09.03.2022
2693 Clouds 18 1026 42 10000 6.69 20 21:36 09.03.2022
2694 Clouds 17 1026 42 10000 5.66 360 20:31 09.03.2022
2695 Clouds 16 1038 48 10000 3.09 260 18:35 09.03.2022
2696 Clouds 13 1030 58 10000 2.06 80 17:27 09.03.2022
2697 Clouds 14 1030 67 10000 1.03 0 16:35 09.03.2022
2698 Clouds 11 1031 76 10000 1.03 0 15:31 09.03.2022
2699 Clouds 10 1030 76 10000 0 0 13:54 09.03.2022
2700 Clouds 8 1029 93 10000 1.03 120 12:56 09.03.2022
2701 Clouds 8 1029 93 10000 1.03 80 12:19 09.03.2022
2702 Drizzle 8 1029 93 10000 1.03 100 11:36 09.03.2022
2703 Clouds 8 1017 91 10000 0.89 108 10:39 09.03.2022
2704 Clouds 9 1016 90 10000 1.08 106 08:59 09.03.2022
2705 Clouds 8 1016 91 10000 1.1 83 08:25 09.03.2022
2706 Rain 11 1029 71 10000 1.32 99 03:50 09.03.2022
2707 Clouds 13 1027 54 10000 4.63 360 00:47 09.03.2022
2708 Clouds 15 1025 51 10000 4.63 360 22:48 08.03.2022
2709 Clouds 15 1025 51 10000 4.63 360 22:29 08.03.2022
2710 Clouds 15 1025 51 10000 5.14 10 21:23 08.03.2022
2711 Clouds 16 1026 48 10000 1.54 50 20:44 08.03.2022
2712 Clouds 16 1027 45 10000 1.54 0 19:42 08.03.2022
2713 Clouds 15 1028 48 10000 2.06 90 18:44 08.03.2022
2714 Clouds 14 1029 67 10000 0.51 0 17:37 08.03.2022
2715 Clouds 11 1031 76 10000 1.03 190 16:26 08.03.2022
2716 Clouds 8 1031 87 10000 0.51 0 14:19 08.03.2022
2717 Clouds 8 1029 87 10000 2.06 70 12:43 08.03.2022
2718 Clouds 8 1029 87 10000 0.51 0 11:45 08.03.2022
2719 Clouds 7 1017 94 10000 0.61 114 10:48 08.03.2022
2720 Clouds 7 1016 94 10000 0.57 114 09:57 08.03.2022
2721 Clouds 7 1016 94 10000 1.09 143 07:32 08.03.2022
2722 Clouds 8 1030 93 10000 1.54 240 05:43 08.03.2022
2723 Clouds 10 1026 82 10000 1.03 0 23:52 07.03.2022
2724 Thunderstorm 10 1026 82 7000 4.63 120 21:59 07.03.2022
2725 Clouds 10 1025 82 6000 8.75 120 21:32 07.03.2022
2726 Clouds 18 1024 39 10000 2.57 290 20:48 07.03.2022
2727 Clouds 20 1025 37 10000 2.06 0 20:20 07.03.2022
2728 Clouds 17 1027 42 10000 1.54 0 19:31 07.03.2022
2729 Clouds 17 1028 51 10000 1.03 0 18:42 07.03.2022
2730 Clouds 16 1029 48 10000 2.57 80 17:50 07.03.2022
2731 Clouds 14 1030 55 10000 2.06 90 16:55 07.03.2022
2732 Clouds 13 1031 67 10000 2.06 90 15:50 07.03.2022
2733 Rain 9 1030 81 10000 0.51 0 13:51 07.03.2022
2734 Clouds 7 1030 93 10000 1.54 80 12:27 07.03.2022
2735 Clouds 7 1017 95 10000 0.52 145 10:38 07.03.2022
2736 Clouds 7 1016 95 10000 0.72 119 08:57 07.03.2022
2737 Clouds 11 1028 76 10000 1.03 160 04:43 07.03.2022
2738 Rain 14 1024 67 10000 1.54 280 00:22 07.03.2022
2739 Rain 15 1024 55 10000 1.03 0 23:35 06.03.2022
2740 Drizzle 16 1024 55 10000 2.06 0 22:42 06.03.2022
2741 Clouds 19 1023 40 10000 3.6 360 21:47 06.03.2022
2742 Clouds 19 1025 42 10000 3.09 360 20:38 06.03.2022
2743 Clouds 19 1025 42 10000 3.09 360 20:20 06.03.2022
2744 Clouds 18 1027 42 10000 2.06 50 18:52 06.03.2022
2745 Clouds 17 1028 48 10000 1.03 0 18:23 06.03.2022
2746 Clouds 16 1029 51 10000 1.54 0 17:21 06.03.2022
2747 Clouds 15 1030 51 10000 0.51 0 16:41 06.03.2022
2748 Clouds 13 1030 62 10000 2.06 80 15:49 06.03.2022
2749 Clouds 13 1030 62 10000 2.06 80 15:49 06.03.2022
2750 Clouds 12 1031 67 10000 0.51 0 14:49 06.03.2022
2751 Clouds 11 1031 76 10000 1.03 0 14:31 06.03.2022
2752 Clouds 10 1030 76 10000 0 0 13:18 06.03.2022
2753 Clouds 8 1030 93 10000 1.03 130 12:31 06.03.2022
2754 Clouds 9 1016 92 10000 1.3 161 10:53 06.03.2022
2755 Clouds 9 1016 92 10000 1.53 162 09:54 06.03.2022
2756 Clouds 9 1016 92 10000 1.55 166 08:29 06.03.2022
2757 Clouds 9 1016 92 10000 1.55 166 08:29 06.03.2022
2758 Clouds 9 1016 92 10000 1.55 166 08:29 06.03.2022
2759 Rain 9 1016 92 10000 1.55 166 07:34 06.03.2022
2760 Clouds 10 1029 82 10000 1.54 260 05:32 06.03.2022
2761 Clouds 13 1026 67 10000 1.49 355 00:49 06.03.2022
2762 Clouds 13 1025 62 10000 4.12 280 00:29 06.03.2022
2763 Clouds 17 1025 45 10000 1.54 300 23:21 05.03.2022
2764 Clouds 16 1025 51 10000 0.51 0 22:43 05.03.2022
2765 Clouds 13 1026 62 10000 2.06 260 21:45 05.03.2022
2766 Drizzle 11 1027 82 10000 3.6 240 21:20 05.03.2022
2767 Clouds 17 1028 48 10000 1.54 0 19:24 05.03.2022
2768 Clouds 16 1029 55 10000 1.54 60 18:51 05.03.2022
2769 Rain 14 1030 58 10000 2.06 0 17:53 05.03.2022
2770 Clouds 11 1032 66 10000 1.03 0 16:26 05.03.2022
2771 Rain 10 1033 71 10000 1.03 0 15:31 05.03.2022
2772 Rain 9 1033 76 10000 1.03 80 14:44 05.03.2022
2773 Rain 8 1033 81 10000 1.03 0 14:26 05.03.2022
2774 Rain 7 1032 87 10000 0 0 13:20 05.03.2022
2775 Clouds 7 1020 93 10000 1.22 212 11:46 05.03.2022
2776 Clouds 7 1019 94 10000 1.4 203 11:18 05.03.2022
2777 Clouds 7 1019 95 10000 1.59 207 09:58 05.03.2022
2778 Clouds 7 1019 96 8409 1.8 196 08:57 05.03.2022
2779 Clouds 7 1019 96 7341 2.25 183 07:37 05.03.2022
2780 Rain 9 1032 87 9000 0.51 0 05:42 05.03.2022
2781 Clouds 14 1029 63 10000 1.54 210 02:20 05.03.2022
2782 Clouds 16 1026 59 10000 5.14 100 23:36 04.03.2022
2783 Clouds 17 1026 45 10000 4.12 10 22:42 04.03.2022
2784 Clouds 17 1026 45 10000 2.57 0 21:47 04.03.2022
2785 Clouds 16 1028 51 10000 3.6 10 20:52 04.03.2022
2786 Clouds 17 1028 51 10000 2.06 0 20:22 04.03.2022
2787 Clouds 15 1029 59 10000 1.03 0 19:35 04.03.2022
2788 Clouds 14 1031 67 10000 2.57 70 18:43 04.03.2022
2789 Clouds 12 1033 67 10000 1.03 0 17:31 04.03.2022
2790 Drizzle 10 1034 81 10000 0 0 16:43 04.03.2022
2791 Clouds 9 1034 87 10000 2.06 80 15:28 04.03.2022
2792 Clouds 7 1033 93 10000 2.57 90 14:19 04.03.2022
2793 Clouds 7 1032 87 10000 2.57 90 13:24 04.03.2022
2794 Clouds 8 1031 93 8000 4.63 110 11:40 04.03.2022
2795 Clouds 9 1017 84 10000 0.72 276 10:42 04.03.2022
2796 Clouds 9 1017 83 10000 0.9 303 09:40 04.03.2022
2797 Clouds 9 1016 83 10000 0.61 313 08:34 04.03.2022
2798 Clouds 9 1017 84 10000 1.19 7 07:23 04.03.2022
2799 Clouds 10 1030 76 10000 2.06 90 03:50 04.03.2022
2800 Clouds 16 1026 48 10000 3.6 10 00:24 04.03.2022
2801 Rain 19 1025 37 10000 3.6 360 22:21 03.03.2022
2802 Clouds 21 1026 26 10000 1.54 0 21:40 03.03.2022
2803 Clouds 21 1026 26 10000 1.03 0 21:18 03.03.2022
2804 Clouds 18 1029 37 10000 2.57 0 19:48 03.03.2022
2805 Clouds 17 1030 39 10000 1.54 0 18:53 03.03.2022
2806 Clouds 17 1030 39 10000 1.54 0 18:22 03.03.2022
2807 Clouds 16 1032 48 10000 2.06 0 17:28 03.03.2022
2808 Clouds 15 1033 44 10000 1.54 0 16:22 03.03.2022
2809 Clouds 13 1033 58 10000 2.57 80 15:20 03.03.2022
2810 Clouds 10 1033 71 10000 1.03 0 14:42 03.03.2022
2811 Clouds 8 1033 76 10000 1.03 0 13:19 03.03.2022
2812 Clouds 6 1032 87 10000 0 0 11:51 03.03.2022
2813 Clouds 6 1020 86 10000 0.91 38 10:41 03.03.2022
2814 Clouds 6 1019 86 10000 1.12 25 08:57 03.03.2022
2815 Clouds 6 1019 86 10000 1.26 26 07:45 03.03.2022
2816 Clouds 7 1020 86 10000 1.25 21 06:35 03.03.2022
2817 Clouds 12 1028 58 10000 1.03 0 01:52 03.03.2022
2818 Clouds 17 1026 39 10000 4.63 10 23:31 02.03.2022
2819 Clouds 18 1026 37 10000 6.17 360 22:52 02.03.2022
2820 Clouds 18 1027 34 10000 5.66 360 21:32 02.03.2022
2821 Clouds 18 1029 39 10000 6.69 350 20:46 02.03.2022
2822 Clouds 18 1029 39 10000 6.69 350 20:24 02.03.2022
2823 Clouds 17 1030 39 10000 4.63 20 19:36 02.03.2022
2824 Clouds 16 1032 42 10000 4.12 30 18:46 02.03.2022
2825 Clouds 16 1032 42 10000 4.12 30 18:18 02.03.2022
2826 Clouds 15 1033 41 10000 2.06 100 17:32 02.03.2022
2827 Clouds 14 1033 51 10000 1.03 30 16:51 02.03.2022
2828 Clouds 12 1034 58 10000 1.03 0 14:48 02.03.2022
2829 Clouds 7 1033 81 10000 1.03 120 13:29 02.03.2022
2830 Clouds 5 1032 87 10000 0.51 0 12:44 02.03.2022
2831 Clouds 5 1032 87 10000 1.03 270 11:53 02.03.2022
2832 Clouds 5 1031 87 10000 1.03 0 11:25 02.03.2022
2833 Clouds 6 1020 86 10000 0.98 37 09:47 02.03.2022
2834 Clouds 6 1020 86 10000 0.91 30 09:23 02.03.2022
2835 Clouds 6 1020 86 10000 1.1 20 07:52 02.03.2022
2836 Clouds 7 1020 86 10000 1.19 18 06:57 02.03.2022
2837 Clouds 12 1031 58 10000 1.03 0 03:46 02.03.2022
2838 Clouds 14 1028 47 10000 3.09 30 00:33 02.03.2022
2839 Clouds 16 1027 45 10000 5.14 10 22:50 01.03.2022
2840 Clouds 17 1027 45 10000 5.14 10 22:31 01.03.2022
2841 Clouds 15 1028 51 10000 3.6 350 21:25 01.03.2022
2842 Clouds 16 1028 51 10000 2.57 0 20:33 01.03.2022
2843 Clouds 13 1031 62 10000 3.09 0 19:50 01.03.2022
2844 Clouds 15 1031 51 10000 2.43 22 18:51 01.03.2022
2845 Clouds 15 1031 51 10000 4.63 10 18:21 01.03.2022
2846 Rain 16 1032 48 10000 1.03 0 17:37 01.03.2022
2847 Clouds 15 1032 51 10000 2.06 0 16:35 01.03.2022
2848 Clouds 15 1032 51 10000 2.06 0 16:35 01.03.2022
2849 Clouds 14 1033 55 10000 1.03 0 15:45 01.03.2022
2850 Clouds 13 1033 67 10000 2.06 0 14:41 01.03.2022
2851 Clouds 12 1033 71 10000 1.54 90 14:23 01.03.2022
2852 Clouds 10 1032 82 10000 0.51 0 13:26 01.03.2022
2853 Clouds 8 1031 93 10000 3.6 90 12:35 01.03.2022
2854 Clouds 8 1018 87 10000 0.73 94 10:52 01.03.2022
2855 Clouds 9 1017 86 10000 0.73 65 09:27 01.03.2022
2856 Clouds 9 1017 86 10000 0.9 46 08:19 01.03.2022
2857 Rain 9 1018 89 10000 1.14 16 06:28 01.03.2022
2858 Clouds 13 1029 58 10000 2.57 10 02:48 01.03.2022
2859 Clouds 15 1028 55 10000 1.03 0 00:40 01.03.2022
2860 Clouds 15 1027 51 10000 4.63 20 23:36 28.02.2022
2861 Clouds 17 1026 48 10000 5.66 360 22:30 28.02.2022
2862 Clouds 18 1026 45 10000 5.66 20 21:43 28.02.2022
2863 Clouds 20 1026 37 10000 7.72 10 20:34 28.02.2022
2864 Clouds 19 1028 42 10000 4.12 360 19:51 28.02.2022
2865 Clouds 18 1029 48 10000 1.54 290 18:50 28.02.2022
2866 Clouds 17 1031 52 10000 1.54 0 17:37 28.02.2022
2867 Clouds 17 1031 52 10000 1.54 0 17:18 28.02.2022
2868 Clouds 14 1032 63 10000 1.03 0 15:59 28.02.2022
2869 Clouds 12 1032 71 10000 1.03 0 14:32 28.02.2022
2870 Clouds 9 1032 87 10000 1.03 0 13:52 28.02.2022
2871 Clouds 10 1032 87 10000 1.03 0 13:52 28.02.2022
2872 Clouds 10 1032 87 10000 1.03 0 13:18 28.02.2022
2873 Clouds 8 1030 87 10000 1.54 270 11:59 28.02.2022
2874 Clouds 8 1030 87 10000 1.54 270 11:19 28.02.2022
2875 Clouds 9 1017 89 10000 0.59 22 10:22 28.02.2022
2876 Clouds 9 1017 89 10000 0.59 22 09:44 28.02.2022
2877 Clouds 9 1017 90 10000 0.63 33 08:53 28.02.2022
2878 Clouds 9 1017 90 10000 0.75 32 07:58 28.02.2022
2879 Clouds 10 1031 82 10000 1.54 80 05:54 28.02.2022
2880 Clouds 10 1031 82 10000 1.54 290 04:30 28.02.2022
2881 Clouds 16 1027 48 10000 2.57 20 00:52 28.02.2022
2882 Clouds 19 1026 37 10000 4.63 20 22:53 27.02.2022
2883 Clouds 19 1026 37 10000 4.63 20 22:32 27.02.2022
2884 Clouds 19 1027 40 10000 4.63 360 21:42 27.02.2022
2885 Clouds 18 1029 45 10000 2.57 360 20:44 27.02.2022
2886 Clouds 18 1029 45 10000 2.57 360 20:18 27.02.2022
2887 Rain 18 1031 52 10000 3.6 10 19:48 27.02.2022
2888 Clouds 17 1031 52 10000 3.6 10 19:21 27.02.2022
2889 Rain 15 1032 55 10000 2.57 70 18:33 27.02.2022
2890 Clouds 15 1033 55 10000 2.57 50 17:49 27.02.2022
2891 Clouds 12 1034 67 10000 1.54 80 16:25 27.02.2022
2892 Clouds 11 1035 76 10000 1.54 70 15:21 27.02.2022
2893 Clouds 8 1034 93 10000 1.03 70 12:37 27.02.2022
2894 Clouds 8 1033 93 10000 0.51 0 11:54 27.02.2022
2895 Clouds 8 1021 91 10000 1.05 10 10:37 27.02.2022
2896 Clouds 8 1021 91 10000 0.85 348 09:58 27.02.2022
2897 Clouds 8 1021 92 10000 1.25 331 09:24 27.02.2022
2898 Clouds 8 1021 92 10000 1.25 331 08:48 27.02.2022
2899 Clouds 7 1023 97 6930 1.23 359 06:30 27.02.2022
2900 Rain 9 1033 81 10000 1.03 0 03:44 27.02.2022
2901 Clouds 13 1031 58 10000 4.12 360 23:57 26.02.2022
2902 Clouds 13 1031 58 10000 3.09 10 22:48 26.02.2022
2903 Rain 13 1032 58 10000 5.14 350 21:29 26.02.2022
2904 Clouds 13 1033 67 10000 3.6 290 20:43 26.02.2022
2905 Clouds 11 1034 76 10000 1.03 0 19:57 26.02.2022
2906 Clouds 11 1034 76 10000 1.03 0 19:33 26.02.2022
2907 Clouds 10 1035 76 10000 1.03 0 18:34 26.02.2022
2908 Clouds 8 1036 87 8000 1.54 110 17:38 26.02.2022
2909 Clouds 8 1036 81 8000 3.09 100 16:39 26.02.2022
2910 Clouds 9 1036 76 9000 1.54 100 15:42 26.02.2022
2911 Rain 9 1036 76 10000 1.03 0 15:19 26.02.2022
2912 Rain 9 1036 76 10000 0 0 14:44 26.02.2022
2913 Rain 8 1036 81 10000 0.51 0 14:24 26.02.2022
2914 Rain 7 1034 87 10000 1.54 100 12:59 26.02.2022
2915 Clouds 7 1033 87 10000 3.09 100 11:54 26.02.2022
2916 Clouds 7 1033 87 10000 3.09 100 11:27 26.02.2022
2917 Clouds 6 1022 97 823 2.35 13 10:22 26.02.2022
2918 Clouds 6 1021 97 748 1.72 12 08:35 26.02.2022
2919 Rain 8 1020 91 10000 2.95 359 06:46 26.02.2022
2920 Clouds 15 1029 48 10000 3.6 0 00:26 26.02.2022
2921 Clouds 17 1028 45 10000 4.63 360 22:45 25.02.2022
2922 Clouds 17 1029 51 10000 2.57 0 21:37 25.02.2022
2923 Clouds 16 1011 58 10000 2.77 19 21:18 25.02.2022
2924 Clouds 16 1030 51 10000 2.06 230 20:31 25.02.2022
2925 Clouds 11 1033 71 10000 0.51 0 18:35 25.02.2022
2926 Clouds 11 1034 76 10000 1.54 300 17:21 25.02.2022
2927 Rain 10 1034 76 10000 2.57 10 16:20 25.02.2022
2928 Rain 10 1033 76 10000 3.6 350 15:42 25.02.2022
2929 Rain 9 1033 76 10000 3.6 350 15:19 25.02.2022
2930 Rain 10 1033 93 10000 0.51 0 14:41 25.02.2022
2931 Rain 9 1032 93 8000 0.51 0 13:36 25.02.2022
2932 Rain 9 1031 93 10000 1.03 60 12:45 25.02.2022
2933 Rain 9 1030 93 10000 1.03 130 11:28 25.02.2022
2934 Rain 10 1016 89 10000 0.74 76 10:29 25.02.2022
2935 Rain 10 1016 89 10000 0.74 76 09:53 25.02.2022
2936 Clouds 10 1016 89 10000 0.88 45 08:46 25.02.2022
2937 Clouds 10 1017 90 10000 0.93 47 07:37 25.02.2022
2938 Clouds 10 1031 87 10000 1.54 100 05:48 25.02.2022
2939 Clouds 10 1031 87 10000 1.54 60 03:34 25.02.2022
2940 Clouds 10 1028 87 9000 3.09 90 23:42 24.02.2022
2941 Clouds 12 1027 76 10000 5.14 240 21:56 24.02.2022
2942 Clouds 12 1027 76 10000 5.14 240 21:37 24.02.2022
2943 Rain 12 1027 76 10000 5.14 240 21:18 24.02.2022
2944 Clouds 16 1028 48 10000 1.54 10 19:38 24.02.2022
2945 Clouds 16 1030 59 10000 1.54 0 18:43 24.02.2022
2946 Clouds 16 1030 59 10000 1.54 0 18:18 24.02.2022
2947 Clouds 14 1031 63 10000 1.03 0 17:33 24.02.2022
2948 Clouds 14 1031 63 10000 1.03 0 17:33 24.02.2022
2949 Clouds 12 1032 71 10000 0.51 0 16:45 24.02.2022
2950 Clouds 12 1032 71 10000 0.51 0 16:22 24.02.2022
2951 Clouds 10 1032 82 9000 0 0 14:54 24.02.2022
2952 Clouds 10 1032 82 9000 0 0 14:35 24.02.2022
2953 Drizzle 9 1031 93 9000 0 0 13:39 24.02.2022
2954 Drizzle 9 1031 93 9000 0 0 13:39 24.02.2022
2955 Drizzle 9 1030 93 9000 1.03 120 12:50 24.02.2022
2956 Rain 9 1016 82 10000 1.38 115 10:40 24.02.2022
2957 Rain 10 1015 82 10000 1.19 64 08:59 24.02.2022
2958 Rain 10 1015 82 10000 1.19 64 08:40 24.02.2022
2959 Rain 12 1030 62 10000 1.54 230 05:53 24.02.2022
2960 Clouds 15 1028 63 10000 3.09 280 01:56 24.02.2022
2961 Clouds 17 1025 45 10000 4.63 10 22:56 23.02.2022
2962 Clouds 18 1026 39 10000 3.09 350 21:43 23.02.2022
2963 Clouds 17 1027 39 10000 2.57 0 20:31 23.02.2022
2964 Clouds 17 1028 42 10000 2.06 0 19:47 23.02.2022
2965 Rain 16 1031 51 10000 2.57 0 18:32 23.02.2022
2966 Rain 15 1031 59 10000 3.6 90 17:44 23.02.2022
2967 Clouds 11 1033 66 10000 0.51 0 14:44 23.02.2022
2968 Clouds 8 1032 81 10000 2.57 120 12:45 23.02.2022
2969 Rain 8 1032 76 10000 0.51 0 11:59 23.02.2022
2970 Clouds 8 1018 82 10000 0.64 92 10:31 23.02.2022
2971 Rain 9 1017 83 10000 0.92 42 08:59 23.02.2022
2972 Rain 9 1017 83 10000 0.92 42 08:59 23.02.2022
2973 Rain 8 1018 84 10000 1.16 48 08:23 23.02.2022
2974 Drizzle 12 1031 62 10000 1.54 240 05:49 23.02.2022
2975 Clouds 15 1027 48 10000 4.12 110 00:40 23.02.2022
2976 Clouds 15 1026 48 10000 4.63 100 23:38 22.02.2022
2977 Clouds 17 1025 39 10000 4.12 20 22:32 22.02.2022
2978 Rain 17 1026 42 10000 5.14 30 21:49 22.02.2022
2979 Clouds 17 1026 39 10000 4.12 360 21:31 22.02.2022
2980 Rain 18 1027 34 10000 3.6 40 20:57 22.02.2022
2981 Clouds 18 1028 39 10000 4.63 10 20:30 22.02.2022
2982 Clouds 19 1028 37 10000 5.14 20 19:42 22.02.2022
2983 Clouds 18 1029 42 10000 6.17 10 19:23 22.02.2022
2984 Clouds 17 1030 45 10000 2.06 100 17:49 22.02.2022
2985 Clouds 18 1031 42 10000 2.06 0 17:23 22.02.2022
2986 Clouds 15 1031 44 10000 1.54 0 16:41 22.02.2022
2987 Clouds 15 1032 44 10000 1.54 0 15:44 22.02.2022
2988 Clouds 15 1032 44 10000 1.54 0 15:44 22.02.2022
2989 Clouds 13 1032 54 10000 1.54 0 14:45 22.02.2022
2990 Clouds 7 1031 76 10000 0.51 0 12:44 22.02.2022
2991 Clouds 6 1020 85 10000 1.55 139 10:52 22.02.2022
2992 Clouds 8 1018 78 10000 1.31 99 08:48 22.02.2022
2993 Clouds 9 1019 75 10000 1.29 46 07:27 22.02.2022
2994 Clouds 11 1031 62 10000 0.51 0 05:57 22.02.2022
2995 Clouds 12 1030 62 10000 1.54 120 02:45 22.02.2022
2996 Clouds 19 1024 34 10000 4.12 20 22:46 21.02.2022
2997 Clouds 19 1024 34 10000 6.69 20 21:46 21.02.2022
2998 Clouds 20 1025 30 10000 4.63 20 20:36 21.02.2022
2999 Clouds 19 1028 32 10000 1.54 0 18:46 21.02.2022
3000 Clouds 17 1029 45 10000 3.09 30 17:36 21.02.2022
3001 Clouds 14 1031 51 10000 1.54 0 15:25 21.02.2022
3002 Clouds 12 1031 54 10000 1.03 0 14:22 21.02.2022
3003 Clouds 8 1031 81 10000 1.03 0 13:30 21.02.2022
3004 Clouds 6 1030 93 10000 0.51 0 12:24 21.02.2022
3005 Clouds 7 1018 88 10000 1.42 171 11:20 21.02.2022
3006 Clouds 7 1018 87 10000 1.28 168 09:50 21.02.2022
3007 Rain 9 1030 76 10000 2.06 290 05:35 21.02.2022
3008 Clouds 15 1025 44 10000 4.12 50 00:18 21.02.2022
3009 Clouds 17 1024 36 10000 6.17 30 22:27 20.02.2022
3010 Clouds 19 1024 37 10000 7.2 50 21:42 20.02.2022
3011 Clouds 18 1025 37 10000 5.66 30 20:59 20.02.2022
3012 Clouds 18 1025 37 10000 5.66 30 20:41 20.02.2022
3013 Clouds 19 1026 37 10000 5.14 50 19:36 20.02.2022
3014 Clouds 17 1027 45 10000 2.06 130 18:51 20.02.2022
3015 Clouds 18 1028 48 10000 1.54 0 18:31 20.02.2022
3016 Clouds 17 1028 48 10000 1.54 0 18:31 20.02.2022
3017 Clouds 16 1029 48 10000 1.54 0 17:49 20.02.2022
3018 Clouds 13 1030 62 10000 2.06 360 15:41 20.02.2022
3019 Clouds 11 1030 71 10000 1.54 210 14:47 20.02.2022
3020 Clouds 8 1030 87 10000 1.03 0 13:23 20.02.2022
3021 Clouds 8 1029 87 10000 2.06 120 12:28 20.02.2022
3022 Clouds 7 1017 96 10000 1.01 218 10:47 20.02.2022
3023 Clouds 7 1016 95 10000 0.92 211 10:19 20.02.2022
3024 Clouds 8 1016 94 10000 0.98 202 08:50 20.02.2022
3025 Rain 8 1027 93 9000 5.14 290 00:54 20.02.2022
3026 Thunderstorm 8 1028 93 6000 4.63 120 00:30 20.02.2022
3027 Rain 15 1025 55 10000 1.54 0 23:18 19.02.2022
3028 Clouds 14 1024 58 10000 1.03 0 22:22 19.02.2022
3029 Clouds 13 1025 62 10000 3.6 0 21:25 19.02.2022
3030 Clouds 17 1026 48 10000 6.17 20 19:53 19.02.2022
3031 Clouds 16 1026 51 10000 6.69 360 19:30 19.02.2022
3032 Clouds 17 1027 45 10000 1.54 300 18:33 19.02.2022
3033 Clouds 16 1028 51 10000 1.54 30 17:36 19.02.2022
3034 Clouds 15 1029 51 10000 1.03 0 16:28 19.02.2022
3035 Clouds 12 1030 62 10000 0.51 0 14:57 19.02.2022
3036 Clouds 12 1030 62 10000 0.51 0 14:37 19.02.2022
3037 Rain 9 1029 87 10000 2.06 90 13:45 19.02.2022
3038 Clouds 8 1028 87 10000 0 0 11:38 19.02.2022
3039 Clouds 10 1015 90 10000 1.19 178 09:55 19.02.2022
3040 Clouds 10 1015 88 10000 0.9 50 06:54 19.02.2022
3041 Clouds 11 1030 71 10000 1.54 140 03:54 19.02.2022
3042 Rain 14 1025 58 10000 5.66 290 23:33 18.02.2022
3043 Clouds 18 1025 42 10000 3.09 350 21:50 18.02.2022
3044 Rain 18 1026 42 10000 2.06 0 20:51 18.02.2022
3045 Rain 18 1027 42 10000 3.09 110 19:53 18.02.2022
3046 Clouds 18 1029 48 10000 4.12 80 18:50 18.02.2022
3047 Clouds 17 1029 45 10000 2.06 0 18:22 18.02.2022
3048 Clouds 16 1030 55 10000 2.06 70 17:50 18.02.2022
3049 Clouds 11 1032 76 10000 0.51 0 14:50 18.02.2022
3050 Clouds 8 1032 87 10000 0.51 0 13:55 18.02.2022
3051 Clouds 6 1031 100 10000 0.51 150 12:53 18.02.2022
3052 Clouds 6 1031 93 10000 2.06 110 12:32 18.02.2022
3053 Clouds 6 1030 93 10000 2.06 100 11:22 18.02.2022
3054 Clouds 7 1017 88 10000 0.57 78 10:23 18.02.2022
3055 Clouds 8 1018 87 10000 1.46 54 06:56 18.02.2022
3056 Clouds 8 1032 87 10000 0 0 05:39 18.02.2022
3057 Clouds 14 1027 55 10000 4.12 360 23:24 17.02.2022
3058 Clouds 16 1027 51 10000 6.69 10 21:45 17.02.2022
3059 Clouds 17 1027 48 10000 7.2 30 21:19 17.02.2022
3060 Clouds 17 1027 52 10000 5.14 10 20:36 17.02.2022
3061 Clouds 16 1029 55 10000 5.14 10 19:48 17.02.2022
3062 Clouds 15 1031 55 10000 5.14 360 18:41 17.02.2022
3063 Clouds 13 1032 62 10000 2.57 20 17:50 17.02.2022
3064 Clouds 10 1033 82 10000 2.57 300 16:25 17.02.2022
3065 Clouds 10 1033 76 10000 1.54 80 15:30 17.02.2022
3066 Clouds 11 1032 82 10000 1.03 0 14:25 17.02.2022
3067 Clouds 9 1032 93 10000 2.06 90 12:35 17.02.2022
3068 Drizzle 8 1031 93 9000 1.54 320 11:21 17.02.2022
3069 Clouds 8 1018 90 10000 1.05 323 08:45 17.02.2022
3070 Clouds 10 1030 87 8000 3.6 100 00:31 17.02.2022
3071 Clouds 13 1028 72 8000 3.09 100 22:59 16.02.2022
3072 Clouds 16 1028 51 10000 2.57 90 21:25 16.02.2022
3073 Clouds 15 1030 55 10000 5.14 360 19:43 16.02.2022
3074 Clouds 16 1031 55 10000 2.57 70 18:38 16.02.2022
3075 -273 0 0 0 0 0 17:47 16.02.2022
3076 Clouds 13 1033 54 10000 1.03 0 15:36 16.02.2022
3077 Clouds 11 1033 76 10000 0 0 14:57 16.02.2022
3078 Rain 9 1032 87 10000 0.51 250 12:35 16.02.2022
3079 Clouds 8 1031 93 10000 1.54 280 11:55 16.02.2022
3080 Rain 9 1031 87 10000 0.51 0 11:24 16.02.2022
3081 Rain 9 1018 90 10000 1.09 162 10:30 16.02.2022
3082 Clouds 9 1018 89 10000 1.12 71 06:57 16.02.2022
3083 Rain 10 1032 82 10000 1.54 80 04:43 16.02.2022
3084 Clouds 12 1028 76 10000 3.6 100 23:44 15.02.2022
3085 Clouds 17 1027 45 10000 4.12 350 22:19 15.02.2022
3086 Clouds 18 1028 55 10000 2.06 110 21:45 15.02.2022
3087 Clouds 18 1028 48 10000 2.57 100 21:27 15.02.2022
3088 Clouds 16 1028 55 10000 4.12 100 20:55 15.02.2022
3089 Clouds 17 1029 52 10000 3.6 10 19:55 15.02.2022
3090 Clouds 16 1031 51 10000 2.57 10 18:52 15.02.2022
3091 Clouds 15 1031 55 10000 1.03 0 18:19 15.02.2022
3092 Clouds 14 1032 58 10000 1.03 0 17:48 15.02.2022
3093 Clouds 12 1032 67 10000 1.03 0 16:30 15.02.2022
3094 Clouds 11 1032 71 10000 0.51 0 14:47 15.02.2022
3095 Clouds 9 1031 87 10000 0 0 13:26 15.02.2022
3096 Clouds 8 1030 93 10000 1.03 100 11:57 15.02.2022
3097 Clouds 7 1018 92 10000 0.83 11 10:58 15.02.2022
3098 Clouds 8 1017 91 10000 1.2 16 09:28 15.02.2022
3099 Clouds 9 1017 90 10000 1.4 37 06:49 15.02.2022
3100 Clouds 10 1028 87 10000 2.06 290 00:48 15.02.2022
3101 Clouds 11 1027 82 10000 2.06 80 22:25 14.02.2022
3102 Clouds 12 1028 67 10000 2.06 0 21:27 14.02.2022
3103 Clouds 15 1028 55 10000 3.09 210 20:24 14.02.2022
3104 Clouds 17 1028 52 10000 2.06 0 19:30 14.02.2022
3105 Clouds 15 1030 59 10000 1.54 90 18:27 14.02.2022
3106 Clouds 14 1030 58 10000 2.06 80 17:58 14.02.2022
3107 Clouds 14 1031 63 10000 1.54 0 17:24 14.02.2022
3108 Clouds 11 1032 82 10000 3.09 110 15:59 14.02.2022
3109 Clouds 11 1031 76 10000 0.51 0 13:44 14.02.2022
3110 Clouds 9 1031 93 10000 0.51 0 13:23 14.02.2022
3111 Clouds 9 1030 87 10000 0.51 60 12:32 14.02.2022
3112 Clouds 9 1029 93 10000 0.51 80 11:54 14.02.2022
3113 Clouds 9 1016 90 10000 0.7 270 10:31 14.02.2022
3114 Clouds 9 1016 88 10000 0.69 295 08:37 14.02.2022
3115 Clouds 9 1017 87 10000 0.6 328 07:27 14.02.2022
3116 Clouds 12 1026 71 9000 3.6 310 23:45 13.02.2022
3117 Clouds 15 1026 51 10000 1.03 0 22:42 13.02.2022
3118 Clouds 14 1026 55 10000 1.54 270 22:23 13.02.2022
3119 Rain 14 1027 63 10000 4.12 260 21:30 13.02.2022
3120 Clouds 13 1027 67 10000 5.14 270 20:33 13.02.2022
3121 Clouds 15 1028 51 10000 2.06 320 19:29 13.02.2022
3122 Clouds 15 1029 51 10000 1.03 0 18:44 13.02.2022
3123 Clouds 15 1030 55 10000 2.06 90 17:57 13.02.2022
3124 Clouds 13 1031 54 10000 1.54 50 15:54 13.02.2022
3125 Clouds 12 1031 62 10000 1.03 0 15:20 13.02.2022
3126 Clouds 10 1031 76 10000 0.51 0 13:59 13.02.2022
3127 Clouds 9 1030 87 10000 1.54 270 12:50 13.02.2022
3128 Clouds 8 1029 81 10000 1.54 280 11:35 13.02.2022
3129 Clouds 9 1016 88 10000 1.1 325 10:32 13.02.2022
3130 Clouds 9 1015 88 10000 1.18 325 09:45 13.02.2022
3131 Clouds 10 1016 89 10000 1.33 9 07:21 13.02.2022
3132 Clouds 11 1028 66 10000 1.54 240 00:35 13.02.2022
3133 Clouds 12 1027 62 10000 4.12 260 23:39 12.02.2022
3134 Clouds 13 1027 62 10000 1.03 0 22:33 12.02.2022
3135 Clouds 11 1029 71 10000 1.03 0 21:20 12.02.2022
3136 Clouds 10 1030 82 10000 1.03 0 20:32 12.02.2022
3137 Clouds 10 1030 71 10000 1.54 90 19:27 12.02.2022
3138 Clouds 10 1031 76 10000 3.6 90 18:53 12.02.2022
3139 Clouds 10 1031 76 10000 3.6 90 18:35 12.02.2022
3140 Drizzle 9 1032 87 9000 3.09 120 16:58 12.02.2022
3141 Rain 9 1032 87 9000 3.6 100 16:25 12.02.2022
3142 Rain 8 1032 93 9000 3.09 100 15:50 12.02.2022
3143 Rain 8 1031 93 10000 3.6 100 14:31 12.02.2022
3144 Rain 9 1030 81 10000 1.03 0 13:19 12.02.2022
3145 Rain 8 1017 92 10000 1.5 200 10:41 12.02.2022
3146 Rain 8 1016 92 10000 1.65 203 09:39 12.02.2022
3147 Rain 9 1016 92 10000 1.51 200 09:20 12.02.2022
3148 Rain 9 1016 92 10000 1.43 196 08:18 12.02.2022
3149 Rain 9 1016 92 10000 1.43 196 08:18 12.02.2022
3150 Rain 9 1016 92 10000 1.43 196 08:18 12.02.2022
3151 Clouds 11 1029 71 10000 1.03 0 05:33 12.02.2022
3152 Clouds 11 1029 71 10000 1.54 260 04:27 12.02.2022
3153 Clouds 13 1026 58 10000 3.6 310 02:18 12.02.2022
3154 Rain 16 1024 39 10000 5.66 320 22:29 11.02.2022
3155 Clouds 15 1025 48 10000 5.14 290 21:55 11.02.2022
3156 Clouds 16 1025 42 10000 6.17 300 20:41 11.02.2022
3157 Rain 18 1025 42 10000 4.63 30 19:47 11.02.2022
3158 Rain 18 1026 39 10000 2.06 30 19:27 11.02.2022
3159 Clouds 17 1027 39 10000 1.54 200 17:59 11.02.2022
3160 Clouds 16 1028 48 10000 1.54 120 17:26 11.02.2022
3161 Clouds 14 1029 51 10000 1.03 0 16:23 11.02.2022
3162 Clouds 11 1030 71 10000 1.03 0 14:43 11.02.2022
3163 Clouds 8 1030 81 10000 1.03 270 14:21 11.02.2022
3164 Clouds 9 1030 76 10000 0.51 0 13:59 11.02.2022
3165 Clouds 9 1030 76 10000 0.51 0 13:39 11.02.2022
3166 Clouds 5 1028 93 10000 1.03 260 11:47 11.02.2022
3167 Clouds 6 1016 93 10000 0.63 314 09:59 11.02.2022
3168 Clouds 6 1015 92 10000 0.73 334 08:49 11.02.2022
3169 Clouds 7 1015 92 10000 1.08 319 08:27 11.02.2022
3170 Clouds 7 1015 92 10000 1.08 319 08:27 11.02.2022
3171 Clouds 7 1016 92 10000 1.43 310 07:22 11.02.2022
3172 Clouds 7 1028 93 10000 1.54 300 02:39 11.02.2022
3173 Clouds 7 1028 93 10000 1.54 300 02:39 11.02.2022
3174 Clouds 9 1027 87 10000 1.03 0 02:18 11.02.2022
3175 Clouds 12 1025 67 10000 0.51 210 23:20 10.02.2022
3176 Clouds 11 1026 76 10000 1.54 80 21:53 10.02.2022
3177 Clouds 10 1026 82 10000 2.57 90 21:21 10.02.2022
3178 Rain 10 1027 82 9000 2.57 180 20:45 10.02.2022
3179 Clouds 15 1027 59 10000 0.76 282 19:26 10.02.2022
3180 Clouds 16 1027 51 10000 3.6 330 18:47 10.02.2022
3181 Clouds 14 1029 55 10000 2.57 230 17:27 10.02.2022
3182 Clouds 15 1029 55 10000 1.54 0 16:55 10.02.2022
3183 Clouds 13 1030 62 10000 1.54 0 15:59 10.02.2022
3184 Clouds 13 1030 62 10000 1.54 0 15:33 10.02.2022
3185 Clouds 11 1030 71 10000 1.03 0 14:49 10.02.2022
3186 Clouds 10 1030 71 10000 1.54 270 14:26 10.02.2022
3187 Clouds 9 1029 81 10000 0 0 13:30 10.02.2022
3188 Clouds 8 1029 87 10000 1.03 80 12:51 10.02.2022
3189 Clouds 8 1028 81 10000 1.03 280 11:34 10.02.2022
3190 Clouds 9 1016 92 10000 0.81 168 10:56 10.02.2022
3191 Clouds 9 1015 92 10000 0.95 173 10:18 10.02.2022
3192 Clouds 9 1015 91 10000 0.79 184 09:25 10.02.2022
3193 Clouds 9 1015 90 10000 0.35 118 07:36 10.02.2022
3194 Clouds 9 1030 81 10000 3.09 290 05:51 10.02.2022
3195 Clouds 9 1028 87 10000 1.54 100 01:52 10.02.2022
3196 Clouds 11 1027 82 10000 0 0 00:50 10.02.2022
3197 Clouds 10 1026 87 10000 1.54 100 00:29 10.02.2022
3198 Clouds 10 1026 87 10000 3.09 90 23:24 09.02.2022
3199 Drizzle 11 1026 87 10000 3.6 90 22:36 09.02.2022
3200 Thunderstorm 12 1026 76 10000 1.03 0 21:52 09.02.2022
3201 Thunderstorm 12 1026 76 9000 5.14 270 21:30 09.02.2022
3202 Rain 19 1025 42 10000 2.06 360 20:48 09.02.2022
3203 Clouds 18 1025 42 10000 2.06 360 20:29 09.02.2022
3204 Clouds 19 1026 40 10000 1.54 0 19:56 09.02.2022
3205 Clouds 17 1027 42 10000 2.06 0 19:32 09.02.2022
3206 Clouds 14 1030 58 10000 1.54 0 17:38 09.02.2022
3207 Clouds 13 1030 62 10000 1.54 0 16:52 09.02.2022
3208 Clouds 12 1031 67 10000 1.03 0 15:51 09.02.2022
3209 Clouds 11 1031 71 10000 0.51 0 14:42 09.02.2022
3210 Clouds 8 1030 93 9000 2.06 90 12:28 09.02.2022
3211 Clouds 9 1016 91 10000 0.48 8 10:55 09.02.2022
3212 Clouds 9 1016 91 10000 0.48 8 10:30 09.02.2022
3213 Clouds 9 1016 91 10000 0.48 9 09:40 09.02.2022
3214 Clouds 9 1016 90 10000 0.64 16 09:19 09.02.2022
3215 Rain 10 1016 90 10000 0.88 11 07:55 09.02.2022
3216 Clouds 8 1032 93 10000 1.54 270 05:30 09.02.2022
3217 Rain 9 1032 87 6000 1.03 0 03:50 09.02.2022
3218 Clouds 14 1027 63 10000 4.12 280 00:53 09.02.2022
3219 Clouds 15 1026 59 10000 6.17 280 23:33 08.02.2022
3220 Clouds 15 1026 55 10000 6.17 290 22:47 08.02.2022
3221 Clouds 15 1026 55 10000 7.2 280 22:21 08.02.2022
3222 Clouds 16 1026 51 10000 7.72 260 21:42 08.02.2022
3223 Clouds 16 1027 51 10000 9.77 280 21:21 08.02.2022
3224 Clouds 17 1027 51 10000 11.83 280 20:44 08.02.2022
3225 Clouds 17 1028 48 10000 4.63 300 19:46 08.02.2022
3226 Clouds 16 1030 48 10000 1.54 0 18:38 08.02.2022
3227 Clouds 15 1032 58 10000 2.57 100 17:42 08.02.2022
3228 Clouds 13 1032 67 10000 2.57 120 16:30 08.02.2022
3229 Clouds 12 1032 67 10000 1.54 0 15:30 08.02.2022
3230 Clouds 11 1032 76 10000 1.03 0 14:36 08.02.2022
3231 Clouds 9 1032 93 8000 1.03 0 13:24 08.02.2022
3232 Drizzle 9 1031 93 7000 1.03 110 11:38 08.02.2022
3233 Clouds 9 1018 86 10000 0.88 64 10:23 08.02.2022
3234 Clouds 9 1018 86 10000 0.88 64 09:44 08.02.2022
3235 Clouds 10 1017 80 10000 1.45 36 07:53 08.02.2022
3236 Clouds 10 1031 82 10000 2.06 90 05:41 08.02.2022
3237 Clouds 11 1031 76 10000 1.03 0 04:39 08.02.2022
3238 Clouds 11 1031 76 10000 1.54 270 04:21 08.02.2022
3239 Clouds 10 1031 82 10000 1.54 280 03:36 08.02.2022
3240 Clouds 11 1031 71 10000 2.06 270 03:18 08.02.2022
3241 Clouds 10 1030 76 10000 2.06 260 02:59 08.02.2022
3242 Clouds 10 1030 76 10000 2.06 260 02:36 08.02.2022
3243 Clouds 10 1030 76 10000 2.06 280 02:18 08.02.2022
3244 Clouds 12 1029 67 10000 0.51 0 01:44 08.02.2022
3245 Clouds 12 1029 71 10000 2.06 80 01:24 08.02.2022
3246 Clouds 12 1028 71 10000 3.09 80 00:54 08.02.2022
3247 Clouds 14 1028 63 10000 3.09 290 23:55 07.02.2022
3248 Clouds 14 1028 63 10000 3.09 290 23:37 07.02.2022
3249 Clouds 14 1027 55 10000 5.14 270 23:18 07.02.2022
3250 Clouds 13 1028 67 10000 6.69 280 22:20 07.02.2022
3251 Clouds 13 1028 62 10000 7.72 290 21:55 07.02.2022
3252 Clouds 14 1028 63 10000 9.77 280 21:29 07.02.2022
3253 Clouds 16 1028 51 10000 5.14 360 20:59 07.02.2022
3254 Clouds 16 1028 51 10000 5.14 360 20:40 07.02.2022
3255 Clouds 16 1029 51 10000 1.54 0 19:54 07.02.2022
3256 Clouds 16 1029 51 10000 1.54 0 19:36 07.02.2022
3257 Clouds 14 1032 63 10000 3.09 110 18:18 07.02.2022
3258 Clouds 13 1033 72 10000 2.57 110 16:53 07.02.2022
3259 Clouds 11 1033 71 10000 2.57 90 15:49 07.02.2022
3260 Clouds 10 1033 76 10000 1.03 0 14:56 07.02.2022
3261 Clouds 8 1032 93 10000 1.54 100 13:28 07.02.2022
3262 Clouds 8 1032 93 10000 1.03 80 12:52 07.02.2022
3263 Rain 8 1031 93 10000 1.03 100 11:58 07.02.2022
3264 Rain 8 1031 93 10000 1.03 100 11:36 07.02.2022
3265 Rain 8 1019 89 10000 1.02 12 10:51 07.02.2022
3266 Clouds 8 1019 89 10000 1.02 12 10:31 07.02.2022
3267 Rain 8 1018 89 10000 0.7 328 09:53 07.02.2022
3268 Clouds 8 1018 88 10000 0.74 316 09:18 07.02.2022
3269 Clouds 8 1018 88 10000 0.74 316 08:38 07.02.2022
3270 Clouds 9 1019 90 10000 1.03 36 06:58 07.02.2022
3271 Clouds 9 1019 90 10000 1.03 36 06:34 07.02.2022
3272 Rain 10 1032 93 10000 1.54 80 03:27 07.02.2022
3273 Rain 10 1030 82 9000 3.09 330 00:45 07.02.2022
3274 Clouds 12 1028 67 10000 6.69 300 23:49 06.02.2022
3275 Clouds 13 1028 62 10000 3.6 280 22:49 06.02.2022
3276 Clouds 14 1028 63 10000 5.66 300 21:56 06.02.2022
3277 Clouds 14 1028 63 10000 5.66 300 21:35 06.02.2022
3278 Clouds 14 1028 58 10000 4.12 80 20:55 06.02.2022
3279 Clouds 14 1028 58 10000 4.12 80 20:55 06.02.2022
3280 Rain 15 1028 59 10000 4.12 100 20:31 06.02.2022
3281 Rain 14 1029 63 10000 4.63 90 19:38 06.02.2022
3282 Rain 15 1030 63 10000 3.6 110 18:40 06.02.2022
3283 Rain 14 1030 63 10000 1.03 0 17:56 06.02.2022
3284 Rain 14 1031 58 10000 0.51 40 17:21 06.02.2022
3285 Rain 12 1031 67 10000 1.03 0 16:47 06.02.2022
3286 Clouds 11 1031 82 10000 1.54 90 15:49 06.02.2022
3287 Clouds 11 1031 76 10000 1.03 0 15:27 06.02.2022
3288 Clouds 10 1031 82 10000 1.54 80 14:47 06.02.2022
3289 Rain 9 1030 87 10000 1.03 0 13:28 06.02.2022
3290 Rain 9 1030 93 10000 1.03 0 12:59 06.02.2022
3291 Rain 8 1029 93 10000 2.06 100 11:38 06.02.2022
3292 Rain 8 1017 92 10000 1.73 181 10:31 06.02.2022
3293 Rain 9 1016 90 10000 1.47 202 09:25 06.02.2022
3294 Rain 9 1016 90 10000 1.47 202 08:30 06.02.2022
3295 Clouds 10 1031 87 10000 1.54 240 05:33 06.02.2022
3296 Clouds 10 1030 82 10000 1.54 100 03:18 06.02.2022
3297 Clouds 10 1029 82 10000 1.03 90 02:24 06.02.2022
3298 Clouds 11 1027 76 10000 4.12 90 00:29 06.02.2022
3299 Rain 13 1026 62 10000 1.54 290 22:36 05.02.2022
3300 Thunderstorm 16 1025 51 10000 9.26 300 21:32 05.02.2022
3301 Clouds 19 1026 32 10000 0.51 0 20:25 05.02.2022
3302 Clouds 19 1027 34 10000 1.03 0 19:48 05.02.2022
3303 Clouds 19 1027 40 10000 2.57 0 19:18 05.02.2022
3304 Clouds 16 1029 45 10000 2.06 310 17:45 05.02.2022
3305 Clouds 16 1030 51 10000 2.57 150 17:27 05.02.2022
3306 Clouds 14 1031 51 10000 1.03 0 15:42 05.02.2022
3307 Clouds 13 1031 58 10000 0.51 0 15:22 05.02.2022
3308 Clouds 9 1031 93 10000 1.03 280 12:54 05.02.2022
3309 Clouds 8 1031 93 10000 1.03 280 12:33 05.02.2022
3310 Clouds 9 1017 92 10000 1.79 199 10:53 05.02.2022
3311 Clouds 9 1017 92 10000 1.57 200 10:25 05.02.2022
3312 Clouds 9 1017 92 10000 1.57 200 09:46 05.02.2022
3313 Clouds 9 1017 92 10000 1.11 213 07:54 05.02.2022
3314 Clouds 9 1017 91 10000 0.78 277 06:57 05.02.2022
3315 Clouds 11 1031 76 10000 2.57 280 04:30 05.02.2022
3316 Clouds 11 1028 66 10000 5.14 280 01:19 05.02.2022
3317 Clouds 12 1027 67 10000 4.63 270 00:53 05.02.2022
3318 Clouds 13 1027 67 10000 4.12 290 23:58 04.02.2022
3319 Clouds 13 1027 67 10000 6.17 270 23:30 04.02.2022
3320 Clouds 15 1027 55 10000 9.26 290 21:59 04.02.2022
3321 Clouds 15 1027 55 10000 9.26 290 21:36 04.02.2022
3322 Clouds 17 1027 45 10000 4.63 280 21:18 04.02.2022
3323 Clouds 17 1028 48 10000 1.54 0 20:20 04.02.2022
3324 Clouds 14 1032 55 10000 1.54 0 17:44 04.02.2022
3325 Clouds 12 1033 62 10000 1.54 0 15:55 04.02.2022
3326 Clouds 11 1033 62 10000 1.54 0 15:55 04.02.2022
3327 Clouds 9 1033 71 10000 1.03 0 14:55 04.02.2022
3328 Clouds 8 1033 76 10000 1.03 0 13:39 04.02.2022
3329 Clouds 7 1032 87 10000 0 0 12:43 04.02.2022
3330 Rain 7 1031 81 10000 0.51 0 11:42 04.02.2022
3331 Rain 7 1031 81 10000 0.51 0 11:42 04.02.2022
3332 Rain 9 1017 80 10000 0.97 300 10:36 04.02.2022
3333 Rain 9 1016 82 10000 1.32 291 08:43 04.02.2022
3334 Clouds 9 1017 84 10000 1.66 324 06:57 04.02.2022
3335 Clouds 10 1030 93 10000 2.06 90 02:48 04.02.2022
3336 Clouds 10 1029 87 10000 3.09 80 01:56 04.02.2022
3337 Rain 14 1026 63 10000 1.54 0 23:29 03.02.2022
3338 Clouds 15 1026 59 10000 3.09 280 22:46 03.02.2022
3339 Clouds 14 1027 63 10000 3.6 260 21:49 03.02.2022
3340 Clouds 13 1028 67 10000 6.69 280 20:41 03.02.2022
3341 Clouds 15 1028 59 10000 2.06 0 20:19 03.02.2022
3342 Clouds 13 1029 67 10000 2.57 280 19:32 03.02.2022
3343 Clouds 12 1030 76 9000 2.57 350 18:38 03.02.2022
3344 Clouds 12 1030 67 10000 5.14 360 17:35 03.02.2022
3345 Drizzle 13 1031 72 10000 1.54 0 16:35 03.02.2022
3346 Clouds 10 1031 82 10000 1.54 280 14:49 03.02.2022
3347 Drizzle 9 1030 87 10000 0.51 100 12:58 03.02.2022
3348 Drizzle 9 1029 87 8000 0.51 0 11:23 03.02.2022
3349 Clouds 10 1015 83 10000 1.04 336 08:37 03.02.2022
3350 Clouds 11 1030 76 10000 1.03 250 05:26 03.02.2022
3351 Clouds 13 1026 72 10000 0.51 0 00:32 03.02.2022
3352 Clouds 13 1026 67 10000 0 0 23:43 02.02.2022
3353 Clouds 11 1026 82 10000 2.57 270 22:19 02.02.2022
3354 Clouds 11 1026 82 10000 4.63 290 21:34 02.02.2022
3355 Clouds 13 1027 72 10000 4.12 320 20:49 02.02.2022
3356 Clouds 15 1027 55 10000 5.14 30 19:58 02.02.2022
3357 Clouds 15 1028 59 10000 6.17 10 19:27 02.02.2022
3358 Clouds 16 1028 55 10000 2.57 80 18:45 02.02.2022
3359 Clouds 15 1029 59 10000 1.54 0 17:57 02.02.2022
3360 Clouds 14 1030 58 10000 1.03 0 17:19 02.02.2022
3361 Clouds 13 1030 58 10000 1.54 0 16:42 02.02.2022
3362 Clouds 10 1030 71 10000 0 0 13:28 02.02.2022
3363 Clouds 9 1029 81 10000 1.03 280 12:20 02.02.2022
3364 Clouds 9 1029 81 10000 1.03 0 11:34 02.02.2022
3365 Clouds 8 1017 89 10000 0.73 285 10:22 02.02.2022
3366 Clouds 8 1017 91 10000 0.8 305 07:35 02.02.2022
3367 Clouds 13 1025 72 10000 2.06 120 22:52 01.02.2022
3368 Drizzle 13 1025 67 10000 1.03 0 21:51 01.02.2022
3369 Drizzle 12 1026 76 10000 3.09 310 20:35 01.02.2022
3370 Clouds 13 1028 62 10000 1.54 210 17:44 01.02.2022
3371 Clouds 13 1029 58 10000 1.54 100 16:39 01.02.2022
3372 Clouds 9 1030 76 10000 1.03 0 14:24 01.02.2022
3373 Clouds 7 1029 93 10000 2.06 90 12:45 01.02.2022
3374 Clouds 8 1017 92 10000 1.08 195 11:30 01.02.2022
3375 Rain 9 1029 76 9000 4.12 220 04:53 01.02.2022
3376 Rain 14 1024 67 10000 4.12 100 23:42 31.01.2022
3377 Rain 14 1024 67 10000 4.12 100 23:42 31.01.2022
3378 Rain 15 1023 59 10000 0.51 220 23:21 31.01.2022
3379 Rain 14 1024 63 10000 5.66 280 21:42 31.01.2022
3380 Rain 15 1024 55 10000 3.09 30 21:19 31.01.2022
3381 Rain 16 1024 51 10000 6.17 10 20:32 31.01.2022
3382 Clouds 18 1024 48 10000 2.06 0 19:35 31.01.2022
3383 Clouds 17 1026 52 10000 1.54 180 18:26 31.01.2022
3384 Clouds 16 1027 55 10000 2.06 90 17:41 31.01.2022
3385 Clouds 15 1028 59 10000 1.03 0 16:38 31.01.2022
3386 Clouds 13 1029 62 10000 1.03 0 15:41 31.01.2022
3387 Clouds 11 1029 82 10000 1.54 80 14:22 31.01.2022
3388 Clouds 9 1029 87 10000 0.51 0 12:39 31.01.2022
3389 Clouds 9 1028 87 10000 1.54 100 11:56 31.01.2022
3390 Clouds 9 1015 92 10000 0.58 254 10:50 31.01.2022
3391 Clouds 9 1015 92 10000 0.58 254 10:30 31.01.2022
3392 Clouds 9 1014 93 10000 0.59 278 09:26 31.01.2022
3393 Clouds 9 1014 93 10000 0.59 278 08:51 31.01.2022
3394 Clouds 9 1014 93 10000 0.33 275 08:20 31.01.2022
3395 Clouds 10 1016 90 10000 0.83 333 06:18 31.01.2022
3396 Clouds 12 1027 71 10000 2.06 220 02:18 31.01.2022
3397 Clouds 15 1024 55 10000 5.14 110 23:18 30.01.2022
3398 Clouds 16 1024 48 10000 3.6 350 22:29 30.01.2022
3399 Clouds 16 1024 48 10000 3.09 340 21:42 30.01.2022
3400 Clouds 17 1024 48 10000 2.06 0 21:19 30.01.2022
3401 Clouds 17 1025 45 10000 2.06 0 20:47 30.01.2022
3402 Clouds 18 1025 45 10000 2.06 0 20:28 30.01.2022
3403 Clouds 16 1026 51 10000 4.63 340 19:52 30.01.2022
3404 Clouds 17 1027 52 10000 3.6 0 18:43 30.01.2022
3405 Clouds 17 1027 59 10000 1.54 0 18:20 30.01.2022
3406 Clouds 14 1029 72 10000 1.03 0 17:22 30.01.2022
3407 Clouds 12 1029 82 9000 2.06 60 16:40 30.01.2022
3408 Clouds 12 1029 71 10000 2.06 60 16:22 30.01.2022
3409 Clouds 12 1030 71 10000 1.54 70 15:50 30.01.2022
3410 Clouds 12 1030 71 10000 1.03 0 15:31 30.01.2022
3411 Clouds 12 1029 67 10000 0.51 0 14:46 30.01.2022
3412 Clouds 9 1029 87 10000 1.03 0 12:47 30.01.2022
3413 Clouds 8 1028 100 10000 1.54 90 11:58 30.01.2022
3414 Clouds 6 1018 94 10000 1.7 209 10:36 30.01.2022
3415 Clouds 6 1018 95 6697 1.97 213 09:51 30.01.2022
3416 Clouds 6 1018 96 4902 2.34 208 08:55 30.01.2022
3417 Clouds 8 1017 95 4892 2.47 191 07:28 30.01.2022
3418 Clouds 11 1026 82 10000 1.54 130 01:56 30.01.2022
3419 Clouds 12 1025 76 10000 4.63 100 00:23 30.01.2022
3420 Clouds 13 1024 77 10000 3.6 90 23:20 29.01.2022
3421 Clouds 15 1023 55 10000 5.14 100 21:50 29.01.2022
3422 Clouds 18 1023 52 10000 3.09 0 21:24 29.01.2022
3423 Clouds 16 1024 55 10000 3.6 0 20:32 29.01.2022
3424 Clouds 17 1006 50 10000 1.51 279 19:34 29.01.2022
3425 Clouds 16 1025 51 10000 3 0 18:52 29.01.2022
3426 Clouds 16 1010 55 10000 1.57 212 18:23 29.01.2022
3427 Clouds 15 1028 51 10000 2.06 120 17:29 29.01.2022
3428 Clouds 14 1028 55 10000 1.03 130 16:25 29.01.2022
3429 Clouds 9 1029 87 10000 0.51 210 14:23 29.01.2022
3430 Clouds 9 1028 87 10000 1.03 80 13:44 29.01.2022
3431 Clouds 9 1028 87 10000 1.03 80 13:24 29.01.2022
3432 Rain 8 1032 93 10000 2.06 110 11:49 29.01.2022
3433 Rain 8 1032 93 10000 2.06 110 11:24 29.01.2022
3434 Rain 9 1015 95 10000 2.21 248 08:57 29.01.2022
3435 Clouds 10 1015 93 10000 0.75 259 06:55 29.01.2022
3436 Clouds 13 1025 67 10000 1.54 120 00:36 29.01.2022
3437 Clouds 14 1024 63 10000 4.12 110 23:52 28.01.2022
3438 Clouds 15 1024 59 10000 3.6 110 22:50 28.01.2022
3439 Clouds 15 1024 59 10000 3.6 100 22:21 28.01.2022
3440 Clouds 17 1025 55 10000 1.03 0 21:36 28.01.2022
3441 Rain 14 1027 63 10000 1.54 0 20:29 28.01.2022
3442 Clouds 14 1028 58 10000 3.6 230 19:29 28.01.2022
3443 Clouds 15 1028 59 10000 3.09 290 18:42 28.01.2022
3444 Clouds 13 1030 62 10000 3.6 280 16:46 28.01.2022
3445 Clouds 11 1031 71 10000 5.66 280 15:18 28.01.2022
3446 Rain 10 1030 82 10000 0 0 13:37 28.01.2022
3447 Rain 9 1029 87 10000 2.06 80 12:29 28.01.2022
3448 Rain 8 1018 92 10000 1.65 60 10:49 28.01.2022
3449 Clouds 8 1017 92 10000 1.94 38 09:49 28.01.2022
3450 Clouds 10 1016 90 7777 1.51 32 07:43 28.01.2022
3451 Clouds 10 1017 90 10000 1.64 61 06:39 28.01.2022
3452 Clouds 10 1030 82 10000 1.54 260 03:53 28.01.2022
3453 Clouds 10 1029 87 10000 0 0 02:31 28.01.2022
3454 Clouds 10 1028 87 10000 1.54 260 01:59 28.01.2022
3455 Clouds 11 1028 82 10000 0 0 01:30 28.01.2022
3456 Clouds 13 1027 67 10000 1.03 0 22:48 27.01.2022
3457 Rain 13 1028 67 10000 0.51 0 21:45 27.01.2022
3458 Rain 12 1029 67 10000 2.06 80 21:26 27.01.2022
3459 Rain 9 1030 81 5000 4.12 330 20:24 27.01.2022
3460 Clouds 14 1031 58 10000 2.06 90 18:24 27.01.2022
3461 Clouds 14 1032 58 10000 1.03 0 17:26 27.01.2022
3462 Rain 8 1032 93 7000 0 0 14:25 27.01.2022
3463 Rain 8 1032 93 7000 1.03 80 13:24 27.01.2022
3464 Rain 8 1031 93 8000 1.54 120 12:25 27.01.2022
3465 Rain 9 1016 91 10000 0.55 23 09:56 27.01.2022
3466 Clouds 9 1016 91 10000 1.11 9 08:41 27.01.2022
3467 Clouds 10 1016 90 10000 1.12 3 08:18 27.01.2022
3468 Clouds 10 1031 87 10000 1.54 80 03:37 27.01.2022
3469 Clouds 10 1028 87 10000 3.6 100 00:25 27.01.2022
3470 Drizzle 12 1028 71 10000 0 0 22:37 26.01.2022
3471 Rain 13 1027 58 10000 3.6 190 21:45 26.01.2022
3472 Clouds 18 1027 42 10000 4.12 340 20:59 26.01.2022
3473 Clouds 18 1027 42 10000 4.12 340 20:35 26.01.2022
3474 Clouds 17 1028 48 10000 7.72 280 19:52 26.01.2022
3475 Clouds 17 1028 51 10000 7.2 280 19:18 26.01.2022
3476 Clouds 17 1029 48 10000 3.09 160 18:26 26.01.2022
3477 Clouds 16 1031 51 10000 2.06 0 17:49 26.01.2022
3478 Clouds 16 1031 55 10000 2.57 90 17:19 26.01.2022
3479 Clouds 14 1032 58 10000 2.06 60 16:26 26.01.2022
3480 Clouds 12 1032 71 10000 2.57 90 15:24 26.01.2022
3481 Clouds 8 1031 93 9000 1.03 60 12:52 26.01.2022
3482 Clouds 9 1017 84 10000 1.02 61 10:57 26.01.2022
3483 Clouds 9 1017 84 10000 1.2 47 09:59 26.01.2022
3484 Clouds 9 1017 84 10000 1.2 47 09:40 26.01.2022
3485 Rain 9 1017 86 10000 1.44 35 07:28 26.01.2022
3486 Clouds 9 1028 81 10000 1.03 0 00:42 26.01.2022
3487 Rain 9 1028 87 10000 0.51 0 23:43 25.01.2022
3488 Rain 9 1028 87 5000 3.6 100 22:49 25.01.2022
3489 Rain 10 1028 82 5000 6.17 80 22:19 25.01.2022
3490 Clouds 13 1027 62 10000 3.09 180 21:35 25.01.2022
3491 Clouds 16 1027 48 10000 4.63 10 20:46 25.01.2022
3492 Clouds 16 1028 55 10000 6.17 10 19:58 25.01.2022
3493 Clouds 16 1028 55 10000 6.17 10 19:34 25.01.2022
3494 Clouds 16 1029 55 10000 1.54 0 18:20 25.01.2022
3495 Clouds 14 1030 55 10000 1.54 80 17:39 25.01.2022
3496 Clouds 14 1031 63 10000 1.54 0 16:35 25.01.2022
3497 Clouds 12 1032 62 10000 1.03 0 15:39 25.01.2022
3498 Clouds 11 1032 71 10000 0 0 15:20 25.01.2022
3499 Clouds 10 1032 76 10000 0.51 0 14:56 25.01.2022
3500 Mist 8 1031 93 7000 1.03 100 12:23 25.01.2022
3501 Rain 10 1015 85 10000 1.34 333 09:39 25.01.2022
3502 Clouds 10 1015 83 10000 1.29 10 08:29 25.01.2022
3503 Clouds 10 1015 83 10000 1.39 24 07:27 25.01.2022
3504 Clouds 9 1031 93 10000 1.03 90 05:54 25.01.2022
3505 Clouds 9 1028 93 9000 3.6 100 00:57 25.01.2022
3506 Rain 12 1027 67 10000 4.12 100 23:36 24.01.2022
3507 Rain 13 1026 58 10000 3.09 20 23:18 24.01.2022
3508 Rain 15 1026 58 10000 4.63 360 22:53 24.01.2022
3509 Rain 14 1026 58 10000 4.63 360 22:35 24.01.2022
3510 Clouds 16 1025 55 10000 3.6 10 21:42 24.01.2022
3511 Clouds 16 1026 59 10000 1.03 0 21:24 24.01.2022
3512 Clouds 16 1027 55 10000 2.57 0 20:28 24.01.2022
3513 Clouds 15 1028 55 10000 2.06 240 19:38 24.01.2022
3514 Clouds 15 1028 51 10000 2.06 0 18:50 24.01.2022
3515 Clouds 15 1029 67 10000 2.57 20 17:43 24.01.2022
3516 Clouds 16 1030 55 10000 1.54 0 17:22 24.01.2022
3517 Clouds 13 1031 67 10000 1.54 0 16:32 24.01.2022
3518 Clouds 13 1031 67 10000 2.57 90 15:51 24.01.2022
3519 Clouds 12 1031 82 10000 1.54 0 14:19 24.01.2022
3520 Clouds 8 1030 100 10000 1.54 100 12:35 24.01.2022
3521 Clouds 9 1029 93 10000 1.03 110 11:42 24.01.2022
3522 Clouds 9 1016 84 10000 0.96 312 10:23 24.01.2022
3523 Clouds 9 1016 84 10000 0.96 312 09:46 24.01.2022
3524 Clouds 9 1016 86 10000 1.19 345 08:18 24.01.2022
3525 Clouds 9 1029 87 10000 1.54 90 02:29 24.01.2022
3526 Clouds 9 1028 81 10000 2.06 90 01:27 24.01.2022
3527 Clouds 9 1028 81 10000 2.06 90 01:27 24.01.2022
3528 Clouds 11 1028 76 10000 1.54 80 00:32 24.01.2022
3529 Clouds 11 1027 71 10000 2.57 130 23:46 23.01.2022
3530 Clouds 11 1028 82 10000 3.6 100 22:21 23.01.2022
3531 Clouds 10 1028 87 10000 2.57 100 21:41 23.01.2022
3532 Clouds 10 1029 87 10000 2.06 90 21:23 23.01.2022
3533 Clouds 10 1029 76 10000 0.51 0 20:28 23.01.2022
3534 Rain 10 1030 82 7000 4.63 270 19:19 23.01.2022
3535 Clouds 11 1030 82 7000 4.63 300 18:41 23.01.2022
3536 Clouds 14 1030 58 10000 2.06 40 17:25 23.01.2022
3537 Clouds 13 1031 62 10000 2.06 80 16:18 23.01.2022
3538 Clouds 10 1031 76 10000 1.54 80 14:52 23.01.2022
3539 Clouds 10 1031 82 10000 1.03 0 14:19 23.01.2022
3540 Clouds 8 1030 93 8000 1.03 90 12:47 23.01.2022
3541 Clouds 8 1030 93 8000 0 0 12:21 23.01.2022
3542 Clouds 8 1030 93 10000 0.51 100 11:27 23.01.2022
3543 Clouds 9 1016 90 10000 1.23 257 10:59 23.01.2022
3544 Clouds 9 1015 88 10000 1.04 269 10:25 23.01.2022
3545 Clouds 9 1015 88 10000 1.04 269 09:33 23.01.2022
3546 Clouds 10 1015 87 10000 0.99 293 08:50 23.01.2022
3547 Drizzle 10 1030 82 10000 1.03 230 04:41 23.01.2022
3548 Clouds 13 1027 62 10000 1.03 0 01:43 23.01.2022
3549 Clouds 14 1026 67 10000 1.54 90 00:56 23.01.2022
3550 Clouds 14 1026 63 10000 0.51 0 00:22 23.01.2022
3551 Clouds 15 1025 55 10000 0.51 320 23:18 22.01.2022
3552 Clouds 15 1025 55 10000 1.03 0 22:34 22.01.2022
3553 Clouds 15 1025 55 10000 1.03 0 22:34 22.01.2022
3554 Clouds 13 1028 58 10000 2.06 240 21:18 22.01.2022
3555 Clouds 14 1028 55 10000 7.72 20 19:46 22.01.2022
3556 Clouds 18 1029 48 10000 3.09 290 18:43 22.01.2022
3557 Clouds 16 1030 45 10000 2.57 200 17:56 22.01.2022
3558 Clouds 16 1030 45 10000 2.57 200 17:35 22.01.2022
3559 Clouds 14 1031 55 10000 1.54 0 16:55 22.01.2022
3560 Clouds 13 1031 58 10000 2.06 320 15:49 22.01.2022
3561 Clouds 12 1031 62 10000 0.51 0 14:57 22.01.2022
3562 Clouds 9 1031 81 10000 1.54 120 13:36 22.01.2022
3563 Clouds 8 1031 87 10000 1.54 90 12:48 22.01.2022
3564 Clouds 8 1031 87 10000 2.06 90 12:24 22.01.2022
3565 Clouds 8 1018 92 10000 2.11 215 10:55 22.01.2022
3566 Clouds 9 1017 91 10000 2.1 216 10:28 22.01.2022
3567 Clouds 9 1017 91 10000 2.1 216 09:57 22.01.2022
3568 Clouds 9 1016 90 10000 1.76 219 08:51 22.01.2022
3569 Clouds 9 1017 88 10000 1.07 249 07:29 22.01.2022
3570 Clouds 7 1033 93 10000 2.57 300 04:52 22.01.2022
3571 Clouds 13 1028 62 10000 2.06 320 01:33 22.01.2022
3572 Clouds 14 1026 58 10000 4.12 110 23:35 21.01.2022
3573 Clouds 15 1026 55 10000 7.2 270 22:20 21.01.2022
3574 Clouds 15 1028 55 10000 2.57 90 20:20 21.01.2022
3575 Clouds 16 1030 48 10000 2.57 310 18:36 21.01.2022
3576 Clouds 13 1032 58 10000 1.03 90 17:25 21.01.2022
3577 Clouds 9 1033 76 10000 1.54 280 15:28 21.01.2022
3578 Drizzle 7 1033 87 6000 2.06 270 13:28 21.01.2022
3579 Rain 10 1018 80 10000 1.04 251 12:37 21.01.2022
3580 Clouds 9 1031 81 10000 3.09 90 11:27 21.01.2022
3581 Clouds 10 1016 83 10000 1.26 245 10:18 21.01.2022
3582 Clouds 10 1016 81 10000 0.24 28 08:23 21.01.2022
3583 Clouds 11 1031 66 10000 1.54 100 04:49 21.01.2022
3584 Clouds 11 1031 66 10000 1.54 100 04:49 21.01.2022
3585 Clouds 18 1027 45 10000 5.14 270 23:31 20.01.2022
3586 Clouds 18 1027 42 10000 2.57 310 22:21 20.01.2022
3587 Clouds 17 1027 45 10000 3.09 250 21:42 20.01.2022
3588 Clouds 17 1029 45 10000 1.03 280 20:40 20.01.2022
3589 Clouds 16 1031 51 10000 3.09 220 19:19 20.01.2022
3590 Clouds 15 1032 55 10000 2.57 30 18:44 20.01.2022
3591 Clouds 12 1034 54 10000 1.54 100 16:58 20.01.2022
3592 Clouds 11 1035 54 10000 1.03 330 15:41 20.01.2022
3593 Clouds 10 1035 62 10000 1.54 270 15:19 20.01.2022
3594 Drizzle 6 1035 87 7000 1.54 280 13:41 20.01.2022
3595 Rain 5 1035 87 7000 0.51 310 12:34 20.01.2022
3596 Drizzle 6 1034 87 7000 1.03 300 11:50 20.01.2022
3597 Drizzle 6 1034 87 7000 1.03 300 11:50 20.01.2022
3598 Clouds 7 1020 86 10000 0.65 253 10:40 20.01.2022
3599 Clouds 7 1019 86 10000 0.7 324 09:37 20.01.2022
3600 Clouds 8 1020 86 10000 1.24 357 07:51 20.01.2022
3601 Clouds 11 1030 76 10000 1.03 290 00:46 20.01.2022
3602 Drizzle 11 1029 76 10000 1.03 340 22:59 19.01.2022
3603 Rain 11 1029 82 10000 3.09 250 22:24 19.01.2022
3604 Drizzle 16 1028 45 10000 6.17 100 21:23 19.01.2022
3605 Clouds 14 1028 51 10000 7.2 100 20:49 19.01.2022
3606 Clouds 20 1029 28 10000 2.57 110 19:45 19.01.2022
3607 Clouds 17 1031 42 10000 2.06 280 18:29 19.01.2022
3608 Clouds 17 1032 45 10000 2.57 260 17:45 19.01.2022
3609 Clouds 16 1033 48 10000 2.06 310 16:48 19.01.2022
3610 Clouds 13 1033 62 10000 1.03 0 14:42 19.01.2022
3611 Clouds 7 1033 87 10000 1.03 10 12:43 19.01.2022
3612 Clouds 6 1033 70 10000 1.54 70 11:41 19.01.2022
3613 Clouds 8 1020 88 10000 0.57 348 10:35 19.01.2022
3614 Clouds 8 1019 87 10000 0.21 274 09:34 19.01.2022
3615 Clouds 8 1019 85 10000 0.36 312 06:56 19.01.2022
3616 Clouds 12 1031 62 10000 1.03 180 02:41 19.01.2022
3617 Clouds 15 1027 51 10000 5.14 100 23:20 18.01.2022
3618 Clouds 15 1028 55 10000 5.66 100 22:34 18.01.2022
3619 Clouds 15 1029 55 10000 4.63 110 20:59 18.01.2022
3620 Clouds 15 1031 51 10000 3.6 100 19:55 18.01.2022
3621 Clouds 15 1031 51 10000 3.6 100 19:36 18.01.2022
3622 Clouds 14 1031 55 10000 2.06 70 18:51 18.01.2022
3623 Clouds 13 1032 58 10000 1.54 310 17:58 18.01.2022
3624 Clouds 12 1032 58 10000 1.03 0 16:50 18.01.2022
3625 Clouds 11 1033 66 10000 2.06 120 15:47 18.01.2022
3626 Clouds 11 1032 71 10000 2.57 90 15:21 18.01.2022
3627 Clouds 8 1032 100 10000 1.03 0 12:47 18.01.2022
3628 Clouds 8 1018 88 10000 0.89 278 10:47 18.01.2022
3629 Clouds 8 1017 89 10000 1.09 331 09:21 18.01.2022
3630 Clouds 8 1017 89 10000 1.26 341 07:55 18.01.2022
3631 Clouds 9 1031 87 10000 3.09 110 02:35 18.01.2022
3632 Drizzle 12 1029 58 10000 3.09 250 23:47 17.01.2022
3633 Rain 17 1027 42 10000 4.12 240 22:27 17.01.2022
3634 Clouds 18 1026 45 10000 6.69 280 21:35 17.01.2022
3635 Clouds 17 1029 45 10000 1.03 0 20:24 17.01.2022
3636 Clouds 13 1033 71 10000 2.06 100 18:31 17.01.2022
3637 Clouds 12 1033 66 10000 4.63 110 17:44 17.01.2022
3638 Clouds 10 1034 62 10000 4.12 90 16:44 17.01.2022
3639 Clouds 8 1035 76 10000 1.54 350 15:22 17.01.2022
3640 Clouds 7 1035 81 10000 1.03 40 14:56 17.01.2022
3641 Clouds 7 1034 81 10000 1.03 110 13:26 17.01.2022
3642 Rain 6 1034 81 10000 1.03 260 12:56 17.01.2022
3643 Rain 6 1033 76 10000 1.03 250 11:49 17.01.2022
3644 Clouds 7 1018 82 10000 0.98 312 10:25 17.01.2022
3645 Clouds 7 1018 82 10000 0.98 312 09:34 17.01.2022
3646 Clouds 8 1018 83 10000 1.35 349 07:24 17.01.2022
3647 Clouds 8 1018 83 10000 1.12 336 06:56 17.01.2022
3648 Clouds 14 1029 44 10000 5.66 10 00:56 17.01.2022
3649 Clouds 17 1026 39 10000 5.66 10 22:30 16.01.2022
3650 Clouds 18 1028 32 10000 2.57 0 20:36 16.01.2022
3651 Clouds 18 1030 34 10000 4.63 280 18:52 16.01.2022
3652 Clouds 18 1032 34 10000 2.06 0 17:59 16.01.2022
3653 Clouds 16 1032 42 10000 2.06 0 17:23 16.01.2022
3654 Clouds 15 1033 41 10000 2.06 0 16:38 16.01.2022
3655 Clouds 10 1034 66 10000 1.54 90 14:31 16.01.2022
3656 Clouds 8 1034 76 10000 1.03 0 13:49 16.01.2022
3657 Clouds 6 1033 81 10000 0.51 70 12:48 16.01.2022
3658 Clouds 9 1019 83 10000 0.59 27 11:42 16.01.2022
3659 Clouds 9 1018 84 10000 0.69 62 10:55 16.01.2022
3660 Clouds 9 1018 83 10000 0.66 102 10:19 16.01.2022
3661 Clouds 9 1018 83 10000 0.66 102 09:51 16.01.2022
3662 Clouds 9 1018 82 10000 0.58 50 09:22 16.01.2022
3663 Clouds 9 1018 82 10000 0.71 28 07:33 16.01.2022
3664 Clouds 13 1030 41 10000 3.09 0 00:42 16.01.2022
3665 Clouds 15 1029 36 10000 6.17 30 23:49 15.01.2022
3666 Clouds 16 1029 39 10000 4.63 360 21:37 15.01.2022
3667 Clouds 17 1029 34 10000 4.63 10 21:19 15.01.2022
3668 Clouds 17 1030 32 10000 3.09 320 20:39 15.01.2022
3669 Clouds 16 1032 34 10000 1.54 0 19:29 15.01.2022
3670 Clouds 16 1032 39 10000 1.54 0 18:37 15.01.2022
3671 Clouds 16 1033 31 10000 2.57 0 17:25 15.01.2022
3672 Clouds 14 1034 38 10000 1.54 0 15:42 15.01.2022
3673 Clouds 11 1035 50 10000 0.51 0 13:52 15.01.2022
3674 Clouds 5 1033 70 10000 1.54 260 11:46 15.01.2022
3675 Clouds 7 1019 87 10000 1.55 60 10:25 15.01.2022
3676 Clouds 8 1019 88 10000 1.46 32 06:40 15.01.2022
3677 Rain 13 1029 54 10000 6.17 100 23:50 14.01.2022
3678 Clouds 15 1028 41 10000 4.63 0 21:41 14.01.2022
3679 Clouds 16 1028 39 10000 4.63 40 20:37 14.01.2022
3680 Clouds 16 1029 42 10000 3.09 290 19:58 14.01.2022
3681 Clouds 17 1031 34 10000 3.09 0 18:46 14.01.2022
3682 Clouds 15 1032 44 10000 3.09 0 17:57 14.01.2022
3683 Clouds 13 1033 47 10000 1.03 0 16:48 14.01.2022
3684 Clouds 10 1034 66 10000 4.12 90 15:33 14.01.2022
3685 Clouds 10 1034 66 10000 4.12 90 15:33 14.01.2022
3686 Clouds 9 1034 71 10000 2.57 110 14:30 14.01.2022
3687 Clouds 9 1033 62 10000 1.54 300 13:27 14.01.2022
3688 Clouds 8 1033 71 10000 2.06 280 12:24 14.01.2022
3689 Clouds 9 1019 83 10000 0.73 102 10:47 14.01.2022
3690 Rain 9 1018 79 10000 0.85 79 08:54 14.01.2022
3691 Clouds 9 1018 79 10000 1.33 50 07:56 14.01.2022
3692 Clouds 10 1032 62 10000 2.57 100 03:50 14.01.2022
3693 Clouds 12 1030 47 10000 1.03 0 00:44 14.01.2022
3694 Clouds 16 1028 34 10000 5.14 20 21:57 13.01.2022
3695 Clouds 17 1029 39 10000 3.09 350 21:30 13.01.2022
3696 Clouds 16 1030 42 10000 6.69 360 20:33 13.01.2022
3697 Clouds 16 1031 36 10000 5.14 20 19:32 13.01.2022
3698 Clouds 16 1032 42 10000 5.66 20 18:51 13.01.2022
3699 Clouds 15 1034 44 10000 2.57 10 17:23 13.01.2022
3700 Clouds 14 1034 44 10000 1.54 140 16:18 13.01.2022
3701 Clouds 13 1034 51 10000 2.06 70 15:31 13.01.2022
3702 Clouds 9 1034 71 10000 1.54 240 13:42 13.01.2022
3703 Clouds 4 1033 87 10000 0.51 0 11:43 13.01.2022
3704 Clouds 7 1020 89 10000 1.29 30 09:37 13.01.2022
3705 Clouds 7 1020 89 10000 1.34 23 08:54 13.01.2022
3706 Clouds 7 1020 89 10000 1.61 25 08:22 13.01.2022
3707 Clouds 8 1020 87 10000 1.73 28 07:21 13.01.2022
3708 Clouds 10 1034 62 10000 1.03 0 05:56 13.01.2022
3709 Clouds 10 1034 62 10000 1.03 0 05:18 13.01.2022
3710 Clouds 10 1031 58 10000 2.06 0 01:46 13.01.2022
3711 Clouds 12 1030 54 10000 5.14 20 23:54 12.01.2022
3712 Clouds 12 1030 54 10000 5.14 20 23:34 12.01.2022
3713 Clouds 12 1029 54 10000 5.14 20 22:49 12.01.2022
3714 Clouds 12 1030 54 10000 5.66 10 21:54 12.01.2022
3715 Clouds 12 1031 54 10000 6.17 10 21:21 12.01.2022
3716 Clouds 13 1031 51 10000 6.17 10 20:53 12.01.2022
3717 Clouds 13 1033 58 10000 2.57 30 19:24 12.01.2022
3718 Rain 13 1033 54 10000 1.54 270 18:28 12.01.2022
3719 Rain 11 1034 66 10000 2.57 270 16:59 12.01.2022
3720 Drizzle 8 1035 71 10000 2.57 110 15:53 12.01.2022
3721 Clouds 7 1035 76 9000 2.06 90 14:46 12.01.2022
3722 Drizzle 6 1034 81 9000 1.03 100 12:58 12.01.2022
3723 Clouds 7 1020 94 7964 2.02 222 09:59 12.01.2022
3724 Rain 8 1019 94 5425 1.71 218 08:33 12.01.2022
3725 Rain 8 1019 93 5395 1.44 211 07:33 12.01.2022
3726 Clouds 10 1032 71 10000 1.03 130 05:30 12.01.2022
3727 Rain 12 1028 62 10000 0 0 23:29 11.01.2022
3728 Rain 12 1028 67 10000 4.63 100 22:41 11.01.2022
3729 Rain 12 1028 67 10000 4.63 100 22:21 11.01.2022
3730 Rain 14 1028 63 10000 4.12 120 20:49 11.01.2022
3731 Clouds 15 1029 48 10000 1.03 0 19:42 11.01.2022
3732 Clouds 12 1032 62 10000 3.6 80 18:25 11.01.2022
3733 Rain 11 1034 58 10000 1.54 0 17:18 11.01.2022
3734 Clouds 10 1034 71 10000 1.54 0 16:36 11.01.2022
3735 Drizzle 5 1035 87 9000 0.51 0 14:59 11.01.2022
3736 Drizzle 5 1035 87 9000 0.51 0 14:40 11.01.2022
3737 Drizzle 5 1035 81 9000 3.09 90 13:54 11.01.2022
3738 Rain 4 1035 87 9000 3.09 90 13:31 11.01.2022
3739 Clouds 4 1034 87 9000 2.57 100 12:37 11.01.2022
3740 Clouds 9 1018 90 10000 1.98 168 10:52 11.01.2022
3741 Clouds 9 1016 85 10000 1.75 126 08:58 11.01.2022
3742 Clouds 9 1018 88 10000 1.63 92 06:28 11.01.2022
3743 Drizzle 9 1029 87 8000 2.57 120 00:30 11.01.2022
3744 Rain 9 1029 81 8000 4.12 100 23:41 10.01.2022
3745 Clouds 10 1027 76 10000 4.63 100 22:51 10.01.2022
3746 Rain 14 1027 51 10000 2.57 60 22:18 10.01.2022
3747 Clouds 17 1026 39 10000 3.6 260 21:48 10.01.2022
3748 Clouds 19 1027 34 10000 4.12 290 21:19 10.01.2022
3749 Clouds 19 1027 39 10000 4.63 280 20:56 10.01.2022
3750 Clouds 17 1028 36 10000 2.57 60 20:26 10.01.2022
3751 Clouds 17 1029 34 10000 1.54 0 19:41 10.01.2022
3752 Clouds 17 1029 34 10000 1.54 0 19:20 10.01.2022
3753 Clouds 17 1030 36 10000 4.12 90 18:48 10.01.2022
3754 Clouds 14 1032 47 10000 3.09 110 17:24 10.01.2022
3755 Clouds 13 1033 54 10000 3.09 90 16:41 10.01.2022
3756 Clouds 11 1034 58 10000 2.06 0 15:20 10.01.2022
3757 Clouds 9 1033 66 10000 1.03 0 13:41 10.01.2022
3758 Rain 6 1032 81 10000 0.51 0 11:58 10.01.2022
3759 Clouds 6 1031 76 10000 1.03 290 11:24 10.01.2022
3760 Clouds 8 1017 86 10000 1.12 46 09:47 10.01.2022
3761 Clouds 9 1017 83 10000 1.53 32 06:47 10.01.2022
3762 Clouds 10 1032 62 10000 1.03 100 05:49 10.01.2022
3763 Clouds 12 1029 54 10000 2.06 100 01:30 10.01.2022
3764 Clouds 13 1028 47 10000 2.06 0 00:24 10.01.2022
3765 Clouds 14 1028 47 10000 2.57 100 23:29 09.01.2022
3766 Clouds 15 1027 44 10000 4.12 40 22:37 09.01.2022
3767 Clouds 15 1027 44 10000 3.6 110 21:46 09.01.2022
3768 Clouds 16 1028 42 10000 4.12 110 21:23 09.01.2022
3769 Clouds 16 1028 42 10000 4.12 110 21:23 09.01.2022
3770 Clouds 16 1028 51 10000 2.57 130 20:50 09.01.2022
3771 Clouds 15 1026 44 10000 4.12 20 20:32 09.01.2022
3772 Clouds 15 1029 51 10000 3.09 270 19:44 09.01.2022
3773 Clouds 15 1030 51 10000 2.57 0 19:23 09.01.2022
3774 Clouds 15 1030 48 10000 1.54 100 18:51 09.01.2022
3775 Clouds 13 1031 58 10000 1.03 0 18:33 09.01.2022
3776 Clouds 12 1032 58 10000 0 0 17:30 09.01.2022
3777 Clouds 12 1032 62 10000 0.51 0 16:51 09.01.2022
3778 Clouds 11 1033 66 10000 2.06 90 15:57 09.01.2022
3779 Clouds 11 1033 66 10000 2.06 90 15:34 09.01.2022
3780 Clouds 10 1033 71 10000 1.54 80 14:40 09.01.2022
3781 Clouds 9 1033 76 10000 1.54 110 13:50 09.01.2022
3782 Clouds 8 1032 87 10000 2.57 100 12:48 09.01.2022
3783 Clouds 8 1032 81 10000 2.06 110 11:51 09.01.2022
3784 Clouds 8 1019 91 10000 1.95 190 10:52 09.01.2022
3785 Clouds 8 1018 91 10000 2.1 193 09:42 09.01.2022
3786 Clouds 9 1018 92 10000 1.99 206 08:34 09.01.2022
3787 Clouds 11 1033 71 10000 0 0 03:55 09.01.2022
3788 Clouds 10 1030 76 10000 1.03 0 01:23 09.01.2022
3789 Clouds 14 1029 51 10000 0 0 23:39 08.01.2022
3790 Clouds 13 1029 54 10000 3.6 310 22:59 08.01.2022
3791 Clouds 13 1029 58 10000 5.14 290 22:19 08.01.2022
3792 Clouds 14 1029 51 10000 5.66 270 21:25 08.01.2022
3793 Clouds 14 1029 55 10000 8.23 280 20:41 08.01.2022
3794 Clouds 16 1029 36 10000 3.09 80 20:19 08.01.2022
3795 Clouds 18 1030 39 10000 2.57 0 18:40 08.01.2022
3796 Clouds 17 1031 39 10000 4.12 90 17:22 08.01.2022
3797 Clouds 14 1032 47 10000 1.54 180 15:52 08.01.2022
3798 Clouds 13 1032 51 10000 0 0 14:44 08.01.2022
3799 Clouds 10 1032 62 10000 3.09 300 13:28 08.01.2022
3800 Clouds 9 1032 66 10000 3.6 280 11:28 08.01.2022
3801 Clouds 8 1017 81 10000 0.98 313 10:28 08.01.2022
3802 Clouds 8 1017 81 10000 0.98 313 09:48 08.01.2022
3803 Clouds 8 1018 82 10000 1.27 328 07:50 08.01.2022
3804 Clouds 12 1031 62 10000 1.03 0 02:50 08.01.2022
3805 Clouds 13 1028 54 10000 1.03 0 00:42 08.01.2022
3806 Clouds 14 1027 47 10000 5.14 100 22:49 07.01.2022
3807 Clouds 19 1026 34 10000 6.17 360 21:18 07.01.2022
3808 Clouds 21 1026 33 10000 6.17 20 20:19 07.01.2022
3809 Clouds 20 1027 28 10000 1.54 0 19:23 07.01.2022
3810 Clouds 20 1028 26 10000 2.57 0 18:44 07.01.2022
3811 Clouds 18 1030 32 10000 1.54 0 17:28 07.01.2022
3812 Clouds 17 1030 39 10000 1.54 220 16:41 07.01.2022
3813 Clouds 13 1032 58 10000 0 0 14:29 07.01.2022
3814 Clouds 11 1032 66 10000 1.03 70 13:41 07.01.2022
3815 Clouds 9 1032 76 10000 0 0 12:49 07.01.2022
3816 Clouds 9 1032 76 10000 0 0 12:49 07.01.2022
3817 Clouds 7 1018 88 10000 1.2 322 09:42 07.01.2022
3818 Clouds 10 1030 76 10000 1.03 0 02:56 07.01.2022
3819 Clouds 11 1029 62 10000 1.54 90 01:55 07.01.2022
3820 Clouds 13 1028 58 10000 1.03 0 01:28 07.01.2022
3821 Clouds 12 1028 58 10000 1.03 0 01:28 07.01.2022
3822 Clouds 12 1028 58 10000 1.03 0 00:59 07.01.2022
3823 Clouds 12 1028 62 10000 3.09 280 00:28 07.01.2022
3824 Clouds 17 1027 36 10000 4.63 360 21:34 06.01.2022
3825 Rain 19 1027 30 10000 2.57 270 20:22 06.01.2022
3826 Clouds 19 1028 30 10000 2.57 0 19:45 06.01.2022
3827 Clouds 18 1029 30 10000 2.57 90 18:59 06.01.2022
3828 Clouds 17 1030 36 10000 2.57 0 17:42 06.01.2022
3829 Clouds 16 1031 39 10000 2.06 120 16:57 06.01.2022
3830 Clouds 14 1032 47 10000 1.54 40 15:49 06.01.2022
3831 Clouds 14 1032 47 10000 1.54 150 15:27 06.01.2022
3832 Clouds 12 1032 58 10000 2.57 90 14:55 06.01.2022
3833 Clouds 12 1032 58 10000 1.54 80 14:19 06.01.2022
3834 Clouds 7 1031 81 10000 2.06 290 12:56 06.01.2022
3835 Clouds 7 1030 76 10000 0.51 0 11:50 06.01.2022
3836 Clouds 7 1030 71 10000 1.03 0 11:28 06.01.2022
3837 Clouds 8 1016 88 10000 0.66 41 08:59 06.01.2022
3838 Clouds 14 1028 47 10000 1.54 280 01:51 06.01.2022
3839 Clouds 16 1025 36 10000 2.57 350 23:40 05.01.2022
3840 Clouds 17 1024 32 10000 5.14 20 22:59 05.01.2022
3841 Clouds 18 1024 30 10000 4.63 10 22:33 05.01.2022
3842 Clouds 18 1024 32 10000 6.17 20 21:52 05.01.2022
3843 Clouds 18 1024 34 10000 5.14 10 21:21 05.01.2022
3844 Clouds 20 1025 32 10000 6.17 30 20:19 05.01.2022
3845 Clouds 18 1026 34 10000 3.09 0 18:54 05.01.2022
3846 Clouds 18 1027 34 10000 2.06 0 17:45 05.01.2022
3847 Clouds 16 1028 39 10000 1.03 0 16:51 05.01.2022
3848 Clouds 15 1029 48 10000 2.57 80 15:43 05.01.2022
3849 Clouds 11 1030 66 10000 1.03 0 14:28 05.01.2022
3850 Clouds 8 1030 76 10000 1.03 0 13:32 05.01.2022
3851 Clouds 7 1028 81 10000 0.51 0 11:45 05.01.2022
3852 Clouds 9 1015 92 5667 3.21 157 08:20 05.01.2022
3853 Clouds 10 1015 87 10000 1.01 184 06:25 05.01.2022
3854 Clouds 14 1026 47 10000 2.06 140 00:59 05.01.2022
3855 Clouds 16 1025 42 10000 3.6 360 23:38 04.01.2022
3856 Clouds 17 1025 39 10000 4.12 10 23:18 04.01.2022
3857 Clouds 16 1026 42 10000 3.09 10 21:31 04.01.2022
3858 Clouds 14 1028 51 10000 5.66 110 19:55 04.01.2022
3859 Clouds 20 1027 28 10000 1.54 0 18:19 04.01.2022
3860 Clouds 17 1029 34 10000 2.06 220 16:53 04.01.2022
3861 Clouds 16 1030 42 10000 2.06 230 16:30 04.01.2022
3862 Clouds 13 1030 54 10000 1.03 0 14:54 04.01.2022
3863 Clouds 13 1030 54 10000 1.03 0 14:36 04.01.2022
3864 Clouds 10 1030 66 10000 0 0 13:40 04.01.2022
3865 Clouds 8 1017 93 10000 1.15 210 10:59 04.01.2022
3866 Clouds 9 1017 92 10000 1.19 209 09:58 04.01.2022
3867 Clouds 9 1017 92 10000 1.23 213 08:35 04.01.2022
3868 Clouds 12 1031 58 10000 1.54 80 03:39 04.01.2022
3869 Rain 14 1028 47 10000 2.57 230 00:42 04.01.2022
3870 Rain 14 1028 51 10000 2.57 270 23:44 03.01.2022
3871 Clouds 17 1027 42 10000 7.72 20 22:21 03.01.2022
3872 Clouds 19 1026 34 10000 5.14 30 21:35 03.01.2022
3873 Clouds 21 1026 30 10000 5.14 290 20:34 03.01.2022
3874 Clouds 21 1030 24 10000 2.57 30 18:54 03.01.2022
3875 Clouds 20 1031 26 10000 1.03 0 18:29 03.01.2022
3876 Clouds 19 1032 32 10000 1.54 0 17:20 03.01.2022
3877 Clouds 17 1033 42 10000 1.03 0 16:28 03.01.2022
3878 Clouds 11 1034 66 10000 1.03 0 14:31 03.01.2022
3879 Clouds 8 1033 76 10000 0 0 12:51 03.01.2022
3880 Clouds 5 1032 87 10000 0 0 11:50 03.01.2022
3881 Clouds 8 1020 90 10000 1.19 160 10:37 03.01.2022
3882 Clouds 9 1019 88 10000 0.93 237 08:54 03.01.2022
3883 Clouds 9 1019 87 10000 1.26 222 07:51 03.01.2022
3884 Clouds 10 1031 71 10000 2.57 290 02:28 03.01.2022
3885 Clouds 12 1029 62 10000 1.03 0 23:22 02.01.2022
3886 Drizzle 12 1030 62 10000 2.57 0 22:56 02.01.2022
3887 Clouds 13 1029 51 10000 2.57 230 21:52 02.01.2022
3888 Clouds 16 1028 39 10000 4.12 40 20:45 02.01.2022
3889 Clouds 23 1027 25 10000 3.6 0 20:25 02.01.2022
3890 Clouds 22 1028 27 10000 1.03 0 19:31 02.01.2022
3891 Clouds 21 1029 26 10000 2.06 0 18:51 02.01.2022
3892 Clouds 20 1030 32 10000 1.03 0 17:56 02.01.2022
3893 Clouds 20 1030 32 10000 1.03 0 17:38 02.01.2022
3894 Clouds 19 1031 32 10000 0 0 17:19 02.01.2022
3895 Clouds 17 1032 39 10000 2.06 0 16:27 02.01.2022
3896 Clouds 14 1033 47 10000 1.57 175 14:41 02.01.2022
3897 Haze 13 1033 51 10000 0 0 13:25 02.01.2022
3898 Clouds 7 1033 71 10000 1.54 310 12:31 02.01.2022
3899 Clouds 7 1032 71 10000 0 0 11:36 02.01.2022
3900 Clouds 8 1020 87 10000 1.19 172 10:50 02.01.2022
3901 Clouds 8 1019 87 10000 1.31 169 09:52 02.01.2022
3902 Rain 8 1022 89 10000 2.39 235 07:26 02.01.2022
3903 Clouds 13 1031 47 10000 1.03 100 02:19 02.01.2022
3904 Clouds 15 1027 36 10000 2.06 170 23:40 01.01.2022
3905 Clouds 15 1027 41 10000 7.2 110 23:22 01.01.2022
3906 Clouds 19 1026 30 10000 10.8 90 22:23 01.01.2022
3907 Clouds 21 1025 24 10000 6.17 50 21:44 01.01.2022
3908 Clouds 24 1025 18 10000 1.54 0 20:56 01.01.2022
3909 Clouds 23 1027 23 10000 1.54 0 19:59 01.01.2022
3910 Clouds 22 1028 21 10000 3.09 0 19:30 01.01.2022
3911 Clouds 20 1030 30 10000 2.06 0 18:29 01.01.2022
3912 Clouds 19 1031 30 10000 1.54 330 16:51 01.01.2022
3913 Clouds 17 1032 39 10000 1.54 0 16:29 01.01.2022
3914 Clear 16 1033 41 10000 1.03 0 15:30 01.01.2022
3915 Haze 12 1034 50 10000 1.03 0 14:21 01.01.2022
3916 Haze 8 1034 66 10000 0 0 12:50 01.01.2022
3917 Clouds 4 1033 75 10000 1.03 0 11:59 01.01.2022
3918 Clouds 4 1032 75 10000 1.03 0 11:24 01.01.2022
3919 Clouds 8 1018 75 10000 0.24 176 10:42 01.01.2022
3920 Clouds 8 1017 74 10000 0.48 176 09:47 01.01.2022
3921 Clouds 9 1016 71 10000 0.7 128 08:27 01.01.2022
3922 Clouds 9 1016 71 10000 0.71 128 07:56 01.01.2022
3923 Clouds 9 1016 71 10000 0.71 128 07:37 01.01.2022
3924 Clouds 10 1017 74 10000 1.06 154 06:42 01.01.2022
3925 Clouds 10 1033 57 10000 1.03 0 04:38 01.01.2022
3926 Clouds 11 1032 43 10000 1.03 280 03:38 01.01.2022
3927 Clouds 18 1028 19 10000 6.69 20 23:53 31.12.2021
3928 Clouds 20 1027 21 10000 6.69 10 21:55 31.12.2021
3929 Clouds 21 1028 23 10000 7.72 20 20:49 31.12.2021
3930 Clouds 21 1029 21 10000 8.23 20 19:43 31.12.2021
3931 Clear 21 1009 25 10000 4.71 42 18:46 31.12.2021
3932 Clear 21 1010 27 10000 2.72 57 17:49 31.12.2021
3933 Clouds 19 1031 32 10000 1.54 0 17:22 31.12.2021
3934 Clouds 18 1032 39 10000 2.06 0 16:46 31.12.2021
3935 Clouds 15 1033 48 10000 2.06 0 15:59 31.12.2021
3936 Clouds 15 1033 48 10000 2.06 0 15:41 31.12.2021
3937 Clouds 13 1033 58 10000 3.09 110 15:19 31.12.2021
3938 Clouds 12 1033 58 10000 2.57 0 14:37 31.12.2021
3939 Clouds 10 1033 66 10000 1.54 0 13:44 31.12.2021
3940 Clouds 7 1033 87 10000 1.03 0 12:50 31.12.2021
3941 Clouds 4 1031 87 10000 1.03 90 12:19 31.12.2021
3942 Clouds 4 1032 87 10000 0 0 11:41 31.12.2021
3943 Clouds 7 1018 91 10000 0.54 162 10:48 31.12.2021
3944 Clouds 8 1017 91 10000 0.21 330 10:25 31.12.2021
3945 Clouds 8 1017 91 10000 0.21 330 09:34 31.12.2021
3946 Clouds 8 1017 91 10000 0.28 108 08:50 31.12.2021
3947 Clouds 8 1017 90 10000 0.25 38 07:53 31.12.2021
3948 Clouds 11 1030 71 10000 3.09 100 02:36 31.12.2021
3949 Rain 12 1029 67 9000 9.26 110 23:18 30.12.2021
3950 Rain 16 1028 45 10000 6.17 110 22:27 30.12.2021
3951 Rain 17 1027 39 10000 5.14 100 21:39 30.12.2021
3952 Rain 19 1026 30 10000 5.66 10 20:59 30.12.2021
3953 Clouds 19 1026 30 10000 5.66 10 20:38 30.12.2021
3954 Clouds 21 1027 26 10000 5.66 20 19:53 30.12.2021
3955 Clouds 21 1028 30 10000 4.12 20 19:31 30.12.2021
3956 Clouds 20 1030 30 10000 2.06 0 18:26 30.12.2021
3957 Clouds 18 1032 36 10000 1.03 0 16:50 30.12.2021
3958 Clouds 15 1032 48 10000 2.06 110 15:53 30.12.2021
3959 Clouds 13 1033 51 10000 1.54 120 14:54 30.12.2021
3960 Clouds 13 1033 51 10000 1.54 120 14:35 30.12.2021
3961 Clouds 10 1033 58 10000 1.03 90 13:25 30.12.2021
3962 Clouds 10 1032 62 10000 1.03 280 11:53 30.12.2021
3963 Clouds 8 1018 89 10000 0.14 356 10:35 30.12.2021
3964 Clouds 9 1017 88 10000 0.16 292 09:46 30.12.2021
3965 Clouds 9 1018 87 10000 1.03 23 06:58 30.12.2021
3966 Rain 11 1033 58 10000 1.03 90 05:20 30.12.2021
3967 Rain 11 1033 58 10000 1.03 90 05:20 30.12.2021
3968 Clouds 12 1033 50 10000 2.06 360 03:40 30.12.2021
3969 Clouds 12 1033 50 10000 2.06 360 03:40 30.12.2021
3970 Clouds 12 1032 50 10000 4.63 10 02:27 30.12.2021
3971 Clouds 17 1028 45 10000 5.66 120 23:37 29.12.2021
3972 Clouds 17 1027 42 10000 6.17 130 22:42 29.12.2021
3973 Clouds 19 1027 32 10000 5.14 20 21:56 29.12.2021
3974 Clouds 19 1028 32 10000 5.66 10 20:58 29.12.2021
3975 Clouds 19 1029 32 10000 5.14 10 20:29 29.12.2021
3976 Clouds 18 1030 32 10000 2.06 320 19:31 29.12.2021
3977 Clouds 17 1031 39 10000 4.63 10 18:42 29.12.2021
3978 Clouds 17 1032 34 10000 4.63 30 17:49 29.12.2021
3979 Clouds 17 1032 42 10000 1.54 0 17:26 29.12.2021
3980 Clouds 16 1033 48 10000 3.09 130 16:21 29.12.2021
3981 Clouds 13 1034 54 10000 1.03 0 15:21 29.12.2021
3982 Clouds 11 1033 71 10000 2.06 80 13:31 29.12.2021
3983 Clouds 10 1033 71 10000 1.03 0 12:35 29.12.2021
3984 Clouds 8 1032 81 10000 0 0 11:23 29.12.2021
3985 Rain 9 1018 83 10000 1.5 56 09:35 29.12.2021
3986 Clouds 10 1018 81 10000 2 43 07:47 29.12.2021
3987 Clouds 10 1018 78 10000 1.49 37 06:36 29.12.2021
3988 Clouds 12 1033 62 10000 2.06 80 05:57 29.12.2021
3989 Clouds 12 1033 62 10000 2.06 80 05:30 29.12.2021
3990 Clouds 12 1029 58 10000 1.03 260 01:27 29.12.2021
3991 Clouds 14 1028 51 10000 5.14 100 23:59 28.12.2021
3992 Clouds 16 1028 45 10000 4.12 100 23:18 28.12.2021
3993 Clouds 17 1028 42 10000 5.66 360 22:26 28.12.2021
3994 Clouds 16 1028 42 10000 4.63 10 21:57 28.12.2021
3995 Clouds 16 1028 42 10000 4.63 10 21:35 28.12.2021
3996 Clouds 18 1028 37 10000 5.66 100 20:32 28.12.2021
3997 Clouds 18 1029 37 10000 4.12 360 18:56 28.12.2021
3998 Clouds 17 1030 42 10000 1.54 180 18:28 28.12.2021
3999 Clouds 17 1030 42 10000 2.06 0 17:48 28.12.2021
4000 Clouds 16 1032 48 10000 2.06 0 16:29 28.12.2021
4001 Clouds 14 1032 55 10000 1.54 0 15:45 28.12.2021
4002 Clouds 15 1032 55 10000 2.57 100 15:19 28.12.2021
4003 Clouds 13 1032 58 10000 2.57 100 14:45 28.12.2021
4004 Clouds 12 1032 67 10000 2.57 90 14:20 28.12.2021
4005 Clouds 12 1032 67 10000 2.57 110 13:38 28.12.2021
4006 Clouds 12 1032 67 10000 2.57 110 13:38 28.12.2021
4007 Clouds 11 1032 71 10000 1.03 0 12:57 28.12.2021
4008 Clouds 11 1032 71 10000 1.03 0 12:38 28.12.2021
4009 Clouds 10 1017 86 10000 1.07 35 10:52 28.12.2021
4010 Clouds 10 1016 87 10000 1.31 31 07:39 28.12.2021
4011 Clouds 10 1017 87 10000 1.67 35 06:40 28.12.2021
4012 Clouds 20 1025 32 10000 2.57 270 23:42 27.12.2021
4013 Clouds 21 1025 32 10000 2.57 290 22:53 27.12.2021
4014 Clouds 21 1026 26 10000 1.54 260 21:33 27.12.2021
4015 Clouds 19 1027 32 10000 2.57 320 20:45 27.12.2021
4016 Clouds 19 1028 32 10000 2.06 130 19:57 27.12.2021
4017 Clouds 19 1029 30 10000 1.54 330 19:39 27.12.2021
4018 Clouds 17 1030 45 10000 1.54 70 17:55 27.12.2021
4019 Clouds 17 1030 45 10000 1.54 70 17:37 27.12.2021
4020 Clouds 16 1032 45 10000 1.03 0 16:36 27.12.2021
4021 Clouds 14 1033 51 10000 1.03 0 15:51 27.12.2021
4022 Clouds 11 1033 71 10000 0.51 0 14:30 27.12.2021
4023 Clouds 11 1033 71 10000 0.51 210 13:38 27.12.2021
4024 Clouds 11 1031 76 10000 1.03 120 11:41 27.12.2021
4025 Clouds 8 1019 91 10000 1.24 176 10:28 27.12.2021
4026 Clouds 8 1019 91 10000 1.24 176 09:38 27.12.2021
4027 Clouds 9 1019 88 10000 0.9 186 07:35 27.12.2021
4028 Clouds 9 1020 87 10000 1.13 260 06:38 27.12.2021
4029 Clouds 12 1032 62 10000 1.54 170 01:59 27.12.2021
4030 Clouds 18 1027 34 10000 0 0 23:57 26.12.2021
4031 Clouds 18 1027 34 10000 0 0 23:34 26.12.2021
4032 Clouds 19 1027 32 10000 1.54 0 21:53 26.12.2021
4033 Clouds 18 1028 42 10000 1.54 0 20:42 26.12.2021
4034 Clouds 17 1030 45 10000 3.09 130 19:46 26.12.2021
4035 Clouds 15 1032 44 10000 1.03 0 18:23 26.12.2021
4036 Clouds 11 1034 62 10000 1.54 110 15:57 26.12.2021
4037 Clouds 10 1034 62 10000 1.54 70 14:27 26.12.2021
4038 Rain 9 1033 66 10000 1.54 110 13:40 26.12.2021
4039 Rain 9 1033 66 10000 2.06 70 13:18 26.12.2021
4040 Rain 8 1032 76 10000 4.63 100 12:27 26.12.2021
4041 Rain 9 1018 86 10000 1.26 243 10:22 26.12.2021
4042 Rain 9 1017 84 10000 1.31 274 09:19 26.12.2021
4043 Rain 9 1017 84 10000 1.31 274 08:43 26.12.2021
4044 Rain 9 1017 82 10000 1.41 305 07:34 26.12.2021
4045 Clouds 15 1028 51 10000 3.6 350 01:24 26.12.2021
4046 Clouds 17 1026 42 10000 4.12 340 23:53 25.12.2021
4047 Clouds 20 1025 34 10000 2.57 320 23:27 25.12.2021
4048 Clouds 19 1025 37 10000 4.63 120 22:26 25.12.2021
4049 Clouds 21 1026 28 10000 3.09 100 20:57 25.12.2021
4050 Clouds 20 1028 28 10000 2.06 110 19:26 25.12.2021
4051 Clouds 20 1028 30 10000 1.54 170 18:55 25.12.2021
4052 Clouds 19 1031 30 10000 1.03 0 17:33 25.12.2021
4053 Clouds 18 1031 30 10000 2.06 90 16:36 25.12.2021
4054 Clouds 14 1033 44 10000 0 0 14:46 25.12.2021
4055 Clear 12 1017 61 10000 1.4 269 13:30 25.12.2021
4056 Clouds 5 1031 70 10000 1.03 120 11:46 25.12.2021
4057 Clouds 8 1017 81 10000 1.41 300 09:51 25.12.2021
4058 Clouds 8 1017 80 10000 1.4 290 08:38 25.12.2021
4059 Clouds 11 1031 54 10000 0.51 0 02:59 25.12.2021
4060 Clouds 14 1029 41 10000 4.63 290 00:33 25.12.2021
4061 Clouds 14 1029 41 10000 4.63 290 23:39 24.12.2021
4062 Clouds 16 1029 45 10000 4.12 120 19:45 24.12.2021
4063 Clouds 16 1029 42 10000 3.6 70 19:23 24.12.2021
4064 Clouds 17 1031 48 10000 3.09 280 16:53 24.12.2021
4065 Clouds 15 1032 51 10000 1.03 20 16:21 24.12.2021
4066 Clouds 15 1032 55 10000 1.54 20 15:48 24.12.2021
4067 Clouds 11 1033 66 10000 0 0 14:47 24.12.2021
4068 Clouds 11 1033 62 10000 0 0 14:24 24.12.2021
4069 Clouds 9 1032 76 10000 1.03 100 13:39 24.12.2021
4070 Clouds 8 1032 76 10000 1.03 50 12:48 24.12.2021
4071 Clouds 5 1031 87 10000 2.06 90 11:58 24.12.2021
4072 Clouds 7 1031 81 10000 0 0 11:27 24.12.2021
4073 Clouds 10 1016 79 10000 1.88 302 10:59 24.12.2021
4074 Clouds 10 1016 77 10000 1.55 315 10:28 24.12.2021
4075 Clouds 10 1016 82 10000 1.78 345 08:26 24.12.2021
4076 Clouds 9 1016 82 10000 1.78 345 07:50 24.12.2021
4077 Clouds 10 1030 81 10000 0.51 0 03:21 24.12.2021
4078 Clouds 13 1028 58 10000 3.09 110 00:19 24.12.2021
4079 Clouds 14 1028 55 10000 3.6 90 23:23 23.12.2021
4080 Clouds 14 1028 55 10000 3.6 90 23:23 23.12.2021
4081 Clouds 14 1028 51 10000 4.63 90 22:40 23.12.2021
4082 Clouds 14 1028 47 10000 2.57 120 22:20 23.12.2021
4083 Clouds 14 1028 47 10000 2.06 150 21:34 23.12.2021
4084 Clouds 16 1029 45 10000 5.14 100 20:21 23.12.2021
4085 Clouds 16 1030 45 10000 6.17 90 18:53 23.12.2021
4086 Clouds 16 1030 39 10000 3.09 280 17:57 23.12.2021
4087 Clouds 16 1031 36 10000 1.54 130 16:58 23.12.2021
4088 Clouds 15 1031 41 10000 0.51 300 16:26 23.12.2021
4089 Clouds 14 1032 51 10000 0.51 80 15:32 23.12.2021
4090 Clouds 13 1032 54 10000 1.03 160 14:55 23.12.2021
4091 Clouds 13 1032 54 10000 1.03 160 14:37 23.12.2021
4092 Haze 9 1032 81 10000 2.06 90 13:22 23.12.2021
4093 Clouds 9 1016 85 10000 2.21 131 10:54 23.12.2021
4094 Clouds 9 1016 85 10000 2.21 131 10:54 23.12.2021
4095 Clouds 9 1015 87 10000 1.97 137 09:52 23.12.2021
4096 Clouds 9 1015 87 10000 1.97 137 09:31 23.12.2021
4097 Clouds 10 1015 84 10000 1.36 252 08:25 23.12.2021
4098 Clouds 10 1015 84 10000 1.36 252 08:25 23.12.2021
4099 Clouds 10 1031 76 10000 0.51 0 04:39 23.12.2021
4100 Clouds 11 1027 71 10000 2.06 140 23:43 22.12.2021
4101 Rain 11 1027 71 7000 3.6 300 22:49 22.12.2021
4102 Rain 13 1027 58 10000 6.17 300 21:57 22.12.2021
4103 Clouds 14 1027 55 10000 1.54 250 21:29 22.12.2021
4104 Clouds 14 1027 55 10000 1.54 250 20:52 22.12.2021
4105 Clouds 13 1028 58 10000 2.06 120 20:33 22.12.2021
4106 Clouds 11 1028 76 10000 2.06 80 19:37 22.12.2021
4107 Rain 15 1028 48 10000 1.03 240 18:19 22.12.2021
4108 Rain 14 1029 51 10000 1.54 100 17:37 22.12.2021
4109 Clouds 11 1030 66 9000 0 0 15:49 22.12.2021
4110 Clouds 10 1030 81 9000 1.54 100 13:46 22.12.2021
4111 Drizzle 9 1030 87 8000 2.06 90 12:44 22.12.2021
4112 Drizzle 8 1029 87 10000 0 0 11:37 22.12.2021
4113 Rain 9 1015 87 10000 1.07 288 09:43 22.12.2021
4114 Rain 10 1014 85 10000 1.47 256 07:55 22.12.2021
4115 Rain 9 1030 81 10000 1.54 330 05:51 22.12.2021
4116 Rain 9 1030 81 10000 1.54 330 05:31 22.12.2021
4117 Drizzle 9 1030 81 10000 1.54 40 04:55 22.12.2021
4118 Drizzle 9 1030 81 10000 4.12 90 04:31 22.12.2021
4119 Rain 10 1030 76 10000 4.12 110 03:34 22.12.2021
4120 Rain 10 1029 76 10000 5.14 110 02:25 22.12.2021
4121 Clouds 15 1024 44 10000 3.09 0 23:47 21.12.2021
4122 Clouds 20 1022 35 10000 7.72 280 22:29 21.12.2021
4123 Clouds 19 1023 34 10000 4.12 310 21:53 21.12.2021
4124 Clouds 19 1023 34 10000 4.12 310 21:26 21.12.2021
4125 Clouds 19 1024 37 10000 5.14 280 20:23 21.12.2021
4126 Clouds 19 1025 32 10000 2.57 100 19:52 21.12.2021
4127 Clouds 19 1026 42 10000 4.12 100 19:26 21.12.2021
4128 Clouds 18 1027 39 10000 1.54 0 18:22 21.12.2021
4129 Clouds 19 1028 42 10000 2.57 0 17:51 21.12.2021
4130 Clouds 18 1029 39 10000 3.6 270 16:47 21.12.2021
4131 Clouds 15 1029 44 10000 2.57 300 15:33 21.12.2021
4132 Clouds 14 1029 55 10000 1.03 70 13:51 21.12.2021
4133 Haze 13 1029 58 10000 2.57 90 13:32 21.12.2021
4134 Clouds 11 1028 71 10000 2.57 90 12:20 21.12.2021
4135 Rain 9 1015 88 10000 1.66 297 10:37 21.12.2021
4136 Rain 10 1014 87 10000 1.52 307 09:41 21.12.2021
4137 Clouds 10 1014 86 10000 1.59 334 08:39 21.12.2021
4138 Clouds 10 1014 86 10000 1.69 345 07:35 21.12.2021
4139 Clouds 11 1014 85 10000 1.84 344 06:56 21.12.2021
4140 Clouds 11 1027 62 10000 1.54 310 03:22 21.12.2021
4141 Clouds 13 1025 51 10000 2.57 270 01:18 21.12.2021
4142 Clouds 18 1024 34 10000 3.6 280 23:54 20.12.2021
4143 Clouds 19 1024 32 10000 2.57 0 22:35 20.12.2021
4144 Clouds 19 1025 37 10000 2.06 0 21:48 20.12.2021
4145 Clouds 19 1025 34 10000 1.54 0 21:24 20.12.2021
4146 Clouds 19 1026 30 10000 1.54 0 20:50 20.12.2021
4147 Clouds 18 1028 32 10000 1.54 220 19:55 20.12.2021
4148 Clouds 18 1028 32 10000 1.54 220 19:55 20.12.2021
4149 Clouds 18 1028 32 10000 1.54 220 19:55 20.12.2021
4150 Clouds 18 1028 32 10000 1.54 220 19:34 20.12.2021
4151 Clouds 18 1029 34 10000 2.06 280 18:55 20.12.2021
4152 Clouds 17 1029 36 10000 2.06 350 18:25 20.12.2021
4153 Rain 17 1030 36 10000 2.06 290 17:46 20.12.2021
4154 Clouds 15 1031 48 10000 1.54 30 16:44 20.12.2021
4155 Clouds 14 1031 51 10000 2.06 290 15:52 20.12.2021
4156 Clouds 13 1032 58 10000 0 0 14:58 20.12.2021
4157 Clouds 10 1031 76 10000 1.03 90 13:31 20.12.2021
4158 Rain 9 1030 76 10000 0 0 11:36 20.12.2021
4159 Clouds 10 1015 85 10000 1.43 293 09:56 20.12.2021
4160 Clouds 10 1015 85 10000 1.43 293 09:32 20.12.2021
4161 Clouds 10 1015 84 10000 1.36 301 08:43 20.12.2021
4162 Clouds 10 1015 84 10000 0.67 355 07:57 20.12.2021
4163 Clouds 10 1015 84 10000 0.67 355 07:31 20.12.2021
4164 Clouds 11 1031 76 10000 1.54 90 05:25 20.12.2021
4165 Clouds 13 1026 58 10000 1.54 270 00:19 20.12.2021
4166 Clouds 14 1027 67 10000 1.03 130 22:55 19.12.2021
4167 Clouds 16 1026 45 10000 5.66 110 21:55 19.12.2021
4168 Clouds 18 1026 37 10000 3.09 90 21:31 19.12.2021
4169 Clouds 19 1026 37 10000 5.66 360 20:34 19.12.2021
4170 Clouds 18 1027 34 10000 3.6 10 19:52 19.12.2021
4171 Clouds 19 1028 32 10000 2.57 210 19:32 19.12.2021
4172 Clouds 17 1029 34 10000 3.09 80 18:30 19.12.2021
4173 Clouds 17 1030 34 10000 2.06 100 17:53 19.12.2021
4174 Clouds 17 1030 36 10000 1.54 0 17:20 19.12.2021
4175 Clouds 15 1031 48 10000 1.03 0 16:26 19.12.2021
4176 Clouds 15 1032 51 10000 1.54 60 15:43 19.12.2021
4177 Clouds 13 1032 62 10000 2.06 110 15:21 19.12.2021
4178 Clouds 11 1032 71 10000 2.06 90 14:42 19.12.2021
4179 Clouds 10 1031 71 10000 1.03 0 13:24 19.12.2021
4180 Clouds 9 1031 76 10000 1.03 100 12:46 19.12.2021
4181 Clouds 6 1031 87 10000 1.03 280 12:23 19.12.2021
4182 Clouds 5 1030 87 10000 2.06 280 11:21 19.12.2021
4183 Clouds 9 1018 89 10000 2.57 166 10:26 19.12.2021
4184 Clouds 9 1018 89 10000 2.57 166 09:42 19.12.2021
4185 Clouds 9 1017 88 10000 2.23 162 08:35 19.12.2021
4186 Clouds 9 1032 81 10000 1.03 310 04:45 19.12.2021
4187 Clouds 10 1031 76 10000 2.06 250 01:33 19.12.2021
4188 Clouds 11 1030 71 10000 3.6 80 00:52 19.12.2021
4189 Clouds 15 1028 48 10000 6.17 260 22:37 18.12.2021
4190 Clouds 14 1029 55 10000 7.72 290 21:58 18.12.2021
4191 Clouds 14 1029 55 10000 8.23 270 21:36 18.12.2021
4192 Clouds 15 1030 55 10000 7.2 280 20:44 18.12.2021
4193 Clouds 14 1030 55 10000 7.2 280 20:19 18.12.2021
4194 Clouds 13 1031 58 10000 5.66 290 19:25 18.12.2021
4195 Rain 15 1030 48 10000 4.63 350 18:22 18.12.2021
4196 Rain 15 1031 51 10000 4.12 20 17:48 18.12.2021
4197 Clouds 16 1032 48 10000 5.14 60 16:26 18.12.2021
4198 Clouds 14 1032 63 10000 1.54 0 15:27 18.12.2021
4199 Clouds 13 1032 72 10000 1.03 0 14:48 18.12.2021
4200 Clouds 11 1032 76 9000 1.03 0 13:21 18.12.2021
4201 Clouds 10 1030 82 8000 1.03 290 11:22 18.12.2021
4202 Clouds 9 1017 86 10000 1.04 39 09:40 18.12.2021
4203 Clouds 9 1017 87 10000 1.2 26 08:47 18.12.2021
4204 Clouds 9 1018 88 10000 1.27 25 08:23 18.12.2021
4205 Clouds 13 1031 58 10000 1.54 110 03:42 18.12.2021
4206 Clouds 16 1026 51 10000 4.12 100 00:29 18.12.2021
4207 Clouds 18 1026 45 10000 3.6 140 23:44 17.12.2021
4208 Clouds 18 1025 39 10000 4.63 360 21:57 17.12.2021
4209 Clouds 20 1025 28 10000 3.09 320 21:19 17.12.2021
4210 Clouds 21 1026 26 10000 3.09 40 20:40 17.12.2021
4211 Clouds 19 1028 37 10000 2.06 0 19:24 17.12.2021
4212 Clouds 19 1029 34 10000 2.06 270 18:38 17.12.2021
4213 Clouds 16 1031 39 10000 1.54 0 17:31 17.12.2021
4214 Clouds 16 1032 42 10000 1.54 50 16:46 17.12.2021
4215 Clouds 14 1032 51 10000 0.51 0 16:22 17.12.2021
4216 Clouds 13 1033 58 10000 0.51 0 15:25 17.12.2021
4217 Clouds 12 1033 62 10000 0.51 0 14:40 17.12.2021
4218 Clouds 8 1032 81 10000 1.54 100 12:47 17.12.2021
4219 Clouds 7 1031 87 10000 3.09 90 11:46 17.12.2021
4220 Clouds 9 1018 83 10000 1.57 190 10:37 17.12.2021
4221 Clouds 10 1017 80 10000 1.03 199 09:31 17.12.2021
4222 Clouds 10 1017 80 10000 0.98 201 08:30 17.12.2021
4223 Clouds 10 1018 82 10000 0.8 346 06:22 17.12.2021
4224 Clouds 12 1030 58 10000 2.06 90 02:53 17.12.2021
4225 Clouds 17 1026 42 10000 0.51 0 23:25 16.12.2021
4226 Clouds 17 1026 42 10000 1.54 300 22:24 16.12.2021
4227 Clouds 17 1026 42 10000 1.54 300 22:24 16.12.2021
4228 Clouds 17 1026 42 10000 1.54 300 22:24 16.12.2021
4229 Clouds 17 1026 42 10000 1.54 300 22:24 16.12.2021
4230 Clouds 17 1026 42 10000 1.54 300 22:23 16.12.2021
4231 Clouds 17 1026 42 10000 1.54 300 22:23 16.12.2021
4232 Clouds 18 1027 37 10000 1.54 0 21:44 16.12.2021
4233 Clouds 16 1028 45 10000 1.03 0 20:55 16.12.2021
4234 Clouds 16 1028 42 10000 2.06 0 20:27 16.12.2021
4235 Rain 15 1029 48 10000 3.09 360 19:33 16.12.2021
4236 Rain 16 1029 42 10000 1.03 0 18:37 16.12.2021
4237 Rain 15 1030 51 10000 1.54 0 17:48 16.12.2021
4238 Clouds 13 1031 54 10000 2.57 70 16:44 16.12.2021
4239 Clouds 13 1032 51 10000 1.54 0 16:18 16.12.2021
4240 Clouds 9 1032 81 10000 1.54 80 14:23 16.12.2021
4241 Clouds 8 1031 81 10000 1.03 90 12:30 16.12.2021
4242 Clouds 7 1030 81 10000 0.51 90 11:19 16.12.2021
4243 Clouds 9 1016 83 10000 0.77 351 10:45 16.12.2021
4244 Clouds 9 1015 83 10000 1.05 345 09:51 16.12.2021
4245 Clouds 9 1015 85 10000 1.48 357 07:19 16.12.2021
4246 Clouds 10 1016 84 10000 1.74 358 06:18 16.12.2021
4247 Clouds 16 1026 48 10000 2.43 7 00:35 16.12.2021
4248 Clouds 15 1025 48 10000 1.54 190 23:21 15.12.2021
4249 Clouds 13 1026 62 10000 3.6 70 22:22 15.12.2021
4250 Clouds 13 1026 67 10000 4.12 90 21:45 15.12.2021
4251 Rain 16 1026 51 10000 1.03 100 21:25 15.12.2021
4252 Clouds 16 1027 45 10000 1.54 100 19:54 15.12.2021
4253 Clouds 19 1027 32 10000 2.06 180 19:19 15.12.2021
4254 Clouds 18 1029 37 10000 3.6 70 18:26 15.12.2021
4255 Clouds 17 1030 42 10000 2.57 50 17:47 15.12.2021
4256 Clouds 17 1030 42 10000 2.57 50 17:21 15.12.2021
4257 Clouds 16 1031 48 10000 1.03 0 15:59 15.12.2021
4258 Clouds 15 1031 48 10000 1.03 0 15:41 15.12.2021
4259 Clouds 14 1032 62 10000 1.54 0 15:23 15.12.2021
4260 Clouds 10 1032 71 10000 0 0 13:48 15.12.2021
4261 Clouds 8 1031 81 9000 1.54 60 11:52 15.12.2021
4262 Clouds 8 1016 85 10000 0.55 259 10:22 15.12.2021
4263 Clouds 9 1016 84 10000 1.09 351 08:27 15.12.2021
4264 Clouds 14 1030 54 10000 3.09 110 05:54 15.12.2021
4265 Clouds 17 1025 36 10000 2.57 230 00:45 15.12.2021
4266 Clouds 18 1024 32 10000 4.12 290 23:32 14.12.2021
4267 Clouds 19 1024 34 10000 5.66 280 22:45 14.12.2021
4268 Clouds 20 1024 28 10000 3.6 230 21:47 14.12.2021
4269 Clouds 20 1026 32 10000 2.06 0 20:23 14.12.2021
4270 Clouds 19 1027 32 10000 1.54 0 19:39 14.12.2021
4271 Clouds 17 1028 36 10000 2.06 80 18:39 14.12.2021
4272 Clouds 16 1030 42 10000 2.06 290 17:57 14.12.2021
4273 Clouds 14 1031 47 10000 1.54 0 16:49 14.12.2021
4274 Clouds 13 1032 51 10000 1.03 0 16:30 14.12.2021
4275 Clouds 11 1032 62 10000 0 0 14:33 14.12.2021
4276 Clouds 9 1031 76 10000 1.54 110 13:22 14.12.2021
4277 Clouds 8 1030 81 10000 0.51 0 11:51 14.12.2021
4278 Clouds 8 1030 81 10000 1.54 100 11:22 14.12.2021
4279 Clouds 10 1014 84 10000 1.6 136 09:55 14.12.2021
4280 Clouds 10 1013 84 10000 2.34 145 09:19 14.12.2021
4281 Clouds 11 1013 82 10000 1.05 133 08:22 14.12.2021
4282 Clouds 11 1013 82 10000 1.05 133 07:42 14.12.2021
4283 Clouds 15 1025 51 10000 4.12 100 00:35 14.12.2021
4284 Clouds 19 1023 34 10000 5.66 20 22:33 13.12.2021
4285 Clouds 19 1023 37 10000 3.18 17 21:49 13.12.2021
4286 Clouds 22 1023 25 10000 4.12 290 20:58 13.12.2021
4287 Clouds 22 1024 27 10000 5.66 290 20:29 13.12.2021
4288 Clouds 21 1024 24 10000 5.14 270 19:50 13.12.2021
4289 Clouds 19 1027 13 10000 3.09 120 17:55 13.12.2021
4290 Clouds 19 1028 37 10000 1.54 100 17:19 13.12.2021
4291 Clouds 16 1029 42 10000 1.54 200 15:49 13.12.2021
4292 Clouds 14 1030 55 10000 1.54 250 14:55 13.12.2021
4293 Clouds 11 1030 62 10000 0.51 100 13:37 13.12.2021
4294 Clouds 8 1029 76 10000 1.54 90 12:41 13.12.2021
4295 Clouds 6 1028 81 10000 0 0 11:54 13.12.2021
4296 Clouds 5 1028 81 10000 0 0 11:34 13.12.2021
4297 Clouds 10 1014 89 10000 1.54 272 10:41 13.12.2021
4298 Clouds 10 1012 84 10000 1.96 285 08:45 13.12.2021
4299 Rain 11 1012 82 10000 2.22 317 06:56 13.12.2021
4300 Clouds 8 1028 71 10000 1.54 270 05:19 13.12.2021
4301 Clouds 14 1024 47 10000 3.09 260 00:41 13.12.2021
4302 Rain 18 1023 37 10000 5.14 290 21:59 12.12.2021
4303 Clouds 18 1024 34 10000 4.63 290 21:29 12.12.2021
4304 Clouds 18 1025 32 10000 4.12 290 19:38 12.12.2021
4305 Rain 16 1027 39 10000 2.57 50 18:24 12.12.2021
4306 Clouds 14 1028 44 10000 3.09 250 16:47 12.12.2021
4307 Clouds 14 1029 47 10000 2.57 270 16:22 12.12.2021
4308 Clouds 13 1028 47 10000 2.06 250 15:28 12.12.2021
4309 Clouds 13 1028 51 10000 2.57 290 14:54 12.12.2021
4310 Clouds 12 1028 54 10000 1.54 240 14:22 12.12.2021
4311 Clouds 9 1026 76 10000 2.57 280 12:51 12.12.2021
4312 Clouds 9 1026 76 10000 2.57 280 12:23 12.12.2021
4313 Clouds 9 1026 76 10000 2.57 280 12:23 12.12.2021
4314 Clouds 10 1026 71 10000 3.09 280 11:43 12.12.2021
4315 Clouds 9 1013 89 10000 1.23 276 10:44 12.12.2021
4316 Clouds 9 1013 89 10000 1.22 276 10:44 12.12.2021
4317 Clouds 9 1012 87 10000 1.43 283 10:21 12.12.2021
4318 Clouds 10 1011 85 10000 1.12 286 08:50 12.12.2021
4319 Clouds 10 1011 83 10000 0.87 279 07:30 12.12.2021
4320 Clouds 10 1026 71 10000 1.03 0 05:56 12.12.2021
4321 Clouds 10 1025 71 10000 1.03 0 04:55 12.12.2021
4322 Clouds 12 1024 62 10000 1.54 230 02:52 12.12.2021
4323 Clouds 19 1021 32 10000 2.57 300 23:28 11.12.2021
4324 Clouds 21 1022 33 10000 5.14 320 22:21 11.12.2021
4325 Clouds 20 1022 30 10000 5.14 320 21:47 11.12.2021
4326 Clouds 21 1024 32 10000 3.09 320 20:21 11.12.2021
4327 Clouds 18 1025 37 10000 5.66 270 19:21 11.12.2021
4328 Clouds 18 1025 37 10000 5.66 270 19:21 11.12.2021
4329 Clouds 18 1026 42 10000 4.63 210 18:49 11.12.2021
4330 Clouds 16 1027 51 10000 2.06 50 17:56 11.12.2021
4331 Clouds 15 1029 51 10000 2.06 260 16:40 11.12.2021
4332 Clouds 14 1029 55 10000 1.54 240 15:46 11.12.2021
4333 Clouds 12 1029 62 10000 2.06 130 14:54 11.12.2021
4334 Clouds 8 1029 81 10000 0 0 12:41 11.12.2021
4335 Clouds 8 1028 81 10000 1.54 140 11:18 11.12.2021
4336 Clouds 9 1014 84 10000 1.12 167 09:45 11.12.2021
4337 Clouds 10 1014 88 10000 2.93 136 07:30 11.12.2021
4338 Clouds 12 1026 71 9000 1.03 130 00:50 11.12.2021
4339 Rain 14 1025 58 8000 1.03 0 23:45 10.12.2021
4340 Rain 15 1024 55 10000 3.09 170 23:18 10.12.2021
4341 Rain 17 1024 45 10000 3.09 280 21:52 10.12.2021
4342 Clouds 19 1025 34 10000 1.54 0 20:56 10.12.2021
4343 Clouds 16 1028 45 10000 2.06 120 19:20 10.12.2021
4344 Clouds 14 1030 55 10000 1.54 0 17:54 10.12.2021
4345 Clouds 12 1031 58 10000 2.06 120 16:55 10.12.2021
4346 Clouds 12 1032 62 10000 3.6 110 15:47 10.12.2021
4347 Clouds 13 1032 58 10000 1.03 0 15:29 10.12.2021
4348 Clouds 12 1032 58 10000 1.03 0 14:57 10.12.2021
4349 Clouds 11 1031 66 10000 0 0 13:50 10.12.2021
4350 Clouds 9 1031 76 10000 1.03 0 13:20 10.12.2021
4351 Clouds 8 1031 81 10000 0 0 12:23 10.12.2021
4352 Clouds 8 1030 87 9000 1.54 90 11:27 10.12.2021
4353 Clouds 10 1015 88 10000 1.29 123 09:54 10.12.2021
4354 Clouds 10 1015 88 10000 1.29 123 09:54 10.12.2021
4355 Clouds 10 1015 89 10000 1.45 120 08:23 10.12.2021
4356 Clouds 11 1032 66 10000 3.6 270 05:56 10.12.2021
4357 Rain 13 1030 51 10000 2.06 0 02:47 10.12.2021
4358 Clouds 14 1027 51 10000 2.57 10 23:44 09.12.2021
4359 Drizzle 13 1027 72 10000 5.66 280 22:50 09.12.2021
4360 Clouds 14 1027 58 10000 5.14 290 22:23 09.12.2021
4361 Clouds 14 1027 63 10000 5.14 290 21:48 09.12.2021
4362 Rain 14 1027 55 10000 3.09 280 20:41 09.12.2021
4363 Clouds 13 1028 62 10000 5.14 290 20:20 09.12.2021
4364 Clouds 15 1028 63 10000 6.69 290 19:21 09.12.2021
4365 Clouds 17 1029 45 10000 1.03 0 18:25 09.12.2021
4366 Drizzle 15 1030 55 10000 1.54 0 17:51 09.12.2021
4367 Clouds 15 1030 55 10000 1.03 160 17:25 09.12.2021
4368 Clouds 14 1031 63 10000 4.63 100 16:51 09.12.2021
4369 Rain 13 1032 62 10000 1.54 0 15:31 09.12.2021
4370 Clouds 14 1032 62 10000 1.03 0 14:43 09.12.2021
4371 Clouds 10 1031 76 10000 0 0 13:18 09.12.2021
4372 Clouds 9 1031 81 10000 2.06 120 12:34 09.12.2021
4373 Clouds 10 1016 82 10000 1.51 80 10:50 09.12.2021
4374 Clouds 10 1016 82 10000 1.31 61 08:38 09.12.2021
4375 Clouds 11 1032 71 9000 4.12 260 05:54 09.12.2021
4376 Clouds 14 1030 63 10000 0.51 0 01:52 09.12.2021
4377 Clouds 15 1027 51 10000 1.54 100 23:42 08.12.2021
4378 Drizzle 13 1027 71 10000 2.57 280 23:20 08.12.2021
4379 Clouds 13 1027 72 10000 2.57 290 22:45 08.12.2021
4380 Thunderstorm 14 1027 58 10000 9.77 300 21:39 08.12.2021
4381 Clouds 19 1027 39 10000 6.17 20 20:59 08.12.2021
4382 Clouds 21 1028 30 10000 1.54 0 19:58 08.12.2021
4383 Clouds 20 1028 30 10000 1.54 0 19:33 08.12.2021
4384 Clouds 17 1031 42 10000 1.54 0 18:31 08.12.2021
4385 Clouds 16 1032 48 10000 2.06 60 17:26 08.12.2021
4386 Clouds 14 1033 51 10000 0.51 0 15:47 08.12.2021
4387 Clouds 12 1034 58 10000 1.54 250 15:26 08.12.2021
4388 Clouds 11 1034 62 10000 2.57 290 14:28 08.12.2021
4389 Clouds 7 1020 91 10000 2.42 161 10:54 08.12.2021
4390 Clouds 8 1020 91 10000 2.55 164 10:28 08.12.2021
4391 Clouds 8 1019 91 10000 2.85 162 08:54 08.12.2021
4392 Clouds 9 1018 86 4873 3.23 145 07:21 08.12.2021
4393 Clouds 15 1030 58 10000 2.06 130 01:40 08.12.2021
4394 Clouds 16 1028 51 10000 0 0 23:33 07.12.2021
4395 Clouds 17 1028 48 10000 0 0 21:26 07.12.2021
4396 Clouds 15 1028 48 10000 4.12 210 20:54 07.12.2021
4397 Clouds 17 1029 39 10000 4.12 20 19:50 07.12.2021
4398 Clouds 19 1029 40 10000 4.63 20 18:42 07.12.2021
4399 Clouds 17 1032 45 10000 2.57 50 17:27 07.12.2021
4400 Clouds 16 1032 45 10000 2.06 0 16:58 07.12.2021
4401 Clouds 15 1033 51 10000 1.54 0 16:28 07.12.2021
4402 Clouds 13 1033 54 10000 2.57 110 14:57 07.12.2021
4403 Clouds 13 1033 58 10000 1.54 80 13:49 07.12.2021
4404 Clouds 10 1033 76 10000 1.03 290 12:47 07.12.2021
4405 Clouds 10 1018 84 10000 0.94 36 11:25 07.12.2021
4406 Clouds 10 1018 84 10000 1.03 28 09:55 07.12.2021
4407 Clouds 10 1018 84 10000 1.17 21 07:55 07.12.2021
4408 Clouds 12 1034 58 10000 0 0 05:55 07.12.2021
4409 Clouds 12 1034 58 10000 0 0 05:30 07.12.2021
4410 Clouds 14 1029 47 10000 5.14 20 23:45 06.12.2021
4411 Clouds 17 1029 39 10000 5.66 20 22:44 06.12.2021
4412 Clouds 17 1028 39 10000 5.66 20 22:22 06.12.2021
4413 Clouds 17 1028 39 10000 5.66 30 21:46 06.12.2021
4414 Clouds 17 1029 42 10000 2.57 130 20:33 06.12.2021
4415 Clouds 16 1031 45 10000 1.03 0 19:27 06.12.2021
4416 Clouds 16 1032 48 10000 1.54 100 18:59 06.12.2021
4417 Clouds 14 1033 55 10000 2.57 0 17:56 06.12.2021
4418 Clouds 14 1033 55 10000 2.57 0 17:37 06.12.2021
4419 Drizzle 10 1035 71 9000 1.03 0 16:21 06.12.2021
4420 Drizzle 9 1035 81 9000 1.54 110 15:38 06.12.2021
4421 Drizzle 8 1034 87 6000 3.09 100 13:45 06.12.2021
4422 Drizzle 7 1034 87 6000 3.09 110 12:39 06.12.2021
4423 Clouds 8 1020 89 9550 1.67 41 10:32 06.12.2021
4424 Clouds 9 1018 89 7171 1.97 42 08:35 06.12.2021
4425 Rain 11 1033 62 10000 2.57 100 04:28 06.12.2021
4426 Clouds 15 1028 44 10000 1.03 0 22:52 05.12.2021
4427 Rain 17 1028 48 10000 4.63 90 21:26 05.12.2021
4428 Rain 16 1028 45 10000 4.12 100 20:59 05.12.2021
4429 Clouds 15 1028 55 10000 5.66 20 20:19 05.12.2021
4430 Rain 18 1029 37 10000 2.57 120 19:33 05.12.2021
4431 Clouds 19 1029 34 10000 1.54 0 18:41 05.12.2021
4432 Clouds 18 1030 37 10000 0.51 20 18:19 05.12.2021
4433 Clouds 16 1031 48 10000 2.57 300 17:47 05.12.2021
4434 Clouds 16 1032 45 10000 2.06 40 16:45 05.12.2021
4435 Clouds 16 1032 42 10000 1.54 0 16:26 05.12.2021
4436 Clouds 12 1034 67 10000 1.54 80 14:49 05.12.2021
4437 Clouds 10 1034 76 10000 0 0 14:31 05.12.2021
4438 Rain 9 1034 81 10000 0 0 13:50 05.12.2021
4439 Rain 8 1033 87 10000 0 0 13:22 05.12.2021
4440 Clouds 8 1032 87 10000 1.54 280 12:31 05.12.2021
4441 Rain 8 1031 81 10000 1.03 0 11:57 05.12.2021
4442 Clouds 7 1031 87 10000 1.03 290 11:20 05.12.2021
4443 Clouds 8 1018 90 10000 1.51 47 09:59 05.12.2021
4444 Clouds 10 1018 87 10000 1.72 43 07:55 05.12.2021
4445 Rain 10 1032 76 10000 1.54 100 02:28 05.12.2021
4446 Rain 13 1029 58 10000 2.06 130 23:34 04.12.2021
4447 Rain 13 1028 58 10000 5.66 280 21:54 04.12.2021
4448 Clouds 15 1028 55 10000 5.66 280 20:55 04.12.2021
4449 Rain 17 1028 48 10000 5.66 290 19:55 04.12.2021
4450 Clouds 17 1029 45 10000 4.63 310 19:31 04.12.2021
4451 Clouds 16 1030 48 10000 3.6 260 17:59 04.12.2021
4452 Drizzle 16 1031 48 10000 2.06 90 17:38 04.12.2021
4453 Clouds 16 1032 51 10000 1.54 0 16:48 04.12.2021
4454 Drizzle 13 1032 62 10000 1.54 170 16:30 04.12.2021
4455 Clouds 13 1033 62 10000 1.54 0 15:18 04.12.2021
4456 Drizzle 8 1031 87 10000 1.54 330 11:50 04.12.2021
4457 Clouds 8 1030 87 9000 0.51 0 11:32 04.12.2021
4458 Clouds 10 1016 87 10000 0.92 19 10:43 04.12.2021
4459 Clouds 10 1014 85 10000 0.34 357 08:46 04.12.2021
4460 Clouds 11 1015 83 10000 1.08 8 06:24 04.12.2021
4461 Clouds 11 1030 76 10000 1.03 90 04:41 04.12.2021
4462 Rain 13 1026 62 10000 3.09 290 23:49 03.12.2021
4463 Rain 14 1025 67 10000 1.54 290 22:57 03.12.2021
4464 Drizzle 14 1025 67 10000 1.54 290 22:57 03.12.2021
4465 Drizzle 15 1025 67 10000 1.54 290 22:38 03.12.2021
4466 Rain 19 1025 32 10000 2.57 10 21:25 03.12.2021
4467 Clouds 19 1025 32 10000 3.09 10 20:48 03.12.2021
4468 Clouds 19 1026 28 10000 1.03 0 19:50 03.12.2021
4469 Clouds 18 1028 34 10000 1.54 0 18:34 03.12.2021
4470 Clouds 17 1029 36 10000 0.51 350 17:59 03.12.2021
4471 Clouds 12 1032 58 10000 1.03 0 14:47 03.12.2021
4472 Clouds 8 1031 81 10000 1.03 100 12:54 03.12.2021
4473 Clouds 8 1030 87 10000 0 0 11:39 03.12.2021
4474 Clouds 9 1017 87 10000 2.22 177 10:51 03.12.2021
4475 Clouds 10 1015 87 10000 1.58 199 08:25 03.12.2021
4476 Clouds 10 1015 87 10000 1.58 199 07:42 03.12.2021
4477 Clouds 9 1032 81 8000 2.06 80 04:26 03.12.2021
4478 Clouds 12 1028 67 10000 2.06 300 00:48 03.12.2021
4479 Clouds 13 1026 62 10000 2.06 320 23:47 02.12.2021
4480 Clouds 14 1025 58 10000 5.14 60 21:57 02.12.2021
4481 Clouds 15 1026 59 10000 5.66 80 21:30 02.12.2021
4482 Rain 18 1026 42 10000 3.09 0 20:38 02.12.2021
4483 Clouds 17 1029 42 10000 2.06 0 19:43 02.12.2021
4484 Clouds 17 1029 42 10000 2.06 0 18:33 02.12.2021
4485 Clouds 17 1029 42 10000 2.06 0 18:33 02.12.2021
4486 Clouds 12 1032 58 10000 0.51 140 15:43 02.12.2021
4487 Clouds 11 1032 66 10000 0 0 15:20 02.12.2021
4488 Rain 10 1032 71 10000 0.51 110 14:43 02.12.2021
4489 Rain 8 1031 81 10000 0.51 0 12:53 02.12.2021
4490 Clouds 7 1031 87 10000 0.51 0 12:18 02.12.2021
4491 Clouds 9 1017 84 10000 1.43 156 10:38 02.12.2021
4492 Clouds 9 1017 86 10000 1.98 192 08:59 02.12.2021
4493 Clouds 11 1032 82 10000 0.51 350 05:34 02.12.2021
4494 Clouds 13 1012 72 10000 2.3 327 00:53 02.12.2021
4495 Clouds 14 1010 68 10000 2.21 324 23:30 01.12.2021
4496 Clouds 16 1008 61 10000 2.85 341 22:25 01.12.2021
4497 Clouds 16 1008 61 9701 2.81 353 21:21 01.12.2021
4498 Clouds 16 1009 59 10000 3.02 351 19:58 01.12.2021
4499 Clouds 16 1009 59 10000 3.02 351 19:34 01.12.2021
4500 Clouds 16 1012 51 10000 1.13 288 17:50 01.12.2021
4501 Clouds 15 1014 55 10000 1.15 211 16:58 01.12.2021
4502 Clouds 13 1017 66 10000 0.9 186 15:20 01.12.2021
4503 Rain 11 1017 74 10000 0.99 166 13:49 01.12.2021
4504 Rain 11 1017 74 10000 0.99 166 13:30 01.12.2021
4505 Clouds 9 1017 86 10000 1.43 170 10:43 01.12.2021
4506 Clouds 9 1016 85 10000 1.15 166 09:56 01.12.2021
4507 Clouds 9 1015 86 10000 0.28 109 08:40 01.12.2021
4508 Clouds 9 1015 85 10000 0.54 10 07:38 01.12.2021
4509 Clouds 10 1015 85 10000 1.25 336 07:19 01.12.2021
4510 Clouds 10 1015 85 10000 1.25 336 07:19 01.12.2021
4511 Clouds 12 1030 67 10000 1.03 290 03:50 01.12.2021
4512 Clouds 11 1029 71 10000 1.54 280 02:34 01.12.2021
4513 Clouds 15 1025 51 10000 2.06 100 23:57 30.11.2021
4514 Clouds 14 1025 55 10000 2.06 140 23:28 30.11.2021
4515 Clouds 15 1026 51 10000 4.63 0 22:22 30.11.2021
4516 Clouds 18 1025 37 10000 4.12 10 20:46 30.11.2021
4517 Clouds 17 1026 42 10000 5.14 40 20:23 30.11.2021
4518 Clouds 18 1027 39 10000 3.6 20 19:38 30.11.2021
4519 Clouds 17 1028 42 10000 1.03 0 18:42 30.11.2021
4520 Clouds 15 1030 48 10000 2.57 0 17:21 30.11.2021
4521 Clouds 14 1031 58 10000 1.54 0 15:50 30.11.2021
4522 Clouds 11 1031 71 9000 2.06 0 14:29 30.11.2021
4523 Clouds 9 1031 76 9000 1.54 100 13:29 30.11.2021
4524 Clouds 8 1031 81 9000 2.06 90 12:53 30.11.2021
4525 Mist 7 1030 87 10000 1.54 110 11:52 30.11.2021
4526 Clouds 7 1029 87 10000 1.54 110 11:25 30.11.2021
4527 Clouds 9 1016 85 10000 1.17 285 10:35 30.11.2021
4528 Rain 9 1015 84 10000 1.4 282 08:54 30.11.2021
4529 Rain 9 1015 84 10000 1.4 282 08:31 30.11.2021
4530 Rain 9 1015 83 10000 1.64 289 07:48 30.11.2021
4531 Rain 14 1029 58 10000 1.54 270 04:59 30.11.2021
4532 Clouds 14 1026 55 10000 5.14 280 01:45 30.11.2021
4533 Clouds 14 1025 55 10000 4.63 300 00:33 30.11.2021
4534 Clouds 14 1025 55 10000 6.69 280 23:25 29.11.2021
4535 Clouds 15 1025 51 10000 7.2 300 22:58 29.11.2021
4536 Clouds 15 1025 51 10000 7.2 300 22:34 29.11.2021
4537 Clouds 17 1024 42 10000 2.57 0 21:44 29.11.2021
4538 Rain 16 1025 48 10000 2.57 360 21:18 29.11.2021
4539 Rain 17 1025 39 10000 2.57 250 20:44 29.11.2021
4540 Clouds 16 1026 45 10000 5.14 270 19:57 29.11.2021
4541 Rain 16 1027 45 10000 7.2 300 19:38 29.11.2021
4542 Clouds 17 1027 42 10000 3.09 360 18:56 29.11.2021
4543 Clouds 15 1011 61 10000 1.96 351 18:37 29.11.2021
4544 Clouds 16 1012 51 10000 2.53 319 17:21 29.11.2021
4545 Clouds 16 1012 51 10000 2.53 319 16:33 29.11.2021
4546 Clouds 16 1013 51 10000 1.65 299 15:55 29.11.2021
4547 Clouds 14 1015 58 10000 1.37 303 14:45 29.11.2021
4548 Clouds 12 1016 66 10000 1.42 304 13:47 29.11.2021
4549 Clouds 11 1017 75 10000 1.22 301 12:56 29.11.2021
4550 Clouds 9 1017 82 10000 1.12 303 11:51 29.11.2021
4551 Clouds 8 1016 85 10000 1.7 314 10:59 29.11.2021
4552 Clouds 8 1015 86 10000 1.7 316 09:56 29.11.2021
4553 Clouds 9 1015 86 10000 2.11 325 06:43 29.11.2021
4554 Clouds 12 1030 67 10000 3.6 270 04:53 29.11.2021
4555 Clouds 15 1026 51 10000 5.14 290 00:44 29.11.2021
4556 Clouds 16 1025 45 10000 3.6 360 23:47 28.11.2021
4557 Clouds 16 1025 45 10000 3.6 360 23:28 28.11.2021
4558 Clouds 17 1025 42 10000 1.54 350 21:53 28.11.2021
4559 Clouds 17 1025 42 10000 1.54 350 21:28 28.11.2021
4560 Rain 16 1026 45 10000 2.57 260 20:36 28.11.2021
4561 Clouds 15 1028 44 10000 1.03 80 19:29 28.11.2021
4562 Clouds 15 1028 51 10000 1.54 70 18:40 28.11.2021
4563 Clouds 14 1029 51 10000 1.03 100 17:57 28.11.2021
4564 Clouds 14 1029 51 10000 1.03 100 17:32 28.11.2021
4565 Clouds 15 1029 51 10000 0 0 16:44 28.11.2021
4566 Clouds 14 1030 51 10000 1.03 0 16:26 28.11.2021
4567 Clouds 14 1030 47 10000 2.06 0 15:43 28.11.2021
4568 Clouds 14 1030 55 10000 1.03 90 14:50 28.11.2021
4569 Clouds 12 1030 62 10000 0 0 13:51 28.11.2021
4570 Clouds 8 1030 81 10000 1.54 290 12:54 28.11.2021
4571 Clouds 5 1029 87 10000 0 0 11:21 28.11.2021
4572 Clouds 9 1016 87 10000 1.12 223 10:22 28.11.2021
4573 Clouds 9 1016 87 10000 1.12 223 09:40 28.11.2021
4574 Clouds 9 1016 87 10000 1.04 233 08:21 28.11.2021
4575 Clouds 11 1028 66 10000 4.63 290 00:49 28.11.2021
4576 Clouds 12 1028 71 10000 5.14 300 21:46 27.11.2021
4577 Rain 11 1029 76 8000 4.63 290 19:50 27.11.2021
4578 Clouds 12 1030 67 9000 3.09 70 18:20 27.11.2021
4579 Clouds 10 1032 71 9000 2.57 110 15:59 27.11.2021
4580 Clouds 10 1031 76 9000 1.54 90 14:35 27.11.2021
4581 Rain 8 1031 87 9000 1.54 100 13:21 27.11.2021
4582 Clouds 8 1029 87 10000 2.57 120 11:23 27.11.2021
4583 Rain 8 1016 85 10000 1.11 304 10:19 27.11.2021
4584 Clouds 9 1016 84 10000 1.04 299 08:53 27.11.2021
4585 Rain 9 1016 86 10000 0.85 281 06:58 27.11.2021
4586 Clouds 10 1031 76 10000 1.03 120 03:57 27.11.2021
4587 Clouds 11 1028 66 10000 2.57 120 00:23 27.11.2021
4588 Rain 11 1028 71 10000 3.6 100 22:50 26.11.2021
4589 Rain 12 1028 71 10000 4.12 110 22:23 26.11.2021
4590 Rain 11 1029 71 10000 2.57 50 21:23 26.11.2021
4591 Rain 11 1029 76 10000 2.57 50 20:41 26.11.2021
4592 Rain 11 1030 71 10000 4.12 110 19:55 26.11.2021
4593 Rain 13 1030 62 10000 5.14 290 18:47 26.11.2021
4594 Clouds 14 1030 54 10000 3.6 70 17:40 26.11.2021
4595 Clouds 13 1030 54 10000 3.6 70 17:20 26.11.2021
4596 Clouds 15 1032 48 10000 1.03 340 15:21 26.11.2021
4597 Clouds 13 1032 58 10000 1.03 350 13:35 26.11.2021
4598 Clouds 10 1016 82 10000 0.34 333 10:45 26.11.2021
4599 Clouds 10 1015 84 10000 0.54 328 09:54 26.11.2021
4600 Clouds 10 1015 84 10000 0.91 326 08:53 26.11.2021
4601 Clouds 10 1015 85 10000 1.03 342 08:20 26.11.2021
4602 Clouds 10 1015 83 10000 1.23 347 06:41 26.11.2021
4603 Clouds 11 1016 78 10000 1.43 9 06:22 26.11.2021
4604 Clouds 10 1032 76 10000 1.54 120 03:44 26.11.2021
4605 Clouds 10 1030 76 6000 1.54 90 00:47 26.11.2021
4606 Clouds 15 1026 48 10000 5.14 120 22:36 25.11.2021
4607 Clouds 22 1025 27 10000 5.66 290 20:53 25.11.2021
4608 Clouds 22 1026 27 10000 4.63 280 19:54 25.11.2021
4609 Clouds 19 1029 32 10000 2.57 250 18:38 25.11.2021
4610 Clouds 20 1031 30 10000 2.57 0 17:28 25.11.2021
4611 Clouds 18 1031 32 10000 0 0 16:56 25.11.2021
4612 Clouds 17 1032 34 10000 2.57 0 16:28 25.11.2021
4613 Clouds 15 1033 41 10000 2.06 0 14:52 25.11.2021
4614 Clouds 12 1033 62 10000 0 0 13:21 25.11.2021
4615 Clouds 10 1032 66 10000 0 0 12:19 25.11.2021
4616 Rain 9 1017 84 10000 0.23 84 10:50 25.11.2021
4617 Clouds 10 1016 82 10000 0.13 247 08:42 25.11.2021
4618 Clouds 12 1030 50 10000 1.03 180 03:42 25.11.2021
4619 Clouds 12 1030 50 10000 1.03 180 02:44 25.11.2021
4620 Clouds 16 1027 36 10000 4.63 340 22:43 24.11.2021
4621 Clouds 17 1028 36 10000 4.12 70 22:20 24.11.2021
4622 Clouds 16 1028 42 10000 4.63 360 21:27 24.11.2021
4623 Clouds 17 1029 39 10000 3.09 0 20:28 24.11.2021
4624 Clouds 16 1029 42 10000 2.57 0 19:46 24.11.2021
4625 Clouds 16 1031 48 10000 4.63 20 18:29 24.11.2021
4626 Clouds 14 1033 55 10000 0 0 16:53 24.11.2021
4627 Clouds 11 1033 66 10000 0 0 15:22 24.11.2021
4628 Clouds 10 1033 76 9000 0 0 14:31 24.11.2021
4629 Clouds 10 1037 76 8000 0 0 13:51 24.11.2021
4630 Clouds 9 1031 81 9000 1.03 120 11:49 24.11.2021
4631 Clouds 9 1031 81 10000 1.54 100 11:19 24.11.2021
4632 Clouds 9 1019 85 10000 1.38 66 10:38 24.11.2021
4633 Clouds 9 1018 86 10000 1.55 84 09:40 24.11.2021
4634 Clouds 9 1017 88 8660 0.74 124 07:42 24.11.2021
4635 Clouds 10 1018 81 10000 1.23 92 06:21 24.11.2021
4636 Clouds 10 1032 76 10000 3.6 100 03:48 24.11.2021
4637 Rain 13 1028 62 10000 2.57 110 23:42 23.11.2021
4638 Rain 15 1027 51 10000 7.2 120 22:39 23.11.2021
4639 Clouds 15 1010 57 10000 3.39 342 21:46 23.11.2021
4640 Rain 20 1025 32 10000 2.06 0 20:48 23.11.2021
4641 Clouds 10 1026 54 10000 1.54 220 19:37 23.11.2021
4642 Clouds 18 1030 34 10000 4.12 360 18:37 23.11.2021
4643 Clouds 18 1030 34 10000 2.57 140 17:57 23.11.2021
4644 Clouds 17 1031 42 10000 1.03 0 16:54 23.11.2021
4645 Clouds 16 1032 45 10000 2.06 90 15:57 23.11.2021
4646 Clouds 15 1032 48 10000 1.03 310 15:19 23.11.2021
4647 Clouds 14 1032 62 10000 3.09 100 13:43 23.11.2021
4648 Clouds 11 1016 73 10000 0.4 241 10:41 23.11.2021
4649 Clouds 11 1016 72 10000 0.17 288 09:57 23.11.2021
4650 Rain 11 1016 74 10000 0.16 50 08:43 23.11.2021
4651 Rain 12 1031 71 10000 0 0 05:57 23.11.2021
4652 Clouds 14 1030 55 10000 5.14 110 03:39 23.11.2021
4653 Clouds 18 1025 37 10000 3.6 260 23:43 22.11.2021
4654 Clouds 20 1024 34 10000 3.09 240 23:20 22.11.2021
4655 Clouds 20 1024 32 10000 2.57 40 22:32 22.11.2021
4656 Clouds 21 1024 30 10000 3.6 350 21:45 22.11.2021
4657 Clouds 21 1024 30 10000 5.14 290 21:21 22.11.2021
4658 Clouds 21 1025 33 10000 2.06 10 20:49 22.11.2021
4659 Clouds 20 1028 30 10000 1.03 160 19:26 22.11.2021
4660 Clouds 18 1029 37 10000 1.03 0 18:50 22.11.2021
4661 Clouds 18 1029 34 10000 2.06 110 18:31 22.11.2021
4662 Clouds 14 1031 51 10000 3.6 100 16:50 22.11.2021
4663 Clouds 15 1032 55 10000 2.57 0 15:39 22.11.2021
4664 Clouds 11 1031 71 10000 0 0 12:52 22.11.2021
4665 Clouds 10 1030 71 10000 1.03 160 11:39 22.11.2021
4666 Clouds 9 1017 81 10000 0.75 346 10:36 22.11.2021
4667 Clouds 9 1016 82 10000 0.91 1 08:44 22.11.2021
4668 Clouds 9 1016 82 10000 1.09 31 08:24 22.11.2021
4669 Clouds 14 1029 51 10000 1.54 140 02:31 22.11.2021
4670 Clouds 18 1025 34 10000 3.6 360 23:22 21.11.2021
4671 Clouds 19 1025 32 10000 3.6 360 22:46 21.11.2021
4672 Clouds 20 1025 30 10000 2.57 20 21:33 21.11.2021
4673 Clouds 18 1027 34 10000 4.12 20 20:38 21.11.2021
4674 Clouds 20 1028 32 10000 3.6 110 19:43 21.11.2021
4675 Clouds 19 1028 32 10000 3.6 110 19:43 21.11.2021
4676 Clouds 17 1030 42 10000 1.54 0 17:59 21.11.2021
4677 Clouds 17 1030 42 10000 1.54 0 17:36 21.11.2021
4678 Clouds 15 1033 51 10000 2.57 110 15:22 21.11.2021
4679 Clouds 13 1033 54 10000 1.54 190 14:43 21.11.2021
4680 Clouds 11 1032 66 10000 1.03 100 13:31 21.11.2021
4681 Clouds 10 1031 76 10000 0.51 110 12:27 21.11.2021
4682 Clouds 9 1031 76 10000 1.03 100 11:39 21.11.2021
4683 Clouds 9 1016 82 10000 1.16 346 10:20 21.11.2021
4684 Clouds 9 1017 84 10000 1.06 1 09:48 21.11.2021
4685 Clouds 9 1016 84 10000 1.11 1 08:34 21.11.2021
4686 Clouds 9 1016 83 10000 1.25 349 07:54 21.11.2021
4687 Clouds 9 1016 83 10000 1.25 349 07:33 21.11.2021
4688 Clouds 10 1017 82 10000 1.41 327 05:47 21.11.2021
4689 Clouds 10 1018 82 10000 1.7 329 04:35 21.11.2021
4690 Clouds 11 1031 66 10000 1.54 280 03:18 21.11.2021
4691 Clouds 11 1031 66 10000 1.54 280 02:42 21.11.2021
4692 Clouds 12 1029 67 10000 5.66 290 00:53 21.11.2021
4693 Clouds 13 1028 58 10000 5.14 300 23:22 20.11.2021
4694 Clouds 15 1028 51 10000 6.69 300 21:39 20.11.2021
4695 Clouds 15 1028 48 10000 1.54 320 20:39 20.11.2021
4696 Drizzle 12 1031 67 10000 0.51 270 18:46 20.11.2021
4697 Drizzle 12 1031 67 10000 0.51 270 18:46 20.11.2021
4698 Drizzle 10 1032 71 10000 1.03 250 18:25 20.11.2021
4699 Clouds 10 1033 66 10000 1.54 280 17:22 20.11.2021
4700 Clouds 9 1033 81 10000 0 0 15:54 20.11.2021
4701 Clouds 9 1033 81 10000 0 0 14:40 20.11.2021
4702 Clouds 8 1032 87 10000 0 0 14:21 20.11.2021
4703 Clouds 8 1030 87 10000 1.54 110 11:56 20.11.2021
4704 Clouds 8 1017 85 10000 1.1 197 10:29 20.11.2021
4705 Clouds 8 1017 86 10000 1.56 200 08:57 20.11.2021
4706 Clouds 8 1018 88 10000 2.16 182 07:20 20.11.2021
4707 Clouds 12 1030 66 10000 0 0 05:25 20.11.2021
4708 Clouds 11 1030 66 10000 0 0 04:50 20.11.2021
4709 Clouds 10 1029 71 10000 1.54 130 01:41 20.11.2021
4710 Drizzle 11 1027 71 10000 5.14 110 00:38 20.11.2021
4711 Clouds 17 1024 39 10000 4.12 280 22:55 19.11.2021
4712 Clouds 15 1024 44 10000 5.14 290 21:57 19.11.2021
4713 Clouds 14 1025 58 10000 8.23 280 20:54 19.11.2021
4714 Clouds 14 1025 58 10000 8.23 280 20:36 19.11.2021
4715 Clouds 20 1025 40 10000 7.72 290 19:49 19.11.2021
4716 Clouds 17 1027 36 10000 1.54 220 18:51 19.11.2021
4717 Drizzle 18 1027 37 10000 2.57 340 18:19 19.11.2021
4718 Clouds 18 1029 37 10000 2.06 270 16:47 19.11.2021
4719 Clouds 18 1030 36 10000 2.57 80 15:32 19.11.2021
4720 Clouds 13 1030 58 10000 0.51 360 13:24 19.11.2021
4721 Clouds 10 1013 83 10000 1.9 320 10:27 19.11.2021
4722 Clouds 11 1013 82 10000 1.98 319 09:33 19.11.2021
4723 Clouds 11 1013 81 10000 1.96 337 07:41 19.11.2021
4724 Clouds 13 1028 54 10000 2.57 150 04:29 19.11.2021
4725 Clouds 14 1027 55 10000 4.12 120 02:26 19.11.2021
4726 Clouds 16 1024 45 10000 3.6 110 23:51 18.11.2021
4727 Clouds 18 1022 37 10000 5.66 30 21:50 18.11.2021
4728 Clouds 20 1023 32 10000 6.17 10 20:48 18.11.2021
4729 Clouds 22 1023 17 10000 4.63 290 20:30 18.11.2021
4730 Clouds 22 1024 18 10000 1.03 240 19:44 18.11.2021
4731 Clouds 22 1025 23 10000 1.03 0 18:55 18.11.2021
4732 Clouds 20 1026 28 10000 2.57 70 18:27 18.11.2021
4733 Clouds 20 1026 30 10000 2.06 0 17:49 18.11.2021
4734 Clouds 17 1029 42 10000 1.54 130 16:44 18.11.2021
4735 Clouds 16 1030 48 10000 1.54 360 15:25 18.11.2021
4736 Clouds 13 1029 62 10000 1.03 280 13:31 18.11.2021
4737 Clouds 11 1029 71 10000 1.03 280 12:33 18.11.2021
4738 Clouds 10 1028 71 10000 1.03 110 11:42 18.11.2021
4739 Clouds 10 1028 71 10000 1.03 110 11:24 18.11.2021
4740 Clouds 10 1014 87 10000 1.35 290 09:34 18.11.2021
4741 Rain 11 1013 84 10000 1.76 322 07:35 18.11.2021
4742 Clouds 13 1028 51 10000 1.54 140 05:55 18.11.2021
4743 Clouds 13 1028 51 10000 1.54 140 05:36 18.11.2021
4744 Clouds 14 1026 44 10000 5.66 110 01:23 18.11.2021
4745 Clouds 20 1023 28 10000 2.57 0 22:49 17.11.2021
4746 Clouds 21 1023 28 10000 3.6 0 22:21 17.11.2021
4747 Clouds 21 1023 26 10000 2.06 0 21:39 17.11.2021
4748 Clouds 21 1024 26 10000 3.09 330 20:58 17.11.2021
4749 Clouds 20 1028 30 10000 3.6 260 18:34 17.11.2021
4750 Clouds 18 1029 30 10000 3.09 300 17:28 17.11.2021
4751 Clouds 13 1031 54 10000 0 0 14:51 17.11.2021
4752 Clouds 9 1029 71 10000 0.51 0 12:41 17.11.2021
4753 Clouds 9 1029 71 10000 1.03 120 11:49 17.11.2021
4754 Clouds 11 1013 84 10000 0.87 277 10:31 17.11.2021
4755 Clouds 12 1011 76 10000 1.08 264 09:25 17.11.2021
4756 Rain 12 1011 78 10000 1.18 279 07:44 17.11.2021
4757 Rain 13 1029 51 10000 8.23 120 04:47 17.11.2021
4758 Clouds 17 1025 42 10000 2.06 60 01:45 17.11.2021
4759 Clouds 22 1022 20 10000 4.12 290 23:26 16.11.2021
4760 Clouds 22 1022 20 10000 2.57 180 21:27 16.11.2021
4761 Clouds 21 1025 17 10000 5.14 260 20:18 16.11.2021
4762 Clouds 19 1028 30 10000 3.6 290 18:54 16.11.2021
4763 Clouds 19 1028 30 10000 3.6 290 18:35 16.11.2021
4764 Clouds 19 1029 30 10000 1.54 70 17:43 16.11.2021
4765 Clouds 18 1030 32 10000 1.54 300 16:49 16.11.2021
4766 Clouds 17 1030 39 10000 1.54 0 15:56 16.11.2021
4767 Clouds 15 1031 44 10000 0.51 320 15:29 16.11.2021
4768 Rain 7 1029 81 10000 0.51 110 12:29 16.11.2021
4769 Clouds 9 1017 84 10000 0.99 216 09:49 16.11.2021
4770 Clouds 9 1016 84 10000 0.85 199 08:46 16.11.2021
4771 Clouds 9 1016 83 10000 1.03 198 07:34 16.11.2021
4772 Clouds 12 1029 58 10000 6.17 110 02:50 16.11.2021
4773 Clouds 15 1025 48 10000 4.63 280 23:23 15.11.2021
4774 Clouds 17 1024 42 10000 3.6 270 22:39 15.11.2021
4775 Clouds 17 1024 39 10000 3.09 270 21:54 15.11.2021
4776 Clouds 18 1024 37 10000 3.6 290 21:29 15.11.2021
4777 Thunderstorm 19 1025 32 10000 5.14 20 19:58 15.11.2021
4778 Clouds 19 1026 32 10000 2.57 0 18:49 15.11.2021
4779 Clouds 18 1029 37 10000 1.54 0 16:56 15.11.2021
4780 Clouds 16 1030 42 10000 2.06 50 15:44 15.11.2021
4781 Clouds 15 1031 44 10000 1.54 140 15:25 15.11.2021
4782 Clouds 13 1031 54 10000 1.03 140 13:35 15.11.2021
4783 Clouds 6 1029 81 10000 1.54 290 11:54 15.11.2021
4784 Clouds 10 1015 82 10000 0.13 336 09:30 15.11.2021
4785 Clouds 10 1015 84 10000 0.83 182 07:59 15.11.2021
4786 Clouds 11 1032 66 10000 3.6 300 05:25 15.11.2021
4787 Clouds 15 1026 41 10000 1.54 0 00:32 15.11.2021
4788 Clouds 17 1024 34 10000 3.6 20 22:38 14.11.2021
4789 Clouds 17 1025 39 10000 6.17 30 20:51 14.11.2021
4790 Clouds 21 1026 28 10000 2.06 50 19:18 14.11.2021
4791 Clouds 19 1027 34 10000 2.06 40 18:54 14.11.2021
4792 Clouds 19 1027 34 10000 2.06 40 18:36 14.11.2021
4793 Clouds 20 1028 32 10000 2.57 80 18:18 14.11.2021
4794 Clouds 18 1029 37 10000 1.54 90 17:57 14.11.2021
4795 Clouds 17 1030 42 10000 1.54 0 17:39 14.11.2021
4796 Clouds 17 1030 42 10000 1.54 0 17:21 14.11.2021
4797 Clouds 16 1030 51 10000 0.51 190 16:49 14.11.2021
4798 Clouds 15 1030 55 10000 0.51 30 16:21 14.11.2021
4799 Clouds 15 1031 55 10000 0.51 20 15:51 14.11.2021
4800 Clouds 14 1031 62 10000 1.03 0 15:19 14.11.2021
4801 Clouds 12 1032 67 10000 1.54 0 14:33 14.11.2021
4802 Clouds 11 1031 76 10000 0.51 0 13:59 14.11.2021
4803 Clouds 10 1031 76 10000 0.51 0 13:40 14.11.2021
4804 Mist 9 1031 81 9000 0.51 0 12:45 14.11.2021
4805 Mist 8 1030 93 9000 0 0 12:20 14.11.2021
4806 Clouds 11 1014 79 10000 0.9 239 10:52 14.11.2021
4807 Clouds 11 1014 79 10000 1.03 268 10:27 14.11.2021
4808 Clouds 11 1014 80 10000 1.19 288 08:58 14.11.2021
4809 Clouds 11 1014 81 10000 1.07 290 08:23 14.11.2021
4810 Thunderstorm 9 1026 81 10000 2.57 360 02:20 14.11.2021
4811 Clouds 20 1024 30 10000 3.09 330 22:27 13.11.2021
4812 Clouds 19 1024 34 10000 3.09 340 21:57 13.11.2021
4813 Clouds 18 1024 39 10000 4.63 300 21:27 13.11.2021
4814 Clouds 19 1026 32 10000 4.12 10 20:24 13.11.2021
4815 Clouds 18 1028 32 10000 2.06 100 18:48 13.11.2021
4816 Clouds 18 1028 32 10000 1.03 0 18:26 13.11.2021
4817 Clouds 18 1030 34 10000 2.57 320 16:48 13.11.2021
4818 Clouds 17 1031 36 10000 1.54 0 15:41 13.11.2021
4819 Clouds 14 1032 47 10000 1.54 0 14:36 13.11.2021
4820 Clouds 13 1032 58 10000 1.54 0 13:46 13.11.2021
4821 Clouds 10 1032 71 10000 1.03 90 12:38 13.11.2021
4822 Clouds 9 1031 71 10000 1.03 30 11:39 13.11.2021
4823 Clouds 8 1019 88 10000 1.57 221 10:45 13.11.2021
4824 Clouds 8 1019 89 10000 1.88 217 10:23 13.11.2021
4825 Clouds 8 1019 89 10000 1.88 217 10:23 13.11.2021
4826 Clouds 8 1019 89 10000 1.88 217 09:39 13.11.2021
4827 Clouds 8 1018 89 10000 2.02 223 08:59 13.11.2021
4828 Clouds 8 1018 89 10000 2.02 223 08:40 13.11.2021
4829 Clouds 10 1017 87 10000 1.69 209 06:55 13.11.2021
4830 Rain 10 1033 81 9000 3.09 300 04:34 13.11.2021
4831 Clouds 12 1030 62 10000 1.03 270 01:55 13.11.2021
4832 Clouds 15 1028 44 10000 2.06 20 23:23 12.11.2021
4833 Clouds 15 1028 51 10000 2.57 280 21:51 12.11.2021
4834 Rain 15 1029 44 10000 0 0 20:19 12.11.2021
4835 Rain 14 1031 47 10000 1.54 110 19:30 12.11.2021
4836 Rain 14 1031 51 10000 1.03 100 18:52 12.11.2021
4837 Clouds 11 1034 62 10000 1.54 140 16:40 12.11.2021
4838 Clouds 10 1034 66 10000 0.51 290 15:51 12.11.2021
4839 Clouds 8 1034 76 10000 2.57 110 13:21 12.11.2021
4840 Clouds 10 1017 83 10000 1.43 176 11:21 12.11.2021
4841 Clouds 10 1017 83 10000 1.41 188 09:45 12.11.2021
4842 Rain 11 1016 81 10000 1.16 183 08:44 12.11.2021
4843 Clouds 13 1030 58 10000 2.06 260 05:54 12.11.2021
4844 Clouds 19 1025 37 10000 7.2 310 23:43 11.11.2021
4845 Clouds 20 1024 30 10000 4.63 320 22:40 11.11.2021
4846 Clouds 19 1025 32 10000 7.72 310 21:29 11.11.2021
4847 Clouds 20 1025 26 10000 1.54 0 20:48 11.11.2021
4848 Clouds 21 1027 26 10000 2.06 0 19:30 11.11.2021
4849 Clouds 20 1029 30 10000 3.6 130 18:22 11.11.2021
4850 Clouds 19 1029 30 10000 3.6 0 17:37 11.11.2021
4851 Clouds 17 1032 45 10000 1.03 0 15:19 11.11.2021
4852 Clouds 14 1032 51 10000 2.06 140 14:30 11.11.2021
4853 Clouds 13 1032 54 10000 0.51 100 13:41 11.11.2021
4854 Clouds 12 1032 62 10000 0.51 0 12:52 11.11.2021
4855 Clouds 10 1031 62 10000 0 0 11:57 11.11.2021
4856 Clouds 12 1014 72 10000 0.66 288 09:54 11.11.2021
4857 Clouds 12 1014 70 10000 1.27 6 08:21 11.11.2021
4858 Clouds 12 1015 76 10000 1.52 25 06:18 11.11.2021
4859 Clouds 15 1026 44 10000 1.03 70 00:36 11.11.2021
4860 Clouds 19 1024 32 10000 3.09 0 22:38 10.11.2021
4861 Clouds 19 1024 30 10000 3.09 0 21:33 10.11.2021
4862 Clouds 17 1025 36 10000 6.17 20 20:51 10.11.2021
4863 Clouds 18 1026 34 10000 6.69 20 19:48 10.11.2021
4864 Clouds 18 1026 32 10000 6.69 30 19:30 10.11.2021
4865 Clouds 16 1029 42 10000 2.57 0 16:40 10.11.2021
4866 Clouds 16 1030 45 10000 3.6 90 15:46 10.11.2021
4867 Clouds 13 1031 54 10000 2.57 120 14:22 10.11.2021
4868 Clouds 11 1031 58 10000 0.51 0 13:27 10.11.2021
4869 Clouds 6 1030 81 10000 0 0 11:39 10.11.2021
4870 Clouds 10 1014 81 10000 0.81 231 09:18 10.11.2021
4871 Clouds 10 1014 81 10000 0.81 231 08:40 10.11.2021
4872 Clouds 10 1015 79 10000 1.28 203 06:43 10.11.2021
4873 Clouds 9 1030 71 10000 0 0 05:53 10.11.2021
4874 Clouds 13 1029 51 10000 1.54 150 01:31 10.11.2021
4875 Clouds 15 1027 44 10000 2.06 260 21:59 09.11.2021
4876 Clouds 15 1029 44 10000 4.63 280 20:32 09.11.2021
4877 Clouds 13 1029 54 10000 3.6 290 19:26 09.11.2021
4878 Rain 16 1028 45 10000 3.6 360 18:44 09.11.2021
4879 Clouds 18 1030 34 10000 2.06 100 16:27 09.11.2021
4880 Clouds 14 1032 51 10000 1.03 0 14:59 09.11.2021
4881 Clouds 10 1031 66 10000 1.03 0 13:25 09.11.2021
4882 Clouds 8 1031 81 10000 1.03 0 12:22 09.11.2021
4883 Clouds 11 1016 80 10000 1.22 279 10:53 09.11.2021
4884 Clouds 11 1015 79 10000 1.03 274 09:43 09.11.2021
4885 Clouds 11 1015 78 10000 0.4 228 08:42 09.11.2021
4886 Clouds 11 1015 79 10000 1.35 231 06:51 09.11.2021
4887 Clouds 14 1029 51 10000 2.06 270 02:30 09.11.2021
4888 Clouds 15 1027 44 10000 2.57 250 01:50 09.11.2021
4889 Clouds 19 1024 37 10000 3.09 290 00:22 09.11.2021
4890 Clouds 19 1024 28 10000 2.57 10 23:28 08.11.2021
4891 Rain 18 1024 34 10000 4.12 290 22:35 08.11.2021
4892 Clouds 21 1024 26 10000 5.14 290 21:22 08.11.2021
4893 Clouds 22 1025 23 10000 4.63 290 20:31 08.11.2021
4894 Clouds 21 1027 30 10000 3.09 290 19:18 08.11.2021
4895 Clouds 20 1028 30 10000 1.03 10 17:35 08.11.2021
4896 Clouds 17 1031 42 10000 1.54 260 15:38 08.11.2021
4897 Clouds 16 1032 51 10000 1.54 0 14:55 08.11.2021
4898 Clouds 12 1032 58 10000 1.54 90 13:59 08.11.2021
4899 Clouds 10 1031 66 10000 1.54 90 12:44 08.11.2021
4900 Clouds 6 1030 81 10000 0 0 11:37 08.11.2021
4901 Clouds 10 1015 85 10000 1.85 306 10:18 08.11.2021
4902 Clouds 10 1015 84 10000 1.97 306 08:56 08.11.2021
4903 Clouds 10 1015 83 10000 2.22 290 07:47 08.11.2021
4904 Clouds 11 1015 80 10000 1.28 251 06:54 08.11.2021
4905 Clouds 11 1030 62 10000 2.06 270 03:35 08.11.2021
4906 Clouds 18 1026 34 10000 2.57 40 23:51 07.11.2021
4907 Clouds 20 1025 26 10000 3.6 20 22:30 07.11.2021
4908 Clouds 20 1026 21 10000 1.03 160 21:22 07.11.2021
4909 Rain 20 1027 23 10000 2.06 0 19:56 07.11.2021
4910 Clouds 19 1029 28 10000 2.57 150 18:28 07.11.2021
4911 Clouds 19 1030 30 10000 0 0 17:38 07.11.2021
4912 Clouds 16 1032 51 10000 2.06 90 16:20 07.11.2021
4913 Clouds 13 1033 58 10000 0.51 120 14:42 07.11.2021
4914 Clouds 10 1033 71 10000 1.54 290 13:57 07.11.2021
4915 Clouds 7 1031 81 10000 1.54 60 11:58 07.11.2021
4916 Clouds 10 1017 79 10000 0.66 142 11:18 07.11.2021
4917 Clouds 10 1016 79 10000 0.91 123 08:58 07.11.2021
4918 Clouds 9 1030 71 10000 1.03 20 02:49 07.11.2021
4919 Clouds 15 1027 44 10000 1.03 240 00:18 07.11.2021
4920 Clouds 16 1026 42 10000 0.51 0 22:54 06.11.2021
4921 Clouds 17 1027 36 10000 2.57 0 21:49 06.11.2021
4922 Clouds 16 1028 45 10000 1.54 0 20:54 06.11.2021
4923 Clouds 12 1029 58 10000 5.66 20 19:40 06.11.2021
4924 Clouds 20 1030 28 10000 1.03 30 17:30 06.11.2021
4925 Clouds 18 1031 37 10000 2.06 0 16:21 06.11.2021
4926 Clouds 11 1032 62 10000 0 0 13:39 06.11.2021
4927 Clouds 10 1032 66 10000 0.51 360 12:52 06.11.2021
4928 Clouds 9 1017 83 10000 1.56 308 10:35 06.11.2021
4929 Clouds 10 1016 81 10000 1.88 301 08:36 06.11.2021
4930 Clouds 8 1030 81 10000 0 0 04:50 06.11.2021
4931 Clouds 17 1026 36 10000 3.6 20 23:41 05.11.2021
4932 Clouds 17 1025 34 10000 4.63 20 23:19 05.11.2021
4933 Clouds 17 1025 34 10000 4.63 20 22:33 05.11.2021
4934 Clouds 19 1026 28 10000 1.54 0 20:26 05.11.2021
4935 Clouds 20 1026 32 10000 2.06 360 19:51 05.11.2021
4936 Clouds 19 1028 30 10000 2.06 0 18:43 05.11.2021
4937 Clouds 19 1029 30 10000 1.03 0 17:45 05.11.2021
4938 Clouds 17 1030 39 10000 0.51 0 16:37 05.11.2021
4939 Haze 11 1031 71 10000 2.06 120 14:18 05.11.2021
4940 Clouds 4 1029 87 10000 2.06 290 11:45 05.11.2021
4941 Clouds 10 1014 79 10000 0.82 185 09:27 05.11.2021
4942 Clouds 10 1014 77 10000 0.74 219 07:48 05.11.2021
4943 Clouds 9 1030 81 10000 1.03 0 05:36 05.11.2021
4944 Clouds 9 1028 76 10000 1.54 100 02:28 05.11.2021
4945 Clouds 9 1028 81 10000 2.57 110 01:59 05.11.2021
4946 Clouds 11 1026 71 10000 1.03 0 23:45 04.11.2021
4947 Clouds 11 1026 66 10000 2.06 170 22:21 04.11.2021
4948 Clouds 11 1026 71 10000 2.57 140 21:54 04.11.2021
4949 Clouds 11 1026 62 10000 5.66 180 21:22 04.11.2021
4950 Clouds 15 1025 51 10000 4.12 190 20:25 04.11.2021
4951 Clouds 16 1025 45 10000 3.09 80 19:49 04.11.2021
4952 Clouds 19 1026 28 10000 2.57 100 19:22 04.11.2021
4953 Drizzle 14 1028 51 10000 5.14 60 18:23 04.11.2021
4954 Clouds 18 1029 32 10000 1.03 0 17:26 04.11.2021
4955 Clouds 17 1030 39 10000 2.57 30 15:36 04.11.2021
4956 Clouds 13 1030 58 10000 2.06 110 13:45 04.11.2021
4957 Clouds 9 1014 77 10000 1.03 314 10:22 04.11.2021
4958 Clouds 9 1013 76 10000 0.83 326 08:31 04.11.2021
4959 Clouds 10 1013 74 10000 0.96 325 07:36 04.11.2021
4960 Clouds 10 1014 75 10000 0.7 301 06:40 04.11.2021
4961 Clouds 18 1025 32 10000 2.06 120 22:59 03.11.2021
4962 Clouds 17 1025 32 10000 2.06 320 22:19 03.11.2021
4963 Clouds 15 1025 36 10000 3.09 280 21:36 03.11.2021
4964 Clouds 15 1026 44 10000 5.14 290 20:39 03.11.2021
4965 Clouds 15 1026 44 10000 5.14 290 20:39 03.11.2021
4966 Clouds 15 1026 39 10000 9.26 90 20:21 03.11.2021
4967 Clouds 20 1027 28 10000 3.6 80 19:29 03.11.2021
4968 Clouds 19 1029 30 10000 3.6 20 18:26 03.11.2021
4969 Clouds 19 1030 32 10000 4.12 40 17:41 03.11.2021
4970 Clouds 17 1030 32 10000 3.6 0 16:46 03.11.2021
4971 Clouds 17 1031 36 10000 2.06 0 15:49 03.11.2021
4972 Clouds 14 1032 47 10000 1.54 0 15:29 03.11.2021
4973 Haze 10 1031 66 10000 0 0 13:29 03.11.2021
4974 Clouds 9 1030 71 10000 0.51 0 11:34 03.11.2021
4975 Rain 10 1015 80 10000 0.54 184 10:50 03.11.2021
4976 Rain 11 1014 77 10000 0.93 158 09:40 03.11.2021
4977 Rain 11 1014 76 10000 0.74 176 08:49 03.11.2021
4978 Clouds 11 1014 77 10000 0.84 249 07:40 03.11.2021
4979 Clouds 11 1015 76 10000 0.21 226 06:30 03.11.2021
4980 Clouds 11 1031 62 10000 1.03 90 04:22 03.11.2021
4981 Rain 15 1028 44 10000 2.57 0 00:57 03.11.2021
4982 Clouds 19 1025 28 10000 5.14 290 22:52 02.11.2021
4983 Clouds 19 1026 30 10000 4.63 280 21:54 02.11.2021
4984 Clouds 16 1028 42 10000 6.17 290 20:36 02.11.2021
4985 Clouds 16 1028 42 10000 5.66 280 19:56 02.11.2021
4986 Clouds 15 1029 44 10000 4.12 310 19:26 02.11.2021
4987 Thunderstorm 16 1029 39 10000 5.14 330 18:34 02.11.2021
4988 Clouds 18 1030 32 10000 1.54 0 17:44 02.11.2021
4989 Clouds 17 1032 36 10000 4.12 110 16:34 02.11.2021
4990 Clouds 16 1033 45 10000 2.57 110 15:49 02.11.2021
4991 Clouds 14 1033 51 10000 2.57 0 14:51 02.11.2021
4992 Clouds 11 1034 62 10000 1.54 0 13:29 02.11.2021
4993 Clouds 8 1033 76 10000 1.03 100 12:46 02.11.2021
4994 Clouds 8 1032 76 10000 0 0 11:38 02.11.2021
4995 Clouds 10 1017 81 10000 1.08 135 10:55 02.11.2021
4996 Clouds 10 1017 81 10000 1.08 135 10:32 02.11.2021
4997 Clouds 10 1016 80 10000 1.3 155 09:40 02.11.2021
4998 Clouds 11 1016 75 10000 2.03 166 07:45 02.11.2021
4999 Clouds 8 1033 76 10000 1.03 0 04:39 02.11.2021
5000 Clouds 10 1033 62 10000 1.54 260 03:20 02.11.2021
5001 Clouds 13 1029 47 10000 3.09 110 23:39 01.11.2021
5002 Clouds 16 1029 41 10000 5.14 130 21:29 01.11.2021
5003 Clouds 16 1030 42 10000 3.09 0 20:42 01.11.2021
5004 Clouds 17 1030 36 10000 5.66 40 19:58 01.11.2021
5005 Clouds 17 1030 36 10000 5.66 40 19:58 01.11.2021
5006 Clouds 17 1030 36 10000 5.66 40 19:38 01.11.2021
5007 Clouds 17 1031 36 10000 2.57 90 18:23 01.11.2021
5008 Clouds 17 1033 42 10000 1.54 0 17:35 01.11.2021
5009 Clouds 13 1034 54 10000 3.09 100 16:51 01.11.2021
5010 Clouds 13 1034 58 10000 2.06 110 15:57 01.11.2021
5011 Clouds 11 1035 62 10000 2.06 0 15:27 01.11.2021
5012 Clouds 11 1035 62 10000 1.54 0 14:45 01.11.2021
5013 Clouds 10 1035 66 10000 0.51 0 14:23 01.11.2021
5014 Clouds 9 1034 71 10000 0 0 13:50 01.11.2021
5015 Clouds 8 1034 76 9000 0.51 0 12:34 01.11.2021
5016 Mist 7 1032 81 9000 1.03 90 11:26 01.11.2021
5017 Clouds 9 1019 81 10000 0.81 225 09:47 01.11.2021
5018 Clouds 9 1019 79 10000 1.84 174 08:18 01.11.2021
5019 Clouds 9 1019 79 10000 1.84 174 07:40 01.11.2021
5020 Clouds 8 1035 76 10000 2.57 140 03:47 01.11.2021
5021 Clouds 8 1035 81 10000 4.12 120 01:37 01.11.2021
5022 Clouds 18 1028 32 10000 6.17 290 22:32 31.10.2021
5023 Rain 19 1028 22 10000 6.17 30 20:50 31.10.2021
5024 Clouds 21 1029 21 10000 6.17 20 19:20 31.10.2021
5025 Clouds 22 1030 20 10000 5.14 20 18:38 31.10.2021
5026 Clouds 18 1033 30 10000 1.03 0 17:32 31.10.2021
5027 Clouds 16 1034 39 10000 1.03 340 15:50 31.10.2021
5028 Clouds 14 1034 47 10000 1.54 0 14:23 31.10.2021
5029 Clouds 9 1033 66 10000 2.06 100 12:49 31.10.2021
5030 Clouds 7 1033 76 10000 2.06 100 11:41 31.10.2021
5031 Clouds 10 1018 78 10000 1.43 187 10:42 31.10.2021
5032 Clouds 10 1017 79 10000 1.78 166 09:21 31.10.2021
5033 Rain 10 1018 79 10000 1.98 174 08:19 31.10.2021
5034 Clouds 12 1031 54 10000 5.66 100 01:37 31.10.2021
5035 Clouds 22 1026 20 10000 5.14 300 22:47 30.10.2021
5036 Clouds 22 1026 20 10000 5.14 300 21:35 30.10.2021
5037 Clouds 22 1028 18 10000 3.09 0 20:44 30.10.2021
5038 Clouds 19 1031 28 10000 1.54 0 18:45 30.10.2021
5039 Clouds 15 1034 36 10000 1.03 330 17:25 30.10.2021
5040 Clouds 12 1034 54 10000 0.51 300 14:54 30.10.2021
5041 Clouds 8 1033 66 10000 0.51 0 13:39 30.10.2021
5042 Clouds 6 1033 70 10000 0.51 90 13:21 30.10.2021
5043 Clouds 5 1033 75 10000 1.03 100 12:46 30.10.2021
5044 Clouds 10 1018 77 10000 1.29 201 11:42 30.10.2021
5045 Clouds 10 1017 74 10000 1.25 185 10:32 30.10.2021
5046 Clouds 11 1017 70 10000 0.55 180 08:52 30.10.2021
5047 Clouds 11 1018 68 10000 0.25 28 07:19 30.10.2021
5048 Clouds 9 1034 57 10000 1.54 280 05:39 30.10.2021
5049 Clouds 15 1030 31 10000 4.12 40 00:45 30.10.2021
5050 Clouds 17 1030 27 10000 7.2 30 22:39 29.10.2021
5051 Clouds 18 1030 22 10000 6.17 30 22:20 29.10.2021
5052 Clouds 19 1032 21 10000 4.12 20 20:45 29.10.2021
5053 Clouds 17 1034 34 10000 2.06 0 19:50 29.10.2021
5054 Clouds 15 1035 39 10000 2.06 0 18:33 29.10.2021
5055 Clouds 10 1038 54 10000 3.09 340 16:51 29.10.2021
5056 Rain 10 1037 58 10000 3.6 110 14:36 29.10.2021
5057 Clouds 10 1021 71 10000 1.03 41 11:44 29.10.2021
5058 Clouds 10 1020 71 10000 1.29 52 10:35 29.10.2021
5059 Clouds 10 1020 70 10000 1.62 46 08:35 29.10.2021
5060 Clouds 16 1029 36 10000 6.69 30 00:37 29.10.2021
5061 Clouds 20 1028 23 10000 4.12 30 23:19 28.10.2021
5062 Clouds 20 1030 23 10000 3.09 20 21:56 28.10.2021
5063 Clouds 20 1032 28 10000 7.72 20 20:32 28.10.2021
5064 Clouds 19 1033 26 10000 2.57 130 19:48 28.10.2021
5065 Clouds 16 1036 34 10000 2.06 70 18:20 28.10.2021
5066 Clouds 14 1036 41 10000 2.06 0 16:58 28.10.2021
5067 Clouds 13 1037 50 10000 1.54 0 15:24 28.10.2021
5068 Clouds 11 1036 58 10000 0.51 90 13:46 28.10.2021
5069 Clouds 10 1035 62 10000 2.06 110 13:22 28.10.2021
5070 Clouds 10 1035 58 10000 1.03 100 12:41 28.10.2021
5071 Clouds 10 1019 71 10000 0.94 14 10:57 28.10.2021
5072 Clouds 10 1019 71 10000 1.22 14 09:39 28.10.2021
5073 Clouds 10 1019 71 10000 1.48 21 08:58 28.10.2021
5074 Clouds 10 1019 71 10000 1.48 21 08:34 28.10.2021
5075 Clouds 11 1034 50 10000 1.54 120 04:48 28.10.2021
5076 Clouds 17 1029 32 10000 4.12 20 23:59 27.10.2021
5077 Clouds 20 1029 28 10000 4.63 10 22:31 27.10.2021
5078 Clouds 19 1029 28 10000 3.6 50 21:33 27.10.2021
5079 Clouds 18 1029 30 10000 5.66 40 20:53 27.10.2021
5080 Clouds 18 1029 30 10000 5.66 40 20:33 27.10.2021
5081 Clouds 21 1030 24 10000 4.63 20 19:40 27.10.2021
5082 Clouds 19 1031 24 10000 2.06 40 18:52 27.10.2021
5083 Clouds 16 1034 36 10000 0 0 16:27 27.10.2021
5084 Clouds 15 1035 41 10000 1.54 0 15:34 27.10.2021
5085 Clouds 13 1034 47 10000 1.03 140 14:40 27.10.2021
5086 Clouds 7 1033 71 10000 0 0 12:33 27.10.2021
5087 Clouds 11 1017 60 10000 0.3 313 10:58 27.10.2021
5088 Clouds 11 1017 60 10000 0.82 316 09:51 27.10.2021
5089 Clouds 11 1017 62 10000 0.95 334 08:36 27.10.2021
5090 Clouds 11 1017 60 10000 1.31 289 07:31 27.10.2021
5091 Clouds 11 1030 54 10000 4.63 100 02:30 27.10.2021
5092 Clouds 15 1028 36 10000 3.09 20 00:57 27.10.2021
5093 Clouds 16 1028 39 10000 6.17 290 00:28 27.10.2021
5094 Clouds 16 1028 34 10000 3.09 360 23:43 26.10.2021
5095 Clouds 16 1029 34 10000 3.09 30 22:39 26.10.2021
5096 Clouds 16 1029 34 10000 6.69 20 21:59 26.10.2021
5097 Clouds 15 1030 41 10000 6.17 30 20:40 26.10.2021
5098 Clouds 19 1030 30 10000 5.14 320 19:30 26.10.2021
5099 Clouds 19 1030 30 10000 5.14 320 19:30 26.10.2021
5100 Clouds 20 1031 26 10000 2.06 290 18:41 26.10.2021
5101 Clouds 16 1034 34 10000 4.12 310 16:42 26.10.2021
5102 Clouds 12 1034 50 10000 3.6 110 14:56 26.10.2021
5103 Clouds 11 1017 62 10000 0.96 355 11:39 26.10.2021
5104 Clouds 11 1017 60 10000 1.27 352 10:33 26.10.2021
5105 Clouds 12 1017 61 10000 1.87 358 07:47 26.10.2021
5106 Clouds 11 1018 62 10000 2.29 357 07:20 26.10.2021
5107 Rain 18 1025 32 10000 3.09 90 23:51 25.10.2021
5108 Rain 18 1025 32 10000 3.09 90 23:51 25.10.2021
5109 Rain 18 1025 32 10000 3.09 90 23:51 25.10.2021
5110 Clouds 19 1025 26 10000 7.72 30 22:54 25.10.2021
5111 Smoke 23 1025 12 10000 6.17 360 22:20 25.10.2021
5112 Clouds 21 1025 12 10000 7.72 320 21:39 25.10.2021
5113 Clouds 22 1028 17 10000 5.66 320 19:54 25.10.2021
5114 Clouds 22 1029 20 10000 4.12 0 19:26 25.10.2021
5115 Clouds 21 1030 20 10000 4.63 0 18:59 25.10.2021
5116 Clouds 20 1031 23 10000 5.14 300 18:19 25.10.2021
5117 Clouds 16 1033 39 10000 1.03 290 16:18 25.10.2021
5118 Clouds 13 1033 51 10000 0 0 14:28 25.10.2021
5119 Clouds 9 1032 66 10000 0 0 12:30 25.10.2021
5120 Clouds 10 1016 75 10000 2.33 341 10:20 25.10.2021
5121 Clouds 11 1017 75 10000 2.49 346 08:35 25.10.2021
5122 Clouds 11 1033 58 10000 1.54 90 06:25 25.10.2021
5123 Smoke 15 1028 41 10000 1.03 0 02:31 25.10.2021
5124 Smoke 17 1027 36 10000 6.69 20 00:46 25.10.2021
5125 Smoke 19 1026 30 10000 4.63 10 23:47 24.10.2021
5126 Smoke 18 1026 37 10000 5.14 20 22:56 24.10.2021
5127 Clouds 20 1025 30 10000 6.69 10 22:31 24.10.2021
5128 Clouds 22 1025 16 10000 8.23 20 21:57 24.10.2021
5129 Clouds 24 1026 10 10000 3.09 270 20:45 24.10.2021
5130 Clouds 24 1028 10 10000 3.6 270 20:26 24.10.2021
5131 Clouds 23 1030 13 10000 2.06 0 18:52 24.10.2021
5132 Clear 20 1031 17 10000 2.06 90 17:57 24.10.2021
5133 Clear 18 1033 30 10000 1.03 350 16:52 24.10.2021
5134 Clouds 16 1033 36 10000 1.03 0 15:37 24.10.2021
5135 Clouds 6 1033 76 10000 2.06 90 13:49 24.10.2021
5136 Clouds 6 1032 70 10000 1.03 100 12:41 24.10.2021
5137 Clouds 10 1017 81 10000 1.02 195 11:40 24.10.2021
5138 Clouds 10 1017 79 10000 1.18 198 10:45 24.10.2021
5139 Clouds 10 1016 77 10000 1.2 206 09:38 24.10.2021
5140 Clouds 12 1032 50 10000 2.57 70 05:35 24.10.2021
5141 Clouds 16 1027 44 10000 5.14 100 00:40 24.10.2021
5142 Clouds 19 1026 32 10000 6.17 30 23:32 23.10.2021
5143 Clouds 25 1025 19 10000 5.14 10 21:50 23.10.2021
5144 Clouds 24 1028 16 10000 1.03 0 19:47 23.10.2021
5145 Clouds 22 1029 16 10000 2.57 0 18:48 23.10.2021
5146 Clouds 21 1030 21 10000 0.51 350 18:21 23.10.2021
5147 Clouds 20 1031 23 10000 1.03 210 17:42 23.10.2021
5148 Clouds 17 1032 36 10000 1.03 50 16:18 23.10.2021
5149 Clouds 8 1033 61 10000 0.51 100 13:51 23.10.2021
5150 Clouds 12 1032 50 10000 2.06 290 03:32 23.10.2021
5151 Rain 15 1029 36 10000 1.03 0 23:42 22.10.2021
5152 Rain 15 1029 36 10000 8.75 290 22:28 22.10.2021
5153 Clouds 16 1030 34 10000 7.72 30 19:49 22.10.2021
5154 Clouds 20 1031 26 10000 2.06 230 18:33 22.10.2021
5155 Clouds 18 1032 32 10000 3.6 110 17:19 22.10.2021
5156 Clouds 13 1033 50 10000 1.03 290 14:58 22.10.2021
5157 Clouds 5 1032 75 10000 1.54 90 12:53 22.10.2021
5158 Clouds 10 1016 78 10000 0.15 120 10:58 22.10.2021
5159 Clouds 10 1016 78 10000 0.15 120 10:36 22.10.2021
5160 Clouds 10 1016 77 10000 0.28 233 09:36 22.10.2021
5161 Clouds 11 1017 71 10000 1.03 281 07:53 22.10.2021
5162 Clouds 11 1019 71 10000 0.87 210 07:21 22.10.2021
5163 Clouds 11 1031 58 10000 3.09 260 02:37 22.10.2021
5164 Clouds 11 1031 58 10000 3.09 260 02:37 22.10.2021
5165 Clouds 11 1031 58 10000 3.09 260 02:37 22.10.2021
5166 Clouds 18 1028 32 10000 3.6 30 23:51 21.10.2021
5167 Rain 19 1027 30 10000 3.09 320 22:47 21.10.2021
5168 Rain 19 1027 30 10000 3.09 320 22:47 21.10.2021
5169 Clouds 21 1026 21 10000 4.12 20 21:39 21.10.2021
5170 Clouds 22 1028 20 10000 4.12 100 20:26 21.10.2021
5171 Clouds 22 1028 20 10000 1.54 290 19:56 21.10.2021
5172 Clouds 22 1029 20 10000 3.09 200 19:26 21.10.2021
5173 Clouds 21 1030 23 10000 2.57 240 18:38 21.10.2021
5174 Clouds 21 1032 24 10000 1.03 0 17:53 21.10.2021
5175 Clouds 19 1033 24 10000 0.51 110 17:18 21.10.2021
5176 Clouds 13 1034 54 10000 0.51 0 15:33 21.10.2021
5177 Clouds 12 1034 54 10000 1.03 90 14:57 21.10.2021
5178 Clouds 12 1034 54 10000 1.03 90 14:37 21.10.2021
5179 Clouds 12 1034 54 10000 1.03 90 14:37 21.10.2021
5180 Clouds 5 1033 87 10000 0.51 70 12:37 21.10.2021
5181 Clouds 10 1017 80 10000 1.45 324 09:55 21.10.2021
5182 Clouds 11 1018 78 10000 1.42 339 08:21 21.10.2021
5183 Clouds 11 1018 78 10000 1.62 2 07:23 21.10.2021
5184 Clouds 15 1029 55 10000 2.57 110 00:51 21.10.2021
5185 Clouds 20 1027 26 10000 7.72 310 22:41 20.10.2021
5186 Clouds 21 1027 23 10000 6.17 290 21:51 20.10.2021
5187 Clouds 21 1027 23 10000 3.09 0 21:18 20.10.2021
5188 Clouds 22 1028 20 10000 2.06 0 20:39 20.10.2021
5189 Clouds 23 1029 20 10000 3.09 330 20:21 20.10.2021
5190 Clouds 21 1031 24 10000 2.57 0 19:28 20.10.2021
5191 Clouds 21 1031 26 10000 2.57 0 18:45 20.10.2021
5192 Clouds 22 1031 26 10000 2.57 0 18:45 20.10.2021
5193 Clouds 20 1033 30 10000 0.51 70 17:39 20.10.2021
5194 Clouds 13 1035 54 10000 1.03 100 15:26 20.10.2021
5195 Clouds 10 1018 78 10000 1.39 198 10:21 20.10.2021
5196 Clouds 10 1020 78 10000 1.48 193 07:43 20.10.2021
5197 Drizzle 11 1031 66 10000 3.09 320 02:38 20.10.2021
5198 Clouds 16 1028 36 10000 2.57 0 00:34 20.10.2021
5199 Clouds 20 1026 28 10000 3.6 10 22:58 19.10.2021
5200 Clouds 21 1027 24 10000 2.57 30 21:38 19.10.2021
5201 Clouds 21 1028 24 10000 3.6 80 20:36 19.10.2021
5202 Clouds 19 1029 28 10000 3.09 60 20:18 19.10.2021
5203 Clouds 20 1030 26 10000 1.54 110 19:37 19.10.2021
5204 Clouds 19 1031 30 10000 2.57 50 18:45 19.10.2021
5205 Clouds 17 1033 36 10000 3.6 100 17:52 19.10.2021
5206 Clouds 12 1034 58 10000 2.06 110 15:30 19.10.2021
5207 Clouds 11 1034 58 10000 1.54 90 14:46 19.10.2021
5208 Clouds 11 1034 58 10000 1.54 90 14:46 19.10.2021
5209 Clouds 10 1033 62 10000 0 0 13:56 19.10.2021
5210 Clouds 10 1018 71 10000 1.67 15 12:24 19.10.2021
5211 Clouds 10 1018 71 10000 1.67 15 11:30 19.10.2021
5212 Clouds 11 1017 72 10000 1.64 2 09:55 19.10.2021
5213 Clouds 11 1017 72 10000 1.77 3 08:57 19.10.2021
5214 Clouds 13 1028 47 10000 2.06 290 02:38 19.10.2021
5215 Clouds 19 1027 34 10000 3.09 290 00:20 19.10.2021
5216 Clouds 18 1027 32 10000 4.63 290 23:41 18.10.2021
5217 Clouds 18 1026 26 10000 3.6 10 22:57 18.10.2021
5218 Clouds 19 1026 24 10000 3.09 20 22:31 18.10.2021
5219 Clouds 19 1026 24 10000 3.09 20 22:31 18.10.2021
5220 Clouds 20 1027 26 10000 4.63 20 20:53 18.10.2021
5221 Clouds 21 1027 28 10000 4.63 290 20:30 18.10.2021
5222 Clouds 21 1029 26 10000 1.54 220 19:41 18.10.2021
5223 Clouds 21 1029 26 10000 1.54 220 19:20 18.10.2021
5224 Clouds 14 1033 51 10000 1.03 0 16:59 18.10.2021
5225 Clouds 9 1033 76 10000 1.03 0 14:58 18.10.2021
5226 Clouds 5 1031 81 10000 2.06 90 12:41 18.10.2021
5227 Clouds 10 1015 82 10000 0.87 236 10:26 18.10.2021
5228 Clouds 11 1015 80 10000 0.97 253 09:25 18.10.2021
5229 Clouds 11 1015 80 10000 0.98 251 09:25 18.10.2021
5230 Clouds 15 1028 48 10000 3.09 90 01:35 18.10.2021
5231 Thunderstorm 18 1027 37 10000 0.51 30 23:20 17.10.2021
5232 Clouds 23 1027 23 10000 4.63 20 21:45 17.10.2021
5233 Clouds 23 1027 19 10000 1.03 50 20:59 17.10.2021
5234 Clouds 22 1029 23 10000 2.06 0 20:29 17.10.2021
5235 Clouds 21 1029 24 10000 3.6 240 19:38 17.10.2021
5236 Clouds 18 1013 40 10000 2.11 345 18:44 17.10.2021
5237 Clouds 16 1017 50 10000 0.88 271 17:27 17.10.2021
5238 Clouds 13 1034 51 10000 1.54 0 14:47 17.10.2021
5239 Clouds 11 1034 62 10000 1.54 280 14:24 17.10.2021
5240 Clouds 12 1019 74 10000 1.13 259 13:34 17.10.2021
5241 Clouds 10 1019 81 10000 0.7 277 11:54 17.10.2021
5242 Clouds 11 1017 75 10000 0.39 149 10:23 17.10.2021
5243 Clouds 11 1017 75 10000 0.42 192 09:23 17.10.2021
5244 Clouds 9 1034 71 10000 5.14 120 06:56 17.10.2021
5245 Clouds 18 1027 30 10000 4.12 350 00:52 17.10.2021
5246 Clouds 18 1027 32 10000 4.12 10 00:21 17.10.2021
5247 Clouds 22 1027 23 10000 4.12 310 21:30 16.10.2021
5248 Clouds 21 1029 23 10000 2.06 0 20:31 16.10.2021
5249 Clouds 21 1030 23 10000 3.6 350 19:44 16.10.2021
5250 Clouds 20 1032 24 10000 5.14 290 19:21 16.10.2021
5251 Clouds 20 1032 26 10000 2.06 250 18:53 16.10.2021
5252 Clouds 17 1033 34 10000 2.57 0 18:29 16.10.2021
5253 Rain 17 1033 32 10000 3.09 0 17:54 16.10.2021
5254 Clouds 18 1034 34 10000 1.03 290 17:22 16.10.2021
5255 Clouds 11 1034 58 10000 1.03 0 14:48 16.10.2021
5256 Clouds 10 1018 79 10000 1.01 10 11:31 16.10.2021
5257 Clouds 10 1018 79 10000 0.9 3 10:36 16.10.2021
5258 Clouds 11 1017 75 10000 1.68 3 07:50 16.10.2021
5259 Rain 15 1028 39 10000 5.14 30 01:25 16.10.2021
5260 Clouds 18 1026 34 10000 2.57 20 23:53 15.10.2021
5261 Clouds 18 1026 32 10000 4.63 40 22:38 15.10.2021
5262 Clouds 18 1026 27 10000 6.69 20 22:18 15.10.2021
5263 Clouds 19 1027 28 10000 4.12 10 21:26 15.10.2021
5264 Clouds 19 1027 28 10000 5.66 30 20:46 15.10.2021
5265 Clouds 22 1028 27 10000 2.06 170 19:26 15.10.2021
5266 Clouds 21 1029 26 10000 2.57 0 18:40 15.10.2021
5267 Clouds 16 1033 42 10000 0 0 16:28 15.10.2021
5268 Clouds 14 1033 47 10000 1.54 50 15:36 15.10.2021
5269 Clouds 4 1031 81 10000 1.03 0 12:42 15.10.2021
5270 Clouds 11 1016 78 10000 1.05 241 11:31 15.10.2021
5271 Clouds 11 1015 76 10000 0.96 240 10:43 15.10.2021
5272 Clouds 11 1014 72 10000 1.93 246 09:46 15.10.2021
5273 Clouds 12 1031 50 10000 1.03 0 05:32 15.10.2021
5274 Clouds 14 1029 38 10000 2.06 260 01:45 15.10.2021
5275 Clouds 15 1027 36 10000 2.06 280 00:21 15.10.2021
5276 Clouds 17 1027 32 10000 3.09 290 22:51 14.10.2021
5277 Clouds 17 1027 32 10000 3.09 290 22:51 14.10.2021
5278 Rain 18 1026 27 10000 7.2 350 21:44 14.10.2021
5279 Clouds 21 1027 24 10000 4.12 270 20:48 14.10.2021
5280 Clouds 21 1027 24 10000 4.12 270 20:18 14.10.2021
5281 Clouds 21 1028 24 10000 1.54 130 19:33 14.10.2021
5282 Clouds 18 1032 32 10000 2.06 0 17:30 14.10.2021
5283 Clouds 17 1032 34 10000 1.54 0 16:49 14.10.2021
5284 Clouds 14 1034 55 10000 3.09 100 15:35 14.10.2021
5285 Clouds 12 1033 58 10000 0 0 14:41 14.10.2021
5286 Clouds 9 1032 76 10000 2.57 290 13:39 14.10.2021
5287 Clouds 11 1015 69 10000 1.38 265 11:44 14.10.2021
5288 Clouds 12 1014 67 10000 1.44 253 09:55 14.10.2021
5289 Clouds 12 1015 66 10000 0.83 215 06:55 14.10.2021
5290 Rain 17 1010 44 10000 2.86 44 00:59 14.10.2021
5291 Clouds 19 1008 37 10000 3.64 12 00:25 14.10.2021
5292 Clouds 24 1025 13 10000 3.09 350 21:58 13.10.2021
5293 Clouds 24 1005 12 10000 0 0 21:32 13.10.2021
5294 Clouds 23 1028 14 10000 2.57 0 19:58 13.10.2021
5295 Clouds 22 1030 18 10000 1.03 340 18:54 13.10.2021
5296 Clouds 20 1032 28 10000 1.54 320 18:34 13.10.2021
5297 Clouds 13 1035 51 10000 0.51 320 15:32 13.10.2021
5298 Clouds 12 1035 54 10000 0.51 260 14:45 13.10.2021
5299 Clouds 9 1035 66 10000 1.03 290 14:21 13.10.2021
5300 Clouds 7 1034 76 10000 0.51 210 12:22 13.10.2021
5301 Clouds 11 1018 70 10000 1.94 183 11:34 13.10.2021
5302 Clouds 11 1018 71 10000 2.22 189 08:41 13.10.2021
5303 Rain 12 1035 54 10000 1.54 260 06:42 13.10.2021
5304 Clouds 12 1033 62 10000 2.57 110 02:27 13.10.2021
5305 Clouds 11 1032 71 10000 2.06 280 01:37 13.10.2021
5306 Clouds 13 1031 58 10000 3.09 120 23:29 12.10.2021
5307 Clouds 15 1030 48 10000 4.63 110 22:45 12.10.2021
5308 Clouds 19 1030 28 10000 4.12 60 21:30 12.10.2021
5309 Clouds 20 1030 28 10000 5.14 300 20:34 12.10.2021
5310 Clouds 20 1030 28 10000 5.14 300 20:34 12.10.2021
5311 Clouds 20 1032 26 10000 1.54 0 19:57 12.10.2021
5312 Clouds 20 1033 28 10000 1.54 60 18:36 12.10.2021
5313 Clouds 19 1033 30 10000 3.09 80 17:51 12.10.2021
5314 Clouds 17 1034 34 10000 2.06 20 16:39 12.10.2021
5315 Clouds 15 1035 41 10000 0.51 60 15:58 12.10.2021
5316 Clouds 12 1035 54 10000 1.54 80 14:39 12.10.2021
5317 Clouds 11 1035 58 10000 0.51 0 13:43 12.10.2021
5318 Clouds 9 1034 66 10000 0.51 280 12:35 12.10.2021
5319 Clouds 12 1018 69 10000 0.78 72 09:42 12.10.2021
5320 Clouds 12 1018 68 10000 0.81 84 08:43 12.10.2021
5321 Clouds 12 1018 68 10000 0.81 84 08:43 12.10.2021
5322 Clouds 12 1019 67 10000 1.03 37 07:25 12.10.2021
5323 Clouds 11 1035 62 10000 2.06 280 05:29 12.10.2021
5324 Clouds 10 1034 58 10000 0.51 0 04:32 12.10.2021
5325 Clouds 17 1030 32 10000 5.66 30 00:28 12.10.2021
5326 Clouds 18 1029 30 10000 8.23 30 23:40 11.10.2021
5327 Clouds 20 1029 28 10000 5.66 40 22:57 11.10.2021
5328 Clouds 22 1029 26 10000 5.66 30 21:46 11.10.2021
5329 Clouds 20 1030 28 10000 4.12 70 20:39 11.10.2021
5330 Clouds 17 1031 42 10000 7.2 110 19:44 11.10.2021
5331 Clouds 18 1032 34 10000 3.09 130 18:37 11.10.2021
5332 Clouds 18 1033 37 10000 0.51 140 17:46 11.10.2021
5333 Clouds 15 1033 44 10000 1.54 0 16:31 11.10.2021
5334 Clouds 14 1034 47 10000 0.51 0 15:50 11.10.2021
5335 Clear 12 1034 58 10000 0.51 60 14:55 11.10.2021
5336 Clear 9 1034 66 10000 1.03 0 14:30 11.10.2021
5337 Clouds 8 1034 71 10000 1.54 90 13:36 11.10.2021
5338 Clouds 10 1018 75 10000 0.98 154 11:39 11.10.2021
5339 Clouds 10 1017 74 10000 1.21 170 10:31 11.10.2021
5340 Clouds 10 1017 74 10000 1.21 170 10:31 11.10.2021
5341 Clouds 11 1017 69 10000 1.46 179 09:19 11.10.2021
5342 Clouds 9 1033 71 10000 1.54 290 06:30 11.10.2021
5343 Rain 11 1031 66 10000 5.66 290 01:38 11.10.2021
5344 Rain 13 1031 54 10000 4.63 120 00:46 11.10.2021
5345 Rain 15 1029 39 10000 7.72 110 23:57 10.10.2021
5346 Rain 15 1029 39 10000 7.72 110 23:57 10.10.2021
5347 Clouds 20 1027 35 10000 2.57 90 21:52 10.10.2021
5348 Drizzle 20 1027 32 10000 2.06 0 21:31 10.10.2021
5349 Clouds 21 1028 24 10000 1.54 40 20:42 10.10.2021
5350 Clouds 23 1028 22 10000 1.54 50 20:21 10.10.2021
5351 Clouds 22 1029 23 10000 3.09 0 19:58 10.10.2021
5352 Clouds 22 1029 23 10000 3.09 0 19:35 10.10.2021
5353 Clouds 20 1031 28 10000 1.54 0 18:33 10.10.2021
5354 Clouds 18 1033 34 10000 1.03 60 16:45 10.10.2021
5355 Clouds 15 1034 44 10000 1.03 290 15:42 10.10.2021
5356 Clouds 10 1033 66 10000 1.54 80 13:53 10.10.2021
5357 Clouds 10 1033 66 10000 1.54 80 13:32 10.10.2021
5358 Clouds 9 1032 71 10000 0 0 12:33 10.10.2021
5359 Clouds 10 1017 78 10000 0.61 234 10:43 10.10.2021
5360 Rain 11 1016 74 10000 0.62 291 09:29 10.10.2021
5361 Clouds 11 1016 74 10000 0.62 291 08:53 10.10.2021
5362 Clouds 12 1017 69 10000 0.9 23 07:27 10.10.2021
5363 Clouds 15 1029 44 10000 0.51 130 02:38 10.10.2021
5364 Rain 17 1027 36 10000 2.57 0 00:55 10.10.2021
5365 Clouds 19 1026 30 10000 5.66 30 23:57 09.10.2021
5366 Clouds 20 1026 32 10000 6.17 20 22:45 09.10.2021
5367 Clouds 22 1027 28 10000 4.63 20 21:38 09.10.2021
5368 Clouds 21 1028 30 10000 1.54 160 21:19 09.10.2021
5369 Clouds 21 1029 28 10000 1.54 0 19:44 09.10.2021
5370 Clouds 19 1030 37 10000 3.6 300 18:57 09.10.2021
5371 Clouds 19 1031 32 10000 2.06 0 18:32 09.10.2021
5372 Clouds 16 1033 55 10000 1.54 60 16:29 09.10.2021
5373 Clouds 14 1033 51 10000 1.54 80 15:28 09.10.2021
5374 Clouds 10 1032 71 10000 0 0 13:43 09.10.2021
5375 Clouds 5 1032 87 10000 0 0 12:38 09.10.2021
5376 Clouds 10 1017 77 10000 1.26 315 11:43 09.10.2021
5377 Clouds 10 1016 76 10000 1.07 322 10:41 09.10.2021
5378 Clouds 10 1016 76 10000 1.07 322 10:41 09.10.2021
5379 Clouds 10 1015 75 10000 1.29 323 09:36 09.10.2021
5380 Clouds 11 1016 74 10000 1.22 345 08:29 09.10.2021
5381 Clouds 11 1016 72 10000 1.2 337 07:46 09.10.2021
5382 Clouds 11 1032 71 10000 3.09 280 05:28 09.10.2021
5383 Clouds 11 1030 76 10000 1.03 0 02:49 09.10.2021
5384 Clouds 11 1030 76 10000 3.09 290 02:21 09.10.2021
5385 Clouds 15 1027 51 10000 4.12 120 23:36 08.10.2021
5386 Clouds 19 1026 37 10000 1.03 0 22:53 08.10.2021
5387 Clouds 16 1027 45 10000 3.6 290 21:50 08.10.2021
5388 Clouds 16 1028 48 10000 2.06 240 20:49 08.10.2021
5389 Clouds 19 1030 32 10000 1.54 280 18:51 08.10.2021
5390 Clouds 16 1031 39 10000 1.54 0 17:28 08.10.2021
5391 Clouds 15 1032 44 10000 2.06 10 16:50 08.10.2021
5392 Clouds 17 1032 45 10000 2.06 110 16:22 08.10.2021
5393 Clouds 9 1031 81 10000 1.54 80 13:56 08.10.2021
5394 Clouds 9 1031 81 10000 1.03 0 12:48 08.10.2021
5395 Clouds 10 1016 77 10000 1.01 338 11:31 08.10.2021
5396 Clouds 10 1015 77 10000 1.22 345 10:35 08.10.2021
5397 Clouds 11 1016 75 10000 0.71 327 07:34 08.10.2021
5398 Clouds 13 1029 62 10000 1.54 110 23:33 07.10.2021
5399 Clouds 13 1029 58 10000 6.69 280 22:59 07.10.2021
5400 Clouds 13 1029 58 10000 7.2 280 21:34 07.10.2021
5401 Clouds 16 1029 42 10000 1.03 240 20:58 07.10.2021
5402 Clouds 16 1031 42 10000 3.6 320 19:45 07.10.2021
5403 Clouds 16 1031 42 10000 3.6 320 19:27 07.10.2021
5404 Clouds 16 1032 42 10000 1.54 110 17:48 07.10.2021
5405 Clouds 14 1033 55 10000 1.54 0 16:43 07.10.2021
5406 Clouds 13 1033 62 10000 1.54 0 15:23 07.10.2021
5407 Clouds 9 1033 81 10000 2.06 100 13:45 07.10.2021
5408 Clouds 9 1032 87 10000 1.54 110 13:27 07.10.2021
5409 Clouds 9 1032 81 10000 1.54 110 12:39 07.10.2021
5410 Clouds 9 1017 79 10000 1.5 318 10:49 07.10.2021
5411 Clouds 9 1016 77 10000 1.43 322 10:19 07.10.2021
5412 Clouds 10 1016 75 10000 1.28 327 08:56 07.10.2021
5413 Clouds 11 1016 71 10000 1.42 347 08:25 07.10.2021
5414 Clouds 11 1016 71 10000 1.42 347 07:41 07.10.2021
5415 Clouds 8 1033 87 9000 0.51 270 06:54 07.10.2021
5416 Clouds 10 1031 87 10000 1.54 100 02:23 07.10.2021
5417 Drizzle 13 1029 58 10000 2.57 270 23:39 06.10.2021
5418 Clouds 13 1029 58 10000 3.6 280 22:45 06.10.2021
5419 Drizzle 15 1029 44 10000 4.12 360 21:46 06.10.2021
5420 Clouds 17 1029 42 10000 5.14 20 20:34 06.10.2021
5421 Drizzle 15 1030 44 10000 2.57 0 19:46 06.10.2021
5422 Clouds 15 1032 48 10000 2.57 0 18:34 06.10.2021
5423 Clouds 14 1034 58 10000 0.51 290 16:54 06.10.2021
5424 Clouds 10 1034 71 9000 1.54 120 15:26 06.10.2021
5425 Clouds 8 1033 87 9000 1.03 100 13:51 06.10.2021
5426 Drizzle 8 1032 87 9000 1.54 100 12:55 06.10.2021
5427 Drizzle 8 1032 87 9000 1.03 120 12:31 06.10.2021
5428 Clouds 9 1018 77 10000 0.66 314 11:49 06.10.2021
5429 Clouds 10 1017 77 10000 0.77 310 09:57 06.10.2021
5430 Clouds 10 1017 77 10000 0.77 310 09:38 06.10.2021
5431 Clouds 10 1017 77 10000 0.97 306 08:40 06.10.2021
5432 Drizzle 9 1033 81 10000 1.03 110 06:47 06.10.2021
5433 Drizzle 8 1033 87 10000 1.54 110 05:19 06.10.2021
5434 Rain 10 1029 76 9000 2.06 110 00:26 06.10.2021
5435 Rain 10 1029 71 9000 1.03 0 23:52 05.10.2021
5436 Rain 10 1029 71 9000 1.03 0 23:52 05.10.2021
5437 Rain 10 1029 76 9000 4.12 290 23:32 05.10.2021
5438 Rain 10 1029 76 8000 4.63 290 22:44 05.10.2021
5439 Rain 12 1028 58 9000 1.54 310 21:58 05.10.2021
5440 Clouds 12 1028 58 9000 1.54 310 21:35 05.10.2021
5441 Drizzle 10 1029 71 9000 1.03 0 20:39 05.10.2021
5442 Clouds 11 1030 62 9000 2.06 0 20:20 05.10.2021
5443 Clouds 13 1031 51 9000 0.51 0 19:27 05.10.2021
5444 Clouds 14 1031 51 9000 0 0 18:46 05.10.2021
5445 Clouds 12 1033 58 10000 2.57 90 16:35 05.10.2021
5446 Clouds 8 1032 81 10000 0 0 14:30 05.10.2021
5447 Drizzle 9 1030 76 9000 0 0 13:33 05.10.2021
5448 Clouds 7 1031 81 8000 0 0 12:36 05.10.2021
5449 Clouds 10 1016 69 10000 1.39 31 11:59 05.10.2021
5450 Clouds 10 1015 70 10000 1.58 30 10:39 05.10.2021
5451 Clouds 10 1015 71 10000 1.79 22 08:44 05.10.2021
5452 Clouds 12 1030 47 10000 9.77 20 03:55 05.10.2021
5453 Clouds 18 1024 30 10000 5.14 10 23:53 04.10.2021
5454 Clouds 21 1025 12 10000 5.14 20 21:58 04.10.2021
5455 Clouds 19 1029 24 10000 2.57 0 18:55 04.10.2021
5456 Clouds 18 1030 26 10000 1.54 180 17:59 04.10.2021
5457 Clouds 15 1032 39 10000 2.06 0 16:22 04.10.2021
5458 Clouds 13 1032 47 10000 0 0 15:31 04.10.2021
5459 Clouds 12 1032 50 10000 0 0 14:42 04.10.2021
5460 Clouds 5 1031 75 10000 1.03 90 13:48 04.10.2021
5461 Clouds 5 1031 75 10000 1.03 90 13:24 04.10.2021
5462 Clouds 10 1016 79 10000 0.79 24 11:35 04.10.2021
5463 Clouds 10 1015 77 10000 0.2 329 10:48 04.10.2021
5464 Clouds 11 1014 76 10000 0.38 344 09:51 04.10.2021
5465 Clouds 11 1014 73 10000 0.59 20 08:33 04.10.2021
5466 Clouds 10 1031 58 10000 0.51 0 06:56 04.10.2021
5467 Clouds 18 1024 30 10000 6.69 30 00:28 04.10.2021
5468 Clouds 21 1024 24 10000 4.12 40 22:33 03.10.2021
5469 Clouds 22 1024 21 10000 5.66 20 21:38 03.10.2021
5470 Clouds 22 1025 18 10000 1.54 0 20:54 03.10.2021
5471 Clouds 20 1027 28 10000 1.54 60 19:56 03.10.2021
5472 Clouds 19 1028 30 10000 1.03 360 18:33 03.10.2021
5473 Clouds 18 1030 34 10000 2.06 0 17:43 03.10.2021
5474 Clouds 14 1031 51 10000 0.51 60 15:51 03.10.2021
5475 Clouds 11 1031 66 10000 0.51 90 14:45 03.10.2021
5476 Clouds 9 1030 71 10000 0 0 13:57 03.10.2021
5477 Clouds 8 1030 76 10000 1.03 90 13:20 03.10.2021
5478 Clouds 8 1029 76 10000 1.03 90 12:24 03.10.2021
5479 Clouds 10 1014 81 10000 1.38 286 10:35 03.10.2021
5480 Clouds 11 1013 77 10000 1.54 318 08:36 03.10.2021
5481 Clouds 16 1025 42 10000 5.66 20 00:41 03.10.2021
5482 Clouds 21 1025 28 10000 4.63 30 22:33 02.10.2021
5483 Clouds 19 1027 28 10000 2.06 0 20:55 02.10.2021
5484 Clouds 18 1029 34 10000 1.54 140 19:32 02.10.2021
5485 Clouds 16 1031 36 10000 1.03 30 18:50 02.10.2021
5486 Clouds 15 1032 44 10000 2.06 90 17:39 02.10.2021
5487 Clouds 13 1033 54 10000 1.54 0 16:54 02.10.2021
5488 Clouds 10 1033 66 10000 1.03 0 14:42 02.10.2021
5489 Clouds 10 1035 54 10000 1.03 120 15:41 30.09.2021
5490 Clouds 10 1034 50 10000 0.51 140 14:46 30.09.2021
5491 Clouds 4 1034 75 10000 1.54 110 12:27 30.09.2021
5492 Clouds 8 1019 72 10000 1.15 28 11:31 30.09.2021
5493 Clouds 9 1018 72 10000 1.13 24 10:36 30.09.2021
5494 Clouds 9 1018 72 10000 1.24 21 08:55 30.09.2021
5495 Clouds 10 1018 72 10000 1.67 12 08:27 30.09.2021
5496 Clouds 10 1034 50 10000 1.54 80 05:53 30.09.2021
5497 Clouds 12 1031 44 10000 5.66 40 02:59 30.09.2021
5498 Clouds 15 1028 31 10000 4.12 10 00:40 30.09.2021
5499 Clouds 17 1028 29 10000 4.12 300 23:21 29.09.2021
5500 Clouds 16 1030 34 10000 3.09 360 21:54 29.09.2021
5501 Clouds 13 1033 41 10000 4.63 300 20:57 29.09.2021
5502 Clouds 12 1033 38 10000 6.69 30 20:22 29.09.2021
5503 Clouds 17 1031 29 10000 3.6 40 19:28 29.09.2021
5504 Clouds 19 1032 22 10000 3.6 350 18:19 29.09.2021
5505 Clouds 16 1034 39 10000 1.03 160 16:56 29.09.2021
5506 Clouds 16 1034 39 10000 1.03 160 16:56 29.09.2021
5507 Clouds 12 1034 54 10000 3.6 100 16:29 29.09.2021
5508 Clouds 13 1034 47 10000 1.54 120 15:43 29.09.2021
5509 Clouds 10 1034 62 10000 0 0 14:38 29.09.2021
5510 Clouds 6 1034 76 10000 0 0 13:34 29.09.2021
5511 Clouds 3 1033 75 10000 0 0 12:40 29.09.2021
5512 Clouds 10 1017 70 10000 0.45 256 11:23 29.09.2021
5513 Clouds 10 1017 70 10000 0.45 256 10:32 29.09.2021
5514 Clouds 10 1017 73 10000 0.79 286 09:43 29.09.2021
5515 Clouds 11 1017 66 10000 0.69 208 07:55 29.09.2021
5516 Clouds 12 1017 66 10000 0.62 242 06:49 29.09.2021
5517 Clouds 15 1029 39 8000 5.14 60 00:28 29.09.2021
5518 Clouds 16 1027 36 10000 6.69 20 22:52 28.09.2021
5519 Clouds 17 1028 34 10000 6.69 300 22:22 28.09.2021
5520 Rain 20 1028 26 10000 5.66 30 21:23 28.09.2021
5521 Clouds 22 1030 20 10000 5.14 60 19:53 28.09.2021
5522 Clouds 19 1031 24 10000 1.54 330 19:32 28.09.2021
5523 Clouds 20 1032 26 10000 1.03 80 18:42 28.09.2021
5524 Clouds 16 1034 39 10000 1.03 80 16:58 28.09.2021
5525 Clouds 12 1035 50 10000 1.03 90 15:21 28.09.2021
5526 Clouds 5 1033 75 10000 1.54 90 13:28 28.09.2021
5527 Clouds 7 1033 66 10000 1.54 110 12:26 28.09.2021
5528 Clouds 11 1018 66 10000 1.08 229 11:52 28.09.2021
5529 Clouds 11 1018 66 10000 1.08 229 11:34 28.09.2021
5530 Clouds 11 1017 65 10000 1.28 223 10:30 28.09.2021
5531 Clouds 11 1017 64 10000 1 271 09:29 28.09.2021
5532 Clouds 11 1017 64 10000 1 271 08:44 28.09.2021
5533 Clouds 12 1018 64 10000 0.86 315 08:25 28.09.2021
5534 Clouds 7 1034 61 10000 0.51 0 06:46 28.09.2021
5535 Clouds 13 1032 47 10000 2.57 360 02:56 28.09.2021
5536 Clouds 15 1030 41 10000 3.6 10 00:51 28.09.2021
5537 Clouds 17 1029 34 10000 5.14 30 23:52 27.09.2021
5538 Clouds 18 1029 30 10000 2.06 20 23:27 27.09.2021
5539 Clouds 18 1029 30 10000 2.76 12 22:44 27.09.2021
5540 Clouds 19 1029 26 10000 4.63 20 21:39 27.09.2021
5541 Clouds 19 1031 24 10000 5.14 30 20:33 27.09.2021
5542 Clouds 18 1032 27 10000 4.12 20 19:40 27.09.2021
5543 Clouds 21 1033 23 10000 5.14 40 18:55 27.09.2021
5544 Clouds 18 1035 32 10000 1.54 320 17:41 27.09.2021
5545 Clouds 18 1035 32 10000 0.51 40 17:21 27.09.2021
5546 Clouds 17 1035 34 10000 1.54 80 16:37 27.09.2021
5547 Clouds 17 1035 34 10000 1.54 80 16:37 27.09.2021
5548 Clouds 14 1036 44 10000 0.51 200 15:39 27.09.2021
5549 Clouds 9 1035 61 10000 2.06 100 13:57 27.09.2021
5550 Clouds 6 1034 65 10000 0 0 12:53 27.09.2021
5551 Clouds 10 1021 77 10000 1.44 181 10:51 27.09.2021
5552 Clouds 10 1021 76 10000 1.52 192 09:46 27.09.2021
5553 Clouds 11 1021 71 10000 1.37 199 08:26 27.09.2021
5554 Clouds 14 1034 35 10000 0.51 0 04:51 27.09.2021
5555 Clouds 16 1030 29 10000 4.12 30 00:39 27.09.2021
5556 Clouds 21 1030 18 10000 5.14 30 22:27 26.09.2021
5557 Clouds 21 1030 16 10000 6.69 30 21:31 26.09.2021
5558 Clouds 21 1031 17 10000 5.66 50 20:45 26.09.2021
5559 Clouds 23 1031 14 10000 4.63 20 20:18 26.09.2021
5560 Clouds 20 1032 24 10000 1.54 180 19:36 26.09.2021
5561 Clouds 19 1033 26 10000 1.54 0 18:45 26.09.2021
5562 Clouds 17 1034 34 10000 2.57 300 17:50 26.09.2021
5563 Clouds 16 1035 39 10000 1.03 350 17:20 26.09.2021
5564 Clouds 13 1036 51 10000 1.03 340 16:28 26.09.2021
5565 Clouds 12 1036 50 10000 1.03 80 15:56 26.09.2021
5566 Clouds 8 1036 66 10000 0 0 14:26 26.09.2021
5567 Clouds 6 1035 76 10000 1.03 100 13:45 26.09.2021
5568 Clouds 4 1034 81 10000 1.03 300 12:32 26.09.2021
5569 Clouds 10 1019 70 10000 0.92 270 11:58 26.09.2021
5570 Clouds 10 1019 70 10000 0.92 270 11:36 26.09.2021
5571 Clouds 10 1019 69 10000 0.6 302 09:52 26.09.2021
5572 Clouds 11 1019 68 10000 0.53 330 08:55 26.09.2021
5573 Clouds 10 1035 62 10000 3.09 100 03:24 26.09.2021
5574 Clouds 16 1031 31 10000 3.09 20 00:20 26.09.2021
5575 Clouds 19 1030 26 10000 5.14 10 23:22 25.09.2021
5576 Clouds 19 1030 24 10000 5.14 10 22:36 25.09.2021
5577 Clouds 20 1031 26 10000 3.09 0 21:49 25.09.2021
5578 Clouds 20 1032 23 10000 2.06 90 21:19 25.09.2021
5579 Clouds 18 1035 30 10000 1.03 50 19:54 25.09.2021
5580 Clouds 15 1036 36 10000 2.06 190 18:40 25.09.2021
5581 Clouds 12 1038 58 10000 2.06 80 17:47 25.09.2021
5582 Clouds 7 1039 66 7000 1.54 100 15:35 25.09.2021
5583 Clouds 6 1037 61 10000 0.51 260 13:56 25.09.2021
5584 Clouds 4 1036 65 10000 0 0 12:48 25.09.2021
5585 Clouds 9 1022 74 10000 0.49 359 11:40 25.09.2021
5586 Clouds 9 1021 71 10000 0.86 4 10:24 25.09.2021
5587 Clouds 10 1021 69 10000 0.61 41 09:25 25.09.2021
5588 Clouds 6 1037 61 10000 0 0 07:52 25.09.2021
5589 Clouds 13 1032 38 10000 3.09 10 01:34 25.09.2021
5590 Clouds 16 1031 31 10000 4.63 50 23:33 24.09.2021
5591 Clouds 16 1032 31 10000 7.72 20 21:41 24.09.2021
5592 Clouds 17 1033 29 10000 4.12 60 20:33 24.09.2021
5593 Clouds 17 1034 29 10000 4.63 40 19:44 24.09.2021
5594 Clouds 16 1036 31 10000 1.03 0 18:30 24.09.2021
5595 Clouds 15 1036 31 10000 1.54 140 17:53 24.09.2021
5596 Clouds 15 1036 31 10000 1.54 140 17:35 24.09.2021
5597 Clouds 12 1037 38 10000 2.57 90 16:45 24.09.2021
5598 Clouds 2 1037 75 10000 1.54 80 13:54 24.09.2021
5599 Clouds 2 1036 75 10000 0.51 270 12:45 24.09.2021
5600 Clouds 1 1036 75 10000 0.51 80 12:26 24.09.2021
5601 Clear 7 1023 74 10000 1.4 42 11:50 24.09.2021
5602 Clear 7 1022 71 10000 1.71 57 10:24 24.09.2021
5603 Clouds 8 1023 71 10000 1.57 48 08:24 24.09.2021
5604 Clouds 8 1022 70 10000 1.46 31 07:32 24.09.2021
5605 Clouds 6 1037 61 10000 1.54 110 06:44 24.09.2021
5606 Clouds 9 1036 46 10000 1.03 0 04:53 24.09.2021
5607 Clouds 16 1030 29 10000 5.66 30 22:46 23.09.2021
5608 Clouds 16 1030 27 10000 3.49 24 22:19 23.09.2021
5609 Clouds 18 1031 24 10000 4.63 30 21:44 23.09.2021
5610 Clouds 17 1032 25 10000 4.63 40 20:33 23.09.2021
5611 Clouds 17 1034 29 10000 4.63 20 19:18 23.09.2021
5612 Clouds 17 1034 29 10000 4.63 20 19:18 23.09.2021
5613 Clouds 17 1034 29 10000 4.63 20 19:18 23.09.2021
5614 Clouds 13 1036 54 10000 2.57 80 17:18 23.09.2021
5615 Mist 8 1036 76 7000 1.54 90 15:20 23.09.2021
5616 Mist 8 1036 81 5000 2.06 100 14:59 23.09.2021
5617 Mist 7 1035 81 7000 1.03 280 13:45 23.09.2021
5618 Clouds 8 1021 80 10000 0.97 140 13:18 23.09.2021
5619 Clouds 8 1021 80 10000 0.97 140 12:47 23.09.2021
5620 Clouds 8 1020 81 10000 1.01 148 12:22 23.09.2021
5621 Clouds 8 1019 80 10000 0.86 177 11:20 23.09.2021
5622 Clouds 8 1019 78 10000 1.12 169 10:19 23.09.2021
5623 Clouds 8 1019 78 10000 1.12 169 09:48 23.09.2021
5624 Clouds 7 1036 81 10000 0 0 06:32 23.09.2021
5625 Clouds 8 1033 81 10000 0.51 100 01:18 23.09.2021
5626 Mist 8 1033 81 8000 6.17 110 22:58 22.09.2021
5627 Rain 11 1032 58 10000 3.6 290 22:23 22.09.2021
5628 Rain 11 1032 58 10000 5.66 290 21:46 22.09.2021
5629 Rain 11 1032 58 10000 5.66 290 21:46 22.09.2021
5630 Clouds 11 1033 58 10000 4.63 260 20:59 22.09.2021
5631 Rain 11 1033 58 10000 4.63 260 20:38 22.09.2021
5632 Rain 16 1033 29 10000 3.6 80 19:27 22.09.2021
5633 Rain 17 1033 29 10000 3.6 110 18:36 22.09.2021
5634 Clouds 13 1020 57 4939 1.5 208 17:38 22.09.2021
5635 Clouds 12 1022 63 10000 1.3 226 15:53 22.09.2021
5636 Clouds 10 1036 54 10000 0.51 90 14:37 22.09.2021
5637 Rain 8 1035 61 10000 0.51 230 13:24 22.09.2021
5638 Rain 10 1019 72 10000 1.11 74 11:20 22.09.2021
5639 Clouds 10 1019 74 10000 0.58 37 09:35 22.09.2021
5640 Clouds 10 1019 73 10000 0.69 50 08:51 22.09.2021
5641 Clouds 10 1020 72 10000 0.62 19 07:41 22.09.2021
5642 Clouds 10 1036 54 10000 1.54 70 06:56 22.09.2021
5643 Clouds 10 1035 54 10000 1.54 90 05:49 22.09.2021
5644 Clouds 10 1035 50 10000 2.06 100 05:18 22.09.2021
5645 Clouds 11 1034 47 10000 1.03 20 03:34 22.09.2021
5646 Clouds 15 1031 33 10000 1.03 290 00:19 22.09.2021
5647 Clouds 14 1032 36 10000 1.03 0 22:28 21.09.2021
5648 Clouds 12 1035 47 10000 0.51 0 21:31 21.09.2021
5649 Rain 16 1015 43 10000 6 355 19:38 21.09.2021
5650 Rain 9 1039 53 10000 7.2 130 19:19 21.09.2021
5651 Clouds 11 1037 50 10000 6.17 140 16:59 21.09.2021
5652 Clouds 10 1036 54 10000 5.14 120 16:27 21.09.2021
5653 Clouds 14 1035 44 10000 0.51 0 15:25 21.09.2021
5654 Clouds 12 1035 50 10000 0.51 360 14:49 21.09.2021
5655 Clouds 5 1034 70 10000 1.54 70 13:40 21.09.2021
5656 Clouds 4 1033 75 10000 0.51 70 12:45 21.09.2021
5657 Clouds 9 1019 77 10000 0.86 351 10:51 21.09.2021
5658 Clouds 9 1018 75 10000 1.1 336 09:54 21.09.2021
5659 Clouds 11 1018 68 10000 1.57 7 07:47 21.09.2021
5660 Clouds 12 1033 47 10000 2.06 130 05:42 21.09.2021
5661 Clouds 17 1027 34 10000 5.66 60 23:58 20.09.2021
5662 Clouds 22 1028 18 10000 4.12 30 21:53 20.09.2021
5663 Clouds 22 1028 18 10000 4.12 30 21:32 20.09.2021
5664 Clouds 22 1029 18 10000 5.14 280 20:27 20.09.2021
5665 Clouds 20 1030 19 10000 3.6 310 19:24 20.09.2021
5666 Clouds 18 1032 24 10000 2.55 6 17:39 20.09.2021
5667 Clouds 14 1034 36 10000 2.06 70 16:26 20.09.2021
5668 Clouds 13 1034 41 10000 1.03 140 15:47 20.09.2021
5669 Clouds 11 1034 47 10000 1.54 90 15:18 20.09.2021
5670 Clouds 6 1034 65 10000 1.03 120 13:42 20.09.2021
5671 Clouds 4 1033 70 10000 1.54 90 12:34 20.09.2021
5672 Clouds 9 1018 77 10000 0.56 287 11:19 20.09.2021
5673 Clouds 9 1017 75 10000 0.88 310 09:55 20.09.2021
5674 Clouds 9 1017 75 10000 0.88 310 09:34 20.09.2021
5675 Clouds 10 1017 73 10000 1.19 337 08:56 20.09.2021
5676 Clouds 11 1018 66 10000 1.35 355 06:47 20.09.2021
5677 Clouds 16 1027 31 10000 5.14 20 23:45 19.09.2021
5678 Clouds 20 1027 24 10000 5.14 20 21:56 19.09.2021
5679 Clouds 20 1027 24 10000 5.14 20 21:34 19.09.2021
5680 Clouds 21 1028 20 10000 5.66 30 20:33 19.09.2021
5681 Clouds 21 1030 19 10000 3.6 0 19:18 19.09.2021
5682 Clouds 18 1032 27 10000 2.57 150 18:25 19.09.2021
5683 Clouds 16 1033 36 10000 1.54 290 17:22 19.09.2021
5684 Clouds 14 1034 47 10000 1.03 0 15:55 19.09.2021
5685 Clouds 10 1034 54 10000 0.51 0 14:50 19.09.2021
5686 Clouds 8 1033 61 10000 0 0 14:30 19.09.2021
5687 Clouds 5 1032 70 10000 1.54 280 13:20 19.09.2021
5688 Clouds 6 1032 70 10000 1.54 290 12:47 19.09.2021
5689 Clouds 10 1017 66 10000 0.31 32 11:27 19.09.2021
5690 Clouds 10 1016 65 10000 0.2 47 10:24 19.09.2021
5691 Clouds 11 1016 64 10000 0.33 84 09:28 19.09.2021
5692 Clouds 10 1017 65 10000 1.02 16 07:31 19.09.2021
5693 Clouds 11 1032 47 10000 2.57 250 04:21 19.09.2021
5694 Clouds 18 1027 26 10000 8.75 40 23:35 18.09.2021
5695 Clouds 20 1027 24 10000 7.72 30 21:59 18.09.2021
5696 Clouds 21 1028 21 10000 4.63 10 20:48 18.09.2021
5697 Clouds 21 1029 21 10000 2.57 10 20:27 18.09.2021
5698 Clouds 21 1030 20 10000 3.09 60 19:39 18.09.2021
5699 Clouds 20 1031 24 10000 2.06 0 19:20 18.09.2021
5700 Clouds 19 1032 26 10000 1.03 20 18:31 18.09.2021
5701 Clouds 17 1034 34 10000 2.06 0 17:25 18.09.2021
5702 Clouds 13 1035 44 10000 1.54 50 15:48 18.09.2021
5703 Clouds 8 1034 61 10000 0 0 13:46 18.09.2021
5704 Clouds 6 1033 65 10000 1.03 0 13:27 18.09.2021
5705 Clouds 6 1033 65 10000 1.03 0 12:48 18.09.2021
5706 Clouds 9 1019 81 10000 0.49 313 11:37 18.09.2021
5707 Rain 9 1019 79 10000 0.88 309 10:31 18.09.2021
5708 Clouds 10 1019 74 10000 0.7 327 09:26 18.09.2021
5709 Clouds 10 1019 74 10000 0.7 327 08:48 18.09.2021
5710 Clouds 15 1015 48 10000 3.13 12 00:59 18.09.2021
5711 Clouds 15 1015 48 10000 3.13 12 00:41 18.09.2021
5712 Clouds 16 1013 43 10000 3.49 358 23:44 17.09.2021
5713 Clouds 17 1012 39 10000 3.94 348 22:33 17.09.2021
5714 Clouds 21 1030 18 10000 5.14 50 21:48 17.09.2021
5715 Clouds 21 1032 20 10000 2.57 280 20:25 17.09.2021
5716 Clouds 18 1035 24 10000 1.54 0 18:51 17.09.2021
5717 Clouds 18 1037 29 10000 1.03 80 16:50 17.09.2021
5718 Clouds 14 1037 41 10000 1.03 90 15:50 17.09.2021
5719 Clouds 5 1035 70 10000 0.51 310 12:32 17.09.2021
5720 Clouds 8 1022 79 10000 1.38 20 10:41 17.09.2021
5721 Clouds 10 1022 75 10000 2.19 9 08:19 17.09.2021
5722 Clouds 10 1037 57 10000 1.54 110 06:43 17.09.2021
5723 Clouds 15 1032 38 10000 3.6 30 00:39 17.09.2021
5724 Clouds 17 1030 32 10000 8.75 50 22:46 16.09.2021
5725 Clouds 17 1031 32 10000 7.2 20 22:24 16.09.2021
5726 Clouds 17 1031 32 10000 5.66 0 21:39 16.09.2021
5727 Clouds 18 1032 30 10000 6.17 350 20:43 16.09.2021
5728 Clouds 19 1033 28 10000 6.17 30 19:36 16.09.2021
5729 Clouds 18 1034 30 10000 1.03 100 18:19 16.09.2021
5730 Clouds 17 1035 32 10000 1.54 90 17:22 16.09.2021
5731 Clouds 12 1036 54 10000 0.51 70 14:53 16.09.2021
5732 Clouds 7 1036 71 10000 0 0 13:48 16.09.2021
5733 Clouds 7 1034 71 10000 1.03 120 12:47 16.09.2021
5734 Clouds 7 1034 71 10000 1.03 120 12:26 16.09.2021
5735 Clouds 10 1020 66 10000 1.64 32 11:24 16.09.2021
5736 Clouds 10 1020 66 10000 1.64 32 10:30 16.09.2021
5737 Clouds 10 1020 67 10000 1.62 35 09:39 16.09.2021
5738 Clouds 10 1020 69 10000 1.55 35 08:32 16.09.2021
5739 Clouds 11 1035 58 10000 2.57 110 06:59 16.09.2021
5740 Clouds 11 1035 58 10000 2.57 110 06:39 16.09.2021
5741 Clouds 13 1034 51 10000 3.6 120 04:18 16.09.2021
5742 Clouds 16 1030 41 10000 4.12 40 00:59 16.09.2021
5743 Clouds 17 1029 34 10000 4.12 20 23:32 15.09.2021
5744 Clouds 17 1029 34 10000 4.12 20 23:32 15.09.2021
5745 Clouds 17 1029 34 10000 4.12 20 22:45 15.09.2021
5746 Clouds 17 1030 34 10000 5.66 40 21:37 15.09.2021
5747 Clouds 19 1030 32 10000 4.12 10 20:54 15.09.2021
5748 Clouds 17 1032 34 10000 1.54 360 19:35 15.09.2021
5749 Clouds 17 1032 34 10000 4.63 130 18:59 15.09.2021
5750 Clouds 17 1033 36 10000 4.12 130 17:46 15.09.2021
5751 Clouds 16 1034 39 10000 2.57 150 16:44 15.09.2021
5752 Clouds 14 1034 47 10000 2.06 80 15:29 15.09.2021
5753 Clouds 12 1034 58 10000 0.51 10 14:44 15.09.2021
5754 Clouds 9 1033 71 10000 0 0 13:51 15.09.2021
5755 Clouds 7 1032 71 10000 1.03 0 13:29 15.09.2021
5756 Clouds 7 1032 76 10000 1.03 300 12:34 15.09.2021
5757 Clouds 11 1017 68 10000 1.54 7 11:51 15.09.2021
5758 Clouds 11 1016 67 10000 1.63 359 10:58 15.09.2021
5759 Clouds 11 1016 67 10000 1.63 359 10:35 15.09.2021
5760 Clouds 12 1016 66 10000 1.39 1 09:23 15.09.2021
5761 Rain 12 1018 67 10000 1.32 17 07:27 15.09.2021
5762 Clouds 14 1031 44 10000 1.03 0 02:50 15.09.2021
5763 Clouds 21 1026 26 10000 4.12 10 22:36 14.09.2021
5764 Clouds 19 1027 30 10000 7.2 20 21:34 14.09.2021
5765 Smoke 23 1028 22 10000 4.12 80 20:25 14.09.2021
5766 Clouds 22 1028 18 10000 4.12 110 19:40 14.09.2021
5767 Clouds 19 1032 28 10000 1.54 100 17:33 14.09.2021
5768 Clouds 17 1033 34 10000 1.54 100 16:43 14.09.2021
5769 Clouds 12 1034 54 10000 1.54 90 15:25 14.09.2021
5770 Clouds 9 1033 62 10000 1.54 80 14:19 14.09.2021
5771 Clouds 9 1018 80 10000 1.97 287 11:48 14.09.2021
5772 Clouds 9 1017 78 10000 2.14 307 10:47 14.09.2021
5773 Clouds 10 1017 76 10000 2.11 298 09:49 14.09.2021
5774 Clouds 11 1017 71 10000 1.69 310 07:58 14.09.2021
5775 Clouds 13 1030 51 10000 3.09 350 02:55 14.09.2021
5776 Clouds 19 1027 32 10000 4.12 30 23:29 13.09.2021
5777 Clouds 20 1028 30 10000 5.66 20 22:28 13.09.2021
5778 Clouds 20 1028 30 10000 5.66 30 21:56 13.09.2021
5779 Clouds 21 1028 30 10000 5.66 30 21:56 13.09.2021
5780 Clouds 20 1028 30 10000 5.66 30 21:33 13.09.2021
5781 Clouds 21 1031 23 10000 2.06 0 19:38 13.09.2021
5782 Clouds 18 1034 32 10000 1.54 0 18:45 13.09.2021
5783 Clouds 16 1035 36 10000 2.06 350 17:38 13.09.2021
5784 Clouds 16 1035 41 10000 2.06 0 16:49 13.09.2021
5785 Clouds 11 1035 58 10000 0.51 0 14:45 13.09.2021
5786 Clouds 8 1020 77 10000 1.66 296 11:44 13.09.2021
5787 Clouds 8 1019 75 10000 1.55 303 10:42 13.09.2021
5788 Clouds 10 1019 72 10000 1.49 319 08:23 13.09.2021
5789 Clouds 16 1030 36 10000 3.09 20 00:38 13.09.2021
5790 Clouds 20 1029 24 10000 1.54 0 22:51 12.09.2021
5791 Clouds 20 1029 24 10000 5.66 290 22:22 12.09.2021
5792 Clouds 19 1031 26 10000 1.54 0 20:57 12.09.2021
5793 Clouds 20 1032 26 10000 2.06 260 20:19 12.09.2021
5794 Clouds 20 1032 28 10000 1.54 0 19:36 12.09.2021
5795 Clouds 17 1033 32 10000 2.57 50 19:18 12.09.2021
5796 Clouds 16 1034 36 10000 1.03 50 17:50 12.09.2021
5797 Clouds 12 1035 50 10000 1.03 0 15:56 12.09.2021
5798 Clouds 8 1035 61 10000 1.54 90 14:47 12.09.2021
5799 Clouds 4 1034 81 10000 1.54 90 12:42 12.09.2021
5800 Clouds 8 1020 82 10000 1.19 308 10:30 12.09.2021
5801 Clouds 9 1020 79 10000 1.64 321 08:39 12.09.2021
5802 Clouds 9 1020 77 10000 1.51 343 07:26 12.09.2021
5803 Clouds 15 1030 39 10000 4.12 10 00:47 12.09.2021
5804 Clouds 17 1029 34 10000 6.69 30 22:39 11.09.2021
5805 Clouds 19 1030 30 10000 4.63 30 21:39 11.09.2021
5806 Clouds 16 1032 36 10000 2.57 0 19:39 11.09.2021
5807 Clouds 14 1034 44 10000 1.54 140 17:57 11.09.2021
5808 Clouds 12 1035 50 10000 1.54 40 17:27 11.09.2021
5809 Clouds 9 1035 57 10000 1.03 0 15:35 11.09.2021
5810 Clouds 3 1033 75 10000 1.03 300 13:22 11.09.2021
5811 Clouds 9 1019 74 10000 0.89 356 11:41 11.09.2021
5812 Clouds 9 1018 76 10000 1.14 0 09:50 11.09.2021
5813 Clouds 9 1019 77 10000 1.05 355 08:42 11.09.2021
5814 Clouds 9 1019 76 10000 1.3 4 07:43 11.09.2021
5815 Clouds 12 1031 47 10000 2.06 180 02:52 11.09.2021
5816 Clouds 19 1027 28 10000 4.63 30 22:28 10.09.2021
5817 Clouds 21 1027 23 10000 0.51 30 21:56 10.09.2021
5818 Clouds 21 1028 19 10000 3.6 290 21:35 10.09.2021
5819 Clouds 19 1030 22 10000 1.03 0 19:30 10.09.2021
5820 Clouds 19 1030 22 10000 1.03 0 19:30 10.09.2021
5821 Clouds 19 1032 30 10000 0 0 17:54 10.09.2021
5822 Clouds 13 1034 51 10000 1.54 100 15:51 10.09.2021
5823 Clouds 7 1032 71 10000 0.51 110 13:20 10.09.2021
5824 Clouds 10 1017 73 10000 1.44 347 10:32 10.09.2021
5825 Clouds 11 1018 72 10000 1.08 314 07:52 10.09.2021
5826 Clouds 10 1032 58 10000 2.57 110 06:37 10.09.2021
5827 Clouds 18 1027 30 10000 3.09 260 23:59 09.09.2021
5828 Clouds 19 1027 30 10000 4.63 10 21:48 09.09.2021
5829 Clouds 20 1028 28 10000 7.2 290 20:47 09.09.2021
5830 Clouds 20 1029 28 10000 2.57 0 20:26 09.09.2021
5831 Clouds 18 1031 32 10000 1.03 0 18:41 09.09.2021
5832 Clouds 16 1032 42 10000 1.03 60 17:41 09.09.2021
5833 Clouds 14 1033 44 10000 1.03 320 16:27 09.09.2021
5834 Clouds 9 1033 71 10000 1.54 90 13:38 09.09.2021
5835 Clouds 10 1017 72 10000 1.31 308 11:57 09.09.2021
5836 Clouds 11 1016 70 10000 0.73 294 11:22 09.09.2021
5837 Clouds 11 1016 69 10000 1.46 284 09:34 09.09.2021
5838 Clouds 11 1016 69 10000 1.46 284 09:34 09.09.2021
5839 Clouds 10 1017 70 10000 1.32 331 07:34 09.09.2021
5840 Clouds 10 1032 62 10000 3.09 270 04:47 09.09.2021
5841 Clouds 15 1028 58 10000 3.6 320 23:54 08.09.2021
5842 Clouds 16 1027 39 10000 5.66 30 21:47 08.09.2021
5843 Clouds 21 1027 26 10000 5.14 20 20:37 08.09.2021
5844 Clouds 21 1028 21 10000 3.09 0 19:44 08.09.2021
5845 Clouds 20 1030 26 10000 2.57 320 18:34 08.09.2021
5846 Clouds 17 1031 32 10000 2.57 360 17:59 08.09.2021
5847 Clouds 17 1031 32 10000 2.57 360 17:39 08.09.2021
5848 Clouds 9 1033 57 10000 0.51 60 14:57 08.09.2021
5849 Clouds 2 1032 75 10000 1.54 290 13:25 08.09.2021
5850 Clouds 3 1032 87 10000 0 0 12:41 08.09.2021
5851 Clouds 3 1031 70 10000 1.54 290 12:21 08.09.2021
5852 Clouds 8 1018 81 10000 0.88 315 11:23 08.09.2021
5853 Clouds 8 1018 81 10000 1.15 304 10:29 08.09.2021
5854 Clouds 8 1018 81 10000 1.15 304 09:36 08.09.2021
5855 Clouds 9 1018 79 10000 1.64 317 07:43 08.09.2021
5856 Clouds 8 1033 66 10000 1.54 290 06:40 08.09.2021
5857 Clouds 18 1027 27 10000 5.66 310 23:18 07.09.2021
5858 Clouds 18 1027 27 10000 5.14 20 22:19 07.09.2021
5859 Clouds 21 1029 20 10000 1.54 0 20:40 07.09.2021
5860 Clouds 19 1032 19 10000 3.09 360 18:52 07.09.2021
5861 Clouds 18 1033 24 10000 0 0 18:24 07.09.2021
5862 Clouds 14 1034 38 10000 1.54 140 16:59 07.09.2021
5863 Clouds 13 1034 44 10000 2.06 0 15:56 07.09.2021
5864 Clouds 11 1034 50 10000 1.03 0 14:47 07.09.2021
5865 Clouds 4 1033 75 10000 0 0 13:29 07.09.2021
5866 Clouds 9 1019 77 10000 1.82 267 11:51 07.09.2021
5867 Clouds 9 1018 76 10000 1.14 277 10:45 07.09.2021
5868 Clouds 10 1018 75 10000 1.44 324 08:47 07.09.2021
5869 Clouds 10 1018 75 10000 1.48 354 07:45 07.09.2021
5870 Clouds 8 1034 57 10000 0 0 05:47 07.09.2021
5871 Clouds 10 1032 50 10000 1.03 130 02:38 07.09.2021
5872 Clouds 14 1030 36 10000 3.09 60 00:54 07.09.2021
5873 Clouds 15 1030 33 10000 4.12 0 23:43 06.09.2021
5874 Clouds 14 1031 36 10000 4.63 20 23:20 06.09.2021
5875 Rain 14 1031 38 10000 5.14 20 22:45 06.09.2021
5876 Clouds 15 1032 36 10000 5.14 20 21:31 06.09.2021
5877 Clouds 16 1033 31 10000 2.57 0 19:36 06.09.2021
5878 Clouds 16 1033 31 10000 0 0 19:18 06.09.2021
5879 Clouds 15 1035 33 10000 2.57 90 18:27 06.09.2021
5880 Clouds 15 1035 33 10000 2.57 90 18:27 06.09.2021
5881 Clouds 16 1035 31 10000 1.54 70 17:36 06.09.2021
5882 Clouds 11 1036 47 10000 1.03 110 15:58 06.09.2021
5883 Clouds 8 1035 53 10000 0 0 14:34 06.09.2021
5884 Clouds 3 1034 70 10000 2.06 310 12:48 06.09.2021
5885 Clouds 7 1022 80 10000 1.48 13 11:33 06.09.2021
5886 Clouds 8 1020 77 10000 1.62 18 09:59 06.09.2021
5887 Clouds 9 1020 67 10000 1.67 33 07:34 06.09.2021
5888 Clouds 14 1029 33 10000 3.09 340 01:32 06.09.2021
5889 Clouds 18 1030 26 10000 4.63 70 23:20 05.09.2021
5890 Clouds 18 1029 26 10000 5.14 50 22:31 05.09.2021
5891 Clouds 19 1029 22 10000 6.69 50 21:55 05.09.2021
5892 Clouds 20 1030 18 10000 5.66 20 20:55 05.09.2021
5893 Clouds 18 1032 26 10000 5.66 20 19:22 05.09.2021
5894 Clouds 17 1034 36 10000 2.06 0 17:37 05.09.2021
5895 Clouds 18 1034 30 10000 1.03 70 17:36 05.09.2021
5896 Clouds 13 1035 47 10000 1.54 60 15:40 05.09.2021
5897 Clouds 9 1035 62 10000 1.03 100 14:45 05.09.2021
5898 Clouds 5 1033 70 10000 1.03 100 12:34 05.09.2021
5899 Clouds 10 1017 76 10000 0.66 331 10:59 05.09.2021
5900 Clouds 10 1017 76 10000 0.66 331 10:34 05.09.2021
5901 Clouds 10 1017 75 10000 1.11 359 09:26 05.09.2021
5902 Clouds 10 1018 76 10000 1.49 17 08:23 05.09.2021
5903 Clouds 13 1031 44 10000 0.51 0 03:20 05.09.2021
5904 Rain 16 1028 34 10000 3.6 60 00:32 05.09.2021
5905 Rain 16 1028 27 10000 2.06 0 23:46 04.09.2021
5906 Thunderstorm 17 1029 24 10000 4.12 160 22:55 04.09.2021
5907 Thunderstorm 17 1029 24 10000 4.12 160 22:34 04.09.2021
5908 Clouds 23 1029 16 10000 3.09 300 19:58 04.09.2021
5909 Clouds 21 1030 21 10000 2.57 100 19:32 04.09.2021
5910 Clouds 16 1034 36 10000 1.54 0 16:47 04.09.2021
5911 Clouds 4 1033 75 10000 0 0 13:49 04.09.2021
5912 Clouds 10 1017 73 10000 1.21 179 11:22 04.09.2021
5913 Clouds 11 1017 69 10000 1.14 221 09:39 04.09.2021
5914 Clouds 11 1019 71 10000 1.51 225 07:28 04.09.2021
5915 Clouds 16 1029 29 10000 4.12 30 00:30 04.09.2021
5916 Clouds 18 1028 22 10000 6.17 40 23:32 03.09.2021
5917 Clouds 18 1028 22 10000 6.17 40 23:32 03.09.2021
5918 Clouds 19 1028 21 10000 6.17 30 22:57 03.09.2021
5919 Clouds 22 1028 15 10000 5.66 30 21:37 03.09.2021
5920 Clouds 22 1029 13 10000 6.69 40 20:53 03.09.2021
5921 Clouds 22 1030 16 10000 2.57 20 19:57 03.09.2021
5922 Clouds 20 1031 23 10000 1.54 0 19:30 03.09.2021
5923 Clouds 17 1034 34 10000 2.06 0 17:58 03.09.2021
5924 Clear 16 1018 48 10000 0.76 49 16:44 03.09.2021
5925 Clouds 14 1019 57 10000 0.22 49 15:38 03.09.2021
5926 Clouds 6 1034 75 10000 1.03 100 13:24 03.09.2021
5927 Clouds 9 1019 83 10000 1.42 308 10:43 03.09.2021
5928 Clouds 10 1018 77 10000 1.39 296 09:20 03.09.2021
5929 Clouds 11 1019 70 10000 1.52 275 07:51 03.09.2021
5930 Clouds 8 1034 61 10000 1.03 80 06:26 03.09.2021
5931 Clouds 18 1028 26 10000 5.66 40 23:54 02.09.2021
5932 Clouds 22 1028 18 10000 2.06 0 21:42 02.09.2021
5933 Clouds 19 1012 32 10000 1.73 19 20:25 02.09.2021
5934 Clouds 16 1017 43 10000 0.96 19 17:33 02.09.2021
5935 Clouds 12 1020 58 10000 0.93 242 16:20 02.09.2021
5936 Clouds 10 1035 50 10000 0 0 15:29 02.09.2021
5937 Clouds 4 1034 75 10000 1.54 90 13:23 02.09.2021
5938 Clouds 10 1018 70 10000 0.91 263 11:41 02.09.2021
5939 Clouds 10 1018 70 10000 0.84 261 10:52 02.09.2021
5940 Clouds 10 1018 68 10000 0.88 326 08:49 02.09.2021
5941 Clouds 11 1019 70 10000 1.44 16 07:20 02.09.2021
5942 Clouds 11 1019 70 10000 1.44 16 07:20 02.09.2021
5943 Clouds 10 1033 50 10000 1.03 180 05:31 02.09.2021
5944 Clouds 10 1033 50 10000 1.03 180 05:31 02.09.2021
5945 Clouds 13 1031 38 10000 1.03 140 02:35 02.09.2021
5946 Clouds 14 1030 36 10000 2.57 140 01:36 02.09.2021
5947 Rain 19 1028 22 10000 2.06 0 23:40 01.09.2021
5948 Clouds 23 1028 12 10000 5.14 20 22:42 01.09.2021
5949 Clouds 23 1028 12 10000 2.57 0 21:41 01.09.2021
5950 Clouds 21 1030 16 10000 3.09 310 20:54 01.09.2021
5951 Clouds 19 1032 22 10000 1.54 0 19:23 01.09.2021
5952 Clouds 16 1034 34 10000 1.03 0 17:50 01.09.2021
5953 Clouds 14 1035 41 10000 1.54 80 16:48 01.09.2021
5954 Clouds 12 1036 44 10000 1.03 0 16:21 01.09.2021
5955 Clouds 2 1035 75 10000 0 0 13:40 01.09.2021
5956 Clouds 7 1022 79 10000 0.28 297 11:46 01.09.2021
5957 Clouds 7 1021 76 10000 1.13 355 09:35 01.09.2021
5958 Clouds 9 1021 70 10000 1.65 26 07:57 01.09.2021
5959 Clouds 9 1021 69 10000 1.66 36 06:42 01.09.2021
5960 Clouds 19 1028 19 10000 4.63 20 23:20 31.08.2021
5961 Clouds 21 1029 10 10000 4.12 40 21:41 31.08.2021
5962 Clouds 20 1031 23 10000 1.03 340 19:49 31.08.2021
5963 Clouds 18 1032 27 10000 3.09 100 18:44 31.08.2021
5964 Clouds 16 1017 36 10000 1.25 349 17:39 31.08.2021
5965 Clouds 15 1035 39 10000 1.03 0 17:20 31.08.2021
5966 Clouds 13 1035 44 10000 1.03 0 16:24 31.08.2021
5967 Clouds 8 1034 57 10000 0.51 130 14:28 31.08.2021
5968 Clouds 7 1020 84 10000 0.7 8 11:36 31.08.2021
5969 Clouds 7 1019 84 10000 0.77 351 10:56 31.08.2021
5970 Clouds 7 1019 83 10000 0.92 1 09:45 31.08.2021
5971 Clouds 8 1019 82 10000 1.17 355 08:41 31.08.2021
5972 Clouds 8 1019 81 10000 1.4 4 07:39 31.08.2021
5973 Clouds 9 1020 77 10000 1.57 35 05:55 31.08.2021
5974 Clouds 16 1028 34 10000 5.14 360 23:35 30.08.2021
5975 Clouds 20 1028 26 10000 4.12 30 21:53 30.08.2021
5976 Clouds 19 1028 26 10000 4.12 30 21:35 30.08.2021
5977 Clouds 18 1030 27 10000 2.57 160 20:32 30.08.2021
5978 Clouds 18 1032 27 10000 2.57 0 19:30 30.08.2021
5979 Clouds 18 1033 27 10000 4.12 90 18:57 30.08.2021
5980 Clouds 16 1034 34 10000 2.06 0 17:48 30.08.2021
5981 Clouds 12 1035 50 10000 1.03 0 16:25 30.08.2021
5982 Clouds 11 1035 54 10000 1.54 80 15:39 30.08.2021
5983 Clouds 6 1034 70 10000 1.54 100 13:46 30.08.2021
5984 Clouds 7 1034 66 10000 0 0 12:49 30.08.2021
5985 Clouds 10 1020 65 10000 0.96 289 10:41 30.08.2021
5986 Clouds 10 1032 54 10000 1.54 100 02:37 30.08.2021
5987 Clouds 20 1029 23 10000 1.54 0 21:33 29.08.2021
5988 Clouds 21 1030 21 10000 2.06 50 20:34 29.08.2021
5989 Clouds 18 1032 37 10000 1.54 0 19:20 29.08.2021
5990 Clouds 16 1034 34 10000 0 0 17:58 29.08.2021
5991 Clouds 9 1036 57 10000 0.68 53 15:49 29.08.2021
5992 Clouds 6 1036 70 10000 0 0 14:25 29.08.2021
5993 Clouds 5 1035 75 10000 1.03 330 13:44 29.08.2021
5994 Clouds 3 1035 75 10000 0.51 80 12:41 29.08.2021
5995 Clouds 8 1021 78 10000 0.62 330 11:51 29.08.2021
5996 Clouds 8 1020 79 10000 0.66 332 11:28 29.08.2021
5997 Clouds 8 1020 79 10000 0.66 332 10:46 29.08.2021
5998 Clouds 8 1020 80 10000 0.85 353 10:27 29.08.2021
5999 Clouds 8 1020 80 10000 0.85 341 09:21 29.08.2021
6000 Clouds 14 1029 38 10000 3.09 120 00:40 29.08.2021
6001 Clouds 20 1028 23 10000 6.17 310 21:58 28.08.2021
6002 Clouds 20 1030 19 10000 4.63 280 20:30 28.08.2021
6003 Clouds 18 1032 26 10000 3.09 330 18:51 28.08.2021
6004 Clouds 18 1032 27 10000 3.09 10 18:21 28.08.2021
6005 Clouds 16 1033 31 10000 2.06 360 17:27 28.08.2021
6006 Clouds 11 1034 50 10000 2.06 70 15:57 28.08.2021
6007 Clouds 10 1034 54 10000 0.51 60 14:42 28.08.2021
6008 Clouds 5 1033 70 10000 2.06 100 13:46 28.08.2021
6009 Clouds 5 1032 75 10000 0 0 12:45 28.08.2021
6010 Clouds 7 1020 83 10000 1.17 264 11:57 28.08.2021
6011 Clouds 7 1019 83 10000 1.43 270 10:43 28.08.2021
6012 Clouds 8 1019 81 10000 1.61 279 09:24 28.08.2021
6013 Clouds 9 1019 77 10000 1.45 324 07:25 28.08.2021
6014 Clouds 20 1026 21 10000 4.63 300 22:48 27.08.2021
6015 Clouds 21 1027 20 10000 6.17 320 21:24 27.08.2021
6016 Clouds 22 1028 17 10000 3.6 320 20:33 27.08.2021
6017 Clouds 19 1030 24 10000 5.14 320 18:58 27.08.2021
6018 Clouds 19 1030 24 10000 5.14 320 18:38 27.08.2021
6019 Clouds 15 1032 36 10000 2.06 0 17:27 27.08.2021
6020 Clouds 12 1033 50 10000 1.54 0 15:57 27.08.2021
6021 Clouds 8 1032 61 10000 0.51 260 14:43 27.08.2021
6022 Clouds 3 1031 75 10000 1.54 290 12:55 27.08.2021
6023 Clouds 9 1017 74 10000 1.06 293 11:37 27.08.2021
6024 Clouds 10 1016 71 10000 1 289 10:44 27.08.2021
6025 Clouds 10 1016 67 10000 0.9 315 09:47 27.08.2021
6026 Clouds 10 1016 65 10000 1.15 297 08:46 27.08.2021
6027 Clouds 10 1017 63 10000 1.69 341 06:47 27.08.2021
6028 Clouds 11 1018 64 10000 2.05 358 05:28 27.08.2021
6029 Clouds 15 1027 36 10000 5.66 320 00:35 27.08.2021
6030 Clouds 19 1026 28 10000 7.72 290 22:49 26.08.2021
6031 Clouds 19 1026 28 10000 8.23 290 22:19 26.08.2021
6032 Clouds 18 1027 32 10000 3.6 300 20:37 26.08.2021
6033 Clouds 17 1030 32 10000 3.09 270 18:51 26.08.2021
6034 Clouds 16 1031 34 10000 2.57 280 17:45 26.08.2021
6035 Clouds 14 1016 41 10000 1.38 321 16:33 26.08.2021
6036 Clouds 13 1018 49 10000 1.38 330 15:55 26.08.2021
6037 Clouds 4 1031 75 10000 0 0 13:48 26.08.2021
6038 Clouds 5 1030 75 10000 0.51 0 12:52 26.08.2021
6039 Clouds 5 1030 75 10000 1.03 0 12:24 26.08.2021
6040 Clouds 8 1016 75 10000 0.99 292 10:18 26.08.2021
6041 Clouds 9 1016 73 10000 1.52 338 08:34 26.08.2021
6042 Clouds 10 1016 68 10000 2.29 8 06:18 26.08.2021
6043 Clouds 21 1024 15 10000 5.14 320 22:50 25.08.2021
6044 Clouds 22 1024 16 10000 6.17 320 22:32 25.08.2021
6045 Clouds 21 1025 14 10000 5.14 310 21:41 25.08.2021
6046 Clouds 21 1026 16 10000 4.63 330 20:46 25.08.2021
6047 Clouds 19 1028 21 10000 2.06 0 20:27 25.08.2021
6048 Clouds 18 1030 42 10000 2.24 290 18:42 25.08.2021
6049 Clouds 16 1030 34 10000 2.57 350 17:31 25.08.2021
6050 Clouds 13 1031 47 10000 1.54 110 15:44 25.08.2021
6051 Clouds 9 1031 62 10000 0 0 14:48 25.08.2021
6052 Haze 7 1031 66 10000 1.03 100 14:26 25.08.2021
6053 Clouds 3 1030 87 10000 0 0 12:55 25.08.2021
6054 Clouds 8 1015 81 10000 1.1 278 11:26 25.08.2021
6055 Clouds 8 1015 81 10000 1.1 278 10:40 25.08.2021
6056 Clouds 8 1015 80 10000 1.23 309 09:51 25.08.2021
6057 Clouds 8 1016 79 10000 1.64 335 08:42 25.08.2021
6058 Clouds 9 1016 78 10000 1.69 333 08:21 25.08.2021
6059 Clouds 9 1028 53 10000 0.51 100 03:53 25.08.2021
6060 Clouds 16 1025 27 10000 7.2 300 23:44 24.08.2021
6061 Clouds 21 1024 20 10000 4.63 270 21:48 24.08.2021
6062 Clouds 21 1024 20 10000 4.63 270 21:48 24.08.2021
6063 Clouds 21 1025 18 10000 6.17 280 20:46 24.08.2021
6064 Clouds 20 1026 18 10000 4.63 270 19:45 24.08.2021
6065 Clouds 15 1030 41 10000 0 0 17:58 24.08.2021
6066 Clouds 15 1030 41 10000 0 0 17:58 24.08.2021
6067 Clouds 14 1030 47 10000 1.03 190 17:27 24.08.2021
6068 Clouds 13 1031 54 10000 1.54 20 16:41 24.08.2021
6069 Mist 5 1031 81 10000 0 0 14:29 24.08.2021
6070 Mist 3 1030 87 9000 0 0 13:24 24.08.2021
6071 Clouds 9 1015 73 10000 1.38 286 11:46 24.08.2021
6072 Clouds 8 1015 76 10000 1.61 289 10:48 24.08.2021
6073 Clouds 8 1016 80 10000 1.82 306 10:26 24.08.2021
6074 Clouds 8 1016 81 10000 1.98 319 08:50 24.08.2021
6075 Clouds 10 1017 74 10000 1.71 351 06:45 24.08.2021
6076 Clouds 7 1029 76 10000 1.54 270 04:48 24.08.2021
6077 Clouds 10 1029 66 10000 6.69 290 00:45 24.08.2021
6078 Clouds 18 1025 22 10000 4.63 10 22:52 23.08.2021
6079 Clouds 20 1025 19 10000 6.69 40 22:21 23.08.2021
6080 Clouds 20 1026 21 10000 3.09 330 20:31 23.08.2021
6081 Clouds 19 1029 19 10000 2.06 270 18:58 23.08.2021
6082 Clouds 13 1031 44 10000 1.03 0 16:37 23.08.2021
6083 Clear 3 1031 81 10000 0.51 290 14:46 23.08.2021
6084 Clouds 3 1030 81 10000 0 0 12:57 23.08.2021
6085 Clouds 8 1017 84 10000 1.3 274 11:49 23.08.2021
6086 Clouds 8 1016 82 10000 1.4 276 10:38 23.08.2021
6087 Clouds 9 1016 80 10000 1.26 256 09:41 23.08.2021
6088 Clouds 9 1016 78 10000 1.01 278 08:33 23.08.2021
6089 Clouds 9 1018 76 10000 1.14 330 06:50 23.08.2021
6090 Clouds 10 1018 75 10000 1.19 343 06:21 23.08.2021
6091 Clouds 14 1028 38 10000 2.06 0 00:52 23.08.2021
6092 Clouds 16 1027 25 10000 7.2 320 22:45 22.08.2021
6093 Clouds 18 1026 22 10000 6.17 350 22:25 22.08.2021
6094 Clouds 20 1028 18 10000 1.03 210 20:22 22.08.2021
6095 Clouds 20 1029 19 10000 3.6 0 19:35 22.08.2021
6096 Clouds 11 1034 43 10000 1.54 360 16:33 22.08.2021
6097 Clouds 7 1034 53 10000 0.51 0 14:56 22.08.2021
6098 Clouds 7 1034 53 10000 0.51 0 14:37 22.08.2021
6099 Clouds 2 1032 70 10000 0.51 270 13:21 22.08.2021
6100 Clouds 2 1032 70 10000 0.51 270 12:51 22.08.2021
6101 Clouds 2 1032 70 10000 0 0 12:25 22.08.2021
6102 Clouds 7 1019 82 10000 0.96 284 11:42 22.08.2021
6103 Clouds 8 1018 81 10000 0.71 292 10:21 22.08.2021
6104 Clouds 8 1018 77 10000 0.67 341 08:19 22.08.2021
6105 Clouds 8 1032 43 10000 1.03 80 04:56 22.08.2021
6106 Clouds 16 1027 29 10000 4.63 20 23:57 21.08.2021
6107 Clouds 15 1027 29 10000 4.63 20 23:57 21.08.2021
6108 Clouds 18 1027 22 10000 6.17 40 22:34 21.08.2021
6109 Clouds 18 1029 24 10000 0.51 0 20:24 21.08.2021
6110 Clouds 17 1032 27 10000 3.09 0 18:39 21.08.2021
6111 Clouds 16 1033 31 10000 1.54 0 17:59 21.08.2021
6112 Clouds 13 1034 38 10000 2.06 50 16:54 21.08.2021
6113 Clouds 11 1034 43 10000 1.03 0 16:25 21.08.2021
6114 Clouds 10 1034 50 10000 1.54 60 15:35 21.08.2021
6115 Clouds 8 1034 57 10000 0.51 0 14:38 21.08.2021
6116 Clouds 2 1032 75 10000 0 0 13:29 21.08.2021
6117 Clear 1 1032 80 10000 0.51 100 12:24 21.08.2021
6118 Clouds 8 1019 77 10000 1.47 27 09:28 21.08.2021
6119 Clear 10 1019 71 10000 1.96 27 05:32 21.08.2021
6120 Clouds 20 1024 23 10000 6.69 30 22:43 20.08.2021
6121 Clouds 22 1026 9 10000 1.03 320 21:18 20.08.2021
6122 Clear 17 1031 22 10000 1.54 0 17:47 20.08.2021
6123 Haze 11 1033 54 10000 1.54 0 15:57 20.08.2021
6124 Clear 2 1032 81 10000 1.54 100 13:36 20.08.2021
6125 Clear 7 1019 86 10000 0.74 206 11:37 20.08.2021
6126 Clear 7 1018 85 10000 0.57 227 10:42 20.08.2021
6127 Clear 7 1018 83 10000 0.52 318 09:36 20.08.2021
6128 Clear 8 1018 81 10000 1 333 08:41 20.08.2021
6129 Clouds 9 1019 76 10000 1.08 338 06:58 20.08.2021
6130 Clouds 9 1031 57 10000 2.06 90 04:21 20.08.2021
6131 Clouds 18 1027 30 10000 5.14 20 00:19 20.08.2021
6132 Clouds 18 1027 30 10000 5.14 20 00:19 20.08.2021
6133 Clouds 21 1027 18 10000 2.06 360 22:57 19.08.2021
6134 Clouds 21 1027 18 10000 2.06 360 22:31 19.08.2021
6135 Clouds 21 1030 35 10000 1.03 0 20:31 19.08.2021
6136 Clouds 19 1032 34 10000 2.57 60 19:31 19.08.2021
6137 Clouds 14 1035 38 10000 2.57 0 17:19 19.08.2021
6138 Clouds 11 1036 47 10000 1.54 40 15:53 19.08.2021
6139 Clear 1 1035 75 10000 1.54 300 13:29 19.08.2021
6140 Clouds 4 1034 70 10000 0 0 12:33 19.08.2021
6141 Clouds 7 1020 83 10000 0.57 285 11:23 19.08.2021
6142 Clouds 8 1020 82 10000 1.01 316 10:20 19.08.2021
6143 Clouds 8 1020 82 10000 1.01 316 09:44 19.08.2021
6144 Clouds 8 1020 80 10000 0.96 341 09:18 19.08.2021
6145 Clouds 9 1022 75 10000 0.81 15 06:51 19.08.2021
6146 Clouds 13 1032 33 10000 2.57 0 02:22 19.08.2021
6147 Clouds 13 1032 33 10000 3.09 0 01:42 19.08.2021
6148 Clouds 19 1030 19 10000 7.2 40 22:55 18.08.2021
6149 Clouds 20 1030 13 10000 6.69 30 21:40 18.08.2021
6150 Clouds 20 1032 13 10000 1.03 260 20:30 18.08.2021
6151 Clouds 19 1033 17 10000 1.54 200 19:32 18.08.2021
6152 Clouds 19 1034 15 10000 2.57 0 18:47 18.08.2021
6153 Clouds 16 1036 23 10000 1.54 0 17:57 18.08.2021
6154 Clouds 10 1038 46 10000 1.54 30 15:46 18.08.2021
6155 Clouds 9 1037 46 10000 0 0 15:23 18.08.2021
6156 Haze 5 1037 61 10000 0 0 14:49 18.08.2021
6157 Clouds 0 1034 75 10000 0 0 12:42 18.08.2021
6158 Clouds 2 1035 69 10000 0 0 12:24 18.08.2021
6159 Clouds 8 1021 81 10000 1.47 14 09:53 18.08.2021
6160 Clouds 10 1021 71 10000 1.93 29 06:29 18.08.2021
6161 Clouds 16 1029 17 10000 5.14 40 00:42 18.08.2021
6162 Clouds 22 1028 12 10000 5.14 30 22:29 17.08.2021
6163 Clouds 22 1029 12 10000 4.12 0 21:26 17.08.2021
6164 Clouds 22 1029 13 10000 1.54 0 20:43 17.08.2021
6165 Clouds 18 1032 27 10000 2.06 90 18:57 17.08.2021
6166 Clouds 15 1034 39 10000 1.54 0 17:31 17.08.2021
6167 Clouds 12 1035 50 10000 1.03 0 16:34 17.08.2021
6168 Clouds 11 1035 54 10000 0 0 15:36 17.08.2021
6169 Clouds 3 1034 81 10000 1.54 90 14:28 17.08.2021
6170 Clouds 7 1020 84 10000 0.72 242 11:48 17.08.2021
6171 Clouds 8 1018 80 10000 1.16 327 09:21 17.08.2021
6172 Clouds 9 1019 82 10000 0.84 351 07:45 17.08.2021
6173 Clouds 16 1028 29 10000 5.14 40 00:21 17.08.2021
6174 Clouds 18 1026 26 10000 7.2 20 22:55 16.08.2021
6175 Clouds 18 1026 26 10000 7.2 20 22:36 16.08.2021
6176 Clouds 21 1026 13 10000 0.51 0 21:53 16.08.2021
6177 Clouds 22 1028 14 10000 1.54 0 20:54 16.08.2021
6178 Clouds 23 1029 15 10000 1.03 340 19:45 16.08.2021
6179 Clouds 22 1029 15 10000 1.03 340 19:45 16.08.2021
6180 Clouds 19 1030 18 10000 0 0 19:22 16.08.2021
6181 Clouds 17 1032 27 10000 1.03 0 18:23 16.08.2021
6182 Clouds 17 1032 29 10000 1.54 0 17:51 16.08.2021
6183 Clouds 11 1034 54 10000 0 0 15:40 16.08.2021
6184 Clouds 9 1034 57 10000 0 0 14:47 16.08.2021
6185 Clouds 3 1033 81 10000 0 0 13:31 16.08.2021
6186 Clouds 7 1021 83 10000 1.65 294 12:32 16.08.2021
6187 Clouds 7 1020 84 10000 0.98 278 10:37 16.08.2021
6188 Clouds 7 1020 83 10000 1.22 328 08:46 16.08.2021
6189 Clouds 8 1020 81 10000 1.47 316 07:33 16.08.2021
6190 Clouds 8 1020 79 10000 1.54 321 06:35 16.08.2021
6191 Clouds 12 1030 47 10000 4.63 280 02:18 16.08.2021
6192 Clouds 19 1028 24 10000 8.23 300 21:53 15.08.2021
6193 Clouds 20 1029 24 10000 3.6 360 20:38 15.08.2021
6194 Clouds 18 1032 30 10000 2.06 0 18:47 15.08.2021
6195 Clouds 16 1033 34 10000 2.06 0 17:55 15.08.2021
6196 Clouds 14 1034 38 10000 2.06 280 17:32 15.08.2021
6197 Clouds 14 1034 44 10000 1.54 0 16:24 15.08.2021
6198 Clouds 9 1034 62 10000 0 0 14:42 15.08.2021
6199 Clouds 7 1034 71 10000 1.03 0 13:55 15.08.2021
6200 Clouds 6 1020 85 10000 0.95 321 11:18 15.08.2021
6201 Clouds 7 1021 82 10000 1.56 298 08:50 15.08.2021
6202 Clouds 15 1030 29 10000 2.57 40 01:24 15.08.2021
6203 Clouds 18 1029 26 10000 3.6 30 00:36 15.08.2021
6204 Clouds 21 1029 14 10000 2.06 0 21:41 14.08.2021
6205 Clouds 21 1030 16 10000 2.57 30 20:58 14.08.2021
6206 Clouds 20 1032 18 10000 1.54 250 19:43 14.08.2021
6207 Clouds 17 1034 29 10000 1.03 350 18:39 14.08.2021
6208 Clouds 13 1036 44 10000 1.03 320 16:59 14.08.2021
6209 Clouds 11 1037 54 10000 1.26 242 15:37 14.08.2021
6210 Clouds 7 1036 66 10000 1.03 280 14:24 14.08.2021
6211 Clear 6 1022 82 10000 1.26 277 11:59 14.08.2021
6212 Clear 6 1022 81 10000 1.53 289 10:45 14.08.2021
6213 Clear 8 1021 77 10000 1.84 329 07:39 14.08.2021
6214 Clouds 20 1028 19 10000 7.2 300 23:53 13.08.2021
6215 Clouds 19 1028 21 10000 5.14 280 22:18 13.08.2021
6216 Clouds 20 1030 21 10000 2.06 250 20:27 13.08.2021
6217 Clouds 19 1033 22 10000 2.06 0 18:47 13.08.2021
6218 Clouds 16 1034 31 10000 2.06 20 17:42 13.08.2021
6219 Clouds 12 1035 50 10000 1.54 50 16:19 13.08.2021
6220 Clear 3 1034 75 10000 1.03 100 12:18 13.08.2021
6221 Clear 6 1021 86 10000 1.36 279 11:19 13.08.2021
6222 Clear 7 1021 83 10000 1.67 293 08:59 13.08.2021
6223 Clear 7 1021 83 10000 1.67 293 08:35 13.08.2021
6224 Clear 8 1021 78 10000 1.86 307 07:18 13.08.2021
6225 Clear 10 1033 58 10000 2.57 100 04:59 13.08.2021
6226 Clouds 21 1028 17 10000 3.6 300 22:34 12.08.2021
6227 Clouds 20 1030 14 10000 4.12 300 21:20 12.08.2021
6228 Clouds 19 1031 13 10000 4.12 270 20:21 12.08.2021
6229 Clouds 18 1032 20 10000 4.12 310 19:27 12.08.2021
6230 Clouds 16 1034 39 10000 1.03 60 17:51 12.08.2021
6231 Clouds 11 1036 47 10000 1.03 50 16:28 12.08.2021
6232 Haze 4 1035 60 10000 0 0 14:31 12.08.2021
6233 Clouds 1 1034 80 10000 1.03 300 12:44 12.08.2021
6234 Clouds 5 1022 80 10000 1.67 297 10:48 12.08.2021
6235 Clouds 7 1022 76 10000 1.61 330 07:54 12.08.2021
6236 Clouds 14 1031 29 10000 5.66 300 01:29 12.08.2021
6237 Clouds 19 1030 21 10000 8.23 290 22:51 11.08.2021
6238 Clouds 18 1033 24 10000 3.09 270 19:36 11.08.2021
6239 Clouds 15 1035 29 10000 3.09 250 18:28 11.08.2021
6240 Clouds 9 1037 53 10000 3.09 90 15:38 11.08.2021
6241 Clouds 8 1037 57 10000 1.54 120 15:20 11.08.2021
6242 Clouds 7 1036 61 10000 1.03 100 14:22 11.08.2021
6243 Clouds 6 1035 65 10000 0 0 12:30 11.08.2021
6244 Clouds 6 1035 65 10000 0 0 12:30 11.08.2021
6245 Clouds 5 1024 80 10000 1.46 337 11:46 11.08.2021
6246 Clouds 6 1023 80 10000 1.42 353 11:21 11.08.2021
6247 Clouds 6 1023 80 10000 1.67 4 09:44 11.08.2021
6248 Clouds 7 1023 79 10000 2.03 14 07:30 11.08.2021
6249 Clouds 17 1030 27 10000 2.57 40 23:31 10.08.2021
6250 Clouds 18 1030 24 10000 3.6 310 22:29 10.08.2021
6251 Clouds 18 1031 24 10000 0 0 20:57 10.08.2021
6252 Clouds 18 1033 26 10000 2.06 0 19:42 10.08.2021
6253 Clouds 16 1035 27 10000 2.06 0 18:31 10.08.2021
6254 Clouds 10 1037 50 10000 0.51 30 15:58 10.08.2021
6255 Clear 7 1037 57 10000 0.51 0 14:42 10.08.2021
6256 Clear 6 1024 83 10000 1.21 2 11:53 10.08.2021
6257 Clear 6 1023 81 10000 1.71 11 09:51 10.08.2021
6258 Clear 8 1023 77 10000 2.19 8 06:48 10.08.2021
6259 Clear 9 1033 50 10000 2.57 100 04:58 10.08.2021
6260 Clouds 21 1029 17 10000 2.06 140 23:41 09.08.2021
6261 Clouds 21 1029 16 10000 3.09 270 21:54 09.08.2021
6262 Clouds 20 1030 17 10000 1.54 0 21:32 09.08.2021
6263 Clear 20 1032 18 10000 1.54 310 19:35 09.08.2021
6264 Clear 14 1036 33 10000 2.06 90 17:19 09.08.2021
6265 Clear 7 1036 53 10000 1.54 80 15:33 09.08.2021
6266 Clear 0 1035 75 10000 1.03 90 13:32 09.08.2021
6267 Clear 1 1035 75 10000 0 0 12:51 09.08.2021
6268 Clear 6 1022 80 10000 0.71 277 10:43 09.08.2021
6269 Clear 7 1022 78 10000 1.2 356 08:26 09.08.2021
6270 Clear 22 1027 11 10000 5.14 280 22:47 08.08.2021
6271 Clear 21 1029 15 10000 1.54 270 21:25 08.08.2021
6272 Clear 19 1032 14 10000 2.57 300 19:29 08.08.2021
6273 Clear 12 1035 38 10000 1.54 0 16:53 08.08.2021
6274 Clear 7 1035 53 10000 1.03 0 15:31 08.08.2021
6275 Clear -1 1034 74 10000 1.54 290 12:58 08.08.2021
6276 Clear 6 1020 72 10000 0.95 284 10:47 08.08.2021
6277 Clear 8 1020 68 10000 1.19 357 06:44 08.08.2021
6278 Clear 9 1021 68 10000 1.49 354 05:37 08.08.2021
6279 Clouds 19 1028 14 10000 3.6 320 00:30 08.08.2021
6280 Clear 21 1028 13 10000 4.63 330 22:19 07.08.2021
6281 Clear 21 1028 12 10000 3.6 310 21:41 07.08.2021
6282 Clear 20 1031 11 10000 2.06 0 20:25 07.08.2021
6283 Clear 13 1035 28 10000 1.54 0 17:30 07.08.2021
6284 Clear 12 1036 30 10000 1.03 0 16:34 07.08.2021
6285 Clear 0 1036 64 10000 0 0 14:27 07.08.2021
6286 Clear -1 1035 69 10000 0 0 13:30 07.08.2021
6287 Clear 6 1022 72 10000 1.05 270 10:22 07.08.2021
6288 Clear 8 1023 70 10000 1.32 342 05:40 07.08.2021
6289 Clouds 19 1029 14 10000 6.17 310 23:55 06.08.2021
6290 Clouds 19 1030 12 10000 3.6 290 21:23 06.08.2021
6291 Clouds 20 1032 14 10000 2.06 280 20:27 06.08.2021
6292 Clouds 20 1032 14 10000 0 0 19:55 06.08.2021
6293 Clear 16 1035 23 10000 2.06 0 18:29 06.08.2021
6294 Clear 0 1037 75 10000 0 0 13:56 06.08.2021
6295 Clear 6 1023 76 10000 0.38 311 10:31 06.08.2021
6296 Clear 6 1023 76 10000 0.65 311 09:26 06.08.2021
6297 Clear 13 1033 30 10000 2.57 250 02:33 06.08.2021
6298 Clouds 18 1031 14 10000 5.66 290 23:27 05.08.2021
6299 Clouds 19 1032 19 10000 3.6 70 21:31 05.08.2021
6300 Clouds 18 1034 20 10000 2.57 0 19:56 05.08.2021
6301 Clouds 17 1036 20 10000 2.06 0 18:37 05.08.2021
6302 Clear 9 1039 40 10000 1.54 0 16:20 05.08.2021
6303 Clear -2 1039 74 10000 1.54 290 13:57 05.08.2021
6304 Clear 4 1026 84 10000 0.27 266 10:50 05.08.2021
6305 Clear 5 1026 81 10000 0.78 331 08:20 05.08.2021
6306 Clouds 8 1037 43 10000 0.51 0 03:37 05.08.2021
6307 Clouds 16 1032 22 10000 3.6 10 22:41 04.08.2021
6308 Clouds 17 1033 20 10000 3.09 40 21:28 04.08.2021
6309 Clouds 18 1033 18 10000 1.54 0 20:41 04.08.2021
6310 Clouds 11 1037 35 10000 1.03 50 17:24 04.08.2021
6311 Clouds 7 1038 57 10000 0 0 14:59 04.08.2021
6312 Clouds 7 1038 57 10000 0 0 14:41 04.08.2021
6313 Clouds 5 1025 81 10000 0.68 332 09:30 04.08.2021
6314 Clouds 15 1031 29 10000 1.54 150 22:32 03.08.2021
6315 Clouds 17 1033 25 10000 2.57 0 20:32 03.08.2021
6316 Clouds 16 1035 29 10000 1.54 270 18:58 03.08.2021
6317 Clouds 12 1037 44 10000 1.54 70 17:31 03.08.2021
6318 Clouds 1 1037 80 10000 1.03 90 13:58 03.08.2021
6319 Clouds 6 1024 75 10000 1.55 6 10:58 03.08.2021
6320 Clouds 6 1024 75 10000 1.55 6 10:38 03.08.2021
6321 Clouds 17 1031 25 10000 3.09 300 22:59 02.08.2021
6322 Clouds 11 1038 43 10000 2.57 70 16:52 02.08.2021
6323 Clouds 9 1039 53 10000 1.03 0 15:35 02.08.2021
6324 Clouds 4 1037 70 10000 2.57 100 12:47 02.08.2021
6325 Clouds 6 1025 74 10000 1.66 322 11:58 02.08.2021
6326 Clouds 7 1025 72 10000 1.64 338 10:58 02.08.2021
6327 Clouds 7 1025 72 10000 1.7 336 09:42 02.08.2021
6328 Clouds 15 1035 33 10000 2.06 360 19:53 01.08.2021
6329 Clouds 11 1037 40 10000 2.06 80 17:47 01.08.2021
6330 Clouds 5 1025 85 10000 1.39 357 11:40 01.08.2021
6331 Clear 5 1024 85 10000 1.19 349 10:56 01.08.2021
6332 Clouds 9 1035 53 10000 4.12 300 03:50 01.08.2021
6333 Clouds 13 1032 35 10000 4.12 260 01:22 01.08.2021
6334 Clouds 18 1030 22 10000 7.72 290 22:39 31.07.2021
6335 Clouds 16 1031 25 10000 7.72 290 19:47 31.07.2021
6336 Clouds 12 1035 41 10000 2.06 110 16:38 31.07.2021
6337 Clouds 7 1036 61 10000 1.54 80 15:27 31.07.2021
6338 Clouds 5 1022 87 10000 1.68 279 10:59 31.07.2021
6339 Clouds 5 1022 87 10000 1.68 279 10:59 31.07.2021
6340 Clear 8 1032 49 10000 2.57 310 04:38 31.07.2021
6341 Clouds 19 1028 21 10000 7.72 290 22:28 30.07.2021
6342 Clouds 18 1030 24 10000 7.72 280 20:23 30.07.2021
6343 Clouds 9 1035 57 10000 0.51 0 15:38 30.07.2021
6344 Clouds 17 1030 29 10000 6.17 300 19:57 29.07.2021
6345 Clear 6 1021 85 10000 1.7 330 08:43 29.07.2021
6346 Clouds 6 1032 61 10000 2.06 310 04:51 29.07.2021
6347 Clouds 17 1029 29 10000 6.69 310 22:38 28.07.2021
6348 Clouds 13 1034 41 10000 2.57 280 17:53 28.07.2021
6349 Clouds 11 1035 50 10000 1.03 0 16:54 28.07.2021
6350 Clouds 6 1021 80 10000 1.57 345 09:42 28.07.2021
6351 Clouds 18 1029 18 10000 5.14 310 23:50 27.07.2021
6352 Clouds 20 1029 16 10000 8.75 270 21:33 27.07.2021
6353 Clear 5 1035 65 10000 1.54 100 14:54 27.07.2021
6354 Haze 2 1035 75 10000 0 0 14:22 27.07.2021
6355 Clear 6 1021 80 10000 1.28 298 10:20 27.07.2021
6356 Clear 13 1030 30 10000 2.57 270 01:53 27.07.2021
6357 Clear 9 1036 50 10000 2.06 90 15:34 26.07.2021
6358 Clear 6 1021 83 10000 1.16 287 10:19 26.07.2021
6359 Clear 20 1029 11 10000 4.63 280 20:57 25.07.2021
6360 Clear 18 1032 13 10000 1.43 319 19:24 25.07.2021
6361 Clouds 11 1035 32 10000 0 0 16:22 25.07.2021
6362 Clear 5 1022 73 10000 0.88 274 11:44 25.07.2021
6363 Clear 7 1020 71 10000 1.06 352 08:21 25.07.2021
6364 Clear 6 1033 42 10000 1.03 120 04:55 25.07.2021
6365 Clear 20 1032 11 10000 1.54 0 20:22 24.07.2021
6366 Clear 8 1037 43 10000 1.54 70 15:52 24.07.2021
6367 Clear 8 1034 49 10000 0.51 150 04:21 24.07.2021
6368 Clear 14 1037 31 10000 1.03 0 17:34 23.07.2021
6369 Clear -1 1037 74 10000 1.03 310 12:43 23.07.2021
6370 Clear 7 1024 78 10000 0.86 321 07:47 23.07.2021
6371 Clouds 19 1031 17 10000 3.6 10 22:46 22.07.2021
6372 Clear 5 1038 61 10000 0 0 14:36 22.07.2021
6373 Clear 6 1024 82 10000 0.35 342 10:27 22.07.2021
6374 Clear 7 1024 82 10000 0.78 333 08:23 22.07.2021
6375 Clouds 17 1030 19 10000 4.12 10 22:33 21.07.2021
6376 Clouds 20 1030 19 10000 3.6 290 21:31 21.07.2021
6377 Haze 7 1036 66 10000 0.51 290 15:24 21.07.2021
6378 Clear 6 1022 87 10000 1.08 307 09:50 21.07.2021
6379 Clear 6 1022 86 10000 0.91 314 09:19 21.07.2021
6380 Clouds 18 1028 26 10000 2.06 0 23:56 20.07.2021
6381 Clouds 11 1035 47 10000 1.03 320 17:46 20.07.2021
6382 Clouds 10 1036 50 10000 2.06 70 16:33 20.07.2021
6383 Clouds 9 1036 61 10000 2.06 110 15:26 20.07.2021
6384 Clouds 7 1021 80 10000 0.58 320 11:18 20.07.2021
6385 Clouds 7 1022 81 10000 1.2 346 07:19 20.07.2021
6386 Clouds 16 1028 31 10000 4.12 100 00:21 20.07.2021
6387 Clouds 9 1036 62 10000 0.51 0 15:39 19.07.2021
6388 Clouds 4 1034 81 10000 1.54 100 12:37 19.07.2021
6389 Clouds 13 1033 47 10000 5.14 10 20:44 18.07.2021
6390 Clouds 8 1036 66 10000 1.03 0 15:20 18.07.2021
6391 Clouds 7 1022 82 10000 1.32 10 10:19 18.07.2021
6392 Clouds 22 1028 14 10000 2.06 0 22:28 17.07.2021
6393 Clouds 21 1028 15 10000 1.54 0 21:55 17.07.2021
6394 Clouds 21 1028 15 10000 1.54 0 21:37 17.07.2021
6395 Clouds 0 1033 80 10000 1.03 320 12:34 17.07.2021
6396 Clear 6 1020 84 10000 1.16 321 10:21 17.07.2021
6397 Clear 9 1032 50 10000 0.51 350 04:47 17.07.2021
6398 Haze 2 1035 81 10000 1.54 100 14:24 16.07.2021
6399 Clear 6 1020 74 10000 0.91 340 09:45 16.07.2021
6400 Clear 7 1021 78 10000 1.38 0 06:57 16.07.2021
6401 Clear 6 1036 65 10000 0.51 80 14:39 15.07.2021
6402 Clear 1 1035 80 10000 0.51 300 13:48 15.07.2021
6403 Clouds 8 1020 76 10000 1.34 302 07:58 15.07.2021
6404 Clouds 22 1028 12 10000 1.54 340 22:30 14.07.2021
6405 Clouds 11 1036 50 10000 1.03 50 16:48 14.07.2021
6406 Clouds 6 1022 88 10000 0.95 271 11:34 14.07.2021
6407 Clouds 20 1029 21 10000 3.09 30 23:30 13.07.2021
6408 Clouds 20 1029 21 10000 3.09 30 23:30 13.07.2021
6409 Clouds 20 1031 18 10000 2.06 0 19:59 13.07.2021
6410 Clouds 20 1031 18 10000 2.06 0 19:40 13.07.2021
6411 Clear 19 1033 21 10000 1.03 280 19:20 13.07.2021
6412 Clear 17 1033 29 10000 1.03 40 18:43 13.07.2021
6413 Clear 15 1034 36 10000 1.03 10 18:23 13.07.2021
6414 Haze 2 1035 81 10000 0 0 14:32 13.07.2021
6415 Clouds 6 1021 86 10000 1.21 260 09:38 13.07.2021
6416 Clouds 17 1030 27 10000 5.14 310 21:45 12.07.2021
6417 Clouds 15 1034 39 10000 0 0 17:28 12.07.2021
6418 Clouds 1 1034 86 10000 0 0 14:37 12.07.2021
6419 Clouds 16 1029 29 10000 2.57 10 23:23 11.07.2021
6420 Clouds 16 1031 31 10000 0.51 160 20:53 11.07.2021
6421 Clouds 5 1035 65 10000 2.57 80 14:29 11.07.2021
6422 Clouds 15 1028 17 10000 2.06 120 01:26 11.07.2021
6423 Clear 11 1034 40 10000 1.54 90 16:54 10.07.2021
6424 Clear 7 1020 83 10000 0.53 3 07:52 10.07.2021
6425 Clear 16 1030 25 10000 3.6 300 02:18 10.07.2021
6426 Clear 17 1032 20 10000 1.54 0 19:27 09.07.2021
6427 Clear 4 1034 60 10000 0.51 0 14:50 09.07.2021
6428 Clear -1 1033 80 10000 0 0 12:40 09.07.2021
6429 Clear 20 1027 14 10000 4.63 310 23:53 08.07.2021
6430 Clear 21 1027 14 10000 3.6 290 22:48 08.07.2021
6431 Clear 19 1031 17 10000 1.54 240 19:40 08.07.2021
6432 Clear 13 1034 30 10000 1.54 0 17:47 08.07.2021
6433 Clear -2 1034 80 10000 0 0 13:48 08.07.2021
6434 Clear -2 1033 80 10000 0 0 13:29 08.07.2021
6435 Clear -1 1033 80 10000 0 0 12:32 08.07.2021
6436 Clear 5 1020 78 10000 0.05 308 10:54 08.07.2021
6437 Clear 8 1020 77 10000 1.65 11 05:38 08.07.2021
6438 Clear 10 1029 35 10000 1.54 320 02:28 08.07.2021
6439 Clear 21 1026 13 10000 3.6 10 22:57 07.07.2021
6440 Clear 20 1027 14 10000 2.57 180 22:19 07.07.2021
6441 Clear 21 1027 14 10000 2.57 0 21:43 07.07.2021
6442 Clear 21 1028 14 10000 1.54 0 21:24 07.07.2021
6443 Clear 19 1030 17 10000 1.54 0 19:57 07.07.2021
6444 Clear 18 1031 19 10000 0.51 90 19:29 07.07.2021
6445 Clear 14 1033 26 10000 1.54 10 17:36 07.07.2021
6446 Clear 7 1035 42 10000 1.03 0 15:45 07.07.2021
6447 Clear -1 1033 69 10000 0.51 0 12:27 07.07.2021
6448 Clear 7 1019 79 10000 1.1 269 08:53 07.07.2021
6449 Clear 8 1019 78 10000 1.17 313 06:47 07.07.2021
6450 Clear 8 1019 77 10000 1.22 325 05:48 07.07.2021
6451 Clear 9 1031 32 10000 3.6 290 02:48 07.07.2021
6452 Clear 17 1034 17 10000 2.57 310 19:31 06.07.2021
6453 Clear 16 1034 20 10000 1.54 0 18:53 06.07.2021
6454 Clear 15 1035 18 10000 1.54 0 18:31 06.07.2021
6455 Clear 10 1037 28 10000 1.03 0 16:59 06.07.2021
6456 Clear -2 1036 74 10000 0.51 0 13:33 06.07.2021
6457 Clear 6 1023 76 10000 0.76 245 09:42 06.07.2021
6458 Clear 6 1023 77 10000 0.7 272 08:35 06.07.2021
6459 Clear 6 1023 77 10000 0.52 322 07:38 06.07.2021
6460 Clear 12 1033 26 10000 2.57 280 01:53 06.07.2021
6461 Clear 19 1030 12 10000 4.63 10 23:18 05.07.2021
6462 Clear 20 1030 9 10000 3.09 310 21:24 05.07.2021
6463 Clear 9 1037 22 10000 1.03 0 16:54 05.07.2021
6464 Clear 6 1023 75 10000 0.86 226 08:48 05.07.2021
6465 Clear 7 1023 70 10000 0.94 317 05:47 05.07.2021
6466 Clear 3 1035 30 10000 2.06 300 04:41 05.07.2021
6467 Clear 19 1031 6 10000 4.12 50 23:21 04.07.2021
6468 Clear 19 1032 13 10000 2.06 120 20:42 04.07.2021
6469 Clear 12 1036 30 10000 1.54 50 17:35 04.07.2021
6470 Clear -3 1037 80 10000 0 0 13:51 04.07.2021
6471 Clear 4 1024 80 10000 0.7 252 09:35 04.07.2021
6472 Clear 12 1033 21 10000 2.57 0 01:30 04.07.2021
6473 Clear 12 1033 21 10000 2.57 0 01:30 04.07.2021
6474 Clear 18 1032 9 10000 3.09 40 22:44 03.07.2021
6475 Clear 10 1039 17 10000 1.54 90 17:23 03.07.2021
6476 Clear -5 1032 50 10000 0 0 12:39 03.07.2021
6477 Clear 4 1024 48 10000 0.42 16 10:23 03.07.2021
6478 Clear 4 1024 48 10000 0.47 18 09:26 03.07.2021
6479 Clear 4 1024 48 10000 0.47 18 08:44 03.07.2021
6480 Clear 15 1034 21 10000 2.06 0 18:50 02.07.2021
6481 Clear 6 1022 74 10000 0.67 349 07:42 02.07.2021
6482 Clear 7 1022 74 10000 1.13 7 06:40 02.07.2021
6483 Clouds 16 1030 17 10000 5.14 40 23:37 01.07.2021
6484 Clouds 18 1029 18 10000 4.63 300 22:30 01.07.2021
6485 Clouds 19 1029 14 10000 4.12 30 21:34 01.07.2021
6486 Clear 16 1032 19 10000 2.57 170 19:39 01.07.2021
6487 Clear 16 1032 19 10000 2.57 170 19:19 01.07.2021
6488 Clear 16 1033 20 10000 2.06 0 18:46 01.07.2021
6489 Clear 16 1033 20 10000 2.06 0 18:46 01.07.2021
6490 Clear 13 1035 24 10000 1.54 0 17:33 01.07.2021
6491 Clear 8 1036 34 10000 1.03 0 15:57 01.07.2021
6492 Clear 6 1036 42 10000 1.03 90 15:22 01.07.2021
6493 Clear 5 1022 84 10000 0.37 155 11:56 01.07.2021
6494 Clear 6 1021 84 10000 0.3 161 09:34 01.07.2021
6495 Clouds 19 1029 15 10000 1.03 100 23:26 30.06.2021
6496 Clouds 19 1029 17 10000 1.03 0 22:26 30.06.2021
6497 Clouds 19 1029 18 10000 3.09 0 21:56 30.06.2021
6498 Clouds 18 1030 19 10000 2.06 0 21:18 30.06.2021
6499 Clouds 17 1032 22 10000 2.06 0 20:20 30.06.2021
6500 Clouds 11 1036 43 10000 1.03 50 16:45 30.06.2021
6501 Clouds 5 1035 70 10000 1.54 80 13:25 30.06.2021
6502 Clouds 5 1023 87 10000 1.19 330 09:59 30.06.2021
6503 Clouds 17 1030 19 10000 3.6 280 00:31 30.06.2021
6504 Clouds 17 1033 24 10000 2.06 60 19:47 29.06.2021
6505 Clouds 13 1036 38 10000 1.54 350 17:46 29.06.2021
6506 Clouds 13 1036 38 10000 1.54 350 17:28 29.06.2021
6507 Rain 9 1037 57 10000 1.03 80 15:51 29.06.2021
6508 Rain 9 1037 57 10000 1.03 80 15:51 29.06.2021
6509 Clouds 3 1035 81 10000 1.54 280 14:55 29.06.2021
6510 Clouds 2 1035 81 10000 2.06 290 13:24 29.06.2021
6511 Clouds 8 1022 81 10000 1.14 35 04:38 29.06.2021
6512 Clouds 17 1029 20 10000 5.66 300 23:24 28.06.2021
6513 Clouds 17 1030 22 10000 4.12 330 20:59 28.06.2021
6514 Clouds 14 1034 58 10000 1.54 0 18:42 28.06.2021
6515 Clouds 14 1034 58 10000 1.54 0 18:42 28.06.2021
6516 Clouds 11 1034 54 10000 1.54 60 16:58 28.06.2021
6517 Clouds 4 1034 75 10000 0.68 289 14:31 28.06.2021
6518 Clouds 5 1022 87 10000 1.06 344 11:57 28.06.2021
6519 Clouds 16 1027 22 10000 6.17 310 23:47 27.06.2021
6520 Clouds 18 1027 22 10000 5.66 300 22:32 27.06.2021
6521 Clouds 18 1029 24 10000 2.06 0 19:44 27.06.2021
6522 Clouds 17 1031 25 10000 2.57 0 18:56 27.06.2021
6523 Clouds 8 1034 57 10000 1.03 0 15:39 27.06.2021
6524 Clouds 5 1019 85 10000 0.7 306 11:22 27.06.2021
6525 Clouds 16 1027 23 10000 4.12 300 00:42 27.06.2021
6526 Clouds 20 1027 18 10000 3.09 0 22:22 26.06.2021
6527 Clouds 20 1028 19 10000 1.54 310 20:53 26.06.2021
6528 Clouds 19 1028 19 10000 1.54 310 20:34 26.06.2021
6529 Clouds 8 1034 61 10000 1.54 70 15:40 26.06.2021
6530 Clouds 1 1033 87 10000 0.51 0 14:26 26.06.2021
6531 Clouds 5 1019 88 10000 1.19 299 11:44 26.06.2021
6532 Clouds 8 1019 78 10000 1.44 324 07:20 26.06.2021
6533 Clouds 19 1028 24 10000 3.09 40 22:26 25.06.2021
6534 Clouds 19 1030 26 10000 2.06 0 20:37 25.06.2021
6535 Clouds 15 1033 36 10000 2.06 0 18:57 25.06.2021
6536 Clouds 12 1034 47 10000 2.57 90 17:30 25.06.2021
6537 Clouds 8 1035 66 10000 2.57 100 16:22 25.06.2021
6538 Clouds 4 1033 81 10000 1.54 290 13:56 25.06.2021
6539 Clouds 6 1021 84 10000 1.06 317 10:29 25.06.2021
6540 Clouds 7 1021 83 10000 1.7 354 07:24 25.06.2021
6541 Clouds 7 1021 83 10000 1.7 354 06:31 25.06.2021
6542 Clouds 13 1029 30 10000 0 0 01:38 25.06.2021
6543 Clouds 19 1028 22 10000 3.6 290 21:48 24.06.2021
6544 Clouds 20 1029 21 10000 2.06 0 20:44 24.06.2021
6545 Clouds 20 1030 21 10000 0.51 10 20:19 24.06.2021
6546 Clouds 16 1033 29 10000 1.54 360 18:35 24.06.2021
6547 Clouds 8 1035 61 10000 0.51 0 15:23 24.06.2021
6548 Clouds 5 1035 75 10000 1.03 90 14:53 24.06.2021
6549 Clouds 1 1034 87 10000 0.51 100 13:23 24.06.2021
6550 Clear 7 1020 87 10000 1 231 10:23 24.06.2021
6551 Clear 7 1020 85 10000 0.84 240 08:32 24.06.2021
6552 Clouds 8 1020 83 10000 0.93 338 07:24 24.06.2021
6553 Clouds 18 1029 20 10000 3.09 280 00:27 24.06.2021
6554 Clouds 20 1030 18 10000 3.6 0 22:29 23.06.2021
6555 Clouds 20 1031 19 10000 2.06 0 21:24 23.06.2021
6556 Clouds 19 1032 26 10000 2.06 0 20:20 23.06.2021
6557 Clouds 15 1035 33 10000 1.03 0 18:31 23.06.2021
6558 Clouds 12 1037 47 10000 1.03 350 16:58 23.06.2021
6559 Clouds 4 1036 81 10000 1.54 110 14:31 23.06.2021
6560 Clouds 4 1024 88 10000 1.33 235 12:50 23.06.2021
6561 Clouds 5 1023 86 10000 1.02 258 11:38 23.06.2021
6562 Clouds 5 1022 84 10000 1.15 298 09:41 23.06.2021
6563 Clear 6 1023 84 10000 1.62 292 08:42 23.06.2021
6564 Clear 6 1023 84 10000 1.68 311 07:50 23.06.2021
6565 Clear 7 1022 84 10000 1.81 338 05:44 23.06.2021
6566 Clouds 11 1032 50 10000 4.12 320 02:19 23.06.2021
6567 Clouds 15 1030 36 10000 4.63 30 00:19 23.06.2021
6568 Clouds 16 1030 34 10000 4.63 40 23:46 22.06.2021
6569 Clouds 17 1029 25 10000 3.6 300 22:42 22.06.2021
6570 Clouds 18 1029 22 10000 2.57 360 21:46 22.06.2021
6571 Clouds 19 1030 21 10000 0.51 30 20:55 22.06.2021
6572 Clouds 17 1034 32 10000 2.57 260 19:22 22.06.2021
6573 Clouds 16 1034 31 10000 1.03 280 18:37 22.06.2021
6574 Clouds 14 1036 41 10000 1.03 360 17:40 22.06.2021
6575 Clouds 14 1036 41 10000 1.54 0 17:19 22.06.2021
6576 Clouds 9 1037 62 10000 2.06 120 15:40 22.06.2021
6577 Clouds 6 1035 70 10000 1.03 110 14:28 22.06.2021
6578 Clouds 6 1035 70 10000 2.06 100 13:40 22.06.2021
6579 Clouds 5 1024 86 10000 0.98 337 12:31 22.06.2021
6580 Clouds 5 1023 86 10000 1.46 319 10:52 22.06.2021
6581 Clouds 6 1022 85 10000 1.43 327 08:43 22.06.2021
6582 Clouds 14 1030 38 10000 1.54 360 00:57 22.06.2021
6583 Clouds 16 1030 34 10000 3.09 100 00:22 22.06.2021
6584 Clouds 18 1029 26 10000 4.63 30 22:52 21.06.2021
6585 Clouds 19 1029 24 10000 2.57 340 21:36 21.06.2021
6586 Clouds 20 1030 21 10000 3.09 340 20:50 21.06.2021
6587 Clouds 21 1030 21 10000 3.09 340 20:50 21.06.2021
6588 Clouds 20 1032 17 10000 1.03 320 19:55 21.06.2021
6589 Clouds 19 1033 24 10000 1.54 0 19:20 21.06.2021
6590 Clouds 16 1035 36 10000 1.03 70 17:54 21.06.2021
6591 Clouds 12 1036 47 10000 1.54 0 16:53 21.06.2021
6592 Clouds 10 1036 54 10000 1.03 0 16:27 21.06.2021
6593 Clouds 9 1036 53 10000 1.54 0 15:48 21.06.2021
6594 Clouds 1 1035 87 10000 0 0 14:25 21.06.2021
6595 Clouds 1 1035 87 10000 1.03 100 13:37 21.06.2021
6596 Clouds 5 1023 90 10000 0.63 294 12:51 21.06.2021
6597 Clouds 5 1022 90 10000 0.58 311 12:24 21.06.2021
6598 Clouds 6 1022 89 10000 0.95 278 10:33 21.06.2021
6599 Clouds 6 1022 87 10000 1.18 289 09:40 21.06.2021
6600 Clouds 7 1022 82 10000 1.69 291 08:29 21.06.2021
6601 Clouds 7 1022 83 10000 1.69 291 07:55 21.06.2021
6602 Clouds 15 1031 33 10000 5.66 290 00:50 21.06.2021
6603 Clouds 18 1030 26 10000 2.06 350 23:38 20.06.2021
6604 Clouds 19 1030 22 10000 4.12 260 22:59 20.06.2021
6605 Clouds 21 1031 23 10000 3.09 0 22:29 20.06.2021
6606 Clouds 20 1031 21 10000 2.06 0 21:34 20.06.2021
6607 Clouds 17 1033 24 10000 0.51 0 19:55 20.06.2021
6608 Clouds 17 1034 29 10000 1.03 0 19:33 20.06.2021
6609 Clouds 16 1035 34 10000 1.03 0 18:35 20.06.2021
6610 Clouds 12 1037 47 10000 1.54 0 16:58 20.06.2021
6611 Clouds 12 1038 50 10000 1.03 0 16:28 20.06.2021
6612 Clouds 8 1038 61 10000 1.03 70 15:35 20.06.2021
6613 Clouds 5 1038 75 10000 0 0 14:55 20.06.2021
6614 Clouds 0 1037 86 10000 0 0 13:53 20.06.2021
6615 Clouds 5 1025 90 10000 1.07 272 12:58 20.06.2021
6616 Clouds 5 1025 89 10000 1.3 280 11:47 20.06.2021
6617 Clouds 5 1024 88 10000 1.55 292 10:52 20.06.2021
6618 Clouds 5 1024 86 10000 1.59 293 09:48 20.06.2021
6619 Clouds 6 1023 85 10000 1.6 301 08:36 20.06.2021
6620 Clouds 17 1031 29 10000 6.17 290 00:31 20.06.2021
6621 Clouds 18 1030 30 10000 2.57 30 23:24 19.06.2021
6622 Clouds 17 1030 27 10000 3.09 300 22:29 19.06.2021
6623 Clouds 18 1031 26 10000 3.6 290 21:44 19.06.2021
6624 Clouds 16 1034 27 10000 1.54 0 19:22 19.06.2021
6625 Clouds 16 1034 31 10000 1.54 0 18:39 19.06.2021
6626 Clouds 13 1036 44 10000 1.03 300 17:45 19.06.2021
6627 Clouds 12 1036 50 10000 1.54 0 16:58 19.06.2021
6628 Clouds 7 1037 71 10000 1.54 90 15:45 19.06.2021
6629 Clouds 1 1036 87 10000 1.03 90 13:45 19.06.2021
6630 Clouds 4 1024 89 10000 1.29 301 12:43 19.06.2021
6631 Clouds 5 1023 89 10000 1.3 294 11:18 19.06.2021
6632 Clouds 5 1023 89 10000 1.3 294 10:36 19.06.2021
6633 Clouds 5 1022 87 10000 1.57 291 10:18 19.06.2021
6634 Clouds 6 1022 84 10000 1.71 304 08:33 19.06.2021
6635 Clouds 6 1022 83 10000 1.39 325 07:40 19.06.2021
6636 Clouds 7 1021 81 10000 1.64 337 05:42 19.06.2021
6637 Clouds 18 1029 26 10000 4.63 270 00:25 19.06.2021
6638 Clouds 18 1029 26 10000 4.63 290 23:58 18.06.2021
6639 Clouds 19 1029 24 10000 5.14 290 22:57 18.06.2021
6640 Clouds 19 1029 24 10000 5.14 290 22:36 18.06.2021
6641 Clouds 20 1029 21 10000 3.6 0 21:52 18.06.2021
6642 Clouds 19 1030 24 10000 2.06 0 21:27 18.06.2021
6643 Clouds 17 1032 32 10000 2.57 270 20:33 18.06.2021
6644 Clouds 16 1034 31 10000 2.06 0 18:50 18.06.2021
6645 Clouds 14 1035 38 10000 1.54 0 17:59 18.06.2021
6646 Clouds 12 1036 50 10000 2.06 0 16:48 18.06.2021
6647 Clouds 9 1036 66 10000 1.54 0 15:49 18.06.2021
6648 Clouds 7 1036 71 10000 1.03 100 14:51 18.06.2021
6649 Clouds 7 1024 79 10000 1.11 292 13:56 18.06.2021
6650 Clouds 5 1024 85 10000 1.25 301 13:20 18.06.2021
6651 Clouds 5 1024 85 10000 1.25 301 12:42 18.06.2021
6652 Clouds 5 1023 87 10000 1.35 297 11:48 18.06.2021
6653 Clouds 5 1022 87 10000 1.43 300 10:59 18.06.2021
6654 Clouds 5 1022 87 10000 1.43 300 10:36 18.06.2021
6655 Clouds 5 1022 85 10000 1.32 317 10:18 18.06.2021
6656 Clouds 6 1022 84 10000 1.24 346 09:23 18.06.2021
6657 Clouds 6 1022